ECMWFFLT1_sfc_dewp_000.txt.gz
Dewpoint
59 63 63 64 66 67 68 69 69 70 70 70 71 71 71 72 72 72 71 70 69 67 67 67 66 65 64 64 65 64 62 62 62 63 62 62 65 66 64 64 63 63 62 62 64 65 65 67 65 65 67 66 66 65 65 66 66 67 67 66 67 67 66
58 62 63 64 65 67 68 69 69 70 70 70 70 71 71 71 72 72 71 70 68 67 66 66 67 65 65 64 64 64 62 62 64 66 63 66 66 65 65 64 63 63 64 63 63 64 65 65 65 65 66 67 65 65 65 65 65 65 65 65 66 65 66
56 61 63 64 65 66 68 69 70 70 70 69 70 70 70 71 71 71 70 69 68 67 66 66 67 65 66 64 64 64 62 62 65 64 64 64 64 62 62 64 62 63 63 63 63 63 66 64 64 65 66 65 64 64 65 64 65 65 65 65 65 66 65
56 59 62 64 64 66 68 69 70 70 69 69 70 70 70 71 71 71 70 69 67 66 66 66 66 66 66 64 63 63 62 63 64 64 63 64 63 62 62 64 63 62 62 63 64 66 65 65 64 64 69 65 64 65 65 65 65 64 65 65 65 65 65
56 58 60 62 64 66 68 69 70 70 69 69 69 70 70 70 71 70 69 68 67 66 66 66 66 66 66 65 63 63 62 63 63 62 63 63 63 63 63 63 62 63 62 63 64 66 65 64 63 63 64 64 64 64 65 64 64 65 65 65 65 65 65
57 58 60 61 63 65 68 69 69 69 69 69 69 69 69 70 70 69 68 68 67 66 66 66 66 67 66 65 63 63 63 63 62 62 62 63 64 63 63 63 62 63 63 63 65 65 64 64 64 64 63 64 64 63 63 63 63 64 64 64 63 63 64
57 58 59 60 62 65 67 68 69 69 69 69 69 69 69 69 69 69 68 67 66 66 65 65 66 66 66 65 64 64 63 63 63 62 62 64 64 63 62 62 64 63 63 64 64 65 65 64 64 64 64 63 64 63 63 63 63 64 64 63 63 63 64
56 57 59 60 61 64 66 67 68 68 68 68 68 68 68 69 69 68 67 67 66 65 65 65 66 66 66 66 65 64 63 63 63 63 64 64 64 63 62 62 63 63 63 63 63 64 64 63 63 64 63 63 63 64 64 64 63 64 63 63 63 63 64
56 57 58 59 60 62 65 66 67 68 67 67 68 68 68 69 68 68 67 66 65 65 64 64 65 66 67 66 65 64 64 63 64 63 63 64 64 63 62 63 63 64 64 63 63 64 63 63 63 63 63 63 63 63 63 63 62 63 63 63 63 63 63
55 56 58 59 59 61 63 65 66 67 67 67 68 68 68 68 68 67 67 66 65 64 64 64 65 66 67 66 66 65 65 64 64 63 63 63 64 64 63 63 63 65 64 64 63 63 64 65 64 64 64 63 63 63 62 61 62 62 63 63 63 63 63
56 58 58 59 59 60 62 64 65 66 67 67 68 68 68 68 67 66 66 66 65 64 64 65 66 66 67 66 65 65 65 64 64 63 63 63 63 63 63 63 63 64 64 64 64 64 64 65 65 64 64 63 63 61 61 61 61 62 63 63 63 63 63
57 59 59 59 59 60 61 63 65 66 67 67 68 68 67 67 67 66 66 66 65 65 64 65 66 66 66 66 65 65 65 64 64 64 63 63 64 64 64 64 64 64 64 65 64 64 64 63 63 64 63 62 61 61 62 62 62 62 62 63 64 64 63
59 61 60 59 59 60 62 63 65 67 67 67 67 68 67 66 66 65 66 66 65 65 65 65 66 67 66 65 65 65 64 64 64 64 64 64 64 65 65 64 63 62 63 65 64 63 62 62 61 61 62 62 62 61 61 61 62 62 63 63 63 63 62
65 61 61 60 60 61 62 63 65 66 67 67 67 67 67 66 65 65 65 65 65 65 65 65 66 67 66 65 65 65 64 64 65 64 64 65 65 65 64 64 63 62 61 62 61 60 60 60 60 60 62 62 61 62 63 63 61 61 62 63 63 63 62
61 61 61 60 60 61 62 63 65 66 66 66 66 67 66 65 65 65 65 65 65 64 64 65 66 66 66 65 65 65 65 66 65 65 65 65 65 64 64 64 63 62 61 61 60 60 58 59 60 61 61 62 63 62 63 61 62 63 63 63 62 62 62
60 62 62 61 60 60 62 62 64 65 66 66 66 66 66 65 65 64 64 64 64 64 64 64 65 66 66 65 65 66 65 65 65 64 64 64 64 64 64 63 63 62 62 62 62 62 63 61 61 61 61 61 62 61 61 61 62 64 63 63 62 61 62
56 62 62 62 61 60 60 61 63 64 65 66 66 65 66 65 64 64 63 63 63 64 64 64 65 66 65 65 65 65 65 65 64 64 64 64 64 64 64 63 63 63 62 62 62 62 62 63 62 61 62 62 62 61 61 63 63 62 61 61 63 63 61
54 56 59 62 63 62 61 61 61 62 64 65 65 65 65 65 64 63 63 63 62 63 63 63 64 65 65 66 66 66 65 65 64 64 63 64 64 64 64 64 63 62 62 62 62 62 63 63 63 63 62 63 62 60 60 61 62 60 60 60 60 62 62
51 55 57 58 63 63 63 62 62 62 63 65 65 65 65 65 64 63 63 63 62 63 64 63 64 66 66 65 65 65 66 65 63 63 63 63 64 64 63 63 62 62 62 62 62 62 63 63 63 63 63 62 61 60 60 60 61 59 59 59 58 59 60
54 55 58 61 62 64 64 64 63 63 63 64 65 65 65 65 64 63 62 62 63 63 63 64 64 65 65 65 65 66 65 64 63 63 63 63 63 63 63 62 62 62 62 62 63 63 63 63 63 63 63 62 62 61 60 59 59 59 58 57 57 58 59
51 51 54 60 63 64 64 64 64 64 64 64 65 65 65 64 64 63 63 63 63 63 64 64 65 65 64 64 65 65 65 65 65 63 63 63 63 63 63 62 62 62 62 62 62 63 63 63 63 63 63 63 62 61 59 61 59 57 56 55 55 56 58
51 51 51 53 60 64 64 64 64 64 65 66 66 65 65 64 64 63 61 62 63 64 65 65 64 63 63 63 64 65 64 65 64 64 63 63 63 63 62 62 62 62 62 62 62 62 62 63 63 63 63 61 61 61 61 63 59 56 55 55 54 56 58
52 54 54 56 55 55 64 65 65 65 65 66 66 66 65 64 63 62 61 61 63 63 63 63 63 63 64 64 64 63 64 64 64 63 63 63 62 62 62 62 62 62 62 62 62 61 62 62 62 61 63 61 61 60 61 61 59 55 54 53 54 55 56
49 52 57 62 62 61 61 65 65 65 65 66 65 65 64 63 61 62 62 62 62 61 61 62 63 64 63 62 64 65 64 64 63 63 62 62 62 62 62 62 62 62 63 62 61 62 62 62 62 62 62 62 61 62 61 60 59 54 52 52 53 56 56
57 58 57 58 63 66 68 68 66 65 64 64 63 63 64 64 63 63 63 63 62 61 61 62 62 63 63 64 65 65 64 64 63 62 62 62 62 62 61 62 62 62 63 62 63 63 62 63 62 61 60 60 60 63 60 59 56 53 52 52 52 56 55
56 58 58 59 65 68 68 67 65 63 63 63 64 65 65 65 64 64 64 63 62 62 61 61 61 61 63 64 64 64 62 60 61 62 61 61 61 62 62 62 62 62 63 62 63 63 62 62 61 60 60 60 60 60 58 57 57 59 51 51 52 54 58
55 59 59 63 67 67 63 63 64 64 63 64 64 64 64 64 64 63 62 63 63 62 62 62 62 64 63 62 64 62 60 59 60 62 62 61 61 61 62 62 62 63 63 63 62 62 61 61 61 62 59 59 59 59 58 57 56 59 51 51 51 53 56
52 59 66 67 66 64 62 62 63 63 63 64 64 64 63 63 62 62 63 63 62 62 62 61 61 62 62 62 63 62 60 59 62 63 62 61 61 61 62 63 64 63 61 61 61 60 59 61 60 59 59 58 58 58 57 60 61 57 53 51 49 51 53
54 52 63 65 64 64 62 61 62 62 63 63 64 64 63 62 62 62 63 62 62 62 62 62 63 64 63 62 62 62 61 62 63 63 62 62 63 63 62 61 61 62 62 62 61 60 59 60 59 58 57 56 56 57 57 56 59 58 54 49 47 47 49
60 64 63 65 66 64 62 61 61 61 62 62 62 63 63 63 63 62 62 61 62 62 61 63 63 64 63 63 63 62 61 61 64 63 62 62 63 62 60 61 61 60 58 58 58 59 59 58 58 57 56 56 56 57 57 56 56 58 56 52 49 48 47
58 57 58 62 65 66 62 60 60 60 61 61 62 62 62 63 62 63 62 61 63 61 61 62 63 63 62 62 62 62 60 61 60 60 60 61 60 59 60 58 59 58 58 57 56 58 59 57 56 55 55 55 56 55 55 57 57 56 56 54 53 50 49
57 59 61 63 65 65 62 59 60 60 60 60 60 60 61 61 61 61 61 63 62 61 62 61 61 61 62 63 61 60 60 59 59 59 60 59 59 58 58 57 58 57 57 59 60 59 57 56 54 53 54 54 54 54 54 56 56 54 53 54 52 52 51
56 58 60 62 64 64 60 59 60 59 60 61 63 62 62 62 61 60 62 62 63 63 61 61 61 62 60 59 59 59 60 59 59 58 57 57 58 59 60 56 58 60 60 60 58 57 56 57 57 56 55 54 54 55 57 57 52 51 50 50 49 49 51
58 58 58 61 63 61 60 59 60 61 59 58 60 61 62 61 61 61 62 63 63 62 62 61 60 59 59 60 58 58 59 61 64 59 54 52 53 55 56 57 58 58 58 58 57 56 55 56 57 56 56 55 54 55 57 55 50 49 49 49 50 48 47
59 59 59 59 60 61 60 61 59 57 56 58 60 61 61 62 64 64 63 62 61 60 60 60 59 58 58 61 61 63 62 62 60 54 52 51 50 49 49 50 52 52 50 49 49 51 54 53 53 54 53 55 55 56 56 54 51 50 48 52 47 48 47
61 60 60 60 60 60 61 59 56 56 58 59 60 61 62 62 60 59 59 57 56 56 58 61 63 61 61 62 63 61 62 60 58 53 52 51 51 50 49 47 42 44 50 49 48 46 46 49 51 51 52 48 47 51 55 54 50 48 43 42 41 40 40
61 61 61 60 59 58 56 56 56 57 57 58 59 61 61 60 59 59 58 60 59 58 57 58 61 61 61 62 60 61 60 58 55 53 52 51 51 51 50 48 48 41 40 44 45 42 39 40 43 47 49 51 46 47 47 47 43 41 41 39 38 38 38
61 60 60 59 58 57 57 57 56 56 57 57 59 59 59 59 59 59 60 60 61 60 58 58 59 61 60 61 60 59 59 55 55 54 52 52 51 51 51 49 49 48 43 40 40 41 39 38 39 41 43 45 47 45 46 43 40 39 38 38 38 38 38

ECMWFFLT1_sfc_dewp_003.txt.gz
Dewpoint
60 61 62 64 65 66 67 68 68 69 70 70 70 71 71 71 72 72 72 72 72 71 71 69 67 66 65 63 63 63 62 62 63 61 61 61 63 65 64 64 64 63 62 61 62 65 65 66 65 65 65 64 64 64 64 65 66 67 66 65 65 65 65
58 61 62 64 65 66 68 69 69 69 69 70 70 70 71 71 71 72 71 72 72 71 70 69 67 65 64 63 63 63 62 63 63 64 62 63 66 65 64 63 63 63 62 62 64 65 65 65 65 64 65 66 65 64 64 64 64 63 64 63 63 63 64
57 60 62 64 65 66 67 69 69 69 69 69 70 70 71 71 71 71 71 71 71 71 70 68 67 65 64 63 63 63 62 62 62 62 61 62 64 64 64 63 63 62 62 62 64 64 65 64 64 64 65 65 66 64 64 64 64 64 64 64 64 64 64
56 58 62 64 65 66 67 68 69 69 69 69 70 70 71 71 71 71 71 71 71 71 70 68 67 65 64 63 63 63 61 61 62 62 61 62 63 64 64 63 62 62 63 62 63 63 65 65 64 64 69 65 64 64 63 64 64 64 64 64 64 64 64
56 57 60 63 64 65 67 68 69 69 69 69 70 70 71 71 71 71 71 71 71 70 70 68 67 65 64 64 64 63 61 61 62 62 62 63 63 62 62 62 61 62 62 62 63 65 64 64 63 63 64 65 64 63 64 64 64 64 64 63 63 64 64
55 56 60 62 63 64 66 68 68 69 69 69 69 70 70 71 71 71 71 71 71 70 69 68 67 66 64 64 64 63 62 62 62 62 62 63 62 61 61 62 61 61 61 61 64 64 64 64 63 63 63 64 64 64 63 63 63 63 63 63 63 63 63
54 55 58 61 63 64 65 67 68 69 69 69 69 70 70 70 70 70 70 70 70 69 68 67 66 66 65 64 63 63 61 61 62 62 62 63 62 62 62 61 63 61 61 63 63 64 64 63 63 64 64 63 64 63 62 62 62 63 62 62 63 63 62
54 55 57 60 62 63 64 66 68 68 69 69 69 69 70 70 70 70 70 70 70 69 68 67 66 66 65 64 63 62 61 61 62 62 62 62 62 62 62 62 63 62 62 62 62 64 64 64 64 64 64 63 62 62 63 63 63 63 62 63 62 62 63
54 55 56 58 61 62 64 66 67 68 69 69 69 69 69 70 69 69 70 69 69 68 68 66 66 66 66 64 63 62 62 62 61 61 61 62 62 62 62 62 63 63 62 62 62 64 64 64 64 64 63 62 62 62 62 62 63 63 62 62 61 61 62
54 55 56 58 59 61 63 65 67 68 68 69 69 69 69 69 69 69 69 69 69 68 67 67 65 65 65 64 63 62 61 62 62 61 61 61 62 62 62 62 62 63 62 62 62 63 64 63 63 63 62 62 62 62 62 62 62 62 61 62 62 62 62
55 56 57 58 59 60 62 64 66 67 68 69 69 69 69 69 69 69 69 69 68 68 67 66 65 65 65 64 63 62 61 62 62 61 62 61 62 63 62 62 62 63 63 63 63 63 63 64 64 63 63 63 63 63 62 63 62 61 61 61 62 62 62
55 56 57 58 59 59 61 63 65 67 68 69 69 69 69 69 69 69 69 69 68 67 67 66 65 65 64 64 63 63 61 62 62 62 62 62 62 63 63 62 62 63 64 64 63 63 63 63 64 64 63 63 63 63 63 62 61 61 61 61 61 62 62
55 56 57 58 59 59 60 62 64 66 67 68 68 68 68 68 68 68 69 68 68 67 66 66 65 65 65 64 63 63 62 62 62 63 62 62 62 63 63 63 63 63 63 64 63 63 63 63 63 64 64 63 63 62 62 61 61 61 61 61 61 62 62
60 56 57 58 58 59 59 61 63 65 66 67 68 68 68 68 68 68 68 68 67 67 66 65 65 65 65 65 64 64 63 63 63 63 62 62 63 63 63 63 63 63 63 64 64 63 63 63 63 63 63 63 62 62 62 61 61 61 61 62 62 62 61
55 55 56 57 57 58 59 60 62 64 65 67 67 67 68 68 68 68 68 68 67 66 66 65 65 65 65 65 64 64 64 64 63 63 63 63 63 63 63 64 64 64 63 64 64 64 64 63 63 62 61 61 61 61 62 62 62 62 62 61 61 61 61
55 55 56 56 57 58 59 60 61 63 64 66 67 67 67 67 68 68 68 67 67 66 66 65 65 65 65 65 65 65 65 64 64 64 63 64 64 63 64 64 64 64 63 63 63 63 63 61 61 60 60 60 61 61 62 62 62 63 62 62 62 61 61
55 56 56 57 58 58 59 60 61 62 64 65 66 67 67 67 67 67 67 67 66 66 66 65 65 65 65 65 65 65 64 65 65 65 64 64 64 64 64 64 64 64 63 63 62 62 61 61 60 60 60 60 60 60 61 62 62 61 60 61 63 62 60
57 57 58 59 60 60 60 61 61 62 63 64 66 66 67 67 67 67 67 66 66 66 66 65 65 65 65 65 65 65 65 65 65 64 64 65 65 64 64 64 64 64 63 63 62 62 62 62 61 61 61 61 61 61 61 61 61 59 60 61 62 63 62
57 59 60 61 61 61 60 61 61 62 63 65 66 66 67 67 67 67 67 66 66 66 65 65 65 65 65 65 65 64 65 65 64 64 64 65 65 65 64 64 64 63 63 62 62 62 62 62 62 61 61 61 61 61 62 62 61 59 59 60 60 61 61
57 60 61 62 62 62 61 61 61 62 63 65 66 66 67 67 67 67 66 65 65 65 65 65 65 65 66 65 65 65 66 65 64 63 63 64 64 64 64 64 63 63 63 63 63 62 62 62 61 61 62 62 62 61 61 61 60 59 58 58 58 58 60
56 60 61 62 62 63 62 62 61 61 62 63 64 66 66 66 67 66 63 63 63 63 64 64 64 65 65 65 65 65 65 63 62 62 63 64 64 64 64 64 63 63 63 62 62 62 62 61 61 61 62 62 62 62 62 62 59 57 57 56 56 57 59
55 58 58 59 61 62 63 63 62 61 62 63 64 65 66 66 66 65 62 63 63 62 62 64 64 65 65 65 65 65 64 63 61 62 63 64 64 65 65 64 63 62 62 62 62 62 62 62 61 61 62 62 61 61 61 61 58 57 56 56 55 57 58
54 55 55 58 60 60 63 64 64 63 63 63 64 64 65 65 65 63 62 62 63 63 63 64 64 64 65 65 65 65 65 64 64 65 65 65 64 65 65 64 63 62 63 62 62 61 61 61 62 63 62 61 61 60 60 60 59 56 55 55 55 55 56
51 53 54 56 58 58 63 64 65 65 65 65 64 64 65 65 64 63 62 62 63 63 64 63 63 64 65 65 65 65 65 65 65 64 64 63 64 65 64 63 63 62 63 62 61 61 61 62 62 61 62 61 61 62 60 60 59 56 55 54 55 55 55
54 57 58 57 57 56 63 65 65 65 66 65 65 65 64 64 63 62 62 63 63 64 63 63 62 63 64 64 64 64 65 66 66 65 64 62 63 65 64 63 63 62 63 62 62 62 62 62 62 61 61 62 62 63 62 61 59 56 54 54 53 55 54
58 58 62 66 66 63 64 66 66 64 65 65 65 65 64 63 63 63 62 63 63 63 63 62 63 63 63 63 64 64 65 66 65 64 64 63 63 64 64 64 63 63 61 61 62 62 62 62 61 60 60 60 61 61 62 61 59 60 53 52 51 53 56
59 60 63 66 66 68 65 64 64 64 64 65 65 64 64 63 62 63 63 62 62 62 62 62 62 63 63 64 64 65 65 66 65 64 63 63 63 63 63 63 61 61 62 62 62 62 61 61 60 60 59 60 60 59 58 58 56 56 51 50 51 52 55
60 65 66 67 66 63 62 62 62 62 63 63 64 64 63 63 62 62 62 61 61 62 62 62 62 62 63 64 64 65 65 65 64 64 63 63 63 62 61 60 61 62 62 62 61 60 60 59 59 58 59 59 58 57 56 60 60 55 52 50 49 50 53
54 60 63 63 63 63 62 61 62 62 63 64 64 64 63 63 62 62 62 61 62 62 63 63 63 63 63 65 64 64 64 64 63 62 62 62 62 61 61 62 62 61 61 59 60 58 58 59 59 58 58 58 56 55 56 56 58 57 56 50 48 49 50
59 62 63 65 65 63 63 61 61 62 62 63 63 63 63 63 63 63 61 60 62 63 63 63 64 64 63 64 64 64 64 64 64 62 62 64 62 62 61 61 61 61 60 59 58 57 57 59 58 57 57 56 55 55 56 56 57 56 55 52 48 46 46
57 58 61 64 64 63 62 61 61 61 61 61 62 62 62 62 62 62 61 61 63 63 63 63 64 64 63 63 63 64 64 64 63 63 63 63 63 61 61 61 60 59 59 58 56 57 57 58 57 57 56 55 55 55 55 57 56 55 55 53 50 48 47
56 57 61 63 63 62 60 60 61 61 60 61 61 61 61 62 62 62 61 63 63 63 63 64 63 64 63 63 63 64 64 63 63 63 62 62 61 61 60 60 59 58 57 56 56 58 58 57 56 56 55 54 53 54 54 56 56 54 53 54 53 51 50
58 58 58 60 62 63 60 60 60 60 61 61 60 59 60 61 62 62 62 62 62 62 62 62 62 63 62 62 62 62 63 62 61 60 60 60 60 59 59 57 57 57 57 58 58 57 57 57 56 55 54 53 53 54 55 56 55 53 50 49 47 49 50
58 58 59 60 61 61 59 60 60 61 61 60 60 59 59 60 60 58 56 56 57 59 60 61 59 57 57 58 60 61 61 61 62 57 55 54 55 57 57 58 59 58 58 58 57 57 56 55 55 54 54 54 53 54 55 56 55 52 50 48 48 48 45
59 59 59 60 60 60 60 60 60 60 60 60 60 59 58 57 56 57 58 57 57 57 56 57 60 60 60 60 62 62 62 60 59 57 56 55 52 49 48 49 52 54 52 50 49 53 56 55 55 56 55 54 54 54 54 54 54 54 49 51 49 47 47
59 60 60 60 61 60 60 60 60 60 60 60 59 55 54 54 53 54 56 57 57 58 59 59 59 59 60 59 57 57 59 59 59 57 56 55 53 51 49 47 42 44 51 50 48 46 44 50 53 55 54 53 50 51 53 53 53 49 44 40 40 40 40
60 61 59 60 59 58 58 59 61 61 60 59 56 54 54 53 53 53 54 55 57 55 56 57 59 59 60 60 58 58 58 59 59 57 56 55 53 51 50 48 48 41 41 44 45 42 40 42 45 47 50 53 47 47 47 47 43 41 40 39 38 39 39
62 61 60 60 58 57 58 60 60 60 60 58 56 54 54 55 55 55 56 57 57 56 56 57 58 58 58 59 60 59 59 59 58 55 53 52 51 51 51 50 49 48 44 41 41 41 39 40 41 42 43 46 48 46 45 42 39 39 38 38 38 38 38

ECMWFFLT1_sfc_dewp_006.txt.gz
Dewpoint
55 57 59 61 62 63 64 66 67 67 68 68 69 69 70 70 70 71 71 71 71 71 72 72 72 72 72 72 71 69 67 66 66 65 65 64 64 64 63 63 65 65 65 65 65 66 67 67 67 67 66 67 65 65 66 68 67 68 67 68 68 68 67
56 57 58 60 62 63 64 66 67 68 68 68 69 70 70 70 71 71 71 71 71 71 71 72 72 71 71 71 69 67 65 64 65 66 64 64 65 64 64 64 65 65 65 65 65 66 67 67 66 66 66 67 65 65 66 66 67 67 67 66 66 66 67
56 57 58 60 62 63 64 65 67 68 68 68 69 69 70 70 71 71 71 71 71 71 71 71 72 71 70 69 68 66 64 63 64 63 62 62 64 64 64 65 65 64 64 64 65 66 67 66 66 66 65 66 66 65 65 65 66 66 66 66 66 66 66
56 57 59 60 62 63 64 65 66 67 68 69 69 69 70 70 71 71 71 71 71 71 71 71 71 70 70 68 67 65 64 63 63 63 62 62 64 64 64 64 64 64 64 63 65 66 66 66 65 65 68 66 66 66 65 65 65 65 66 66 66 66 66
55 57 59 60 61 63 64 65 66 67 68 68 69 70 70 70 71 71 71 71 71 71 71 71 71 70 69 68 66 65 64 63 63 63 62 62 64 64 64 64 63 63 63 63 65 66 66 65 65 65 66 66 65 66 66 65 65 66 66 66 66 65 66
54 57 59 60 61 62 64 65 66 67 67 68 69 69 70 70 70 70 71 71 71 71 71 71 70 70 68 67 66 65 64 63 63 63 62 63 64 64 63 63 63 63 63 63 65 64 65 65 65 65 64 65 65 65 65 65 65 65 66 65 65 65 65
54 56 58 60 62 62 64 65 66 67 68 68 69 69 69 69 70 70 70 70 70 70 70 70 70 69 68 67 66 65 63 63 63 63 62 63 63 63 63 63 64 63 63 64 63 64 64 64 65 65 65 64 66 65 65 65 65 65 65 64 65 65 65
54 55 57 60 61 62 63 65 66 67 68 68 68 69 69 69 70 69 70 70 70 70 70 70 70 69 68 67 66 65 63 62 62 62 62 62 62 62 63 63 63 63 63 62 63 64 63 64 64 65 65 64 65 65 65 65 64 64 64 65 64 64 64
53 55 57 58 60 62 63 65 66 67 68 69 69 69 69 69 69 69 70 70 70 70 70 69 69 69 68 67 65 65 63 62 62 62 62 62 61 61 61 62 63 63 63 62 62 64 64 64 64 65 65 65 65 65 65 64 64 65 64 65 64 64 63
54 55 57 58 60 61 63 65 66 67 68 69 69 69 69 69 69 69 69 70 70 70 70 69 69 68 67 66 65 64 63 62 62 62 61 60 61 60 61 61 62 63 63 62 62 63 64 64 64 65 65 64 65 64 64 64 64 64 64 64 64 63 63
54 56 56 57 59 61 63 64 65 67 68 68 69 69 69 69 69 69 70 70 69 70 70 70 69 68 67 66 65 64 63 62 62 61 61 60 60 60 61 60 61 63 62 62 62 62 63 65 65 65 64 64 64 64 64 64 64 64 64 64 64 63 63
55 55 56 57 58 60 62 64 65 66 67 68 69 69 69 69 69 69 69 70 70 69 70 69 68 67 67 66 65 64 62 62 61 61 60 60 60 60 60 60 62 62 62 62 62 62 62 63 64 64 64 64 64 64 64 64 64 64 64 63 63 64 63
54 55 56 56 58 59 62 63 64 65 67 67 68 69 69 69 69 69 70 70 69 70 69 69 68 67 66 66 65 64 63 62 61 62 61 63 62 63 64 61 61 61 62 63 62 62 62 63 63 65 64 64 64 64 64 64 64 64 63 63 63 63 63
59 55 56 57 58 58 60 62 64 65 66 67 68 69 69 69 69 69 69 69 69 69 69 69 69 67 66 66 65 65 63 62 63 65 65 64 64 63 63 63 63 62 63 64 62 62 62 63 63 63 64 64 64 64 64 64 63 63 63 63 63 63 63
55 54 55 56 57 58 59 60 62 64 65 66 67 68 69 69 69 70 70 69 70 69 69 69 68 67 66 65 65 65 65 63 63 65 64 64 64 64 64 64 63 63 63 64 64 63 63 63 63 63 64 64 64 64 64 64 63 63 63 63 63 63 63
53 54 54 55 57 57 59 59 61 63 64 66 67 68 68 69 69 69 69 69 69 69 69 69 68 68 67 65 65 66 65 65 65 65 64 63 63 64 64 63 63 63 63 64 64 64 64 64 64 64 63 63 63 64 63 63 63 63 61 62 63 63 63
53 54 54 55 57 57 58 60 61 62 63 65 66 67 68 69 69 69 69 69 69 69 69 68 68 68 67 66 66 66 65 65 65 65 64 63 64 64 64 64 64 64 64 64 64 64 65 64 64 63 63 63 63 62 63 63 62 61 60 61 62 63 63
53 54 55 55 56 57 58 59 60 61 62 63 65 67 67 68 69 69 69 69 69 68 68 68 67 67 67 67 67 66 65 65 64 64 64 64 64 64 64 65 65 64 64 64 63 64 64 64 63 63 63 62 61 61 61 62 60 59 59 60 61 62 64
52 54 55 56 57 58 58 58 59 61 62 63 64 66 67 68 68 68 69 69 69 69 68 67 67 67 67 67 67 66 65 65 64 64 64 64 65 65 65 64 64 65 64 64 64 63 63 63 63 62 62 61 61 60 61 61 60 59 59 60 60 60 62
53 54 55 56 57 58 59 60 61 61 62 63 64 64 66 67 67 68 69 69 69 68 68 67 67 67 67 67 66 66 65 65 65 64 64 65 65 65 65 64 64 64 64 64 64 63 63 63 62 62 62 62 61 62 62 62 60 59 59 58 59 59 61
55 57 57 59 60 60 61 61 62 62 63 63 63 65 66 67 67 68 68 68 68 68 68 67 67 67 67 66 66 66 66 65 65 65 65 65 65 65 65 65 65 65 65 64 64 63 63 63 62 62 63 62 62 62 63 63 60 58 57 57 57 58 60
57 59 60 61 61 62 62 61 62 61 62 63 64 65 66 66 67 67 67 67 67 67 67 67 66 66 67 66 66 66 65 65 64 64 64 64 65 64 63 64 64 65 66 66 65 64 64 63 63 62 62 63 63 64 63 62 59 58 57 56 56 58 61
58 60 61 62 62 62 63 62 62 62 63 63 64 65 66 66 67 67 66 65 65 65 65 66 66 66 66 66 66 65 65 65 64 64 64 64 64 63 63 63 65 65 66 65 65 65 64 63 62 63 63 63 63 63 63 62 60 56 55 55 55 56 60
57 58 59 61 61 62 63 64 64 65 63 63 63 64 65 66 66 67 66 64 64 64 64 65 65 66 66 66 66 66 66 64 64 64 64 63 62 63 64 64 65 65 66 65 65 64 63 63 63 63 63 63 63 63 62 62 60 56 54 54 55 57 60
57 59 60 59 58 59 63 64 64 65 65 64 64 64 65 66 66 65 65 64 63 63 63 64 65 65 66 66 66 66 66 65 65 64 63 63 63 63 62 62 63 64 65 65 65 64 63 63 62 62 63 63 63 63 62 62 60 57 56 56 55 57 59
63 65 65 66 64 61 64 67 67 65 64 65 65 65 66 66 65 66 65 64 63 63 63 64 64 65 66 66 66 66 66 65 65 65 64 63 63 63 63 63 63 64 64 64 63 64 63 64 62 62 61 62 63 62 62 63 62 62 57 55 53 55 59
64 65 65 65 66 67 65 65 64 64 64 65 65 65 65 64 64 64 64 63 63 63 63 63 64 65 65 65 65 65 66 66 64 62 61 62 62 62 63 64 64 64 63 63 62 62 62 62 62 61 61 61 61 61 60 60 60 60 53 51 51 53 55
63 63 64 66 65 64 63 63 63 63 63 64 64 64 64 64 64 63 63 62 62 63 63 64 64 65 65 65 65 65 65 64 63 62 61 62 62 60 60 63 64 63 64 63 62 61 62 61 60 60 61 60 60 60 60 60 61 59 53 51 49 50 53
60 63 64 64 63 64 63 62 62 63 63 63 63 64 64 63 63 63 62 62 62 63 63 63 64 64 65 65 65 64 64 64 63 63 62 62 62 62 62 63 63 63 63 62 62 61 61 61 61 60 59 58 58 58 59 59 61 57 56 50 48 48 50
59 61 63 64 63 63 62 62 62 62 62 62 63 64 64 63 62 63 62 62 63 63 63 64 64 64 64 64 64 63 63 63 64 64 63 63 63 63 63 63 63 63 62 62 61 61 60 60 59 59 58 57 58 57 58 58 59 57 55 53 49 48 47
58 60 62 63 63 63 61 61 61 61 61 62 63 63 63 63 63 63 62 62 63 63 63 64 64 64 64 64 64 63 64 64 64 64 64 64 64 63 63 63 63 62 62 62 62 60 59 59 58 58 58 58 57 58 57 57 57 57 56 53 49 46 45
58 59 61 63 62 61 61 61 61 61 61 61 61 63 63 63 62 62 62 63 64 63 63 63 64 64 63 63 64 64 64 64 64 64 64 64 64 64 63 62 61 61 60 60 59 59 58 58 58 58 57 57 58 58 57 57 56 56 55 54 52 50 49
58 59 60 61 63 63 61 61 61 61 60 60 61 61 62 62 62 62 63 63 63 63 63 63 63 64 64 63 64 64 64 64 63 63 62 61 62 62 62 61 61 59 60 60 59 58 58 58 58 58 57 57 57 56 56 56 56 55 54 54 53 52 53
58 58 59 60 61 61 60 61 61 60 60 60 60 62 63 62 62 62 63 63 63 63 63 64 63 62 63 63 63 63 63 62 64 61 57 58 58 59 60 60 60 60 60 59 58 58 58 57 58 57 57 57 56 56 57 57 56 54 54 52 51 50 50
59 59 59 60 60 61 61 61 61 60 60 60 60 61 60 60 60 61 62 62 62 63 63 63 63 63 62 62 62 62 63 62 62 59 58 57 56 56 55 57 59 59 59 53 54 56 56 57 57 58 56 56 56 56 55 56 56 56 52 53 49 49 48
59 60 60 61 61 61 62 62 61 61 60 60 59 58 56 57 58 60 60 60 60 61 62 62 61 61 61 61 62 61 61 60 59 59 59 58 57 54 51 47 42 44 53 53 50 47 45 49 56 56 55 54 54 54 55 55 55 49 45 43 42 41 42
60 61 61 60 61 60 60 61 62 61 60 58 57 56 56 56 57 57 57 58 58 58 59 59 60 60 60 60 59 59 58 58 58 58 57 57 56 54 52 49 48 40 40 44 45 43 41 44 47 50 52 55 51 49 47 47 43 41 40 40 39 39 38
61 61 61 61 59 59 60 61 61 60 59 57 56 56 56 56 56 57 56 58 58 57 58 58 59 59 58 57 56 58 59 57 57 57 56 55 55 54 52 51 50 49 43 40 40 41 40 40 41 42 44 46 49 47 46 43 40 39 39 39 39 39 38

ECMWFFLT1_sfc_dewp_009.txt.gz
Dewpoint
57 58 59 61 62 62 63 65 66 66 68 68 69 69 69 71 72 73 73 73 74 74 75 76 76 76 76 75 75 75 75 75 75 75 74 73 73 72 71 71 71 71 70 69 70 70 70 71 71 71 70 69 68 68 68 68 68 67 68 69 69 68 68
56 56 57 60 61 62 64 65 66 66 67 68 68 70 69 71 72 72 72 73 74 74 75 75 75 76 75 75 75 75 75 75 74 75 74 73 72 72 71 71 71 71 71 70 70 71 71 71 70 70 69 69 67 68 67 67 67 67 65 68 67 68 68
55 56 57 59 60 62 65 65 66 67 68 67 68 68 70 72 72 72 72 73 74 74 75 75 75 75 75 75 75 75 74 74 75 74 74 72 72 70 70 71 70 70 70 71 71 70 70 71 71 70 69 68 66 67 67 66 67 66 66 67 67 66 68
56 56 57 60 62 64 65 65 66 66 66 67 67 68 70 72 73 73 73 73 73 74 74 74 75 75 75 75 75 74 74 75 74 73 73 72 71 70 70 70 70 70 70 70 69 69 70 70 70 70 69 68 68 67 66 65 65 67 67 68 67 66 67
57 57 57 59 60 63 63 64 65 66 66 66 68 70 71 72 72 72 73 73 72 73 73 74 74 75 75 75 73 74 74 74 73 72 72 71 72 71 69 68 68 68 69 69 70 70 70 70 69 70 69 69 68 67 67 68 67 68 67 68 67 67 65
56 58 58 58 59 60 62 63 64 65 65 66 68 70 70 70 70 70 71 72 72 72 74 74 74 75 74 73 74 74 74 74 73 72 71 71 71 70 69 68 68 68 68 69 69 69 70 69 69 69 68 67 65 65 66 67 66 67 67 68 67 66 64
57 58 59 59 59 60 61 62 63 64 66 66 68 69 68 68 69 69 69 71 71 72 72 72 73 74 74 74 74 74 73 72 72 71 70 69 70 70 69 69 69 68 68 70 69 69 69 69 69 70 69 67 67 66 67 68 66 68 68 68 68 68 68
58 58 60 60 59 59 60 62 63 64 66 67 67 68 68 68 68 68 69 69 70 70 71 70 72 74 74 74 73 73 73 72 70 70 69 68 68 69 69 68 68 68 69 68 69 69 68 70 69 69 69 67 68 69 68 68 69 66 68 68 68 67 67
56 60 59 59 60 59 60 63 64 65 68 69 69 69 69 69 68 68 69 69 70 70 70 70 70 73 74 74 73 73 72 71 69 69 68 67 67 65 65 66 68 68 67 66 66 68 68 69 68 69 69 68 68 69 68 69 68 68 68 68 68 66 65
57 60 61 60 60 60 62 64 66 68 69 70 70 70 70 69 70 69 69 69 69 69 70 70 70 71 73 73 73 72 72 71 68 67 65 64 65 63 64 63 66 67 67 67 65 66 68 68 68 69 69 68 68 68 68 68 68 69 69 68 68 67 66
58 61 63 61 62 64 65 64 67 69 69 71 71 70 71 70 70 69 70 69 69 69 69 70 71 70 71 72 71 71 71 69 67 67 66 63 62 62 62 63 63 65 65 66 65 66 67 68 68 68 68 67 68 68 68 68 69 69 68 68 68 68 67
60 61 63 63 64 65 65 66 68 69 70 71 70 69 71 71 70 70 70 70 69 69 70 70 70 70 70 70 70 71 70 68 65 67 65 63 62 62 62 62 63 64 64 65 65 66 65 66 66 67 68 68 68 68 69 69 69 69 68 66 67 68 67
59 61 62 61 64 65 68 69 68 69 70 70 69 70 71 70 70 69 71 71 70 70 70 71 71 72 70 70 69 70 68 65 67 67 65 64 63 64 64 63 62 63 63 63 63 63 63 64 66 67 67 68 69 68 69 69 69 68 68 68 69 69 68
60 59 61 63 64 65 65 67 69 70 70 69 69 71 70 70 70 70 71 71 71 70 70 70 72 72 71 71 70 70 66 66 69 67 67 65 66 66 64 64 64 64 65 64 63 62 62 63 65 66 66 68 68 68 68 68 68 68 68 69 68 68 68
57 57 60 60 63 65 66 67 69 69 69 70 70 70 70 70 71 72 72 71 71 70 70 71 72 72 72 72 71 70 67 69 69 69 68 68 68 66 65 66 66 66 66 65 64 63 63 64 65 65 66 67 67 67 67 67 67 68 68 68 68 68 67
56 57 58 60 62 63 66 67 68 69 70 71 70 71 70 71 72 71 71 70 70 72 71 72 73 73 72 71 71 70 69 68 68 68 68 69 67 66 66 64 65 65 65 65 65 64 64 64 64 65 65 66 66 67 67 67 67 65 62 63 67 68 68
57 57 58 60 63 63 65 66 67 68 69 70 70 71 71 71 72 71 69 69 70 71 71 71 73 73 72 72 71 71 70 69 67 67 67 68 68 66 66 66 65 64 64 64 64 64 65 65 65 64 64 64 65 66 66 67 66 62 61 61 62 66 67
58 59 59 60 62 62 64 64 66 67 68 68 69 70 71 72 71 71 70 70 70 70 70 71 71 71 73 73 72 71 69 68 68 68 68 69 67 66 65 65 64 64 64 64 64 65 66 66 65 66 65 65 65 65 65 65 62 60 60 61 61 62 66
59 60 60 63 63 63 62 61 63 66 66 66 67 69 69 71 70 71 71 71 71 71 70 71 71 73 73 73 73 71 69 69 68 68 68 66 66 65 65 64 64 64 64 65 67 67 66 66 66 66 66 66 65 64 64 64 62 60 60 60 60 60 62
60 60 60 60 61 61 62 63 63 64 65 67 68 67 69 70 69 70 70 71 72 72 72 72 72 73 73 73 72 71 69 69 68 67 66 65 66 66 66 65 64 65 66 67 68 67 67 67 67 67 66 65 64 65 65 65 61 59 58 58 58 59 61
60 60 60 61 62 60 64 65 66 66 66 64 64 66 67 68 69 71 71 72 72 73 73 73 73 73 73 73 72 71 69 69 68 67 67 67 66 67 66 66 66 67 68 68 67 67 67 65 65 65 65 65 65 65 66 64 60 58 57 57 57 58 60
57 57 58 59 63 65 66 63 64 63 65 64 66 66 66 67 68 68 68 70 71 71 72 73 73 72 72 72 72 70 69 68 68 68 67 67 66 66 66 66 66 66 66 67 67 68 68 67 65 65 64 65 66 66 65 64 60 58 57 57 56 58 63
54 56 57 62 61 62 66 65 65 63 68 67 65 66 65 66 66 67 68 69 70 72 71 71 72 72 72 71 71 71 69 68 68 68 67 67 66 66 66 66 67 66 65 64 64 63 64 64 65 66 66 66 66 65 65 65 62 58 56 56 56 57 64
57 59 61 61 64 65 67 67 66 68 64 66 66 66 67 67 67 69 70 70 70 71 70 71 71 72 72 71 72 71 70 69 69 68 67 67 66 66 66 66 66 65 64 63 61 61 61 63 65 67 67 66 66 65 65 65 63 57 54 54 55 58 64
59 61 63 64 63 63 64 67 67 65 67 67 66 67 68 68 68 69 70 71 69 69 70 71 71 72 71 71 71 71 70 70 69 68 67 67 66 66 66 65 64 63 62 61 61 62 65 65 65 66 66 65 65 64 64 64 61 55 55 54 54 58 64
64 63 63 65 66 67 69 69 68 67 66 66 68 68 70 70 70 71 71 70 68 69 69 70 71 71 71 71 71 71 71 70 69 68 67 67 65 65 64 63 61 61 62 64 65 66 68 67 66 65 66 66 66 65 65 65 66 64 55 54 53 55 65
65 65 65 65 66 67 67 67 67 67 67 69 69 67 68 68 69 69 69 69 68 68 68 69 70 71 71 71 70 70 70 69 68 67 67 65 64 63 62 62 63 64 63 63 65 66 67 66 67 66 67 66 65 64 64 64 64 62 55 53 53 54 57
62 63 64 66 67 66 66 66 68 67 67 68 68 68 68 70 69 69 69 68 68 68 67 69 70 70 70 70 70 70 69 68 68 67 66 65 64 62 61 63 62 62 63 64 65 64 64 67 67 66 65 64 64 64 64 63 62 63 58 53 51 51 53
63 63 63 64 64 65 65 66 65 64 65 65 66 67 67 68 69 68 68 68 68 67 68 69 69 70 70 70 69 69 67 67 66 65 64 64 64 62 62 61 60 62 64 64 63 64 65 67 66 65 65 65 64 63 63 64 64 59 61 51 49 48 50
64 63 62 61 62 63 64 65 64 65 66 66 67 68 68 69 69 68 68 68 68 68 68 69 69 70 69 68 68 67 66 66 65 65 64 64 63 63 62 62 62 63 65 64 66 66 67 66 66 65 64 63 61 61 61 62 64 58 56 54 49 48 49
64 63 63 63 62 64 64 64 64 64 65 66 67 67 68 69 68 68 68 68 68 68 68 69 69 69 68 67 67 66 66 65 65 65 64 63 62 62 62 62 63 62 63 66 67 67 66 65 65 63 62 62 60 61 61 61 62 61 57 54 50 48 47
64 65 64 64 66 65 64 64 65 65 65 66 66 66 68 69 68 69 69 67 67 68 68 68 68 68 67 67 66 66 65 65 64 65 63 62 62 62 61 60 60 60 62 65 65 65 65 65 62 63 62 61 62 63 62 61 60 60 59 54 52 49 48
63 64 65 65 66 66 66 64 64 64 64 64 64 64 64 66 67 69 68 67 67 67 68 68 67 66 66 66 65 66 65 64 63 62 62 63 61 60 60 59 61 62 65 66 66 66 66 63 62 61 60 62 62 64 63 62 61 60 59 59 57 56 54
64 64 65 65 65 66 66 66 64 65 65 67 66 65 64 64 65 66 66 64 64 65 68 67 66 65 65 64 65 64 64 64 64 63 62 63 62 62 64 66 65 66 66 66 66 66 64 62 62 61 61 61 61 62 62 61 60 60 59 58 57 57 56
66 66 67 65 64 65 66 67 66 67 67 67 66 66 65 65 64 64 65 64 64 66 66 65 65 65 64 64 63 63 64 62 63 64 64 65 65 64 62 64 65 66 66 60 59 62 61 62 61 61 60 60 61 61 60 61 61 60 55 59 53 55 54
65 66 66 66 66 67 66 66 66 66 66 66 66 65 65 65 65 65 63 64 64 65 66 66 64 65 64 63 63 63 64 64 64 64 64 64 63 60 54 46 42 46 57 57 50 47 44 43 60 59 58 58 60 60 59 59 60 48 46 44 44 44 44
65 65 65 65 65 65 66 67 66 66 65 65 64 63 63 64 64 65 63 65 65 64 66 66 66 64 64 64 63 63 64 64 64 64 64 63 61 59 55 53 51 40 40 44 45 43 39 42 44 48 54 59 56 52 46 47 44 43 41 40 40 40 39
63 64 64 63 63 65 65 65 65 65 65 65 63 62 63 62 63 65 63 65 66 66 67 67 65 65 64 63 63 64 64 62 63 62 61 62 61 60 58 56 56 54 42 39 41 41 39 38 41 46 48 50 54 51 52 44 41 41 40 40 40 39 39

ECMWFFLT1_sfc_dewp_012.txt.gz
Dewpoint
58 58 59 60 61 61 62 63 65 65 66 68 69 69 69 70 71 72 73 74 75 76 76 77 77 77 77 76 77 77 76 75 74 74 73 74 74 74 74 74 74 74 72 71 71 71 72 72 71 70 69 68 68 67 68 67 66 66 66 67 67 66 66
56 57 58 59 61 62 63 65 66 65 66 67 68 70 69 71 72 71 73 74 75 76 76 77 78 77 77 77 77 77 76 75 75 75 74 74 75 75 75 75 75 74 74 72 71 72 72 71 71 70 69 68 68 68 67 66 66 66 65 66 66 65 65
55 56 58 60 60 62 65 65 66 66 67 66 67 68 69 71 73 73 73 74 75 76 76 77 78 77 77 77 77 77 76 75 74 74 74 74 74 74 75 75 75 73 73 73 73 72 72 71 71 70 69 68 66 67 67 66 66 66 65 66 66 65 65
57 56 58 61 63 64 65 65 66 65 65 66 66 67 70 72 73 73 73 73 75 76 76 76 77 77 77 77 77 76 76 75 75 74 74 74 74 75 75 76 75 74 73 72 72 71 71 71 70 69 69 68 67 67 66 65 65 65 65 65 64 64 65
56 56 57 59 60 63 64 65 66 67 65 64 67 69 70 71 72 72 73 73 72 75 75 75 75 76 77 77 76 76 75 76 75 75 74 74 75 75 75 75 75 74 73 73 72 72 71 70 69 68 68 68 67 66 67 66 65 65 65 65 65 64 63
55 57 57 58 59 61 63 64 64 64 64 63 66 68 68 68 69 69 71 73 73 73 75 76 76 77 76 76 76 76 76 76 75 76 75 74 75 75 74 75 74 73 71 72 71 71 70 70 68 68 67 66 65 66 66 65 64 63 65 65 65 64 62
54 58 57 58 59 60 62 63 62 63 64 64 65 67 67 66 67 67 68 70 71 73 73 73 74 75 77 76 77 77 77 76 75 74 74 74 75 75 76 75 74 73 72 72 71 70 69 69 68 68 67 66 67 66 67 66 65 64 65 65 65 65 65
54 57 60 59 58 58 59 62 63 62 64 65 64 65 66 65 66 66 67 67 69 69 70 69 72 75 76 77 76 76 76 76 75 74 74 75 74 74 75 74 74 74 72 71 71 70 68 69 67 67 67 66 67 68 67 66 67 64 63 65 65 65 64
55 60 60 57 58 57 58 62 63 64 66 67 66 67 66 66 64 65 66 66 67 68 68 67 69 73 76 77 77 77 76 75 74 75 75 73 73 73 73 73 74 73 72 70 69 70 69 68 67 67 68 68 69 68 67 67 67 65 64 64 65 65 63
57 61 62 59 57 56 59 60 64 66 67 68 68 69 68 67 67 66 65 65 65 66 67 67 67 70 75 76 76 76 76 75 75 73 71 71 72 72 71 71 72 72 71 69 67 69 69 68 68 68 69 68 67 68 68 67 66 66 64 64 65 66 64
56 62 64 61 60 59 61 61 65 67 68 70 70 68 70 69 68 66 67 66 64 65 66 68 69 69 73 74 73 74 76 74 73 73 73 72 70 70 70 69 69 70 69 69 68 68 68 68 69 70 70 69 68 68 68 67 66 65 63 65 66 66 64
62 63 65 64 63 62 63 66 67 69 70 71 70 69 71 71 69 67 67 68 66 65 66 67 68 68 70 72 73 74 74 74 73 73 73 71 70 69 70 68 68 68 69 67 65 66 67 68 69 68 69 69 68 67 68 67 66 66 65 65 65 66 65
61 64 65 63 65 65 67 68 69 70 71 70 69 70 71 70 69 68 70 70 67 66 67 70 69 71 69 71 71 74 74 73 74 73 71 72 72 72 69 67 66 66 65 66 65 65 65 66 68 67 69 69 67 67 67 67 67 69 69 67 67 67 66
65 62 64 65 65 66 67 69 70 71 71 71 70 71 71 71 69 70 70 70 69 68 68 69 71 71 72 72 73 74 74 74 75 74 72 72 72 69 67 67 66 66 66 67 64 64 65 64 67 68 68 68 68 68 68 68 69 70 70 69 68 67 67
60 60 63 63 66 68 69 69 71 71 71 71 71 71 71 70 70 71 72 71 71 68 68 71 72 72 72 73 74 74 75 75 73 72 72 72 71 69 67 67 66 66 65 66 65 65 65 65 67 67 67 68 68 68 68 70 69 69 69 69 69 68 67
57 59 60 62 65 66 69 70 71 71 72 72 71 71 70 70 71 70 71 71 70 71 70 71 73 74 73 73 74 75 74 74 74 73 73 71 70 69 67 65 66 66 66 68 67 67 66 66 67 66 66 67 67 67 67 67 66 66 64 66 68 68 67
59 59 59 62 66 67 69 69 71 71 71 71 71 71 71 72 72 71 69 69 69 72 71 71 74 74 74 74 75 74 74 74 73 73 72 71 71 71 70 68 67 68 68 68 68 67 67 66 66 64 65 66 65 65 66 67 65 63 62 62 63 67 67
59 62 61 62 64 66 68 68 70 71 71 70 71 72 72 73 72 71 69 69 69 70 70 71 72 73 75 75 75 75 75 74 74 72 71 71 71 72 71 69 68 68 68 67 67 68 67 66 66 66 65 64 63 61 65 67 62 61 61 61 61 62 66
59 62 63 64 65 67 66 65 68 71 69 69 70 70 72 73 71 73 71 72 72 71 70 71 72 75 75 75 75 75 75 74 73 72 71 70 70 70 70 69 69 68 68 68 68 68 67 67 66 66 66 64 63 63 65 67 61 60 60 61 60 61 62
61 61 62 62 65 65 66 68 68 69 69 70 70 69 70 72 72 73 72 71 72 72 73 73 73 74 75 76 76 75 76 74 73 72 71 70 70 70 70 69 69 69 68 68 68 68 66 65 66 66 67 66 68 68 68 67 61 60 59 59 59 60 61
62 63 64 64 65 63 67 68 68 70 70 68 67 70 70 70 71 72 72 72 72 73 74 73 74 74 75 75 75 75 75 74 73 72 71 71 70 70 70 69 70 69 68 67 68 67 66 66 66 67 68 68 68 67 66 63 60 58 58 58 57 58 61
55 58 61 63 66 67 68 66 67 66 69 68 68 68 68 70 70 69 68 69 71 72 73 74 75 74 75 75 75 74 74 73 73 72 72 71 70 69 69 69 70 69 68 68 68 67 67 68 67 66 67 68 67 65 62 59 60 59 58 57 57 59 62
50 54 57 62 63 65 68 67 67 66 69 68 68 69 68 67 65 65 66 68 70 73 71 73 74 74 75 75 74 73 74 74 73 72 72 71 70 69 69 69 69 69 69 69 69 68 67 67 67 68 67 66 64 61 60 60 62 58 56 56 56 59 63
52 54 56 59 64 65 68 67 66 68 65 66 66 65 64 65 65 67 69 70 71 72 72 72 74 74 75 75 75 74 74 74 74 72 71 71 70 69 68 69 69 69 68 67 68 67 66 67 66 65 65 64 60 58 60 60 62 57 55 56 56 60 65
53 54 56 58 59 63 64 67 66 65 64 65 62 65 66 66 66 68 71 71 68 70 71 72 74 75 75 75 75 75 73 74 74 72 71 71 70 70 70 70 70 70 69 68 67 65 65 65 65 65 63 60 63 63 61 59 61 57 57 56 55 61 65
60 63 63 63 62 65 67 68 68 65 65 64 69 69 70 68 70 72 73 70 68 69 71 73 75 76 75 75 75 74 73 72 72 71 71 71 71 71 70 70 69 68 67 66 64 62 61 60 59 59 60 60 62 65 65 64 67 63 55 54 54 57 65
63 63 63 63 66 69 68 68 68 67 67 71 71 69 70 70 72 72 72 71 72 71 72 74 75 75 75 75 74 74 73 72 72 71 71 71 71 70 69 69 68 67 65 63 62 60 59 58 58 59 61 62 64 65 66 67 67 65 54 53 53 55 58
64 64 65 67 68 66 66 67 70 69 69 71 71 71 71 73 73 73 73 72 72 72 73 75 75 75 75 74 74 73 72 71 72 71 71 70 70 69 68 67 66 64 63 63 63 61 60 60 60 59 60 61 64 65 67 67 65 68 56 53 52 52 54
66 65 66 67 67 66 65 66 66 65 66 65 66 69 70 71 72 72 72 72 73 72 73 73 73 74 74 73 71 70 70 71 71 70 68 68 68 67 66 65 65 64 64 64 62 62 63 62 62 61 61 62 64 68 68 67 65 62 63 53 51 50 50
64 63 61 61 62 65 66 67 66 66 67 68 70 70 70 72 72 72 72 72 72 72 72 72 73 73 72 71 71 69 69 69 68 68 67 67 67 66 66 65 64 64 64 64 63 63 63 61 62 61 60 61 66 66 66 65 65 59 60 58 51 49 49
60 61 62 63 62 65 65 66 67 68 69 70 71 71 72 72 72 71 70 71 71 71 72 72 72 71 71 70 69 68 68 67 68 67 67 66 65 65 64 64 63 63 64 64 63 62 62 61 61 60 60 62 66 64 63 63 65 63 59 57 53 50 48
63 62 62 63 65 64 63 64 66 67 68 70 70 69 71 71 71 72 72 72 71 72 72 72 71 70 70 69 68 67 67 67 67 66 65 65 64 64 63 62 61 62 63 62 61 61 60 61 60 59 61 65 64 64 63 62 62 63 61 56 53 52 50
67 67 67 68 66 64 63 63 63 63 64 65 66 66 66 69 70 73 73 72 71 71 72 71 71 69 68 68 67 67 67 66 64 64 64 64 63 62 62 61 61 60 61 60 58 60 60 61 63 63 64 64 62 63 62 62 61 61 62 60 59 58 55
65 66 67 69 70 68 62 60 61 62 65 67 67 66 66 67 68 69 68 67 67 69 71 70 69 67 67 66 66 66 66 65 65 64 62 62 61 61 61 62 61 60 61 60 61 62 62 62 63 63 61 60 62 62 62 61 61 61 60 60 59 59 57
64 65 66 66 68 70 68 66 66 67 68 68 68 68 68 67 65 66 67 66 68 71 70 68 67 68 66 64 64 64 65 64 64 62 62 62 65 63 62 65 62 61 61 65 65 64 62 63 62 62 61 60 61 62 62 61 61 61 57 67 58 64 56
64 63 64 66 66 66 67 68 68 68 67 69 69 68 67 66 66 65 63 65 68 69 70 69 67 66 64 63 63 62 63 64 62 62 62 61 63 62 56 47 42 47 60 59 51 46 43 47 61 58 60 61 65 62 62 59 59 48 45 43 41 41 41
66 64 63 63 63 65 67 67 66 66 66 67 66 65 65 65 65 65 64 67 68 68 69 68 66 64 63 63 62 62 63 63 63 64 64 64 63 62 61 59 55 40 39 45 46 44 39 39 41 46 49 61 60 53 45 47 45 44 42 41 41 40 40
64 65 63 63 64 66 66 67 67 67 67 66 65 65 65 63 65 67 65 68 68 69 69 68 66 64 63 62 62 64 65 62 63 63 63 63 62 61 61 61 60 57 42 39 42 42 40 39 40 42 47 49 57 55 56 46 42 41 40 40 40 40 39

ECMWFFLT1_sfc_dewp_015.txt.gz
Dewpoint
55 54 55 57 60 57 58 62 64 63 65 65 65 65 64 65 68 69 70 72 73 74 75 76 75 75 75 75 75 75 75 75 75 74 73 74 73 73 72 72 72 72 71 71 71 70 71 71 69 68 68 69 68 67 66 66 66 65 67 67 67 66 65
46 46 52 55 57 59 59 62 64 64 64 65 65 67 65 66 67 68 70 72 73 74 75 76 76 75 75 75 75 76 75 75 75 75 74 74 74 74 73 73 73 73 72 72 71 72 71 70 69 68 67 67 66 67 66 67 67 67 66 67 65 66 65
53 52 51 54 57 59 61 61 64 64 65 64 65 65 65 68 68 70 70 71 73 74 75 75 76 76 76 76 75 76 75 75 75 74 73 72 73 71 73 73 73 72 72 72 72 71 71 70 70 70 67 67 66 67 67 67 67 66 67 67 66 64 65
51 53 54 55 59 62 62 61 63 63 63 64 65 65 67 69 69 69 69 70 72 74 75 75 75 76 76 76 76 76 76 76 75 74 73 73 73 73 73 73 73 72 71 71 70 70 70 71 69 69 69 68 68 67 67 67 66 67 67 66 65 65 65
47 53 54 55 57 60 61 61 62 64 62 62 64 68 68 67 67 68 68 69 71 74 73 73 73 75 76 76 76 76 76 76 76 75 74 73 74 74 74 72 72 71 71 70 71 72 72 71 69 69 68 69 68 68 67 66 66 67 67 66 65 65 64
42 50 53 53 56 58 61 61 61 62 62 61 64 67 66 65 66 66 66 69 70 72 74 73 73 75 76 76 75 75 76 76 76 76 75 74 74 73 73 74 72 72 68 69 71 72 72 71 70 69 68 67 66 65 65 66 66 65 66 65 65 64 62
39 49 54 55 57 59 60 62 61 62 62 60 62 65 65 64 65 65 65 67 68 70 71 70 71 72 76 76 76 76 76 75 76 76 74 73 74 74 74 74 74 72 71 72 72 72 72 72 70 70 68 67 67 65 67 68 67 67 67 66 65 65 66
40 45 56 57 55 57 59 62 62 62 62 60 59 62 63 62 63 64 63 63 64 63 67 67 69 72 75 76 76 76 76 75 76 75 75 74 74 74 73 74 73 74 74 73 73 73 71 72 69 69 69 67 67 67 67 68 67 64 65 66 66 65 64
41 55 57 55 55 54 57 62 63 63 65 63 61 63 64 61 59 60 60 60 62 61 63 64 65 69 75 76 76 76 76 75 76 75 75 73 72 71 71 73 73 74 73 73 72 73 72 71 69 70 70 68 68 68 67 69 67 65 65 65 65 64 64
56 55 60 57 56 51 57 61 64 67 67 67 66 67 65 60 58 57 57 58 60 60 60 61 61 65 72 76 75 76 76 76 75 74 72 71 72 70 70 69 72 72 73 73 71 71 72 72 71 70 70 68 68 68 68 67 66 66 65 65 65 65 65
44 50 60 59 59 58 60 60 65 68 69 71 69 63 66 62 57 56 57 56 56 59 58 59 61 62 70 74 73 74 76 75 74 74 73 71 70 69 68 68 70 72 72 72 71 71 72 72 71 71 70 68 68 68 68 67 67 66 65 65 65 65 64
57 56 64 64 63 59 60 65 68 71 71 72 68 64 70 68 58 55 56 57 56 57 58 58 59 60 67 72 72 74 74 75 73 73 73 70 68 68 68 68 69 71 72 72 70 71 71 71 70 70 70 69 68 68 69 68 67 67 67 64 64 65 65
58 61 65 63 63 62 66 69 69 70 71 68 66 67 67 65 61 55 62 61 56 57 58 61 60 64 63 70 71 73 74 74 74 74 72 71 70 69 69 68 67 67 71 71 70 70 70 69 70 70 69 69 69 69 69 66 66 68 68 67 65 65 66
67 63 65 65 64 64 65 67 69 70 70 69 68 69 68 67 64 62 62 60 59 56 56 59 63 64 64 68 72 74 74 74 74 75 75 72 73 72 71 70 68 68 71 72 71 69 69 69 69 69 68 69 69 69 68 67 67 68 68 67 64 65 66
56 61 64 64 66 67 66 65 69 70 69 70 70 70 69 68 68 69 67 65 65 58 57 63 66 67 65 68 73 75 75 76 76 76 76 75 75 75 74 71 70 72 73 73 71 69 68 69 68 69 69 69 69 69 68 67 66 67 67 65 64 66 65
30 38 56 64 67 66 68 68 70 71 71 72 71 71 69 70 71 69 68 67 65 64 60 63 67 71 69 69 73 75 76 77 77 76 76 75 75 75 74 72 72 72 73 72 71 71 70 70 70 68 68 68 69 68 66 66 67 65 61 63 67 67 65
33 37 43 55 67 67 68 69 71 72 72 72 71 71 71 72 71 70 67 67 66 67 62 61 71 70 71 72 74 76 77 77 76 77 75 75 76 76 76 74 73 73 73 72 72 71 71 70 69 67 68 67 67 67 65 65 67 60 62 63 63 65 67
37 41 40 41 57 68 69 69 71 72 71 70 70 71 72 73 71 69 67 67 67 66 64 64 69 71 74 74 76 77 76 75 76 75 76 76 75 75 74 73 73 73 73 72 71 71 70 69 69 69 68 67 67 67 66 67 63 60 62 63 63 66 68
36 35 38 51 55 68 68 68 70 73 71 70 70 71 71 73 70 71 70 71 70 69 66 67 71 75 75 75 76 77 76 77 76 75 75 74 74 74 73 73 73 73 73 72 72 71 71 70 69 69 68 67 67 66 66 65 60 60 60 61 61 63 66
35 34 32 40 53 59 68 69 70 72 72 73 72 70 71 72 71 71 69 70 70 70 71 72 73 75 75 76 76 76 77 76 76 75 75 74 74 73 73 73 73 73 72 71 72 71 70 69 68 68 68 68 68 67 66 65 59 59 59 60 60 61 63
42 42 43 56 59 55 64 71 71 73 72 70 69 70 70 70 70 71 69 70 70 73 75 73 74 75 76 76 76 76 76 75 75 74 73 73 73 74 74 73 73 73 72 70 70 70 70 69 69 69 69 68 67 66 64 65 58 58 58 59 59 60 63
36 36 49 54 60 64 68 69 70 70 72 70 69 69 68 69 69 68 66 68 70 71 72 73 74 74 75 75 75 75 76 75 75 74 73 73 72 72 72 73 73 73 73 72 71 71 70 70 70 69 68 68 67 64 64 63 57 58 58 57 57 60 64
27 44 46 53 59 64 70 69 70 70 73 70 68 69 68 69 68 68 67 69 70 72 72 73 74 75 75 74 73 75 76 75 74 73 73 73 72 72 71 72 72 73 73 72 71 71 70 69 69 69 67 69 69 67 64 62 59 57 56 56 57 60 65
36 38 34 47 62 64 71 70 69 70 70 69 68 68 69 68 69 70 70 71 72 72 72 73 74 75 75 74 74 76 76 75 74 73 73 72 71 72 71 71 71 71 72 71 71 70 69 70 69 68 68 68 66 64 62 62 59 56 55 55 56 61 65
43 39 44 52 59 64 68 69 69 69 70 69 67 68 70 69 69 69 71 71 70 71 71 74 75 75 75 73 74 74 73 73 73 73 73 73 73 72 72 71 71 71 72 72 71 71 71 69 69 70 70 69 67 63 64 63 59 55 55 55 56 62 67
49 44 46 52 57 65 69 71 71 70 67 66 69 70 73 70 69 70 70 71 70 70 72 74 75 75 75 74 74 74 74 73 74 74 73 73 72 72 71 72 72 71 70 70 69 68 68 67 67 66 66 65 63 61 60 61 61 60 54 54 55 58 67
53 51 50 51 57 67 67 68 68 67 66 69 72 69 68 66 68 70 72 72 72 72 72 73 75 75 75 73 72 72 72 73 74 73 72 72 72 72 71 71 72 71 70 68 67 66 65 64 64 64 64 64 64 62 60 60 64 62 54 53 54 56 60
59 59 58 59 66 68 68 65 69 67 65 69 67 65 66 70 72 72 72 71 71 72 73 75 75 75 74 73 72 72 72 72 72 71 71 71 71 71 71 70 70 70 69 68 65 64 63 62 62 62 62 62 63 63 62 64 65 63 56 54 53 54 57
62 61 64 68 68 67 64 66 65 63 64 64 64 67 71 72 72 71 71 71 73 74 76 76 75 74 73 73 72 72 72 72 71 70 70 70 70 70 70 69 69 69 68 66 64 64 63 62 62 61 61 61 61 62 64 69 68 62 63 53 52 52 55
66 67 67 65 64 65 65 67 67 69 69 67 71 72 72 74 74 74 74 74 76 76 75 76 75 74 73 73 73 72 72 71 69 69 69 70 70 69 69 68 68 67 67 66 64 63 63 62 62 61 60 60 61 62 66 68 68 62 60 58 52 51 52
67 66 64 64 63 68 69 70 69 68 70 70 72 72 73 74 74 75 75 75 75 75 75 75 75 73 72 71 71 70 70 69 69 69 68 69 69 68 68 67 66 66 66 65 64 63 63 63 63 62 61 61 61 63 65 64 64 64 61 58 53 52 51
65 65 65 65 67 67 66 66 68 69 70 72 73 74 75 75 75 75 75 74 74 74 74 73 72 72 71 70 69 68 68 69 68 66 66 67 67 67 66 65 64 64 65 64 63 64 64 64 62 62 61 60 63 63 62 63 63 64 63 58 55 54 51
64 64 64 64 65 67 65 64 62 63 64 65 66 67 68 70 71 73 73 74 73 73 74 73 73 71 70 69 68 68 68 67 65 64 64 65 64 63 63 63 64 64 64 64 63 63 63 62 62 60 58 60 61 62 62 63 62 62 63 62 59 58 55
67 62 63 64 63 63 62 62 61 61 62 64 64 65 67 68 69 70 70 70 71 73 73 72 71 69 69 67 67 66 66 66 66 65 62 62 61 60 61 62 63 63 63 63 62 62 60 60 59 58 58 58 58 61 62 62 63 63 61 61 61 61 59
67 68 69 70 70 69 68 68 67 68 67 67 66 65 66 66 65 66 68 69 71 72 71 69 68 68 67 66 65 64 65 64 64 63 62 62 65 62 59 61 62 61 63 61 63 65 58 59 59 60 57 55 58 60 62 62 61 61 58 66 57 61 59
61 61 63 65 67 67 68 69 70 69 69 68 68 66 65 65 66 66 66 69 70 70 69 69 67 66 64 64 63 63 63 63 61 62 62 63 63 60 56 47 42 47 63 58 52 48 47 52 61 58 61 58 64 62 61 59 59 53 50 43 43 44 45
62 62 63 64 64 65 66 66 67 67 67 66 66 64 63 64 62 65 66 69 70 69 70 69 67 64 64 64 63 63 63 62 61 62 63 62 62 61 61 59 56 41 40 46 47 44 41 40 42 45 50 65 61 55 45 47 46 45 43 42 41 40 41
62 63 64 65 66 68 68 68 67 66 66 65 65 64 64 62 64 67 67 70 70 70 70 69 67 65 63 62 62 64 65 61 61 61 62 62 62 61 60 61 61 59 44 40 43 42 40 40 40 41 45 48 55 58 57 47 42 42 42 41 41 40 39

ECMWFFLT1_sfc_dewp_021.txt.gz
Dewpoint
48 48 48 51 52 53 56 56 57 60 61 63 65 65 65 66 66 68 70 71 72 72 72 72 73 73 73 73 73 74 74 74 74 74 73 73 72 73 71 71 72 72 72 72 71 71 70 70 70 70 70 70 71 69 68 69 67 66 67 67 66 67 65
48 48 47 50 53 54 58 58 57 59 61 62 65 65 65 66 66 67 69 71 71 72 72 72 73 73 73 73 74 74 74 74 74 74 73 73 72 74 72 71 73 72 72 72 72 71 71 69 70 70 70 69 70 69 68 68 67 66 66 67 66 68 66
48 47 48 50 53 54 57 60 59 59 61 62 64 65 65 66 66 67 69 70 71 72 72 73 73 73 73 73 74 74 74 74 74 74 73 73 72 73 73 72 73 73 72 72 72 72 70 70 70 70 70 69 69 69 68 67 67 66 67 67 66 66 67
48 48 51 53 53 54 55 60 61 60 61 62 63 64 65 66 66 68 69 70 71 71 72 73 73 73 73 73 74 74 74 74 74 73 73 74 73 73 73 73 73 73 72 72 71 72 70 69 71 70 71 69 68 69 68 67 67 66 67 67 66 66 67
48 50 52 54 54 55 56 57 60 61 60 61 63 65 65 66 66 68 69 70 71 71 72 72 73 73 73 73 74 74 74 74 74 74 73 74 73 73 73 72 72 72 72 72 72 71 71 69 71 70 70 69 68 68 67 67 66 66 67 67 66 66 66
49 51 52 53 53 54 56 56 57 60 60 60 63 64 65 66 66 67 69 70 71 71 72 73 73 73 73 73 74 74 74 74 74 74 74 74 74 73 72 72 72 72 72 72 72 71 71 69 69 70 70 69 68 68 67 67 66 66 67 67 65 66 65
50 51 51 52 52 52 55 56 57 58 60 61 63 65 65 65 65 66 68 70 70 71 72 72 73 73 73 74 74 74 74 74 74 74 74 73 74 73 72 72 72 72 71 72 72 71 71 70 69 69 69 69 68 67 67 67 66 66 66 67 66 65 65
49 50 51 51 50 50 52 57 57 58 59 60 63 65 64 65 65 65 67 69 70 71 71 72 72 73 73 74 74 74 74 74 74 74 74 73 73 73 72 72 72 72 72 71 72 72 71 70 70 69 69 68 68 67 67 67 66 65 65 66 66 65 65
48 49 50 50 50 50 53 56 57 58 60 60 62 64 64 65 65 65 66 68 69 70 71 71 72 73 73 73 74 73 74 74 74 74 74 73 73 73 72 72 72 72 72 72 71 72 71 71 70 70 69 68 68 67 67 67 66 66 65 65 66 65 65
49 49 50 49 49 50 54 57 58 58 60 61 62 64 64 65 65 65 65 67 68 69 70 71 72 72 73 73 73 73 74 74 74 74 73 73 72 72 72 72 72 72 72 72 71 71 71 71 70 70 69 68 68 67 67 66 66 66 66 65 65 65 65
49 50 50 50 49 50 55 57 58 59 61 62 63 64 64 64 64 64 64 65 67 68 70 70 71 72 73 73 73 73 73 73 73 73 73 73 72 72 72 71 71 71 71 71 71 71 70 71 71 70 70 69 68 67 67 67 66 66 66 66 65 65 65
49 49 51 52 52 54 54 57 58 60 62 64 64 64 65 65 64 64 64 64 66 67 68 69 70 71 72 73 72 73 73 73 73 73 73 73 72 72 71 71 71 71 71 71 70 70 70 70 71 70 70 69 68 68 67 67 67 66 66 66 65 64 64
49 52 54 52 52 54 55 58 59 62 63 64 64 64 65 65 64 64 64 64 64 66 67 68 70 71 72 72 72 72 72 73 73 73 73 73 72 72 71 70 70 71 71 71 70 69 69 69 70 71 70 70 69 68 68 67 67 66 66 66 65 65 64
58 53 52 51 51 52 56 58 60 62 63 63 64 65 66 65 65 64 64 63 64 65 67 69 70 70 71 72 72 72 72 72 73 73 73 73 72 71 71 70 70 70 71 71 71 70 69 69 70 71 71 71 70 69 68 67 67 67 66 66 65 65 64
53 52 50 50 52 55 59 60 62 62 63 62 63 63 65 66 65 65 64 63 64 65 66 68 70 70 71 72 72 71 72 72 72 73 73 73 72 71 71 71 70 70 71 71 71 71 70 70 70 71 71 71 70 69 68 67 67 67 66 65 65 65 64
52 53 53 53 56 58 59 60 61 63 63 64 63 63 64 66 66 65 64 63 63 64 65 67 69 70 70 71 71 71 71 72 72 72 73 73 72 72 71 71 70 70 70 71 71 71 71 71 72 72 72 71 70 69 69 68 68 65 61 63 65 65 65
55 56 58 60 61 60 59 59 61 63 65 66 65 64 64 66 66 65 64 63 63 63 63 65 68 68 69 70 71 71 71 72 72 72 72 73 73 72 72 71 71 70 70 72 72 72 71 71 72 72 72 71 70 69 69 68 67 62 61 62 63 65 65
58 58 59 62 62 62 63 62 63 63 65 66 66 66 64 65 66 65 64 64 63 62 62 63 66 67 67 68 70 72 72 72 72 72 72 73 73 73 72 72 71 70 71 72 72 72 72 71 72 72 72 71 70 69 69 68 64 60 61 62 62 64 65
51 56 60 60 61 62 62 64 67 68 66 66 67 67 65 65 66 66 65 64 63 63 61 62 64 65 66 67 69 71 72 73 73 73 73 73 73 73 72 72 71 71 72 72 72 72 72 71 72 71 71 71 70 69 69 68 62 60 60 61 61 62 65
33 42 51 59 61 62 63 63 66 70 69 68 68 67 66 66 65 65 65 64 63 62 61 61 62 64 65 66 69 71 72 73 73 73 73 73 73 73 73 72 72 72 73 74 73 73 72 72 72 71 71 70 70 69 69 68 62 59 59 59 60 61 63
52 54 51 60 62 62 63 63 64 68 70 69 69 68 68 66 65 65 65 64 62 61 61 60 62 63 64 65 68 71 72 73 73 73 74 73 73 73 73 73 73 74 74 73 73 72 72 71 71 71 71 70 70 69 69 69 60 58 58 58 59 60 64
49 51 51 55 63 64 64 64 65 66 68 69 69 69 68 67 66 66 64 63 62 60 59 58 62 63 63 64 68 71 72 73 73 74 74 74 74 74 74 74 74 74 73 73 72 72 72 71 71 71 70 71 70 69 68 64 57 57 57 57 58 61 67
41 43 44 51 57 63 66 66 65 65 68 68 68 68 68 68 67 67 66 64 63 61 58 58 62 64 63 64 68 71 73 73 74 74 75 75 75 74 74 74 73 74 73 73 72 72 71 71 71 71 70 70 70 67 64 62 57 57 56 56 58 62 67
26 31 38 38 52 63 66 67 66 66 67 68 68 68 68 68 68 68 67 66 65 64 62 59 62 66 65 65 68 72 73 74 75 75 75 75 74 74 74 73 73 73 73 72 72 71 71 71 71 70 70 70 68 65 64 62 58 55 54 56 59 62 66
25 27 40 44 43 65 67 67 67 67 69 68 68 68 68 68 68 68 68 68 66 67 66 63 63 67 67 67 71 74 75 76 76 75 75 74 74 73 73 73 73 73 73 73 72 71 70 71 71 70 70 69 67 63 63 62 57 53 55 56 58 63 65
55 57 57 58 58 57 69 70 70 70 70 69 68 68 69 69 69 68 68 68 67 67 67 68 69 70 69 71 75 76 76 76 75 75 74 74 73 73 73 73 73 73 73 72 70 69 69 69 69 68 67 66 65 64 63 61 59 58 54 56 58 60 65
58 57 56 56 60 65 68 71 70 70 70 70 70 69 69 69 69 68 69 69 68 67 67 71 73 73 75 76 76 76 76 75 75 74 74 73 73 73 72 72 72 72 71 69 68 68 68 68 67 66 65 65 64 63 62 61 60 59 54 55 56 58 60
63 60 60 65 70 66 62 68 70 70 70 71 71 70 69 69 69 69 70 69 68 68 68 74 75 75 76 76 76 75 75 74 74 73 73 72 72 71 71 71 71 70 68 68 67 67 66 66 65 65 64 64 63 63 62 61 59 59 54 54 54 55 57
65 65 63 63 65 66 68 64 68 69 70 71 71 70 70 69 69 70 70 69 69 69 73 75 75 76 76 76 75 74 74 73 73 72 72 71 71 71 70 70 69 68 68 67 66 66 65 65 64 63 63 63 63 63 62 61 61 57 58 53 52 52 55
65 65 66 66 66 68 67 70 69 68 69 72 72 71 70 70 70 70 70 70 70 73 75 75 76 76 75 74 74 73 73 72 72 72 71 71 71 70 69 68 67 67 66 66 65 64 64 64 63 63 62 62 62 62 62 61 61 57 56 55 52 51 52
66 67 67 66 66 66 65 67 67 67 67 70 72 71 71 71 71 70 70 71 74 75 75 75 75 75 74 74 73 72 72 72 72 72 71 71 70 68 67 67 66 65 65 65 64 64 63 63 63 62 62 62 62 62 62 62 61 59 57 55 53 52 51
64 65 67 68 67 65 64 64 66 67 67 68 69 71 71 71 71 70 71 75 74 75 75 75 74 73 73 73 72 72 72 71 71 71 70 70 69 68 67 66 66 65 64 64 64 63 63 63 63 62 62 62 62 62 63 63 61 59 58 57 55 55 53
63 64 65 67 67 66 66 66 67 67 67 67 68 67 72 72 72 73 75 75 75 74 74 73 73 72 72 71 71 71 71 70 70 69 69 68 68 67 66 66 65 65 64 64 63 63 63 62 62 62 62 62 62 63 63 64 63 61 59 58 57 56 56
64 64 65 66 67 67 66 65 65 65 66 66 66 67 68 70 73 75 74 74 74 73 72 72 71 71 71 70 69 68 68 69 69 68 67 67 66 66 66 65 65 64 64 63 63 63 62 62 62 61 61 61 62 63 63 63 63 62 59 58 57 57 57
64 64 64 65 66 67 67 66 64 64 65 65 65 66 67 68 69 70 70 71 71 69 69 69 69 69 69 69 69 68 67 67 67 65 62 58 55 52 54 65 65 64 59 56 60 64 62 62 62 62 61 62 63 63 63 63 63 63 57 60 55 57 57
64 64 64 65 66 67 67 67 66 66 67 66 66 65 66 67 69 70 70 70 69 69 69 69 69 69 68 67 65 66 65 64 62 61 60 59 57 55 53 49 44 52 59 56 52 49 49 58 62 62 61 62 63 62 63 63 63 56 53 52 51 51 52
64 64 65 65 65 66 66 67 68 66 65 65 66 66 67 67 69 69 69 70 70 69 68 67 68 68 66 65 64 64 64 62 61 60 60 59 58 57 57 55 51 42 42 47 47 44 42 42 47 52 58 61 59 54 52 57 53 51 50 50 49 49 49
58 64 65 65 66 66 66 67 67 65 65 66 66 66 65 67 67 68 68 68 68 68 68 67 68 66 65 64 63 63 63 62 61 60 60 60 60 59 58 56 55 53 45 41 44 43 41 41 42 47 52 53 55 55 56 51 49 50 49 49 48 48 48

ECMWFFLT1_sfc_dewp_024.txt.gz
Dewpoint
46 47 47 48 49 51 54 57 58 58 59 62 63 64 64 65 66 67 68 69 70 70 71 71 71 71 71 72 72 72 72 72 72 72 72 72 72 72 71 71 71 71 72 71 71 71 70 71 70 70 70 70 69 69 69 68 66 67 66 66 66 66 65
46 47 48 49 50 50 52 55 57 58 59 61 63 64 64 65 66 67 68 69 70 70 71 71 72 71 71 71 72 72 72 72 72 73 73 72 72 72 72 71 71 71 71 71 70 71 70 70 70 70 70 70 69 68 69 68 66 65 66 66 65 66 65
46 47 48 49 50 51 52 53 56 58 58 60 63 64 64 65 66 67 68 69 70 70 71 71 72 72 71 71 71 72 72 72 73 73 73 72 72 72 72 71 71 71 71 71 70 71 70 70 70 70 69 69 69 68 68 68 67 65 66 65 65 65 65
48 47 48 50 51 52 52 52 55 57 58 59 62 63 64 65 65 67 68 69 70 70 70 71 71 72 72 71 71 71 72 72 73 73 73 72 72 72 71 71 71 71 71 71 70 71 71 70 69 70 71 69 69 69 68 68 66 65 65 65 65 65 65
48 48 48 49 50 52 52 53 54 56 57 59 62 64 64 65 66 66 68 69 70 70 70 71 71 72 72 72 72 72 72 72 72 73 73 73 72 72 72 70 71 71 71 71 71 71 71 70 69 70 70 69 69 69 68 67 66 65 65 65 64 65 65
47 49 49 49 50 51 52 53 53 54 56 58 61 63 64 65 65 66 67 69 70 70 71 71 71 72 72 72 72 72 72 72 73 73 73 73 73 72 72 71 70 71 71 71 71 71 71 70 69 69 69 69 68 69 68 67 66 65 65 65 64 64 65
46 49 49 49 49 51 52 53 54 54 56 58 60 63 64 64 65 65 66 68 69 70 70 71 71 71 72 72 72 72 72 72 73 73 73 73 73 72 72 72 71 71 71 71 71 71 70 70 70 69 69 69 68 68 68 67 66 65 65 64 64 64 64
45 47 49 49 49 50 51 54 55 55 56 58 60 62 64 64 65 65 66 67 69 70 70 71 71 71 72 72 72 72 72 72 73 73 73 73 73 72 72 72 72 71 72 71 71 71 71 70 69 70 69 69 68 68 67 67 66 65 65 64 64 64 64
45 47 48 49 49 49 50 53 56 57 57 59 60 62 64 64 64 65 66 67 68 69 70 70 71 71 72 72 72 72 72 73 73 73 73 73 72 72 72 72 72 72 71 71 71 71 71 70 69 69 69 68 68 68 67 67 66 65 64 64 64 64 64
45 47 48 49 49 49 50 52 56 59 59 60 61 63 64 64 64 65 65 66 68 68 69 70 71 71 72 72 72 72 72 73 73 73 73 72 72 72 72 72 72 72 72 72 71 71 71 71 70 69 69 69 68 68 67 67 66 65 64 64 64 64 64
47 48 48 49 50 50 51 52 55 58 60 60 62 63 64 64 64 64 65 66 67 68 69 70 71 71 71 72 72 72 72 72 73 73 73 72 72 72 72 72 71 72 72 71 71 71 71 71 70 69 69 69 68 68 67 67 66 66 65 65 65 64 64
48 49 50 50 50 51 52 55 57 58 60 61 62 63 64 64 64 64 65 66 67 68 69 70 70 71 71 71 72 72 72 72 72 72 73 72 72 72 72 72 72 71 72 71 71 71 71 71 70 70 69 69 68 68 67 67 67 66 65 64 65 64 64
48 50 51 50 52 52 54 57 58 58 59 60 61 63 64 64 64 64 65 66 67 68 69 70 70 71 71 71 71 72 72 72 72 73 72 73 72 72 72 72 72 71 71 71 71 71 71 71 70 70 69 69 68 68 68 67 67 66 66 65 65 65 64
55 49 50 51 52 52 55 57 58 59 59 59 60 62 64 64 64 64 65 65 66 68 69 69 70 71 71 71 71 72 72 72 72 73 73 73 73 72 72 72 72 72 71 71 71 71 71 70 70 70 70 69 69 68 68 67 67 66 66 65 65 65 64
48 48 49 50 51 52 54 57 58 58 59 60 60 61 63 64 64 64 65 65 66 67 68 69 70 70 71 71 71 72 72 72 72 73 73 73 73 73 72 72 72 72 71 71 71 71 71 71 70 70 70 70 69 69 68 67 67 67 66 66 65 65 64
48 48 49 50 51 52 54 57 58 58 60 61 61 61 63 64 64 64 64 64 65 66 68 69 70 70 71 71 71 72 72 72 72 72 73 73 72 72 72 72 71 71 71 71 71 71 71 70 70 70 70 70 70 69 69 68 68 65 61 63 66 65 65
48 48 48 50 51 51 53 56 58 59 60 61 62 62 63 64 64 64 64 64 65 66 67 68 69 70 70 71 71 72 72 72 72 72 72 72 72 72 72 72 71 71 71 71 71 71 70 70 70 70 70 70 70 69 69 69 68 62 61 61 63 65 65
48 48 48 49 50 51 53 55 57 59 60 61 62 63 63 64 64 64 64 64 64 65 66 67 68 69 70 70 71 72 72 72 72 72 72 72 72 72 72 72 71 71 70 70 70 71 71 70 69 69 70 70 70 70 69 69 64 60 60 61 61 63 66
51 51 50 51 53 54 54 55 57 59 60 60 61 63 63 64 64 64 64 64 64 64 65 66 67 68 69 70 71 72 72 72 72 72 72 72 72 72 72 72 71 71 70 70 70 70 71 70 70 70 70 70 70 70 70 69 63 60 59 60 60 61 64
53 53 52 52 53 53 55 56 57 59 60 61 61 62 63 65 64 65 65 64 64 64 65 66 67 68 69 69 70 71 72 72 71 71 71 72 72 72 72 72 71 71 70 70 70 70 71 70 70 70 71 71 70 70 70 70 62 59 58 59 60 61 63
53 54 53 53 54 55 55 56 57 58 59 60 61 61 63 64 65 65 65 65 65 64 65 65 66 67 68 69 70 71 71 71 71 71 71 71 72 72 72 72 71 71 70 70 70 70 71 70 70 70 71 71 71 70 70 70 60 58 58 58 58 60 62
53 54 54 54 55 55 56 55 55 56 58 61 62 62 62 63 64 65 64 65 65 64 64 65 66 67 68 69 69 70 71 71 71 71 71 71 71 72 72 72 71 71 71 70 71 71 71 71 71 71 71 71 71 71 70 69 58 58 58 57 58 59 64
44 51 54 55 55 54 55 55 56 57 60 61 63 63 63 62 63 64 65 65 64 64 64 64 65 65 67 68 69 70 71 71 71 71 71 71 71 71 71 72 72 71 71 71 71 71 71 71 71 71 71 71 70 70 69 65 59 57 56 57 57 59 65
43 47 49 52 57 59 62 63 61 60 62 64 64 65 65 64 63 64 64 65 65 64 64 64 64 65 66 67 68 69 70 71 71 71 71 71 71 71 71 72 72 72 72 71 71 71 71 71 71 71 71 70 70 69 67 66 60 56 55 55 56 60 66
54 34 42 50 54 57 59 61 62 62 65 66 66 66 66 65 64 64 64 65 64 64 64 64 63 64 64 66 67 68 69 70 71 71 71 71 71 71 71 72 72 72 72 72 71 71 71 71 70 70 70 70 69 64 67 67 61 54 55 55 55 61 66
64 62 61 64 61 57 61 63 64 64 63 65 67 68 68 67 66 65 65 65 64 64 64 64 64 64 63 64 66 67 68 69 70 71 71 71 72 72 72 72 72 72 72 71 71 71 71 70 70 69 69 68 67 66 67 66 63 58 54 54 54 59 66
66 66 65 65 66 67 65 65 65 64 63 64 66 67 68 68 67 66 66 65 65 64 63 63 64 64 63 64 64 66 67 69 70 71 72 72 72 73 73 73 72 72 72 71 71 70 70 69 69 68 67 66 66 65 64 64 62 59 52 52 54 58 61
66 66 67 67 67 66 66 68 67 65 64 64 65 66 67 68 68 67 67 66 65 65 64 64 63 63 63 63 64 65 67 69 70 71 72 73 73 73 73 73 73 72 71 70 70 69 68 67 67 66 65 64 64 64 63 61 59 58 53 53 54 56 59
64 65 67 67 65 65 66 67 68 69 68 69 69 69 69 68 68 68 67 67 66 66 65 64 63 63 63 64 64 66 68 70 71 72 73 73 73 73 72 72 71 70 69 69 68 68 66 66 65 64 64 63 63 63 62 61 60 56 58 54 54 54 56
64 65 66 66 65 66 66 66 66 66 68 69 70 70 70 69 69 69 68 68 69 68 67 66 66 64 64 66 67 68 70 72 72 73 73 73 73 73 72 71 70 69 69 68 67 66 65 65 64 64 64 63 62 62 61 60 60 57 57 57 54 54 54
63 64 65 65 65 66 66 67 67 67 68 69 69 69 69 69 69 68 68 69 71 72 72 71 71 69 68 69 70 71 73 73 73 73 73 73 72 72 71 69 69 68 67 67 66 65 64 64 64 64 63 62 61 60 60 60 60 59 58 56 54 54 53
63 64 65 65 65 65 65 66 67 67 67 67 68 69 69 69 69 68 67 69 71 73 74 74 73 72 71 72 72 73 73 73 73 72 72 72 71 70 69 68 67 66 66 65 64 64 63 63 63 63 62 62 61 61 60 60 60 59 59 58 56 55 54
63 63 64 65 65 65 64 64 65 65 66 66 67 68 68 68 69 69 68 69 71 72 73 72 73 72 73 73 73 73 73 72 71 70 68 68 68 68 67 66 66 65 64 64 64 63 63 63 62 62 62 62 61 61 61 60 59 59 59 58 57 57 57
62 63 64 65 65 65 64 64 64 64 65 65 66 67 68 68 68 68 69 70 73 73 72 71 70 71 70 71 71 70 70 69 68 67 67 67 67 66 66 65 64 65 64 63 63 63 63 62 62 62 62 61 61 61 61 60 59 59 59 58 57 57 56
61 62 63 65 65 66 65 64 64 64 65 65 66 67 68 68 68 68 68 69 70 69 68 67 66 67 67 67 67 67 67 67 67 66 65 64 62 60 63 65 65 64 61 61 64 64 63 63 62 62 62 62 62 62 61 61 60 59 55 58 55 56 56
60 61 62 65 66 66 65 64 64 64 65 65 66 67 67 67 67 68 68 68 68 68 67 67 67 67 67 67 67 66 66 65 65 63 62 60 58 57 53 49 45 53 62 60 56 57 58 57 62 63 62 62 63 63 62 61 61 55 51 50 49 49 51
60 61 63 64 65 65 65 64 65 65 65 65 66 67 67 67 67 67 68 68 68 68 67 67 67 67 66 66 66 65 64 64 63 62 62 62 60 58 57 55 51 42 42 47 49 50 53 53 53 55 58 62 63 59 57 58 53 49 49 48 47 47 47
59 61 62 63 64 65 66 66 64 64 65 65 66 66 66 67 67 67 67 67 67 67 66 65 65 65 65 65 65 64 63 63 62 62 61 60 60 59 59 58 55 53 44 41 44 44 43 47 50 51 53 55 57 57 57 52 49 48 47 47 46 46 46

ECMWFFLT1_sfc_dewp_027.txt.gz
Dewpoint
47 48 50 52 54 55 56 57 57 58 59 60 61 62 62 63 65 66 66 67 67 67 68 69 70 70 70 69 69 70 70 70 70 70 70 70 70 70 71 71 71 72 73 73 73 73 73 73 73 73 72 72 72 70 69 69 68 68 66 66 66 66 65
45 46 47 50 52 54 55 57 58 58 58 60 61 62 62 63 64 65 66 67 67 67 68 69 70 70 70 70 70 70 70 70 70 70 70 70 71 71 71 71 71 71 72 73 73 73 73 72 72 72 72 72 71 70 69 69 68 67 66 66 65 65 65
44 45 46 47 50 53 54 56 57 58 58 59 60 61 62 63 64 65 66 67 67 67 68 68 70 70 70 70 70 70 70 70 70 70 70 70 70 70 71 71 71 71 72 72 73 72 73 72 72 72 71 71 70 70 70 69 68 67 66 66 65 65 65
44 44 46 47 49 51 53 54 56 57 57 58 59 61 62 63 64 65 66 67 67 67 67 68 69 70 70 70 70 70 70 70 70 70 70 70 71 71 71 71 71 71 71 72 72 72 72 72 71 71 72 70 70 69 69 69 68 67 66 66 65 65 65
43 44 45 46 47 49 51 53 55 57 57 57 59 61 62 63 64 65 65 67 67 67 67 68 69 69 70 70 70 70 70 70 70 70 70 71 71 71 71 71 71 71 71 71 71 71 71 71 70 70 71 70 70 69 69 69 68 67 66 65 65 65 64
44 44 45 45 46 47 49 51 53 55 56 57 58 60 62 62 63 64 65 66 67 67 68 68 69 69 69 70 70 70 71 71 71 71 71 71 71 71 71 71 71 71 71 71 71 71 71 71 70 70 70 70 69 69 68 68 68 67 66 65 64 64 64
46 45 45 46 46 47 48 49 51 53 56 57 58 59 61 62 63 64 64 65 67 67 68 68 69 69 70 70 70 70 70 71 71 71 71 71 71 71 71 71 71 71 71 71 71 71 70 70 70 70 70 69 69 69 68 68 67 67 65 65 64 64 64
46 46 46 46 46 47 47 49 49 51 54 57 57 58 60 62 63 63 64 65 66 67 68 68 69 70 70 70 70 70 70 70 71 71 71 71 72 71 71 71 71 71 71 71 71 71 70 70 70 70 69 69 69 69 68 68 67 67 65 64 64 63 64
46 47 47 46 47 47 47 49 50 50 52 55 57 58 60 62 62 63 64 64 66 67 67 68 69 69 70 70 70 70 70 70 71 71 71 71 71 71 71 71 71 71 71 71 71 71 70 70 70 69 69 69 69 68 68 68 67 67 66 65 64 63 63
45 47 49 48 47 47 48 49 50 51 53 55 57 58 60 61 62 63 64 64 65 66 67 68 69 69 70 70 70 70 70 70 71 71 71 71 71 71 72 71 71 72 71 71 71 70 71 70 70 70 69 69 69 68 68 68 68 67 66 65 64 63 63
46 47 48 49 49 48 49 49 51 53 54 55 57 58 60 61 62 63 63 64 65 66 67 68 69 69 70 70 70 70 71 70 70 70 71 71 71 71 71 71 71 71 71 71 71 70 70 70 70 70 69 69 69 69 68 68 68 67 66 65 64 64 63
46 47 48 49 50 49 49 50 52 54 55 56 56 57 60 61 62 63 63 64 65 66 67 68 69 69 69 70 70 70 70 71 71 71 71 71 71 71 71 71 71 71 71 71 70 71 70 70 70 70 69 69 69 69 69 68 68 67 67 65 65 64 63
45 47 48 47 50 50 51 52 53 54 56 56 56 57 59 61 62 63 64 64 65 66 67 68 69 69 69 69 70 70 70 71 71 71 71 71 71 71 71 71 71 71 71 71 71 70 70 70 70 70 69 69 69 69 69 68 68 67 67 66 65 64 64
53 47 47 48 49 50 51 52 52 54 56 56 57 58 59 61 62 63 63 64 64 66 67 68 69 69 69 70 70 70 70 71 71 71 71 71 72 72 71 71 71 71 71 71 71 70 70 70 70 70 70 69 69 69 69 68 68 67 67 66 65 65 64
43 45 47 48 49 51 51 51 53 54 56 57 58 58 59 61 62 63 64 64 65 66 67 68 69 69 69 70 70 70 70 71 71 71 72 72 72 72 72 72 72 72 71 71 71 71 71 71 71 70 70 70 69 69 69 68 68 68 67 66 66 65 64
40 43 46 47 48 49 51 52 53 54 56 58 58 59 60 61 62 63 63 64 64 65 67 68 68 69 69 69 70 70 71 71 71 71 72 72 72 72 72 72 72 72 71 71 71 71 71 71 71 71 70 70 69 69 69 68 68 66 61 63 66 65 65
40 41 43 46 49 50 51 52 54 55 56 58 59 59 60 61 62 63 63 63 64 65 66 68 68 69 69 69 70 70 71 71 71 71 71 72 72 72 72 72 72 72 71 71 71 71 71 71 70 70 70 70 70 69 69 69 68 62 61 61 62 65 65
43 43 43 46 49 51 52 53 54 56 56 57 58 60 61 62 62 63 63 63 64 65 66 67 68 68 69 69 70 70 71 71 71 71 71 72 72 72 72 72 72 71 71 71 71 71 71 71 71 70 70 70 70 69 69 69 64 61 60 61 61 62 66
45 45 45 47 50 52 51 52 54 56 56 57 57 59 60 62 62 63 63 64 64 65 66 67 68 68 69 69 70 70 71 71 71 71 71 71 72 72 72 72 72 71 71 71 71 71 71 71 71 70 70 70 70 70 70 69 64 61 60 60 60 61 63
46 46 46 47 49 50 51 52 54 55 56 57 58 58 60 62 62 63 63 64 64 65 66 67 67 68 68 69 70 70 71 71 71 71 71 72 72 72 72 72 72 71 71 71 71 71 71 70 70 70 70 70 70 70 70 70 64 60 59 59 59 60 62
54 52 48 48 49 50 52 52 53 55 57 58 58 59 59 61 62 63 63 64 64 65 66 66 67 68 68 69 70 70 71 71 71 71 71 72 72 72 72 72 72 72 71 71 71 70 70 70 70 70 70 70 70 70 70 70 63 59 58 58 58 59 61
52 54 53 51 50 51 53 53 54 55 57 59 60 60 60 60 61 62 63 64 64 64 65 66 67 67 68 69 69 70 70 71 71 71 71 71 72 72 71 72 72 71 71 71 71 70 70 70 70 70 70 70 70 70 69 70 62 59 58 57 57 59 63
58 47 50 54 54 53 54 54 54 55 58 59 60 60 60 60 61 62 63 63 64 64 64 65 66 67 68 68 69 70 70 71 71 71 71 71 71 71 71 71 71 71 71 71 70 70 70 70 70 70 70 70 70 69 69 70 63 58 57 57 57 58 64
65 63 59 55 54 56 58 58 57 58 58 58 59 60 61 61 61 62 63 64 64 64 64 65 65 66 67 68 69 69 70 71 71 71 71 71 71 71 71 71 72 71 71 71 70 70 70 70 70 70 70 70 70 70 70 70 62 56 56 56 56 59 65
65 66 65 65 65 64 61 60 60 59 60 59 59 60 61 61 62 63 63 64 64 64 64 64 65 66 66 67 68 69 70 70 71 71 71 71 71 71 71 71 71 71 71 71 71 70 70 70 70 70 71 70 70 66 69 70 63 55 56 55 55 60 65
64 65 66 66 66 66 66 66 62 61 60 60 59 60 62 62 62 64 64 64 64 64 64 64 65 65 66 67 68 69 69 70 71 71 71 71 71 71 71 71 71 71 71 71 71 70 70 70 70 70 70 71 70 70 70 69 66 59 55 54 54 57 66
64 65 65 65 66 67 66 67 64 62 61 61 63 64 63 63 63 63 64 65 65 64 64 65 65 65 66 66 67 68 69 70 70 70 71 71 71 71 71 71 71 71 71 71 71 71 70 70 70 70 70 70 70 70 69 69 67 61 53 53 53 55 61
64 64 65 66 67 66 67 66 66 66 65 65 66 67 66 65 64 63 64 64 64 64 64 65 65 65 65 66 66 68 69 69 70 70 71 71 71 71 71 71 71 71 71 71 71 70 70 70 70 70 68 68 68 68 67 65 63 63 54 53 52 54 59
64 64 64 64 65 66 67 66 67 67 68 69 70 68 68 67 66 65 64 64 64 65 66 66 66 66 66 66 66 67 68 69 69 70 70 71 71 71 70 71 71 71 71 71 71 70 70 69 68 67 66 65 64 64 63 63 62 58 57 52 52 53 56
64 64 65 65 65 65 66 66 66 67 67 67 68 68 68 68 67 67 67 66 68 69 68 67 66 66 66 65 65 66 67 68 69 69 70 70 71 71 71 71 71 71 71 71 70 70 68 67 66 66 65 64 62 62 61 61 61 57 55 55 52 53 54
64 64 65 64 64 65 65 65 65 65 66 67 67 67 67 67 68 67 67 68 69 70 69 68 67 65 65 65 65 65 66 67 68 69 70 70 71 71 71 71 71 70 70 70 69 68 66 65 65 64 64 63 62 61 61 60 60 59 57 55 53 54 54
64 65 65 65 65 64 64 65 65 66 66 66 67 68 67 67 67 67 67 68 71 71 70 69 67 65 65 64 64 65 65 66 67 68 69 71 71 71 71 71 70 70 69 68 67 66 66 65 65 64 63 63 63 61 60 60 60 60 59 58 57 57 55
63 64 65 65 65 65 64 65 65 65 66 66 67 67 68 67 67 67 67 67 70 72 72 71 69 67 65 64 64 65 65 66 67 69 70 71 72 72 72 71 70 69 68 68 67 66 66 65 65 64 64 63 62 61 60 60 60 60 59 59 59 59 58
62 64 65 66 65 65 64 65 65 65 66 66 66 67 68 68 67 67 68 69 71 72 72 71 70 70 69 68 68 68 69 70 70 71 71 72 72 71 70 70 69 68 67 67 67 66 66 65 64 64 64 64 62 61 60 60 60 60 59 59 60 59 59
62 63 65 65 65 64 64 64 65 65 66 66 67 67 67 67 67 67 67 68 70 69 69 69 68 69 69 70 70 70 70 70 70 70 70 70 69 68 69 69 68 68 68 68 68 67 66 65 65 65 65 64 62 61 60 60 60 60 57 60 56 58 60
61 62 64 65 65 64 64 65 65 65 65 65 66 67 67 67 67 67 68 67 67 67 67 66 67 68 69 69 70 70 69 70 70 70 69 68 65 62 57 52 49 57 67 66 62 61 59 59 65 65 64 63 63 63 62 61 61 55 51 50 49 50 52
60 61 63 64 65 65 65 65 65 65 65 65 66 66 67 67 67 67 67 67 67 67 67 67 67 67 68 68 69 68 69 69 69 69 68 66 65 64 61 57 53 44 45 56 58 56 53 54 54 55 58 63 62 59 54 53 51 49 48 47 47 48 48
59 60 62 63 64 64 65 65 65 65 65 65 66 66 66 66 67 66 66 66 66 66 65 65 66 66 66 67 67 67 67 69 68 68 66 65 65 64 61 60 58 53 46 44 50 51 50 50 50 51 52 55 58 58 57 51 48 48 47 47 46 46 46

ECMWFFLT1_sfc_dewp_030.txt.gz
Dewpoint
52 54 55 55 56 57 58 58 59 59 60 61 62 62 63 64 65 66 67 67 68 68 68 69 69 70 70 70 70 70 71 70 70 70 70 70 70 70 70 70 70 71 71 72 72 73 74 74 74 74 75 75 74 73 73 72 72 71 70 69 69 69 68
50 52 53 54 55 56 57 58 58 59 59 60 61 62 62 63 65 65 66 67 67 68 68 68 69 69 70 70 70 70 70 70 70 71 70 70 70 70 70 70 71 71 71 72 72 73 74 74 74 74 74 74 74 73 72 72 71 70 69 69 68 68 68
47 50 51 53 54 55 57 57 58 58 59 59 60 61 62 63 64 65 66 66 67 67 68 68 69 69 69 70 70 70 70 70 70 70 70 69 69 69 70 71 71 71 71 72 73 73 74 74 74 74 74 74 74 73 72 71 71 70 69 69 68 67 67
45 47 50 52 54 55 56 57 58 57 58 58 59 60 62 63 64 65 65 66 66 67 67 68 68 69 69 70 70 70 70 70 70 70 70 70 70 70 70 70 71 71 71 71 72 73 74 74 74 74 74 73 73 73 72 71 70 70 69 69 68 68 67
42 44 47 50 51 53 55 56 57 58 57 57 59 61 62 62 63 64 65 65 65 66 66 67 67 68 69 70 70 70 70 70 70 70 70 70 70 70 70 70 70 71 71 72 73 73 73 73 73 73 73 73 73 72 72 71 70 70 69 68 68 67 67
39 41 44 46 49 50 53 54 55 56 57 57 58 59 60 61 62 62 64 65 66 66 67 67 68 69 69 69 69 70 70 70 70 70 70 70 70 70 70 70 70 71 71 71 72 73 73 73 73 73 73 72 72 72 71 71 70 70 69 68 68 67 67
40 41 42 44 47 48 50 52 54 55 56 57 57 59 60 60 61 62 63 64 65 66 66 66 67 68 69 69 70 70 70 70 70 70 70 70 70 70 71 71 71 71 71 72 72 72 72 73 73 72 72 72 72 71 71 71 70 70 69 68 68 67 67
42 41 42 43 44 46 47 50 52 54 56 57 57 57 59 60 61 61 62 63 64 65 65 65 66 68 68 69 69 69 70 70 70 70 70 70 70 70 71 71 71 71 72 71 72 72 72 72 72 72 72 72 72 71 71 70 70 70 69 68 67 67 66
43 44 43 42 43 44 46 48 51 53 55 57 57 58 58 60 60 61 62 63 64 64 65 65 66 67 68 69 69 70 70 70 70 70 70 70 70 70 70 70 71 72 71 71 71 72 72 72 72 72 72 71 71 71 71 70 70 70 69 68 68 67 66
44 46 47 46 45 44 47 47 50 52 54 56 58 59 58 59 60 61 61 62 63 64 65 65 66 66 68 68 69 69 70 70 70 70 70 70 70 70 70 70 71 71 71 71 71 71 72 72 72 72 71 71 71 71 71 70 70 69 69 68 68 67 67
45 48 49 49 49 47 48 47 50 52 53 56 57 57 59 59 60 61 62 62 63 63 64 65 66 66 67 68 68 68 69 69 70 70 70 70 70 70 70 70 70 71 71 71 71 71 71 72 72 71 71 70 70 70 70 70 70 69 68 68 68 67 67
48 49 50 50 51 50 48 49 51 52 54 55 56 56 59 60 59 60 61 62 63 63 64 65 66 66 67 67 68 69 69 69 69 69 70 70 70 70 70 70 71 71 71 71 71 71 71 71 71 71 71 70 70 70 70 70 70 69 69 68 68 67 67
47 49 49 49 51 50 51 52 52 52 54 53 53 56 57 58 59 60 62 62 63 63 64 65 66 67 67 67 68 69 69 69 69 70 70 70 70 71 71 71 71 71 71 71 71 71 71 71 71 71 71 71 70 70 70 70 70 70 69 69 68 67 67
55 50 50 52 54 53 52 52 52 53 53 53 53 55 56 57 58 60 61 62 63 63 64 65 66 67 67 68 68 69 69 69 69 70 70 70 71 71 71 71 71 72 72 72 71 70 71 71 71 71 71 71 70 70 70 70 69 69 69 69 68 67 67
42 44 47 48 51 53 53 52 53 53 53 53 53 54 55 57 58 60 62 62 63 63 64 65 66 67 67 68 68 69 69 70 70 70 71 71 71 71 71 71 72 72 72 72 71 71 71 71 71 71 71 71 70 70 70 70 69 69 69 69 69 68 67
39 41 45 47 49 50 53 53 53 54 54 55 55 55 55 57 59 60 61 61 62 64 64 65 66 67 67 68 68 69 70 70 71 71 71 71 71 71 72 71 72 71 72 72 72 72 72 71 71 71 70 70 70 70 70 70 70 66 62 64 68 68 68
40 41 42 46 49 50 51 53 54 54 55 56 56 56 56 57 58 59 59 61 62 63 64 65 66 67 67 68 68 69 70 70 71 71 71 71 71 71 72 72 72 72 72 72 72 72 72 71 71 70 70 70 70 70 70 70 69 63 61 62 63 67 68
42 43 43 43 47 49 51 51 53 54 54 54 55 56 56 57 58 59 60 61 62 62 64 65 66 66 68 68 69 69 70 70 71 71 71 71 71 72 72 72 72 72 72 72 72 72 72 71 71 71 71 71 70 70 70 70 64 62 61 61 61 63 68
42 43 45 47 48 51 49 49 50 53 53 53 54 55 55 57 57 59 60 62 62 63 64 65 66 67 68 68 69 70 70 70 70 71 71 71 72 72 72 72 72 72 72 71 72 72 71 71 71 71 71 71 71 70 70 70 64 61 60 61 61 61 64
48 46 47 47 47 47 50 52 51 52 53 54 55 55 56 58 57 59 60 61 63 63 65 65 66 67 67 68 69 70 70 70 70 71 71 71 72 72 72 72 72 72 72 72 72 72 71 71 71 71 71 71 71 71 70 70 64 60 59 59 60 60 63
53 54 55 54 53 49 51 53 54 54 55 54 54 56 58 58 59 60 61 63 63 64 65 66 66 67 67 68 69 70 70 70 70 70 71 71 72 72 72 72 72 72 72 72 71 71 71 71 71 71 71 71 71 71 71 70 63 59 58 58 58 60 61
63 63 59 55 54 54 54 53 54 53 54 57 58 57 57 58 59 59 60 62 63 64 65 66 66 67 68 68 69 69 70 70 70 70 71 71 71 71 72 72 72 72 72 72 72 72 72 72 71 71 71 71 71 71 70 70 61 59 58 58 58 59 64
64 64 64 62 58 54 56 56 56 55 59 60 58 58 57 58 59 60 61 62 63 64 64 65 66 67 68 68 69 69 70 70 70 71 71 71 71 71 71 72 72 72 72 72 72 71 71 71 71 71 71 71 71 71 71 71 63 58 57 57 57 58 66
64 65 65 65 65 65 65 63 58 58 56 58 59 59 59 59 61 62 63 63 63 64 64 65 66 67 68 68 69 69 70 70 71 71 71 71 71 71 71 72 72 72 72 72 71 71 71 72 71 72 71 71 71 71 70 70 64 57 56 56 56 59 66
64 64 65 65 66 66 66 66 65 59 60 59 58 60 61 60 61 62 63 64 63 64 64 65 66 67 67 68 69 70 70 71 71 71 71 71 71 71 71 71 72 72 72 72 72 72 72 71 71 71 71 71 71 66 69 70 65 56 57 56 55 60 67
63 64 64 65 66 67 67 67 64 60 59 59 61 62 63 61 62 63 63 64 63 63 64 65 66 67 67 68 69 70 70 71 71 71 71 71 71 71 71 72 72 72 72 72 72 71 71 71 71 71 71 71 71 70 70 70 70 62 56 56 55 57 67
64 64 64 65 66 67 67 67 67 65 65 66 64 62 62 62 62 63 64 64 64 64 64 65 66 67 68 69 69 70 70 70 71 71 71 71 71 72 72 72 72 72 72 71 72 72 72 71 71 70 71 71 71 71 71 70 70 65 55 54 54 55 61
64 64 65 65 67 66 66 67 67 67 67 68 68 66 63 64 64 64 65 65 64 64 64 67 68 68 68 68 69 69 70 70 71 71 71 71 71 71 71 72 72 72 72 72 72 71 71 71 71 70 71 71 71 71 71 69 66 67 55 55 53 54 58
64 64 64 65 65 66 66 66 66 66 66 67 68 68 67 65 64 65 65 65 65 65 67 67 67 68 68 68 68 69 70 70 71 70 71 71 71 71 71 71 72 72 72 72 72 71 71 71 71 70 70 70 70 71 71 71 68 61 60 54 53 53 56
65 65 65 65 65 65 65 65 66 66 66 67 67 68 67 68 66 66 65 65 68 68 68 68 68 68 68 68 68 68 69 70 70 70 71 71 71 71 71 71 71 71 72 72 71 71 71 71 71 70 70 69 68 69 69 69 69 61 58 57 53 53 54
64 64 64 64 64 65 66 65 65 65 66 66 67 67 67 67 68 68 67 68 69 69 69 68 68 68 67 67 67 68 68 69 70 70 71 71 71 71 71 71 71 71 71 71 72 71 71 71 70 70 69 69 67 66 66 66 66 64 60 56 54 53 54
64 65 64 64 64 65 65 66 66 66 65 66 67 67 67 67 67 67 67 68 69 71 71 69 68 68 67 67 67 67 68 68 69 70 70 71 71 71 71 71 71 71 71 71 71 71 71 71 70 70 69 68 67 65 65 64 64 63 61 58 55 55 55
64 64 64 64 64 65 65 65 65 65 65 65 66 67 67 67 68 68 68 68 69 71 72 71 69 68 68 67 67 67 67 67 67 68 69 70 70 71 71 72 72 71 71 71 72 71 71 70 69 69 68 68 67 66 65 63 62 61 59 58 58 59 59
64 64 65 65 65 65 65 65 65 65 65 66 66 67 67 67 67 67 68 68 69 70 71 71 71 70 69 68 68 67 67 67 68 68 70 70 71 71 72 72 72 71 71 70 71 70 70 69 68 68 68 67 67 65 62 61 61 60 59 59 60 61 62
64 64 65 65 65 65 65 65 65 65 65 66 66 67 67 67 67 67 67 67 68 68 69 69 68 69 70 70 70 69 68 68 68 69 69 70 71 71 72 71 71 71 72 72 72 71 70 69 69 69 69 68 67 63 61 60 60 60 56 60 58 61 63
63 64 64 65 65 65 65 65 65 65 65 66 66 66 66 66 66 66 66 67 67 67 68 68 68 68 69 69 69 69 70 69 69 69 69 69 69 70 71 66 60 68 71 71 67 65 63 63 69 68 66 64 63 63 62 61 62 56 52 51 52 53 55
62 62 63 64 64 64 64 65 66 65 65 66 66 66 66 66 66 66 66 66 67 66 66 67 67 67 67 67 67 66 67 68 69 69 70 70 70 70 70 68 64 53 54 61 64 59 55 56 57 57 61 64 64 62 59 58 54 50 49 49 49 50 49
60 61 62 63 63 63 64 64 64 64 65 65 66 66 66 66 66 66 66 66 66 66 66 65 65 65 65 65 65 65 65 66 65 65 66 67 68 68 68 65 64 63 52 52 56 54 53 53 53 54 55 57 60 60 60 52 48 47 47 48 48 48 47

ECMWFFLT1_sfc_dewp_033.txt.gz
Dewpoint
58 59 60 61 61 61 62 64 65 64 65 66 66 66 66 67 69 70 70 71 72 72 73 73 73 73 73 74 74 74 74 74 74 73 73 73 73 73 74 73 74 74 74 74 75 75 76 77 77 76 76 75 75 75 76 76 76 75 76 76 75 74 74
56 57 58 59 60 61 62 64 65 64 65 65 66 67 66 67 69 69 70 71 72 72 73 73 73 73 73 73 74 74 74 74 74 74 74 74 74 74 74 74 74 74 75 75 75 76 77 77 77 77 76 76 75 75 75 75 76 75 75 75 74 74 74
55 56 57 58 59 60 62 63 64 64 64 64 64 65 66 68 69 69 70 70 71 72 72 72 73 73 73 73 74 74 74 74 74 73 73 72 73 71 73 74 74 74 74 75 75 75 76 76 77 77 76 76 74 74 75 75 75 75 75 75 74 73 73
54 54 56 58 60 61 62 62 63 63 63 63 63 64 66 68 68 69 70 69 70 71 72 72 72 72 72 73 73 74 74 74 74 73 72 72 72 72 73 74 74 73 74 74 74 74 75 76 76 77 76 76 75 75 74 74 74 75 75 75 74 73 73
52 54 55 57 58 60 60 60 61 62 61 61 63 65 66 67 66 67 68 69 68 70 70 71 70 71 72 73 72 73 73 74 74 73 73 73 73 73 73 72 72 72 73 73 74 75 76 76 75 76 76 76 75 75 74 75 74 74 75 75 74 73 72
47 52 54 55 56 57 58 59 59 59 60 60 61 63 64 64 64 64 65 68 68 68 70 71 71 71 72 72 72 72 73 74 74 74 73 73 74 73 72 72 72 72 71 73 73 74 75 75 75 75 75 74 74 74 74 74 73 74 74 74 74 73 71
46 50 52 53 54 56 57 58 58 58 59 60 60 62 62 61 63 63 64 65 66 68 68 69 69 70 72 71 72 73 73 73 73 73 73 73 73 73 73 73 73 72 72 74 73 73 74 75 75 76 75 74 75 74 75 75 74 73 74 74 73 73 72
48 49 51 52 52 53 55 57 58 58 59 60 59 59 60 60 61 62 63 63 65 65 66 67 68 71 71 71 71 72 72 72 72 72 72 72 72 73 72 73 73 73 73 73 74 74 73 75 74 75 75 74 75 75 75 75 75 73 73 74 73 73 72
46 52 50 46 49 49 52 56 58 58 61 61 61 61 60 60 60 61 62 63 64 64 65 65 66 68 71 71 72 72 72 71 72 72 72 72 71 71 71 72 73 73 73 72 72 74 74 74 74 75 76 75 75 76 76 76 75 74 74 74 73 73 71
49 53 55 50 49 46 52 55 59 61 63 64 63 63 61 60 61 61 61 62 62 63 64 65 65 67 70 71 71 71 72 72 72 71 70 70 70 70 70 70 71 72 72 72 71 72 74 74 75 75 76 75 76 76 76 76 75 75 74 74 74 73 73
51 57 58 54 54 53 54 52 58 61 62 64 64 62 62 62 62 61 61 62 61 62 63 64 66 66 68 69 69 69 71 70 70 70 70 70 69 70 69 69 70 71 71 71 71 72 73 74 75 75 76 74 75 75 75 75 75 75 74 74 74 73 72
55 56 60 60 60 57 54 57 60 61 63 64 63 61 64 64 61 60 61 62 62 62 63 64 64 65 67 67 67 69 70 70 70 70 70 69 69 69 69 69 70 70 71 71 71 72 72 73 74 74 75 75 75 75 75 75 75 75 74 73 73 73 72
53 58 59 56 61 60 62 62 60 60 62 61 59 62 62 61 61 60 64 63 62 62 63 65 65 67 66 66 66 69 69 69 70 70 69 70 70 70 70 70 69 70 70 71 71 71 71 72 73 74 74 75 75 74 75 75 75 75 75 74 74 73 73
54 50 54 58 59 61 61 61 61 61 62 61 60 62 61 61 61 62 64 63 63 62 63 64 66 67 68 67 68 69 69 69 71 71 71 71 72 72 71 70 70 71 72 72 71 71 71 71 72 73 74 74 74 75 75 75 75 75 75 74 74 73 73
49 48 53 54 61 63 62 61 63 63 62 62 60 60 61 61 61 64 65 63 64 62 62 66 67 68 67 68 69 70 71 71 71 72 73 73 73 73 72 72 72 72 72 73 72 71 71 71 71 73 73 73 74 74 74 74 74 74 74 74 74 73 72
43 45 47 51 57 58 63 62 63 64 63 63 61 62 59 62 63 62 61 62 63 64 63 65 68 69 68 68 70 72 72 72 73 73 74 73 74 74 74 72 72 72 72 73 72 72 73 73 72 72 73 73 73 74 74 73 73 69 64 66 73 73 72
49 49 49 53 58 57 61 62 63 64 64 64 63 62 61 62 62 62 59 60 60 64 64 64 68 67 67 68 70 71 72 73 73 73 73 74 74 74 74 73 73 73 74 74 73 73 74 73 72 72 72 72 72 73 73 73 72 64 63 63 65 71 73
51 56 54 52 56 56 58 59 61 63 62 60 60 61 61 62 61 60 59 59 60 61 62 64 65 65 69 70 72 72 73 72 73 73 73 73 74 74 74 73 73 73 74 74 73 74 74 73 73 73 73 72 72 72 73 73 66 62 62 62 62 65 72
50 52 54 58 56 58 53 53 56 62 60 58 59 59 58 60 59 61 61 62 62 63 62 63 64 68 70 70 71 72 73 73 73 73 73 74 73 74 74 74 74 74 74 73 74 74 74 74 73 73 73 73 73 72 72 72 65 62 61 62 61 62 66
50 49 52 53 54 53 55 56 56 55 58 62 60 57 57 59 58 61 61 61 64 63 65 67 66 68 68 71 72 73 73 73 73 73 73 74 74 74 74 74 74 73 73 73 74 74 74 73 73 73 74 73 73 73 73 73 65 61 60 60 60 61 63
60 61 62 64 64 61 61 60 60 59 59 56 56 58 58 58 58 60 60 62 63 65 68 68 68 68 69 71 71 72 73 73 73 73 74 74 74 74 74 74 74 73 73 73 73 73 73 73 73 72 73 73 73 73 73 72 64 60 60 59 58 60 61
62 63 64 65 66 67 67 63 61 57 58 58 58 56 57 57 56 56 56 59 61 63 65 68 69 68 69 71 71 72 73 73 73 73 74 74 74 74 73 74 74 74 74 74 73 73 73 74 73 72 73 73 72 72 72 72 62 60 59 58 58 59 66
64 65 66 67 66 67 68 68 66 62 61 59 56 55 56 55 55 56 56 58 60 65 63 65 68 68 70 70 70 72 72 73 73 73 73 73 73 73 73 74 74 74 74 74 74 73 73 72 72 73 73 73 72 72 72 72 65 59 58 57 57 59 68
64 65 65 66 68 68 69 69 69 67 60 58 59 57 58 57 58 59 61 61 61 63 62 64 68 70 71 71 72 73 73 73 73 73 73 73 73 73 73 74 74 74 74 73 73 73 72 73 72 72 72 72 72 72 71 71 65 57 56 56 56 61 69
64 65 66 67 67 67 68 70 70 69 63 60 58 59 61 59 59 59 64 65 60 62 64 67 69 70 70 71 72 73 73 73 72 72 73 73 73 73 73 74 74 74 75 74 73 73 73 72 72 72 72 72 72 67 69 72 66 56 56 56 55 62 70
66 66 66 67 68 69 70 71 69 65 60 58 62 63 64 60 62 64 66 64 61 62 65 68 68 71 71 70 72 72 73 74 73 73 73 73 73 74 74 74 74 74 74 73 73 73 72 72 71 71 72 71 72 72 72 72 73 63 55 55 55 57 70
65 66 66 67 68 69 69 69 70 69 68 70 70 64 62 60 64 66 67 67 66 65 64 67 70 72 72 72 71 72 73 73 73 73 73 73 74 74 74 74 74 73 73 72 72 72 73 73 72 71 72 71 72 72 72 72 73 66 54 54 54 56 62
65 65 67 68 68 68 69 68 69 69 68 70 68 66 64 67 68 69 70 68 67 68 67 70 72 72 72 73 72 72 73 74 74 74 73 74 74 74 74 73 73 73 73 72 73 72 73 73 72 72 72 72 72 73 73 70 67 71 56 55 54 55 57
65 65 65 66 67 68 68 68 68 67 68 68 68 69 68 65 68 69 70 69 70 69 70 71 71 72 73 73 72 73 73 74 74 73 72 73 73 73 73 74 74 74 74 74 73 73 73 73 73 72 72 72 72 72 72 73 71 65 63 54 54 53 55
65 65 65 65 66 67 67 68 68 67 68 68 69 70 71 71 69 70 70 72 73 72 70 72 73 73 73 73 73 73 73 74 72 72 72 73 74 74 74 74 74 74 74 74 73 72 72 72 73 73 71 71 72 72 72 73 74 65 60 59 54 54 54
64 64 64 65 65 66 66 67 67 67 67 68 68 69 69 71 72 72 72 72 74 75 71 72 73 72 72 71 72 73 73 73 73 73 73 73 73 74 74 74 74 73 74 74 73 73 72 72 71 72 72 72 72 73 72 73 73 71 62 58 55 55 54
64 64 64 65 66 66 66 66 67 67 67 67 68 68 69 69 69 69 69 70 72 74 74 73 72 72 72 72 73 72 72 73 73 73 73 74 73 73 74 73 73 73 73 73 73 73 72 73 72 72 72 73 72 72 72 73 73 71 67 60 58 57 55
64 65 65 65 66 66 66 66 66 66 67 66 67 67 68 68 69 69 70 70 71 73 74 74 72 72 72 72 71 72 72 72 70 70 71 73 72 73 73 73 74 73 74 74 73 73 72 72 72 72 71 71 71 71 72 72 72 71 68 66 64 63 61
64 65 65 66 66 66 66 66 66 66 66 66 67 67 67 68 68 69 70 70 72 72 74 74 75 72 72 72 73 72 72 72 72 71 71 73 73 72 73 73 73 73 73 72 72 72 71 71 71 70 70 70 71 72 70 70 70 71 69 67 66 65 64
64 65 65 65 66 66 66 66 66 66 66 66 67 67 67 67 68 69 70 70 71 72 73 73 73 74 74 75 74 74 73 73 73 72 72 73 74 73 74 73 72 73 73 73 73 73 71 71 70 71 70 70 71 72 69 69 69 69 64 67 62 64 62
64 64 64 65 66 66 66 66 66 66 66 66 67 67 67 68 68 68 69 69 70 71 71 71 72 72 71 71 71 71 72 71 71 72 71 69 70 72 72 71 64 69 73 73 67 60 55 54 69 74 73 74 75 74 72 70 70 62 58 56 54 55 56
63 63 64 64 64 65 65 65 66 66 66 66 67 67 67 67 67 67 67 68 68 69 69 70 69 69 69 69 68 69 69 69 70 70 70 70 69 70 71 71 73 61 57 58 58 55 51 51 50 51 55 70 73 72 63 63 60 54 52 50 50 51 52
61 62 63 64 64 64 64 64 65 65 65 66 67 67 67 67 67 67 66 67 67 68 68 68 68 68 68 69 69 69 70 70 71 70 71 71 71 70 71 70 70 72 64 58 57 56 53 51 51 51 53 54 62 68 72 60 53 50 50 49 49 50 50

ECMWFFLT1_sfc_dewp_036.txt.gz
Dewpoint
53 56 59 61 62 62 63 65 67 67 68 68 69 69 69 69 71 72 72 74 75 75 75 75 75 74 74 73 74 75 75 75 75 75 75 75 74 74 74 74 74 75 73 72 74 73 75 76 75 76 76 77 76 76 76 76 75 75 75 76 76 75 75
50 52 56 58 61 62 64 66 67 67 68 68 68 70 69 70 71 71 72 74 75 75 76 76 76 75 74 74 74 75 75 74 75 76 75 75 75 75 74 75 75 75 75 74 73 75 75 76 76 76 76 77 76 76 75 75 75 75 74 76 75 75 75
49 51 55 58 60 62 65 65 67 67 68 67 68 68 69 71 71 72 72 73 74 75 75 75 76 74 74 74 75 74 75 75 75 74 75 74 75 73 75 76 75 75 75 75 75 74 75 76 77 77 77 76 75 76 76 75 75 74 75 75 75 74 75
52 52 54 58 61 63 64 65 66 66 66 67 67 68 69 71 72 72 72 72 73 74 75 75 75 74 74 75 74 75 75 75 75 74 74 75 75 75 75 75 76 75 74 74 73 73 74 76 76 77 77 76 76 75 75 75 74 74 74 75 74 74 75
51 52 53 57 59 62 63 64 64 66 65 65 67 69 70 70 70 70 71 71 71 73 73 73 73 74 75 75 74 74 74 74 74 74 74 75 76 76 75 74 74 74 74 74 75 75 75 76 76 76 77 77 76 76 75 76 75 75 75 75 74 74 73
48 53 54 55 58 59 62 62 63 63 64 64 65 67 68 68 68 68 69 71 71 71 73 73 74 74 74 74 74 74 75 76 75 75 75 75 76 75 74 75 74 74 72 74 74 74 75 75 75 76 75 75 74 74 74 75 75 74 75 74 74 73 71
44 53 55 56 56 58 60 62 61 62 64 63 64 66 66 66 67 66 67 69 70 71 71 71 72 73 74 74 74 75 75 74 75 75 75 76 76 75 75 75 75 73 73 74 74 74 74 75 75 75 76 75 75 74 75 76 75 75 75 75 74 74 74
41 50 56 57 55 56 58 61 61 61 63 64 62 63 64 64 65 65 66 67 68 67 69 69 70 73 74 74 73 73 74 74 75 75 75 75 75 75 74 74 74 75 75 73 74 74 73 75 75 75 75 75 76 76 75 76 77 74 75 75 75 74 73
46 54 55 54 55 54 56 60 62 61 63 64 64 64 63 64 63 64 65 65 66 66 67 67 68 70 73 73 74 74 74 74 74 75 75 74 73 72 72 73 74 74 74 73 72 74 74 74 74 76 76 76 76 76 76 76 76 75 75 75 75 75 74
42 53 57 53 53 51 55 57 61 63 63 64 65 65 64 63 64 63 64 64 64 65 65 66 67 69 72 73 72 73 74 74 74 73 73 72 72 72 72 72 73 74 73 73 71 73 75 75 75 76 77 76 76 76 77 77 76 75 75 75 75 75 75
51 58 60 55 53 53 55 55 60 64 64 68 67 63 65 64 64 63 63 63 62 63 64 66 67 68 70 71 71 71 73 72 72 72 72 71 71 71 71 71 71 72 73 72 72 72 74 75 75 76 77 76 76 76 77 76 76 75 74 75 75 76 75
59 57 61 60 59 55 54 58 61 66 66 67 65 63 66 66 63 62 62 63 62 62 64 64 65 67 69 70 70 71 72 72 71 71 71 71 70 70 70 70 70 70 72 72 72 72 72 74 74 75 76 77 77 77 77 77 77 76 76 74 75 76 75
51 58 59 56 60 59 61 61 62 65 67 65 63 63 64 63 63 62 64 64 63 63 63 66 66 68 67 69 69 71 71 70 71 71 70 71 70 70 70 69 69 69 70 72 72 71 70 71 74 75 76 77 77 76 77 77 77 77 77 76 76 76 76
62 53 58 60 62 63 63 64 64 65 68 65 63 63 62 63 62 63 64 63 63 62 62 64 66 67 68 69 70 71 70 70 72 73 72 71 73 72 71 70 70 71 71 72 72 71 70 70 72 74 75 76 76 77 77 77 77 77 78 77 76 75 76
34 44 54 56 64 66 66 65 67 66 64 65 62 62 62 62 62 64 64 64 64 61 62 65 66 67 67 69 71 72 72 72 72 73 73 73 74 74 73 72 72 72 72 73 72 71 71 71 71 73 75 75 76 76 76 76 76 76 77 77 76 75 75
29 29 32 46 59 61 68 67 68 68 66 66 63 62 60 62 64 62 63 63 62 64 63 64 66 68 68 68 70 72 73 73 74 74 74 74 74 75 74 72 72 71 72 72 72 73 73 73 73 72 73 74 75 76 75 75 76 72 66 69 76 76 75
34 32 34 45 58 59 63 67 66 68 68 67 66 63 62 63 64 63 61 61 61 64 63 63 67 67 68 69 70 72 73 74 74 74 75 75 75 75 75 74 73 73 74 73 74 74 75 73 72 71 72 73 74 75 75 75 74 66 64 65 67 74 76
38 40 40 38 42 55 63 64 66 66 67 65 64 64 63 65 63 62 60 60 61 61 62 63 64 66 70 70 72 73 74 74 75 75 75 75 75 75 75 75 74 74 74 74 74 75 74 73 73 74 72 73 73 73 74 75 68 63 64 64 64 67 75
32 33 34 42 41 58 53 51 57 66 62 61 62 61 62 63 61 63 63 63 62 63 62 62 63 68 71 71 72 74 75 75 75 75 76 76 75 76 76 76 75 74 74 73 74 75 75 75 74 74 74 73 74 74 74 74 66 63 62 63 63 64 69
35 36 35 33 37 48 55 59 58 56 60 63 62 57 59 63 60 61 62 61 62 63 65 65 65 68 71 72 73 74 76 75 75 76 76 76 76 76 76 76 75 74 74 74 75 75 75 74 75 75 75 74 74 75 74 74 65 62 61 61 62 63 66
41 44 46 48 51 49 57 64 66 65 63 57 57 60 59 59 60 60 61 62 61 64 68 66 67 67 70 72 73 74 75 75 75 76 76 76 76 76 76 76 75 75 74 74 74 75 75 74 75 75 75 75 74 74 74 73 63 60 60 60 60 61 63
37 36 38 46 61 69 72 68 67 63 63 63 59 56 58 58 58 57 57 59 60 62 63 66 68 67 69 72 73 74 75 74 75 75 75 75 76 76 75 76 76 75 75 74 73 74 74 75 75 75 75 74 74 74 73 73 62 59 59 59 59 60 68
37 47 59 65 64 64 69 71 70 68 68 66 61 57 56 56 56 56 56 58 59 62 62 64 67 68 69 71 72 74 75 75 74 74 75 75 75 75 75 75 75 75 75 75 74 74 74 74 74 74 73 73 74 73 73 73 66 58 58 58 58 60 70
56 61 61 62 67 68 70 70 70 70 70 67 65 61 59 58 57 59 60 59 59 61 62 63 67 70 72 72 73 74 75 75 74 74 75 75 75 75 74 75 75 75 75 75 74 73 74 74 74 74 74 74 73 72 72 72 67 57 57 57 57 62 71
61 61 65 66 67 66 67 71 73 71 71 71 65 62 61 60 59 57 60 62 57 60 63 65 68 70 72 73 73 75 75 75 75 75 75 75 75 75 75 75 75 75 76 75 75 74 75 74 74 74 74 72 72 67 70 72 67 56 56 56 56 63 72
67 67 67 66 67 70 71 73 73 72 68 65 66 64 64 59 60 63 62 60 58 58 62 65 68 71 72 72 74 75 75 75 75 75 75 75 76 76 75 76 75 76 75 75 74 73 73 73 73 73 73 72 72 72 72 72 73 67 56 56 55 58 72
66 66 67 67 68 70 71 70 71 69 68 72 71 67 62 59 61 63 64 64 64 62 61 65 69 72 73 73 73 74 75 74 75 75 75 75 76 76 76 76 75 75 75 73 73 73 74 74 73 73 73 73 74 72 72 71 72 74 54 55 54 56 62
66 67 67 69 70 70 70 69 71 70 68 69 69 66 64 65 65 66 67 67 66 65 63 67 71 73 73 74 74 74 75 75 76 76 75 75 76 76 75 75 75 75 75 74 74 75 74 74 74 72 72 72 72 72 72 70 66 73 57 55 54 55 57
67 67 67 68 69 69 68 70 70 69 69 68 69 69 67 64 67 68 68 69 69 66 66 68 72 74 74 74 73 74 75 76 75 74 73 73 74 75 75 75 75 75 76 76 75 74 73 73 73 73 72 72 72 72 73 74 73 64 65 54 54 53 55
66 66 66 66 66 67 68 70 70 70 71 70 72 72 72 70 70 71 70 71 74 71 70 72 74 74 74 74 73 74 75 75 73 74 73 73 74 74 75 75 74 75 75 75 74 72 72 72 72 72 71 71 71 71 72 74 73 66 61 61 53 54 54
65 65 65 67 66 68 68 68 69 69 70 70 72 73 74 75 73 74 75 75 76 74 73 73 73 73 72 72 73 74 74 74 74 74 74 73 73 74 74 75 75 75 75 75 74 73 72 72 72 72 72 71 71 72 72 72 73 72 67 59 55 54 54
65 65 65 65 67 67 67 67 69 69 69 70 70 71 73 72 73 73 74 74 75 75 73 73 73 73 73 73 73 73 73 74 73 73 73 74 73 74 74 74 74 74 74 74 72 73 73 72 70 71 72 71 71 71 71 72 73 73 73 62 58 56 54
65 65 66 66 67 67 67 67 67 68 68 69 70 70 70 71 72 73 73 73 73 74 76 75 73 73 72 72 71 73 73 73 71 71 71 73 72 73 74 74 74 74 74 74 72 72 72 71 71 71 70 70 71 71 72 72 72 73 74 70 67 64 61
65 65 66 67 68 68 68 67 67 67 67 68 69 70 70 70 71 72 72 72 74 74 75 75 74 73 73 72 72 72 72 72 73 72 70 72 74 72 73 73 73 73 73 73 72 72 71 71 70 70 70 69 69 70 71 71 71 72 72 72 68 67 65
65 65 66 66 67 68 68 68 67 67 67 68 69 69 69 70 70 71 72 73 74 75 76 75 74 75 75 74 73 73 74 73 73 72 71 72 73 72 73 71 72 73 72 72 73 72 70 70 69 70 70 69 70 70 71 71 71 71 64 73 63 67 67
65 66 66 66 66 67 67 67 67 67 67 67 68 68 68 68 68 69 69 71 73 74 73 73 74 73 73 72 72 72 72 73 71 72 71 70 70 72 73 63 58 70 74 74 67 60 56 62 73 74 72 73 75 76 74 72 72 64 59 59 57 57 58
64 65 65 66 66 66 67 67 67 68 67 67 68 68 68 68 68 68 69 69 70 71 72 72 72 71 71 71 72 71 72 71 71 72 71 71 70 70 71 71 75 56 58 63 65 61 57 55 54 54 55 67 70 69 62 61 58 55 55 54 55 55 55
64 65 65 65 65 65 66 66 67 67 67 67 67 68 68 68 68 69 69 69 68 69 70 70 71 71 71 71 71 71 72 72 73 73 73 73 72 73 72 71 71 74 62 53 59 57 53 51 50 49 50 51 56 62 71 65 59 57 56 54 53 53 52

ECMWFFLT1_sfc_dewp_039.txt.gz
Dewpoint
46 47 50 55 60 60 62 64 66 65 67 68 69 68 67 68 70 72 73 75 76 76 76 76 76 76 75 74 74 75 75 75 75 74 73 73 73 73 73 74 75 75 72 72 73 72 73 74 72 72 73 75 75 75 76 77 77 75 76 76 76 75 74
44 39 44 50 57 61 63 65 66 66 67 68 69 69 68 69 70 71 73 75 76 76 77 76 76 75 75 74 74 75 75 75 76 76 75 75 75 74 73 75 75 75 74 72 72 74 74 73 72 72 73 74 75 76 75 76 77 77 75 76 75 75 75
43 41 43 48 54 60 64 64 66 66 67 67 68 68 68 71 71 72 73 74 76 77 77 77 76 75 75 75 74 75 75 75 76 76 75 73 74 73 74 75 75 74 74 73 73 72 73 73 75 74 73 73 74 75 75 75 76 76 75 76 75 75 75
47 41 42 48 56 62 63 64 66 66 66 67 68 69 69 72 71 72 73 74 75 76 76 76 76 74 74 75 75 75 75 76 76 75 74 73 74 75 74 74 75 74 74 73 72 71 71 73 73 75 76 75 74 74 74 74 74 75 75 75 75 75 75
43 45 43 46 51 60 62 63 65 67 65 66 68 70 70 70 70 71 72 73 73 75 75 75 73 74 74 75 74 74 75 75 75 75 74 74 74 75 75 73 73 73 73 73 74 73 74 74 73 75 75 76 75 74 74 74 74 75 75 75 75 75 73
34 42 44 42 46 53 61 62 63 64 65 65 67 68 69 69 69 69 71 73 73 74 75 75 74 74 74 74 73 73 75 75 76 76 75 74 75 74 74 74 73 74 72 73 73 73 73 73 73 74 74 74 73 72 72 74 73 73 75 75 74 73 72
39 43 42 43 48 53 60 62 62 63 65 65 66 68 68 68 69 69 69 71 71 73 73 73 73 73 75 74 74 75 75 74 75 74 74 73 74 75 75 75 75 73 73 74 74 73 73 73 74 74 74 73 75 72 73 75 74 74 75 75 75 74 74
42 46 49 47 48 52 58 62 62 63 64 65 65 66 66 67 67 67 68 69 69 70 71 71 72 74 75 75 74 73 74 74 74 74 74 73 74 75 74 75 75 75 75 73 74 74 73 74 73 74 74 73 75 75 73 75 76 73 74 75 75 74 73
38 47 48 47 50 49 53 61 62 62 65 66 65 66 67 67 67 67 68 68 69 68 70 70 70 72 75 74 74 74 74 74 74 74 74 73 71 72 72 73 75 75 74 73 72 74 74 73 74 75 75 75 75 76 74 75 75 74 75 75 75 74 73
40 46 50 47 49 47 54 57 63 65 66 67 67 67 67 67 67 67 67 67 67 67 67 67 69 70 73 74 73 73 74 74 74 71 71 71 71 71 71 70 73 75 74 73 71 72 74 74 74 75 76 75 75 75 75 75 75 75 75 75 75 75 75
41 54 56 53 53 54 56 58 63 67 67 71 70 65 67 67 67 66 66 66 65 66 66 67 68 68 72 72 72 72 73 73 71 72 71 70 69 69 69 69 71 73 73 73 71 69 73 75 75 76 76 75 74 75 75 75 75 76 75 74 75 75 75
53 53 58 56 54 52 55 64 67 70 70 71 67 65 68 69 66 65 65 66 65 65 65 66 65 67 70 71 71 72 72 72 72 71 71 70 69 69 68 69 69 70 72 72 71 70 69 73 74 74 76 76 75 75 76 76 76 77 76 73 74 75 75
46 57 60 56 58 57 61 64 66 68 70 66 64 64 65 65 65 64 67 67 65 65 65 67 67 68 69 70 70 72 72 72 72 72 71 71 70 69 69 68 67 67 69 72 72 71 68 69 74 75 75 76 76 75 76 76 76 77 77 75 75 75 75
57 53 56 58 60 61 61 64 65 67 68 65 62 64 64 64 64 65 66 65 65 64 64 65 67 68 69 71 72 73 71 71 72 74 73 72 75 72 70 68 68 69 70 72 72 71 70 67 71 73 74 76 76 76 76 76 76 77 77 76 74 74 75
34 41 51 52 60 64 64 62 66 66 66 65 62 63 63 63 63 66 67 65 66 63 63 66 67 68 68 71 72 74 73 74 73 74 75 75 76 75 73 71 71 71 71 72 72 71 70 69 68 72 74 75 76 77 76 75 76 76 77 77 75 74 74
25 30 35 47 57 60 65 65 66 67 68 69 65 65 62 64 66 63 64 64 63 65 63 65 67 70 69 69 72 74 74 75 76 76 76 75 76 77 75 72 72 70 70 71 71 73 73 73 71 69 73 74 76 76 76 76 76 72 67 70 76 75 74
30 31 37 44 54 55 63 65 67 69 69 70 68 66 65 65 65 63 60 62 62 64 64 63 68 67 68 70 72 74 75 76 76 76 76 76 76 76 76 75 73 74 75 74 73 74 76 74 71 69 70 73 74 75 76 76 75 67 65 66 68 75 75
33 37 36 35 39 45 53 60 65 69 69 66 67 67 65 67 64 62 61 60 61 61 62 62 64 66 71 71 74 76 76 75 76 77 77 77 76 77 77 75 74 75 75 73 72 76 74 73 73 74 71 72 73 74 75 76 69 64 64 65 66 69 76
35 35 38 44 44 44 35 39 54 67 61 60 64 64 63 64 61 64 64 64 63 63 62 61 62 70 73 71 72 76 76 77 76 77 77 77 77 77 77 77 76 75 74 73 74 74 75 76 74 74 73 72 74 74 75 75 67 64 63 64 65 66 70
32 34 36 37 39 39 44 46 47 53 47 57 59 57 62 63 60 62 62 62 63 62 65 66 65 67 69 72 74 75 76 77 77 76 77 77 77 77 77 77 76 74 73 73 75 75 75 74 75 75 76 75 75 75 75 75 66 62 62 63 64 65 68
44 43 42 42 43 39 55 62 64 62 61 51 48 56 59 61 61 61 61 63 62 65 70 67 67 67 69 72 73 74 75 77 77 77 77 78 78 77 77 77 77 75 74 73 74 74 75 75 75 75 76 74 73 74 74 74 64 61 61 61 62 63 65
34 36 37 38 47 64 67 64 64 60 62 64 58 51 52 54 58 58 58 60 61 62 63 66 69 67 69 72 72 73 75 76 77 77 77 77 77 77 77 77 77 76 75 75 74 75 74 76 75 75 75 75 75 73 73 73 62 60 60 60 61 62 71
29 34 36 48 53 57 68 69 67 66 67 66 61 53 50 49 51 56 57 59 59 62 61 64 68 67 70 71 71 73 75 76 77 77 77 77 77 77 76 77 77 77 76 74 74 74 74 75 75 76 75 75 75 75 74 73 66 58 59 59 60 62 73
26 41 52 59 65 64 66 66 69 70 69 68 65 63 59 53 53 57 61 60 59 61 61 62 67 69 72 72 73 74 76 77 77 77 77 77 77 77 76 76 77 77 76 75 74 73 74 75 75 75 75 75 74 74 74 73 68 56 57 58 58 63 73
61 62 62 62 62 63 67 72 73 71 69 68 66 67 66 62 58 54 61 63 58 60 62 64 68 70 71 72 73 76 76 77 77 77 77 77 77 77 77 77 77 77 77 75 75 74 75 74 74 75 75 74 74 69 72 73 68 56 57 57 57 64 74
63 62 62 60 63 70 70 71 72 72 69 67 68 67 68 64 62 65 63 60 58 59 61 65 69 72 69 70 74 75 76 77 77 77 76 77 78 78 77 77 77 77 77 76 75 74 73 73 73 74 74 73 73 73 73 73 75 65 55 56 56 59 73
63 63 65 66 67 71 68 68 70 70 68 71 73 71 68 63 63 64 66 66 65 63 61 65 69 71 73 73 71 73 76 77 77 77 77 77 77 77 77 77 76 76 76 74 74 74 74 74 73 73 74 74 75 75 74 74 74 71 54 55 55 57 63
64 64 63 68 70 70 68 67 72 70 68 71 69 68 66 68 68 67 68 67 65 65 62 67 73 71 72 74 74 74 77 77 78 77 76 76 77 77 76 76 76 75 75 74 74 75 75 75 75 74 74 74 74 74 75 72 68 77 55 55 54 55 57
66 65 66 67 68 68 66 69 70 70 70 69 70 72 71 66 68 68 68 67 68 66 67 68 69 72 73 75 75 76 77 78 77 76 74 75 76 76 76 76 76 76 76 76 76 76 75 75 75 74 73 73 73 73 74 75 75 65 65 54 54 54 55
66 66 65 65 66 67 66 70 70 70 71 70 72 74 75 73 69 69 69 69 71 70 69 70 72 74 74 75 75 75 77 77 75 75 74 75 75 76 77 76 76 76 76 77 76 74 74 74 74 73 72 72 71 70 70 76 74 67 62 61 53 54 54
65 65 64 66 65 67 68 68 69 69 70 70 72 74 76 75 71 71 71 76 76 73 71 70 71 73 74 74 74 75 75 76 76 75 75 74 75 76 76 76 76 75 76 76 75 74 74 74 73 72 72 72 72 71 70 71 75 72 68 59 54 54 53
64 65 65 65 67 67 67 67 68 68 69 70 71 72 74 74 75 75 75 75 76 75 74 74 74 75 75 75 75 74 73 75 75 74 74 74 74 75 75 75 74 74 75 75 74 75 74 73 71 71 71 70 71 71 71 74 72 74 73 62 57 55 54
66 66 66 66 68 68 68 67 67 68 69 70 71 70 72 73 72 73 73 74 73 73 76 75 74 74 75 74 74 75 75 75 73 72 72 74 72 73 74 74 74 74 74 73 73 73 73 73 72 71 69 69 70 71 72 72 72 72 71 74 68 65 62
66 66 67 68 68 68 68 68 69 69 70 70 71 71 71 71 71 72 73 73 74 75 75 75 74 73 74 73 73 73 74 73 73 72 71 73 73 71 72 73 72 72 75 73 73 73 72 72 71 70 70 69 69 71 70 70 71 71 71 70 71 69 68
66 66 67 67 68 68 68 68 68 69 69 69 70 70 71 71 71 72 74 74 75 76 75 75 74 75 74 73 73 74 74 74 74 72 72 72 74 73 72 71 70 75 73 74 74 73 72 72 70 70 69 69 72 74 74 73 71 72 59 66 57 71 69
66 66 66 66 67 67 67 68 68 68 68 69 69 69 69 70 70 70 71 74 75 75 75 76 74 74 73 73 73 73 72 73 72 72 71 70 70 71 75 64 60 70 75 74 61 57 60 65 73 73 72 73 74 76 74 72 72 57 53 52 51 53 53
66 66 65 66 66 66 67 68 68 68 68 68 68 68 69 69 69 70 70 70 74 74 75 74 74 73 73 74 74 73 72 70 71 72 73 72 69 70 73 72 70 52 54 60 62 56 50 49 50 51 54 63 59 61 59 56 51 48 46 46 46 45 48
65 65 65 66 66 66 66 67 67 67 68 68 68 68 69 68 68 69 68 69 69 71 74 73 73 72 72 72 73 75 75 73 74 73 72 71 72 75 73 72 72 66 56 53 53 52 50 50 48 48 47 48 53 60 62 56 50 46 45 45 45 44 44

ECMWFFLT1_sfc_dewp_042.txt.gz
Dewpoint
44 51 55 58 58 59 61 61 62 61 63 65 67 67 67 68 70 71 72 74 74 74 75 75 75 75 74 74 74 75 75 75 76 75 74 73 73 73 74 75 75 75 74 74 74 74 75 75 75 74 76 77 76 77 78 78 78 77 77 78 77 78 76
44 49 53 55 58 59 61 62 63 61 61 65 67 68 68 69 71 71 72 74 74 74 74 74 75 75 75 75 74 75 75 75 76 76 75 74 74 74 74 76 76 76 76 75 76 76 76 74 75 75 75 76 76 77 77 78 78 77 76 77 77 78 77
41 39 53 58 57 56 60 63 64 64 64 64 66 67 68 70 71 72 73 74 74 75 74 74 75 75 75 75 75 75 75 75 75 75 74 73 74 71 73 75 76 76 76 76 76 76 75 75 75 76 75 75 75 77 77 77 78 77 77 78 77 77 77
48 44 44 51 55 58 61 64 65 64 64 66 66 66 68 71 71 72 73 73 74 75 75 74 74 74 75 75 75 75 75 75 75 74 73 73 73 73 73 74 76 75 76 75 74 74 73 74 75 75 76 75 76 76 76 76 76 77 77 78 77 77 77
47 46 44 49 56 58 57 59 63 64 63 64 65 69 69 70 70 71 72 73 74 74 74 74 73 74 75 75 74 74 74 74 75 74 74 74 74 74 73 71 73 74 74 75 75 74 75 75 74 75 75 76 75 77 76 76 76 77 77 77 77 76 77
45 48 47 46 49 55 55 55 59 62 61 57 65 68 67 67 67 68 71 73 74 74 75 75 74 75 75 74 74 74 74 74 75 75 74 75 75 75 73 73 72 73 72 75 74 74 74 75 74 74 74 74 73 74 75 76 75 76 77 77 76 75 74
50 49 47 44 47 50 49 52 54 60 61 60 66 67 67 66 67 67 69 72 73 74 74 74 74 74 74 75 74 75 74 74 75 74 75 75 75 75 74 74 74 73 73 75 75 74 73 74 74 75 75 73 73 73 74 75 75 75 76 76 76 76 76
47 44 46 46 47 49 53 56 55 57 61 62 64 65 67 67 66 67 68 71 73 73 73 73 73 74 74 75 74 73 74 73 74 74 74 74 74 74 74 74 74 74 75 74 75 75 73 73 73 74 75 74 75 75 75 76 76 75 75 76 76 75 75
47 47 44 40 47 46 50 54 53 53 58 60 63 66 67 67 66 67 68 70 72 73 73 73 73 73 75 74 74 74 74 74 74 74 74 72 72 71 71 73 74 74 74 73 72 74 74 74 72 74 75 75 76 76 75 76 76 75 75 75 76 75 73
51 49 49 44 48 46 54 54 58 62 62 62 64 68 68 67 67 67 67 69 70 71 73 72 72 72 73 73 73 72 73 74 74 73 72 71 72 71 70 70 71 74 73 73 72 73 74 75 74 75 76 75 76 76 75 75 75 75 74 75 75 75 75
50 53 52 48 56 60 61 63 64 66 66 69 70 67 69 69 68 67 67 68 69 70 72 72 72 72 72 72 71 71 73 72 72 73 72 72 71 71 70 69 71 73 72 72 72 72 73 75 75 76 76 75 75 76 76 75 75 75 74 74 75 75 75
52 53 54 53 60 58 59 64 64 66 68 71 69 67 70 70 68 67 68 68 68 69 70 71 71 71 72 72 72 72 72 73 71 71 72 71 70 70 68 68 70 71 73 73 72 72 72 74 74 75 76 75 75 76 76 76 75 75 75 73 74 75 75
57 61 59 55 61 57 62 66 66 65 69 69 66 66 67 68 68 67 70 69 68 69 69 71 70 71 71 72 71 72 71 72 71 72 71 72 69 69 69 69 69 69 71 72 72 71 70 72 74 74 76 76 75 75 76 76 76 76 76 75 75 76 75
57 50 56 61 63 66 64 66 72 71 72 69 66 66 66 67 67 68 70 68 68 67 68 69 70 71 72 73 73 73 71 72 72 72 73 71 72 71 70 69 69 70 71 74 73 71 70 69 73 73 74 76 76 76 76 76 76 76 76 76 76 75 76
43 49 54 54 68 66 62 69 73 73 71 70 67 66 66 66 67 69 70 69 69 67 67 69 70 70 70 73 73 74 73 73 73 73 73 73 73 73 71 70 70 71 71 73 73 72 71 70 69 73 74 75 76 76 75 75 75 75 76 76 76 76 75
39 43 47 52 60 63 64 68 74 74 73 72 68 69 64 67 69 68 68 67 67 69 67 69 69 70 69 71 73 74 74 75 74 74 74 73 74 73 73 71 70 69 70 71 73 73 74 72 71 70 73 74 75 76 75 75 75 72 67 70 75 75 74
40 39 42 48 63 58 67 69 71 73 74 73 72 70 68 68 68 67 65 65 65 68 67 67 70 70 69 70 73 75 75 75 75 75 75 74 74 75 74 72 71 71 72 72 72 73 75 74 72 69 70 73 74 75 76 75 74 67 65 66 68 74 75
36 49 47 51 56 56 65 64 68 70 71 69 68 70 68 70 67 65 64 65 64 64 65 65 68 68 71 71 74 76 76 75 76 76 76 75 75 75 75 73 72 73 73 72 72 74 74 74 74 73 70 72 73 74 75 75 69 64 64 65 66 69 74
35 36 48 58 62 66 62 60 62 68 64 63 64 64 64 68 64 66 66 67 66 65 64 64 65 71 72 72 74 76 76 76 76 76 76 76 76 76 76 75 74 73 73 72 73 73 74 75 74 74 72 71 74 74 75 75 68 64 63 64 65 65 70
33 33 34 36 40 41 53 61 68 67 65 69 66 60 61 65 64 66 65 64 66 65 66 67 67 70 72 72 74 76 77 77 76 76 76 77 77 77 77 76 75 73 72 73 74 74 74 74 74 74 74 73 73 75 75 75 68 62 62 63 63 64 67
46 49 52 52 54 51 68 69 69 67 63 50 55 66 64 64 62 66 64 65 65 67 71 70 68 69 73 73 74 76 77 77 76 76 77 77 77 77 77 76 76 75 74 73 73 73 74 73 74 74 74 74 73 74 74 74 67 61 61 61 62 63 65
38 37 39 45 67 71 72 66 65 57 66 68 57 49 61 62 61 60 61 61 63 64 66 70 70 69 74 73 74 75 77 77 77 77 77 77 78 77 76 76 77 76 75 74 74 74 74 75 74 74 75 75 74 73 74 73 64 61 60 60 61 62 69
57 40 45 54 61 62 69 70 66 65 68 66 60 55 51 52 59 59 58 60 61 65 62 65 71 69 72 74 73 74 76 77 77 77 77 77 77 77 76 76 77 77 76 75 74 74 74 74 74 75 74 75 75 74 73 73 66 59 59 59 59 62 71
60 59 58 60 66 67 72 73 72 70 70 70 67 64 62 56 56 63 64 62 61 62 62 63 68 71 72 74 74 75 76 77 77 77 77 78 78 77 77 77 77 77 77 75 74 74 74 75 75 75 75 74 74 74 74 73 67 57 58 58 58 63 72
61 61 62 67 68 67 67 69 69 68 69 66 62 64 67 65 62 56 69 67 59 60 62 65 68 71 72 73 75 76 76 77 78 78 77 77 78 78 78 78 77 78 77 76 75 74 75 75 74 74 75 74 74 70 73 74 69 56 56 57 57 63 72
63 63 62 65 67 65 67 71 71 72 69 68 74 74 73 64 67 71 76 67 59 59 65 66 69 73 72 73 76 76 76 77 78 78 78 78 78 79 78 78 78 78 78 76 74 73 73 74 74 74 75 74 74 74 74 74 74 66 55 56 56 58 72
62 64 63 63 64 71 67 65 69 69 67 73 74 69 69 69 70 73 72 74 72 64 62 68 72 75 75 75 75 76 77 77 78 78 78 79 79 79 78 78 78 78 77 75 74 74 74 74 73 73 74 75 76 75 75 75 75 73 55 54 55 56 63
64 64 64 63 68 69 66 65 71 71 69 71 70 72 73 73 74 75 77 75 73 74 69 76 74 75 75 75 75 77 78 78 79 79 78 79 79 79 78 78 77 77 77 76 76 76 76 75 75 74 74 75 75 76 76 75 69 76 57 55 54 55 56
64 64 64 65 67 67 64 66 69 69 70 69 70 71 73 74 77 74 75 75 75 75 77 73 76 76 76 75 75 77 78 78 79 78 76 77 78 78 78 78 78 78 78 78 77 77 76 76 76 75 75 75 76 76 76 77 76 66 66 54 54 53 55
64 64 64 64 65 66 65 67 69 69 70 70 72 72 73 76 76 76 73 74 76 75 76 76 81 79 77 76 75 76 79 79 77 77 76 78 78 79 79 78 78 78 78 78 78 77 77 76 77 75 74 74 75 75 75 77 77 70 62 60 53 54 54
64 64 64 64 64 67 66 66 68 68 69 70 72 73 74 76 76 70 72 78 79 76 75 77 78 78 78 76 76 77 78 79 78 78 78 78 78 78 78 78 78 78 78 78 77 77 76 77 76 76 75 75 75 75 75 76 78 76 66 58 54 54 54
64 64 64 64 66 66 67 67 67 68 68 70 71 72 74 74 75 75 75 76 77 77 77 76 76 78 78 78 78 77 75 78 78 78 77 77 76 77 78 77 76 77 78 78 77 77 77 76 75 75 75 75 75 75 75 77 75 76 75 62 57 55 54
66 66 66 67 67 67 67 67 67 68 68 71 71 71 70 71 72 74 75 74 72 74 77 78 75 78 77 78 76 78 78 77 75 74 74 75 73 75 77 77 77 77 77 77 77 76 76 75 75 74 73 73 74 74 75 75 74 75 75 68 65 63 62
66 66 67 68 68 68 69 69 69 69 69 70 70 70 70 71 71 72 74 74 76 75 76 75 75 76 77 76 77 76 76 77 76 76 75 76 76 74 75 75 75 75 78 75 75 75 75 74 73 72 72 72 71 72 73 73 75 61 61 61 65 69 68
66 66 66 66 67 68 68 69 69 69 69 69 69 70 71 70 71 72 73 74 76 77 76 77 75 76 76 77 77 79 78 78 79 77 75 75 76 73 73 75 72 75 75 71 73 74 73 72 72 73 71 74 75 74 74 68 59 55 50 57 51 54 55
65 66 65 66 66 67 68 68 68 68 69 69 70 70 70 70 71 72 71 74 75 76 76 77 77 75 76 75 76 76 76 76 73 74 74 72 72 71 67 60 55 69 70 66 58 55 56 58 67 70 71 69 66 66 63 59 57 47 44 44 45 45 47
65 65 66 66 67 67 67 68 68 68 68 68 69 69 69 69 69 71 72 73 75 75 75 75 76 76 75 76 76 76 76 73 74 75 78 78 73 69 64 59 58 49 53 56 55 50 47 46 48 51 55 64 61 57 51 50 47 45 45 45 44 44 44
65 66 65 65 65 66 66 67 67 67 67 68 68 68 70 69 69 70 70 71 72 74 74 74 75 75 75 74 75 76 75 75 77 77 76 76 75 71 64 61 61 62 53 47 49 48 46 46 46 47 48 51 56 61 64 55 48 46 46 45 45 43 42

ECMWFFLT1_sfc_dewp_045.txt.gz
Dewpoint
54 55 56 58 59 59 61 61 61 61 64 65 65 65 66 67 68 70 70 71 71 71 71 71 72 71 70 70 71 71 71 72 72 72 72 72 72 73 72 72 71 72 72 73 73 73 73 73 72 73 74 75 75 75 76 76 76 76 75 75 75 75 74
53 54 55 56 57 58 61 61 61 61 63 65 65 65 66 67 68 69 70 71 71 71 71 71 72 72 71 71 71 71 71 72 72 72 72 72 72 73 73 72 72 72 73 72 73 74 74 73 72 73 74 75 75 75 76 75 76 76 75 75 75 75 74
54 54 55 56 57 58 60 61 61 61 62 64 65 65 65 67 68 69 70 70 71 71 71 71 72 72 71 71 71 71 72 72 72 72 72 71 71 71 73 73 72 72 73 74 73 74 74 73 73 72 74 75 74 75 75 76 75 76 75 75 74 75 74
53 53 54 56 58 59 60 61 62 62 62 63 65 65 65 66 67 69 71 71 71 71 71 71 71 71 71 71 71 71 72 72 72 72 72 72 71 71 71 73 73 73 73 73 74 74 74 74 73 73 75 75 75 74 75 75 75 76 75 75 74 74 75
52 52 52 55 58 59 59 60 61 62 62 63 64 65 65 66 68 69 70 71 71 71 71 71 71 71 71 72 71 72 72 72 72 72 72 72 72 71 70 71 73 73 73 73 74 75 74 73 73 73 73 74 74 74 74 75 75 76 75 75 74 75 75
51 50 51 53 56 57 58 59 60 60 62 62 63 64 65 65 67 68 70 71 71 71 72 72 72 72 71 71 71 71 72 72 72 72 72 72 72 71 71 70 72 73 74 74 74 74 74 73 73 72 74 74 74 74 74 74 75 76 75 76 75 75 75
50 50 51 53 55 57 58 58 59 59 60 61 62 64 65 65 67 68 69 70 71 72 72 72 72 72 72 72 72 71 71 71 71 72 72 72 72 71 71 71 71 72 73 74 74 73 74 74 73 72 72 73 74 74 74 74 74 75 75 75 75 75 75
48 51 52 53 54 56 57 58 59 59 60 60 62 64 64 65 67 68 69 70 71 71 71 71 72 72 72 72 72 71 71 71 71 71 72 72 72 72 71 71 71 71 72 73 74 73 72 73 73 73 72 72 73 74 74 75 74 75 75 75 75 74 75
45 50 52 52 52 54 56 58 60 60 60 62 63 65 66 66 67 68 69 69 70 71 71 71 71 71 72 72 72 72 71 71 71 71 71 71 71 71 71 71 71 71 71 72 73 74 73 72 73 73 73 72 73 73 74 75 74 74 75 75 75 74 74
45 47 52 51 52 54 56 58 60 60 61 62 63 64 65 67 67 67 68 69 70 71 71 71 71 71 72 72 72 72 71 71 71 71 71 71 71 71 71 71 71 71 71 71 72 73 73 72 72 73 73 72 72 72 73 74 74 74 74 75 74 74 74
46 47 51 52 54 55 56 58 59 61 61 62 64 64 65 66 66 66 66 67 70 71 72 72 72 72 71 72 72 72 72 71 71 71 71 71 70 70 71 71 71 71 71 71 71 72 73 73 72 72 73 73 72 72 72 73 74 74 74 74 74 74 74
47 47 48 52 54 53 54 57 60 62 62 63 64 64 66 66 66 66 66 66 69 72 72 72 72 72 71 72 72 72 72 71 71 71 70 70 70 70 71 71 71 72 72 72 71 72 72 73 73 71 72 73 73 73 73 73 74 74 73 73 74 74 74
47 47 47 51 53 53 54 56 59 62 63 63 62 63 65 66 66 66 67 67 68 71 72 73 73 73 72 71 71 72 71 71 71 71 70 70 70 70 70 70 70 71 72 72 71 71 71 72 73 73 71 72 73 74 74 73 73 74 73 73 73 74 73
56 46 49 51 53 54 55 56 59 60 61 62 62 62 64 65 66 67 67 67 67 69 72 73 73 73 72 72 71 71 71 71 71 71 71 70 71 70 70 70 69 70 71 72 71 70 71 72 72 72 72 72 72 73 74 74 73 73 74 73 73 73 73
46 51 55 53 55 55 56 57 59 60 60 61 61 62 63 65 66 67 67 67 68 68 70 72 73 73 72 72 71 71 71 71 71 71 71 71 71 70 70 70 69 69 70 71 71 71 70 71 72 72 72 73 72 72 73 74 74 74 73 73 73 73 73
52 55 55 56 58 58 58 59 61 61 61 62 61 62 64 66 67 67 67 67 67 68 69 71 72 72 72 72 72 71 71 71 71 71 71 71 71 71 70 70 69 68 69 71 71 71 71 70 71 72 72 72 73 73 73 73 74 71 66 68 73 72 73
52 56 57 57 59 59 61 63 64 64 65 65 65 65 66 68 68 68 67 68 68 68 68 70 71 72 72 72 72 72 71 71 71 71 71 71 71 71 70 70 69 69 69 70 72 71 71 71 70 71 72 72 72 73 73 73 73 67 64 65 67 72 73
48 54 57 57 57 60 68 69 68 66 65 66 66 66 66 67 68 68 67 68 68 68 68 68 70 71 71 71 72 73 72 72 71 71 71 71 71 71 71 70 69 69 69 69 71 72 72 71 71 70 71 72 72 73 73 73 68 64 64 64 64 67 73
48 51 56 58 62 63 66 69 70 70 68 67 67 67 66 67 67 68 68 68 68 68 68 67 68 70 71 71 72 73 73 72 72 72 71 71 71 71 71 70 69 69 69 69 70 72 72 72 71 71 70 72 72 72 73 73 67 64 63 63 63 64 69
45 54 58 57 56 57 60 62 68 69 69 69 68 68 67 68 67 67 68 67 67 67 67 67 67 69 70 70 71 73 73 73 72 72 72 72 71 71 71 71 69 69 69 69 69 70 72 72 72 72 71 70 72 73 73 73 68 63 62 62 62 63 66
46 50 49 57 63 66 64 63 65 67 67 65 65 65 65 65 66 67 66 67 67 67 67 67 67 68 69 70 70 72 73 73 72 72 72 72 72 71 71 71 70 69 69 69 69 69 70 71 71 72 72 71 70 72 73 73 66 62 61 60 61 62 64
64 64 67 68 69 68 65 64 66 67 68 68 61 64 62 62 63 64 65 65 66 67 66 67 67 68 70 69 70 71 73 73 73 72 73 73 73 72 71 71 71 70 69 69 69 69 69 70 71 71 72 72 71 70 71 73 64 62 61 60 60 61 68
66 67 66 67 68 69 70 70 70 70 70 68 67 61 62 63 61 61 62 63 63 65 66 67 68 67 70 70 69 71 73 73 73 73 73 73 73 73 72 72 72 72 71 70 69 69 69 70 70 71 71 72 72 71 70 71 66 60 59 59 59 61 69
65 66 65 64 64 65 68 69 69 71 69 65 63 64 67 66 62 63 62 63 63 63 64 65 68 68 70 71 70 71 73 73 73 73 73 73 73 73 73 73 73 73 73 71 70 69 70 70 70 71 71 71 72 72 71 70 67 58 58 58 58 62 70
63 63 64 65 66 65 66 69 71 71 72 72 70 71 71 67 66 66 65 64 62 62 63 64 65 69 70 73 72 72 73 74 74 73 73 73 73 74 74 74 74 74 74 73 72 71 71 72 71 71 72 72 72 70 71 72 68 56 57 57 57 62 71
63 62 61 65 67 66 66 69 70 68 69 71 72 72 72 73 71 73 72 73 63 61 62 63 65 68 70 73 73 73 74 75 74 74 74 73 74 74 75 75 75 75 75 74 73 72 72 72 72 72 72 72 72 73 73 73 73 64 55 56 56 58 70
63 63 62 66 67 69 65 68 71 71 70 71 71 71 72 73 75 75 72 74 72 69 63 63 66 69 71 72 74 73 74 75 75 74 74 74 75 75 76 76 75 75 75 75 74 73 73 72 72 72 73 73 73 73 73 74 73 70 53 54 54 56 61
63 63 63 68 70 67 65 67 70 70 69 70 71 71 71 72 74 76 76 74 73 74 73 69 67 69 70 71 74 74 74 75 75 75 75 76 76 76 76 77 76 76 75 75 75 74 73 73 72 72 72 73 74 74 74 74 70 74 55 53 53 55 56
64 64 64 65 66 66 66 67 69 68 68 69 71 72 72 73 75 75 76 74 75 76 75 78 69 70 71 71 74 74 74 75 75 76 76 76 76 77 77 77 76 76 76 76 75 74 74 73 73 72 72 73 74 74 75 75 73 66 64 53 53 53 54
66 65 64 65 66 66 67 66 67 68 69 70 72 73 73 74 74 76 75 75 77 76 76 75 77 73 72 71 72 74 74 74 75 75 76 77 77 77 77 77 77 76 76 76 75 75 74 74 74 73 72 72 73 74 75 76 76 69 63 59 53 53 53
65 66 66 66 67 68 68 66 67 68 69 71 71 71 72 74 74 75 74 74 75 76 77 76 77 75 73 72 73 75 75 75 75 75 76 77 77 77 77 77 76 76 76 76 76 75 75 74 74 74 73 73 73 73 74 75 76 76 67 59 54 53 53
65 65 66 66 67 68 69 68 68 68 70 70 70 70 71 71 72 73 73 75 75 75 76 76 77 76 75 74 75 76 76 76 76 76 76 77 77 77 77 77 76 76 76 76 76 75 75 75 75 74 74 74 74 74 74 75 74 74 68 63 58 56 54
64 65 66 67 68 68 68 69 69 70 70 70 70 70 71 71 71 71 74 74 75 76 77 76 78 76 76 76 76 77 77 76 76 76 76 77 77 77 77 77 77 76 76 76 76 76 75 75 75 74 74 74 74 74 74 74 67 64 65 66 64 63 62
64 64 65 66 67 68 68 69 69 69 69 69 70 71 71 71 70 71 72 74 74 76 76 77 76 76 75 76 76 76 77 76 80 77 76 76 76 77 77 77 77 76 76 76 76 76 75 75 74 74 74 74 74 74 73 62 57 57 57 56 59 63 65
64 64 65 66 67 68 68 68 69 69 69 69 70 70 70 70 70 71 71 71 74 75 76 76 77 77 76 76 76 75 76 76 77 75 75 70 66 62 58 66 76 74 66 62 64 75 75 75 74 74 73 71 71 69 63 59 55 55 50 54 50 54 55
63 64 65 67 67 68 68 69 69 69 68 69 69 69 69 69 70 70 70 71 71 73 75 74 76 75 74 74 76 76 75 76 76 75 71 68 66 62 58 55 48 53 62 58 55 52 53 62 68 65 61 57 57 61 60 55 54 50 45 45 45 44 46
64 65 66 67 66 67 67 67 69 68 68 68 69 69 69 69 69 69 69 69 71 71 72 74 73 74 74 73 73 74 74 74 74 75 71 68 66 61 58 56 55 47 46 50 51 49 47 48 49 52 54 58 55 54 51 50 46 43 44 45 46 46 46
64 65 67 67 67 65 66 66 68 68 69 69 69 69 69 68 68 68 68 69 70 70 73 74 73 73 73 73 73 74 74 75 74 73 68 64 62 59 58 57 56 56 50 45 48 48 47 47 47 48 50 52 54 55 53 47 43 43 42 43 43 44 44

ECMWFFLT1_sfc_dewp_048.txt.gz
Dewpoint
54 55 57 59 59 59 59 59 60 61 62 62 63 64 65 65 66 66 66 67 67 68 69 69 70 70 70 70 70 70 70 69 69 69 69 69 70 69 68 69 70 69 70 71 72 72 72 73 73 73 73 74 75 75 75 76 75 75 75 75 75 75 74
54 55 56 58 59 59 60 60 60 61 61 62 63 64 65 65 66 66 67 67 67 67 68 69 70 70 70 70 69 70 69 69 69 70 70 70 70 71 70 69 70 71 70 72 72 73 73 72 73 73 73 74 74 75 75 75 75 75 75 74 74 74 74
54 55 56 58 59 59 60 60 60 61 61 62 63 63 64 66 67 67 67 67 67 67 68 69 70 70 70 70 69 69 69 69 69 69 70 69 70 70 71 70 70 71 71 72 72 73 73 72 72 73 73 73 74 74 75 75 75 75 75 74 74 74 74
54 54 56 58 59 60 60 60 61 60 61 62 63 63 64 65 66 67 68 68 68 68 68 68 69 69 69 69 69 69 69 70 70 69 70 70 70 70 71 71 71 70 71 72 73 73 73 73 72 72 75 73 74 74 75 75 75 75 75 74 74 74 74
54 54 55 57 58 60 60 60 60 60 61 62 63 64 64 65 66 67 68 68 68 68 68 68 69 69 70 70 69 70 70 70 70 70 70 70 71 71 71 71 71 70 70 72 73 73 73 73 72 72 73 73 74 74 74 75 75 75 75 74 74 74 74
54 54 55 56 58 59 60 60 60 60 61 62 63 63 64 65 66 67 68 69 68 69 69 69 69 70 70 70 70 70 70 70 70 70 70 70 71 71 71 72 72 71 71 71 73 73 73 73 73 72 72 73 74 74 74 74 75 75 75 74 74 73 74
53 54 55 56 58 59 60 60 60 60 61 62 63 64 65 65 66 67 68 69 69 69 69 69 69 70 70 70 70 70 70 70 70 70 70 70 71 71 71 71 72 72 71 71 72 73 73 73 73 73 72 72 73 74 74 74 74 74 74 74 74 73 73
53 54 55 56 57 58 59 60 60 60 61 62 63 64 64 65 66 67 68 68 69 69 69 69 69 70 70 71 70 70 70 70 70 70 71 70 70 70 70 70 71 72 72 72 72 73 73 73 73 73 72 72 73 73 74 74 74 74 74 74 74 73 73
53 54 54 55 57 58 59 60 60 60 61 61 63 64 64 65 65 66 68 68 69 69 69 69 70 70 70 70 71 70 70 70 70 71 71 70 70 70 70 70 70 71 73 72 72 73 73 73 72 72 72 72 73 73 73 74 73 74 74 74 74 73 73
53 54 54 55 56 57 58 60 60 61 61 61 63 64 64 64 65 66 67 68 69 69 69 70 70 70 70 70 70 70 70 70 70 70 70 70 70 70 70 70 70 70 71 72 73 73 73 73 73 73 72 72 72 73 73 73 73 73 74 74 74 74 73
52 53 54 55 56 57 58 59 60 61 62 62 63 63 64 64 64 65 66 68 69 69 70 70 70 70 70 70 70 70 70 70 70 70 70 70 70 70 70 70 70 70 70 71 72 73 73 73 73 73 73 72 72 72 73 73 73 73 73 74 74 74 74
52 53 54 54 56 57 57 59 60 61 62 62 62 63 64 64 64 65 66 67 69 69 70 70 70 70 70 70 70 70 70 70 70 70 70 70 70 70 70 70 70 70 70 70 70 72 73 73 73 73 73 73 72 72 72 73 73 73 73 74 74 74 74
51 52 53 53 55 56 57 59 59 60 61 61 62 62 63 63 63 64 66 67 68 69 70 70 70 70 70 70 70 70 70 70 70 70 70 70 70 70 70 70 70 70 70 70 70 70 71 73 73 72 73 73 73 72 72 72 73 73 73 73 74 74 74
57 51 52 53 54 55 57 58 59 60 60 61 61 62 63 63 64 64 66 67 68 69 69 70 70 70 70 70 70 70 70 70 70 70 70 70 70 70 70 70 70 70 70 70 70 69 70 71 72 72 72 72 73 72 72 72 72 73 73 73 73 74 74
50 50 51 52 53 55 56 58 59 60 60 61 61 62 63 64 64 65 66 67 68 69 69 70 70 70 70 70 70 71 71 71 71 71 71 71 70 70 70 70 70 70 70 70 70 70 70 70 71 72 72 72 72 72 72 72 72 72 73 73 73 73 73
48 49 50 51 52 54 56 58 59 60 60 61 61 62 63 64 65 65 66 66 67 69 70 71 71 71 71 70 70 71 71 71 71 71 71 71 70 70 70 70 70 70 70 70 70 70 70 70 70 71 72 72 71 71 72 73 73 70 65 68 73 73 73
47 48 50 51 52 53 55 57 59 60 61 61 61 62 63 64 65 65 66 66 66 67 70 71 71 71 71 71 71 71 71 71 71 71 71 71 71 71 70 70 70 70 70 70 71 71 70 70 70 70 71 72 71 71 71 72 72 66 64 64 66 71 73
46 47 49 51 52 53 55 57 59 60 61 61 61 62 63 64 64 65 65 65 66 66 68 71 72 72 72 72 72 72 72 71 72 72 71 71 71 71 70 70 70 70 70 70 70 71 71 70 70 70 71 71 71 71 71 71 67 64 64 63 63 66 72
48 49 51 52 54 55 54 56 58 60 61 61 61 62 62 64 64 65 65 66 66 67 67 69 71 72 72 72 72 72 72 72 72 71 71 71 71 71 71 70 70 69 69 69 69 70 71 70 70 70 70 71 71 71 72 72 66 63 63 63 63 63 67
54 55 55 54 54 55 56 58 59 60 61 61 62 62 62 64 64 65 66 67 67 67 67 68 70 72 73 73 73 73 73 72 72 71 71 71 71 71 71 70 70 69 69 69 69 69 70 70 70 70 70 70 71 71 71 72 67 62 61 62 62 62 64
63 62 61 61 62 64 66 65 63 63 63 62 62 62 63 64 65 66 66 67 67 68 68 68 69 70 72 73 73 73 73 72 72 71 71 71 71 71 71 70 70 70 69 69 69 68 69 69 70 70 70 70 70 70 71 71 65 61 60 60 60 61 62
64 65 66 67 66 65 66 66 66 66 66 67 68 67 65 66 67 67 67 67 68 68 68 68 68 69 71 72 72 73 73 73 72 72 71 71 71 71 70 71 70 70 69 69 69 68 69 69 70 70 70 70 70 70 70 71 64 61 60 59 59 61 67
63 63 64 65 67 68 69 69 68 68 67 65 65 64 66 66 67 67 67 67 67 68 68 68 68 68 70 71 72 72 73 73 72 72 72 71 71 70 70 70 70 70 70 69 68 68 68 68 69 70 70 71 71 70 70 70 65 60 59 58 59 60 68
64 65 65 66 68 69 70 70 71 72 71 71 72 72 72 67 63 66 67 67 67 68 68 68 68 69 69 70 71 72 72 73 73 72 72 72 71 71 70 70 70 70 70 69 68 68 68 68 68 69 70 70 71 71 70 70 67 59 58 57 57 61 69
64 64 65 65 67 69 70 71 71 71 71 70 70 71 73 74 74 67 66 66 65 66 67 67 68 68 69 69 70 71 72 73 73 72 72 72 72 71 71 71 70 70 71 70 69 68 68 68 68 68 69 70 71 69 70 71 68 57 58 57 57 62 69
65 65 66 66 67 68 70 70 69 69 70 70 70 71 72 74 75 76 75 74 69 64 64 66 67 68 69 70 70 71 71 72 73 73 72 72 72 72 72 72 71 71 71 70 70 69 68 68 68 68 68 69 70 71 71 71 71 63 56 56 56 58 69
65 65 66 67 67 69 67 68 68 68 70 71 71 72 73 74 75 75 75 74 71 71 68 64 65 67 69 70 71 71 71 72 73 72 72 72 72 72 72 72 72 71 71 71 70 70 69 69 68 68 69 69 70 70 71 72 72 66 55 55 55 56 61
66 66 66 68 70 69 67 67 68 69 70 71 71 71 73 74 74 75 74 73 73 74 76 75 72 67 68 71 72 71 71 72 73 73 73 73 72 72 72 73 72 72 72 71 71 71 70 70 69 69 69 70 71 71 71 72 69 71 56 55 54 55 56
66 66 66 67 67 69 68 67 68 69 70 70 70 70 71 73 73 74 73 72 73 74 75 76 75 69 68 70 72 72 72 72 72 73 73 73 73 72 72 73 73 73 73 73 72 72 71 71 71 70 70 71 72 73 73 73 72 66 63 55 54 54 54
65 66 66 66 67 68 69 68 68 69 69 69 70 70 70 71 71 73 73 72 74 75 76 75 75 71 68 69 71 73 73 73 73 73 73 73 73 73 73 73 74 74 74 73 73 73 72 72 72 72 71 71 72 73 73 74 74 66 61 60 53 54 53
63 64 65 66 66 67 68 69 69 69 68 69 70 70 70 70 70 71 71 71 74 75 75 75 76 73 70 69 70 72 73 73 74 74 73 74 73 73 73 74 74 74 74 74 74 73 73 73 73 72 72 72 71 72 73 74 75 74 64 58 54 53 53
63 63 64 65 66 67 67 68 69 69 68 69 69 70 70 70 70 69 69 71 72 73 75 75 76 74 72 70 71 72 73 74 74 74 74 74 74 74 74 74 75 74 75 74 74 74 74 73 73 73 72 72 72 72 73 74 74 68 65 63 58 56 53
62 63 64 65 66 67 67 68 68 68 68 68 68 69 69 69 69 70 70 70 70 72 73 75 76 75 73 72 73 74 74 73 74 75 75 76 76 75 75 75 75 75 74 75 75 74 74 74 73 73 73 73 73 72 73 71 63 63 64 64 63 62 60
62 63 63 65 66 67 67 67 67 67 67 67 68 68 69 69 69 69 68 68 69 70 71 74 76 76 73 73 74 75 74 74 77 76 76 76 76 76 75 76 76 75 75 75 75 75 74 74 74 73 73 73 73 73 70 61 58 58 58 60 64 64 63
62 63 63 65 65 67 67 67 67 67 67 67 68 68 68 68 68 69 68 68 69 70 70 72 75 76 73 73 74 75 75 75 76 75 70 64 57 53 51 51 55 69 70 64 63 75 75 75 75 74 74 74 74 73 64 60 57 56 50 54 51 63 65
62 63 64 65 66 65 65 67 68 67 67 66 67 67 67 67 67 68 68 68 68 69 69 71 73 72 72 72 73 75 75 75 74 71 67 63 60 57 55 53 47 49 57 59 56 51 57 67 73 71 65 60 56 61 66 61 56 48 44 43 43 43 45
62 62 63 65 65 65 65 66 68 67 67 67 67 67 67 67 67 67 67 67 68 68 69 71 71 71 71 71 72 73 75 74 72 69 67 64 61 59 59 58 55 47 46 50 51 48 45 46 49 52 56 59 54 53 51 50 46 44 43 43 43 42 42
64 64 65 66 66 65 66 66 66 66 66 66 67 67 66 67 66 67 67 67 68 68 69 70 70 70 70 71 71 72 73 72 70 68 65 63 61 60 59 58 57 57 50 45 48 47 46 45 46 46 48 49 52 53 53 48 44 44 44 43 43 42 41

ECMWFFLT1_sfc_dewp_051.txt.gz
Dewpoint
54 55 56 58 58 59 59 59 59 60 60 61 62 62 63 64 65 66 66 67 68 68 69 69 69 70 69 69 70 70 70 69 69 69 69 69 69 68 68 68 68 68 70 71 71 72 72 73 73 73 73 73 73 74 74 75 75 75 75 75 75 75 74
52 53 55 57 58 59 59 59 59 60 60 61 61 62 63 63 65 65 66 66 67 67 68 69 70 70 70 70 70 70 70 69 70 70 69 69 70 69 69 69 69 68 69 70 71 72 72 72 72 73 73 73 73 74 74 75 75 75 75 75 74 74 74
52 52 54 56 58 58 59 59 59 60 60 61 62 62 63 64 64 65 66 66 67 67 68 69 70 69 70 70 70 70 70 70 69 69 69 69 69 69 69 69 69 69 69 70 71 72 73 72 72 72 73 73 73 74 74 74 75 75 75 74 74 74 73
52 52 53 56 58 59 59 59 59 59 60 61 61 62 63 64 64 65 66 66 66 67 67 68 69 69 70 70 70 70 70 70 69 69 69 69 69 70 70 69 69 70 70 69 71 72 72 72 72 72 74 72 73 74 74 74 75 75 75 74 74 74 74
53 53 53 55 56 58 59 59 59 59 59 61 61 63 63 64 64 65 65 66 66 66 67 68 69 69 70 70 70 70 70 70 69 69 69 69 69 69 70 69 69 69 70 70 71 72 72 72 72 72 73 72 72 73 74 74 74 75 75 74 74 74 73
53 53 53 54 56 57 58 59 59 59 59 60 61 62 63 64 64 64 65 66 66 66 67 67 68 69 69 69 70 70 70 70 70 70 69 69 69 69 69 70 70 69 69 70 71 72 72 72 72 72 72 72 72 73 73 74 74 75 75 74 74 74 73
52 53 53 54 55 57 58 59 59 59 59 60 61 62 63 64 64 64 65 65 66 66 66 67 67 68 69 69 69 70 69 69 69 69 69 69 69 69 69 70 70 70 69 70 71 72 72 72 72 72 72 72 72 72 73 73 74 74 74 74 74 74 74
51 53 54 54 55 57 58 59 59 59 60 60 61 62 63 63 64 64 65 65 65 66 66 66 67 68 69 69 69 69 69 69 69 69 69 69 69 69 69 69 70 71 71 70 71 72 72 72 72 72 72 72 72 72 73 73 73 74 74 74 74 74 74
50 52 53 54 55 56 58 59 59 60 60 60 61 62 62 63 64 64 65 65 65 66 66 66 67 68 69 69 69 69 69 69 69 69 69 69 69 69 69 70 70 71 71 70 70 72 72 72 72 72 72 72 72 72 72 73 73 73 74 74 74 74 73
50 52 53 54 55 56 58 59 60 60 60 61 61 62 62 63 63 64 65 65 66 66 66 66 67 67 68 69 69 69 69 69 69 69 69 69 69 69 69 69 70 71 71 71 71 71 72 72 72 72 72 72 72 72 72 73 73 73 73 73 73 73 73
50 52 53 54 55 56 58 59 60 60 61 61 62 62 62 63 63 64 65 66 66 66 67 67 67 67 68 68 68 69 69 69 69 69 69 69 69 69 69 69 70 70 71 71 71 71 71 72 72 72 72 72 72 72 72 72 73 73 73 73 73 73 73
51 52 53 54 55 56 58 59 60 61 61 61 62 62 63 63 63 64 65 66 66 67 67 67 67 67 68 68 68 69 69 69 69 69 69 69 69 69 69 69 69 70 70 71 71 71 71 71 72 72 72 72 72 72 72 72 72 73 73 73 73 73 73
51 52 54 54 55 57 58 60 60 61 61 61 61 62 63 63 63 64 65 66 66 67 67 68 68 68 68 68 68 69 69 69 69 69 69 69 69 69 69 69 69 69 69 70 71 71 71 71 71 72 72 72 72 72 72 72 72 72 73 73 73 73 73
57 53 54 54 55 57 58 59 60 61 61 61 61 62 63 63 64 64 65 66 66 67 68 68 68 68 68 68 69 69 69 69 69 69 69 70 70 70 70 70 70 70 69 70 69 70 71 71 72 72 72 72 72 72 72 72 72 72 72 73 73 73 73
52 52 53 54 56 57 58 59 60 61 61 61 61 62 63 63 64 64 65 66 67 67 68 68 69 69 69 69 69 69 69 70 70 70 70 70 70 70 70 70 70 70 70 70 69 69 69 70 71 72 72 72 72 72 72 72 72 72 72 72 72 73 73
51 52 53 54 55 56 58 59 60 61 61 61 61 62 62 63 64 64 64 65 66 67 68 69 69 69 69 69 69 69 70 70 70 70 70 70 70 70 70 70 70 70 70 70 70 69 69 69 70 71 71 72 72 72 72 72 72 69 65 67 72 73 73
51 52 53 54 55 56 57 58 59 60 61 61 61 61 62 63 64 64 64 64 66 67 68 69 69 69 69 69 70 70 70 70 70 70 70 70 70 70 70 70 70 70 70 70 70 70 70 70 69 69 70 71 71 71 72 72 72 66 64 64 65 71 73
50 51 52 53 54 56 57 58 59 60 61 61 61 61 62 63 63 63 63 64 65 66 68 69 69 69 70 70 70 70 70 70 70 70 70 70 70 70 70 70 70 70 70 70 70 70 70 70 69 69 69 70 71 71 71 71 67 64 63 63 63 65 72
50 51 52 53 54 56 56 57 58 59 60 61 61 61 61 62 62 63 64 64 65 66 67 68 69 70 70 70 70 71 71 71 71 71 71 70 70 70 70 70 70 70 69 69 70 70 70 70 70 69 69 69 69 70 71 71 66 63 62 62 62 62 66
49 50 51 52 53 55 56 57 58 59 60 60 61 61 62 63 63 63 64 64 66 66 67 68 69 69 70 70 71 71 71 71 71 71 71 71 71 71 70 70 70 70 69 69 70 70 70 70 70 70 70 69 69 70 70 71 66 62 61 61 61 61 63
51 51 51 52 53 54 56 57 59 60 60 60 60 61 62 63 64 64 65 65 66 66 68 69 69 70 70 70 71 71 71 71 71 71 71 71 71 71 71 70 70 70 70 69 69 69 69 69 69 70 70 70 70 70 70 70 65 62 60 59 59 60 61
60 57 56 56 56 57 58 59 60 60 60 63 63 62 62 62 63 64 64 65 66 66 67 69 70 70 70 71 71 71 71 71 71 71 71 71 71 71 71 71 70 70 70 70 69 69 69 69 69 69 70 70 70 70 69 70 63 61 60 59 59 60 65
66 67 67 66 65 65 64 63 63 65 66 63 63 62 62 63 63 64 64 65 65 66 66 67 69 70 71 71 71 72 72 72 72 71 71 71 71 71 71 71 71 70 70 70 70 69 69 69 69 69 69 70 70 70 70 70 65 60 59 58 58 59 67
69 69 69 69 70 70 70 70 70 70 69 70 70 69 64 64 64 64 64 65 65 66 66 66 67 69 71 72 72 72 72 72 72 72 72 71 71 71 71 71 71 71 71 70 70 69 69 69 69 69 69 69 69 70 69 69 66 59 57 57 57 61 68
68 68 69 69 69 69 69 70 70 71 72 72 72 73 73 67 65 65 65 66 65 66 66 67 67 68 69 71 72 73 73 73 73 72 72 72 72 71 71 71 71 71 71 70 70 70 69 69 69 68 69 69 69 67 69 69 67 59 57 56 56 61 68
67 67 68 68 69 70 70 71 70 70 71 72 72 73 74 74 69 68 67 67 66 66 66 67 68 69 69 70 72 73 73 73 73 73 72 72 72 72 72 71 71 71 71 71 70 70 69 69 69 68 68 68 69 69 69 69 70 67 57 56 55 57 68
67 68 68 68 69 71 69 69 69 69 70 70 72 74 74 74 74 74 74 73 72 72 73 71 68 69 70 70 70 72 73 73 73 73 73 73 72 72 72 72 71 71 71 70 70 70 70 69 69 68 68 68 69 69 69 70 70 69 57 55 55 55 60
66 67 68 70 71 69 68 68 69 69 69 70 70 72 73 73 73 72 72 72 72 72 74 74 74 72 68 70 70 71 72 73 73 73 73 73 73 72 72 72 71 71 71 70 70 70 70 69 69 68 68 68 68 68 69 70 68 71 59 56 54 54 55
65 66 67 68 68 69 68 68 68 69 69 69 70 70 71 71 71 71 70 70 71 72 73 74 73 72 69 68 70 70 71 72 72 72 73 73 73 72 72 72 72 71 71 71 70 70 70 70 69 69 68 68 68 69 69 70 70 64 67 56 54 54 54
64 65 66 68 68 68 68 68 68 68 69 69 69 69 69 70 70 70 69 68 70 71 72 73 73 73 69 68 69 70 71 71 72 72 72 72 73 72 72 72 72 72 71 71 70 70 70 70 70 69 68 68 68 70 70 71 71 66 62 62 54 54 54
63 65 66 67 68 68 68 67 67 68 68 68 68 69 68 68 69 69 68 68 70 71 71 72 74 74 72 68 69 70 71 71 71 71 72 72 72 72 72 72 72 72 72 71 71 71 70 70 70 70 69 69 69 70 71 72 72 72 66 60 57 54 54
63 64 65 66 67 67 67 68 67 67 67 67 68 68 68 68 68 67 66 68 69 70 70 71 73 74 74 71 68 70 72 71 71 71 72 72 72 72 72 72 72 72 72 72 71 71 71 71 71 70 70 70 70 70 71 72 73 73 68 64 61 57 54
63 63 64 65 66 67 67 67 67 67 67 67 66 67 67 67 67 67 67 67 68 69 69 71 73 74 74 73 70 69 71 72 72 72 72 72 72 73 73 72 72 72 72 72 72 72 72 72 71 71 71 71 71 71 71 72 71 68 66 65 65 63 61
62 63 64 64 65 66 65 66 65 66 66 66 66 66 66 66 66 67 66 67 67 68 68 70 72 73 73 73 71 70 71 72 75 74 73 73 73 73 73 73 73 73 72 73 73 73 72 72 72 72 72 72 72 72 71 67 64 65 66 65 65 64 63
62 62 63 64 65 66 66 66 66 65 66 66 65 65 65 65 66 66 66 66 67 67 67 69 72 72 71 71 71 71 72 72 75 73 70 64 57 52 50 52 58 70 72 63 65 74 73 73 73 73 73 73 73 72 70 65 64 64 54 63 61 63 64
62 62 63 64 65 65 66 67 65 65 65 65 65 65 65 65 65 66 66 66 66 67 66 68 70 70 71 70 71 72 73 73 72 69 67 64 61 58 56 52 46 47 57 60 57 51 52 64 73 74 74 70 58 63 70 68 66 46 44 45 46 47 49
62 63 63 64 64 64 64 64 66 65 65 64 65 65 65 65 65 65 66 66 67 66 66 67 68 69 69 70 71 72 73 72 70 67 66 64 63 62 61 60 56 46 45 48 50 46 43 45 54 62 64 67 60 52 49 49 45 43 43 43 43 43 43
63 63 63 63 63 63 64 64 64 64 65 65 65 65 65 65 65 65 66 66 67 67 66 67 68 68 69 69 70 72 71 70 68 66 64 63 63 63 63 62 60 58 49 44 46 45 44 44 44 47 50 51 53 52 51 47 43 43 43 43 43 43 42

ECMWFFLT1_sfc_dewp_054.txt.gz
Dewpoint
57 57 58 58 59 59 59 60 60 60 61 62 63 64 64 65 66 67 67 68 68 68 69 69 69 69 69 69 69 70 70 70 70 69 69 70 70 70 69 69 69 70 71 71 72 73 73 74 74 74 74 74 74 74 75 75 75 76 76 76 76 76 76
56 57 57 58 58 59 59 60 60 60 60 61 62 64 64 65 66 66 67 68 68 68 69 69 70 69 69 69 69 70 70 70 70 70 70 70 71 70 70 70 70 70 70 71 72 73 73 73 73 73 74 74 74 74 74 75 75 75 75 76 75 75 75
55 56 57 58 58 59 60 60 60 60 60 60 61 62 63 65 66 66 67 67 68 68 68 69 70 69 70 70 70 70 70 70 70 70 69 69 69 69 70 70 70 69 69 71 72 72 73 73 73 73 73 73 73 74 74 75 75 75 76 76 75 75 75
54 55 56 57 58 59 59 60 60 60 60 60 61 61 63 64 65 66 67 67 67 68 68 68 69 69 69 70 70 70 70 70 70 69 69 69 69 70 70 70 70 70 70 69 71 72 73 73 73 73 74 73 73 74 74 74 75 75 75 75 75 75 75
53 54 55 56 57 58 59 59 60 60 60 60 61 62 62 63 64 65 66 67 67 67 67 68 68 69 70 70 70 70 70 70 70 70 70 70 70 70 70 69 69 69 70 69 71 72 73 73 73 73 73 73 73 74 74 74 74 75 75 75 75 75 75
51 53 54 55 56 57 58 59 59 59 59 59 60 61 62 62 63 64 65 66 66 67 68 68 68 69 69 69 69 70 70 70 70 71 70 70 70 70 70 70 69 69 69 70 71 71 72 73 73 73 73 73 73 73 73 74 74 74 75 75 75 75 74
51 52 53 54 55 56 58 59 59 59 60 60 60 61 62 62 62 63 64 65 66 67 67 67 68 69 69 69 70 70 70 70 70 70 70 70 70 70 70 70 70 70 70 71 70 71 72 72 72 73 73 72 73 73 73 74 74 75 75 75 75 75 75
50 51 53 53 54 55 56 58 59 59 60 60 60 61 61 62 62 63 64 64 65 66 66 67 67 69 69 70 70 69 70 70 70 70 70 70 70 70 69 70 70 70 71 70 71 71 71 72 72 72 72 72 73 73 73 73 74 74 75 75 75 74 74
49 52 52 52 53 54 55 57 59 59 60 60 60 61 61 62 62 62 63 64 65 65 66 66 67 68 69 69 70 70 70 70 70 70 70 69 69 69 69 69 70 71 70 70 70 71 71 71 71 72 73 72 73 73 73 73 73 74 74 74 74 74 74
48 51 53 53 53 53 55 57 59 60 60 60 61 61 62 62 62 63 63 64 64 65 65 66 67 68 69 69 69 69 70 70 70 69 69 69 69 69 69 69 69 71 70 70 70 71 72 72 72 72 72 72 72 73 73 73 73 73 74 74 74 74 74
46 50 52 53 54 54 55 56 59 60 60 61 61 61 62 62 62 63 63 63 64 64 65 66 67 67 68 68 69 69 69 69 69 69 69 69 69 69 69 69 69 70 70 70 70 70 71 72 72 72 72 72 72 72 72 73 73 73 73 74 74 74 74
47 49 52 54 54 54 55 57 59 61 61 61 61 61 62 63 63 63 63 64 64 64 65 65 66 67 67 68 68 69 69 69 69 69 69 69 69 69 69 69 69 69 70 70 70 71 71 71 72 72 72 72 72 72 72 73 73 73 73 73 74 74 74
46 49 51 52 55 55 57 59 59 60 61 60 60 61 61 62 62 63 64 64 64 65 65 66 66 67 67 67 68 68 68 69 69 69 69 69 69 69 69 69 69 69 69 70 70 70 70 70 71 72 72 72 72 72 72 72 73 73 73 73 74 74 74
53 48 50 52 54 56 57 58 60 60 61 60 60 61 61 62 62 63 64 64 64 65 65 65 66 67 67 67 68 68 68 68 69 69 69 69 70 70 69 69 69 69 70 70 70 70 70 70 70 71 72 72 72 73 73 73 73 73 73 73 73 73 73
45 47 49 51 54 56 57 58 60 60 60 61 61 61 61 62 63 64 65 65 65 65 65 66 66 66 67 67 68 68 69 69 69 69 70 70 70 70 70 70 70 70 70 70 70 70 70 71 71 71 71 72 72 72 73 72 72 72 72 73 73 73 73
42 46 48 51 53 55 57 58 60 61 61 62 61 62 61 62 63 63 64 64 65 66 66 67 67 67 67 67 68 68 69 70 70 70 70 70 70 70 70 70 70 70 70 70 70 70 71 71 71 71 71 71 72 72 72 72 72 70 65 67 72 73 73
44 47 48 51 54 55 57 58 60 61 62 62 62 62 62 63 63 63 63 64 65 66 66 66 67 67 67 67 68 69 69 70 70 70 70 70 70 71 71 70 70 70 70 70 70 70 71 71 70 70 71 71 71 72 72 72 71 65 63 63 65 71 73
46 49 50 51 53 55 57 58 60 61 61 61 61 62 62 63 63 63 63 64 65 65 66 67 67 67 68 68 69 69 69 70 70 70 70 70 70 71 71 71 71 71 71 70 70 71 70 70 70 70 70 70 71 71 72 72 67 64 63 63 62 65 72
47 50 51 53 55 56 56 58 59 61 60 61 61 61 62 63 63 63 64 65 65 66 66 67 67 68 69 69 69 70 70 70 70 70 71 71 71 71 71 71 71 71 70 70 70 71 71 71 70 70 70 70 70 70 71 71 66 63 62 62 62 62 66
49 50 51 53 54 55 57 59 60 60 61 61 61 61 62 64 63 64 64 65 66 66 67 68 68 68 69 69 70 70 70 70 70 70 71 71 71 71 71 71 71 70 70 70 71 71 71 70 70 70 71 70 70 70 70 71 66 62 61 61 61 61 63
51 53 53 54 55 56 58 59 60 61 61 61 61 62 63 63 64 65 64 65 66 67 68 68 68 69 69 69 70 70 70 71 71 70 71 71 71 71 71 71 71 71 70 70 70 70 70 70 70 70 71 70 70 70 69 69 64 61 60 60 59 60 62
52 53 53 54 56 57 59 59 60 60 61 63 63 62 62 63 63 64 64 64 65 66 67 68 69 69 69 70 70 70 71 71 71 71 71 71 71 71 71 71 71 71 71 71 70 71 70 71 71 70 70 71 70 70 70 69 62 60 59 59 59 60 66
55 53 55 57 56 58 60 60 60 61 64 62 62 62 62 62 63 63 64 64 65 66 67 68 69 69 70 70 70 71 71 71 71 71 71 71 71 71 71 71 71 71 71 71 71 70 70 70 70 71 70 70 71 70 70 70 65 60 58 58 58 59 68
67 61 59 59 60 60 61 62 63 64 62 62 62 62 63 63 64 64 65 65 65 66 66 67 68 69 70 70 71 71 71 71 71 71 71 71 71 71 71 71 71 71 71 71 70 70 70 70 70 70 70 70 70 70 70 70 67 60 57 57 56 61 69
68 67 64 61 61 61 62 63 63 63 63 62 62 63 64 64 64 64 65 66 65 65 66 68 69 69 70 70 71 71 72 72 72 71 71 71 71 71 71 71 72 72 72 71 71 71 71 71 70 70 70 70 70 67 69 70 67 60 57 56 55 61 69
68 69 69 68 67 67 68 69 67 65 63 62 63 63 64 64 64 66 66 65 65 65 66 68 69 70 70 70 71 72 72 72 72 72 72 72 72 72 72 72 72 72 72 71 71 71 71 71 70 70 70 70 70 70 70 70 70 68 57 56 55 57 69
68 69 69 69 70 71 69 69 69 69 70 71 71 67 64 64 64 67 67 67 66 66 66 68 69 70 71 72 72 72 72 73 72 72 72 72 72 72 72 72 72 72 72 71 71 71 71 71 70 70 70 70 71 70 70 70 70 70 58 55 54 55 60
67 68 68 70 71 70 70 70 71 71 72 73 73 70 67 68 69 70 70 69 70 73 74 75 74 71 70 71 72 72 73 73 73 73 72 73 73 73 72 73 72 72 72 72 72 72 71 71 71 71 71 71 70 70 71 71 67 70 60 56 54 54 55
66 67 67 68 68 69 69 69 69 69 70 71 71 71 71 71 71 71 71 71 72 73 74 75 75 74 71 71 71 72 73 74 73 73 73 73 73 73 73 73 73 73 73 72 72 72 71 72 71 71 71 71 71 70 71 71 70 63 68 57 53 53 53
66 67 67 67 67 68 68 68 68 68 68 69 70 70 71 70 70 71 70 70 71 72 74 74 75 74 73 71 71 71 72 73 73 73 73 73 74 73 73 73 73 73 73 73 72 72 71 71 71 71 70 70 70 70 70 71 71 66 61 63 54 53 53
65 66 66 67 67 68 67 67 67 67 67 67 68 68 69 69 69 70 69 69 71 71 72 73 75 74 71 71 70 71 71 72 73 73 74 74 74 73 73 73 73 73 73 73 72 72 71 72 71 71 71 70 70 70 70 71 71 70 66 60 57 54 53
64 65 66 66 67 67 67 67 67 66 66 67 67 67 68 67 67 67 68 69 71 70 72 73 74 74 74 71 70 70 71 71 72 72 73 73 74 74 74 73 73 72 73 72 72 72 72 71 71 71 71 70 70 70 70 71 71 71 71 65 62 59 54
63 64 65 65 66 67 66 67 66 66 66 66 66 66 67 67 67 68 69 69 68 69 71 73 74 74 74 73 72 70 71 71 71 71 72 73 73 74 74 74 73 73 72 72 72 72 71 71 71 71 70 70 71 71 71 71 72 72 72 71 69 67 65
63 64 65 65 66 66 66 66 66 66 65 65 65 66 66 66 66 66 67 67 68 68 70 73 73 73 73 72 73 71 71 71 73 72 71 72 73 73 73 73 73 73 72 72 72 72 71 71 71 70 70 70 71 71 71 72 72 72 72 70 70 69 68
63 64 64 65 65 67 66 66 66 65 65 65 65 65 65 65 66 66 67 67 67 67 69 71 73 73 72 71 73 72 72 72 73 73 72 68 61 54 51 53 63 73 73 71 73 73 72 72 72 71 71 72 72 72 72 72 71 71 65 71 64 68 67
64 64 65 65 65 65 66 67 66 66 65 65 65 65 65 65 66 66 67 67 67 67 68 70 71 70 71 71 72 73 73 73 73 72 69 65 61 58 56 51 45 47 59 65 58 54 55 64 72 73 74 73 72 66 73 72 72 59 56 55 55 56 58
64 64 64 65 65 66 66 66 67 66 65 65 65 65 65 65 65 65 66 67 67 68 68 68 69 69 70 71 72 73 73 72 70 69 67 65 64 62 61 61 57 45 43 48 49 45 46 53 59 61 65 71 67 53 46 48 46 46 46 46 46 46 47
65 65 65 65 65 65 65 65 65 65 65 64 64 64 64 64 64 65 66 67 68 68 68 68 69 70 70 71 71 72 72 70 69 67 66 65 65 65 65 64 63 60 48 43 45 44 42 41 43 51 58 59 58 56 55 47 43 44 44 44 44 44 44

ECMWFFLT1_sfc_dewp_057.txt.gz
Dewpoint
59 59 60 60 60 60 61 62 63 64 65 66 67 66 67 67 68 69 69 70 71 71 72 72 72 72 72 72 72 73 72 72 72 71 71 72 72 72 73 72 72 74 72 73 74 74 76 76 76 76 77 77 77 77 77 77 77 77 77 78 77 77 77
58 58 59 59 60 60 61 62 63 63 65 66 66 67 66 67 69 69 70 71 71 71 72 71 72 72 72 72 72 73 73 72 72 72 72 72 73 73 73 73 73 74 74 74 74 76 76 76 76 76 76 77 76 77 76 77 77 77 76 77 77 76 76
57 58 59 59 59 60 62 62 63 63 64 64 65 66 66 68 69 70 70 70 71 71 71 71 72 72 72 72 72 73 73 72 72 72 71 70 71 70 72 73 73 73 73 74 75 75 75 75 76 76 76 76 75 76 77 77 77 77 77 78 77 76 77
57 57 58 59 60 61 62 62 62 61 62 63 64 65 67 69 69 70 70 70 70 71 71 71 71 71 71 72 72 72 72 72 72 71 70 70 71 71 72 73 73 72 73 73 73 74 73 75 75 76 76 76 76 76 76 76 76 77 77 78 76 76 77
57 58 58 59 59 61 61 61 61 62 61 62 64 66 67 68 68 68 69 69 68 70 70 70 69 70 71 72 71 71 72 72 72 71 71 71 72 72 72 71 71 71 72 72 73 75 75 75 74 75 75 76 76 76 76 76 76 77 77 77 77 76 76
55 58 58 59 59 60 60 61 61 60 61 61 62 64 65 66 66 66 67 69 69 69 70 70 70 71 71 71 71 71 72 72 73 73 72 72 73 72 71 71 71 71 70 72 72 72 74 74 74 74 74 74 74 74 74 75 75 76 77 77 77 76 75
54 57 58 59 59 59 60 60 60 60 61 61 61 63 64 64 65 65 66 67 67 69 69 69 69 70 71 71 71 72 72 71 72 72 72 72 72 72 72 72 72 71 71 72 72 72 72 73 74 74 74 73 74 73 75 76 76 76 76 77 77 77 77
55 56 58 59 58 58 59 60 60 60 61 61 61 62 62 63 64 64 65 66 67 67 68 68 68 70 71 71 71 71 71 71 71 71 72 71 71 72 71 72 72 72 72 72 72 72 71 73 73 74 74 73 74 75 75 76 77 75 76 76 76 76 76
53 57 57 57 58 58 58 60 61 61 62 62 61 62 62 62 63 64 65 65 66 66 67 67 68 69 71 71 72 72 71 71 71 72 72 71 70 70 70 71 72 72 72 71 70 72 72 72 72 74 75 74 74 75 75 76 76 76 76 76 76 76 75
53 57 58 57 57 57 59 60 62 63 63 63 63 63 62 62 63 64 64 65 65 66 66 67 67 68 71 71 71 71 71 72 71 70 70 70 70 70 69 69 70 72 71 71 70 71 72 72 72 74 75 74 75 75 75 75 75 75 75 76 76 76 76
52 58 59 57 58 58 60 60 62 64 64 66 65 62 63 62 63 63 64 64 65 65 66 66 68 68 69 69 69 70 71 70 70 70 70 70 69 69 69 69 69 71 71 70 70 71 72 73 73 74 75 73 74 75 75 75 75 75 74 75 75 76 75
54 58 60 59 59 59 59 62 64 66 67 66 63 62 64 65 63 62 63 64 64 65 66 66 67 67 68 68 68 70 70 70 70 70 70 70 69 69 69 69 69 70 70 70 70 71 70 72 72 73 74 74 74 74 75 75 75 76 75 74 74 75 75
48 55 59 58 60 60 62 65 65 66 67 64 62 62 63 63 63 62 65 65 64 65 66 67 67 68 68 68 68 70 70 69 70 70 70 70 70 70 70 69 69 69 70 70 70 70 70 70 72 73 73 74 74 74 75 75 75 75 76 75 75 75 75
53 49 53 58 60 61 62 64 66 66 66 64 62 62 62 62 62 63 65 64 64 65 65 66 67 68 69 69 69 70 69 70 70 71 71 71 72 71 70 70 70 70 70 71 71 70 70 70 70 72 72 73 73 74 74 75 75 75 76 76 75 75 75
41 44 50 53 60 63 63 62 65 66 65 64 63 63 63 62 63 64 66 65 65 64 65 67 68 69 68 69 70 71 71 71 71 72 72 72 73 73 72 71 71 71 71 72 71 70 70 70 70 71 72 72 73 74 74 73 74 74 75 75 75 75 74
33 35 43 50 56 59 63 62 64 66 67 67 64 64 62 63 65 64 64 64 64 65 66 68 68 69 68 69 70 72 72 72 73 73 73 73 74 74 73 71 71 70 71 71 71 72 72 72 71 71 71 72 73 73 73 73 73 71 66 68 74 75 74
49 41 36 48 57 58 61 62 63 66 67 67 66 65 64 64 65 64 63 64 64 65 65 66 69 68 68 69 70 72 72 73 73 74 73 73 74 74 73 72 72 72 72 72 72 72 73 72 71 71 71 71 71 72 72 72 72 66 64 64 66 73 75
58 52 46 40 46 55 60 61 63 64 64 63 63 64 64 66 64 63 62 64 64 64 65 66 67 67 69 69 71 72 72 72 73 73 73 74 73 74 74 73 72 72 73 72 72 73 72 72 72 72 71 71 71 71 72 72 67 64 63 63 63 66 74
64 59 51 48 46 54 56 57 60 64 62 62 62 63 63 65 63 64 64 65 64 65 65 65 66 68 70 70 71 73 72 73 73 73 73 73 73 73 74 73 73 73 72 72 72 72 73 73 72 72 72 72 72 71 71 71 66 63 62 63 62 62 67
66 64 58 50 44 43 54 60 60 62 62 64 63 62 63 64 63 64 64 65 65 65 66 67 67 68 69 70 71 72 72 73 73 73 73 73 73 73 73 73 73 72 71 71 72 73 73 72 72 73 73 73 73 73 72 72 66 62 61 61 61 62 64
66 66 61 53 51 47 56 62 63 64 64 62 62 63 63 63 64 65 65 66 66 66 69 68 68 68 69 70 71 72 72 72 73 73 73 73 73 73 73 73 73 72 72 71 72 72 73 72 72 72 73 73 72 72 72 71 65 61 60 60 59 61 62
65 66 64 54 53 56 61 58 61 62 63 63 62 62 63 63 63 64 64 65 65 66 67 69 69 69 69 71 70 71 72 72 73 73 73 73 73 73 73 73 73 73 73 72 72 72 72 73 72 72 73 73 72 72 71 71 63 60 59 59 59 60 68
65 67 65 60 55 57 64 62 63 61 65 63 62 62 62 62 63 63 63 64 65 67 66 67 70 70 70 70 70 71 72 72 72 73 73 73 73 73 73 73 73 73 74 73 72 72 72 72 72 73 72 73 73 72 72 71 66 59 58 58 58 60 71
67 67 62 57 59 62 64 64 64 66 62 63 63 62 63 63 63 64 65 64 65 66 66 67 69 70 71 71 71 72 72 73 73 73 73 73 73 73 73 73 73 73 74 73 72 72 72 72 72 72 72 72 72 71 72 71 67 58 57 57 57 62 71
67 67 64 61 59 60 60 65 64 63 64 64 62 63 65 64 64 64 66 66 65 66 66 68 70 71 72 71 72 73 73 73 73 73 73 73 73 73 73 73 74 73 74 73 73 72 73 72 72 72 73 71 71 69 70 71 68 58 57 56 55 63 72
67 67 67 62 61 62 66 69 68 64 63 62 64 65 66 64 65 67 67 66 65 65 67 69 71 72 71 71 73 73 74 73 74 74 73 73 74 74 74 74 74 74 74 73 72 72 72 72 72 72 72 71 71 71 71 71 72 70 57 55 54 57 71
67 68 68 68 67 67 66 66 64 62 61 65 68 64 64 64 65 67 69 67 67 67 67 69 72 73 73 73 72 73 74 74 74 73 73 74 74 74 74 74 74 73 73 72 71 72 72 72 72 71 72 72 73 72 71 71 72 74 57 55 54 55 60
67 68 68 70 71 70 64 62 65 63 62 68 65 64 64 67 69 71 71 69 68 69 68 71 73 73 74 74 73 73 74 74 75 74 73 74 74 74 74 74 73 73 73 72 72 73 73 73 73 72 72 73 72 73 73 72 68 72 60 55 54 54 55
67 67 67 68 69 69 69 68 65 63 65 64 64 65 66 66 70 70 71 70 71 69 71 73 72 74 74 74 74 75 75 75 75 74 72 73 74 74 74 74 74 74 74 74 73 73 73 74 74 73 72 73 73 73 73 74 73 64 71 55 54 53 53
67 67 67 67 67 68 69 70 70 69 67 64 66 67 67 69 72 72 71 72 76 74 74 75 75 75 74 74 74 74 75 75 73 73 73 74 74 74 74 74 74 74 75 75 74 73 73 73 73 73 72 72 72 72 73 74 74 67 62 66 54 53 52
66 66 66 67 67 68 68 69 70 69 70 71 72 72 73 73 72 72 73 76 76 77 76 76 75 74 74 73 73 75 74 75 74 74 74 74 74 75 74 75 75 74 75 75 74 74 73 74 73 73 72 72 72 72 73 73 74 73 68 61 58 54 53
66 67 67 67 67 67 68 68 68 69 70 70 72 73 75 74 73 74 75 75 76 77 77 77 76 75 74 74 74 74 74 74 74 74 74 74 74 74 74 74 74 74 75 74 74 74 74 73 73 73 73 72 72 72 73 74 74 74 74 66 63 59 54
66 67 67 67 67 68 67 67 67 68 69 69 70 70 71 72 73 74 75 75 75 76 77 77 77 77 76 75 73 74 74 74 73 73 73 74 74 74 75 74 75 75 75 75 74 74 73 73 73 73 72 71 72 73 74 74 74 73 73 73 71 69 66
66 67 67 68 68 68 68 68 68 68 68 69 69 70 70 70 70 71 72 72 74 76 77 77 77 77 77 76 75 74 75 74 74 74 73 75 75 74 74 75 75 74 74 74 74 74 73 73 73 72 72 72 72 73 73 73 73 73 73 72 72 72 71
66 67 67 67 67 67 67 67 67 68 68 68 69 70 70 70 71 71 72 73 74 76 77 77 77 77 78 78 77 76 75 75 75 74 74 75 77 67 63 70 76 75 75 75 75 74 73 73 73 73 72 72 73 73 73 73 73 73 66 73 66 71 71
66 66 67 68 68 68 67 67 68 67 67 68 69 69 69 70 71 71 72 73 73 75 77 77 77 77 77 77 77 77 75 75 73 74 73 73 70 66 60 50 44 50 65 74 62 60 58 62 75 76 74 74 75 76 74 74 74 67 61 60 59 58 60
65 66 66 67 67 67 67 67 68 67 67 67 68 68 68 69 69 71 71 73 74 75 76 77 76 76 76 77 76 75 76 75 75 76 75 73 70 68 67 65 61 44 41 47 50 48 52 54 56 57 66 74 74 67 55 54 53 56 55 55 55 54 55
64 65 66 66 65 66 66 66 66 66 67 67 67 67 68 68 68 69 71 72 73 75 75 76 77 76 76 76 76 75 76 76 75 74 73 71 71 70 69 69 68 65 49 42 44 44 41 41 42 48 53 58 66 68 68 53 46 48 50 50 50 49 47

ECMWFFLT1_sfc_dewp_060.txt.gz
Dewpoint
57 58 60 61 62 62 63 65 66 66 67 67 68 67 67 68 69 70 71 72 74 74 75 75 74 74 73 72 73 74 73 73 73 72 72 72 71 71 71 69 70 71 69 68 71 71 73 74 73 73 74 75 75 75 76 76 76 74 75 76 75 75 75
54 55 57 59 61 62 64 65 66 66 66 67 67 69 67 68 70 70 71 72 73 74 74 74 75 74 73 73 73 74 74 73 73 73 72 72 72 72 71 72 71 72 73 70 70 73 73 74 74 74 74 75 74 75 74 76 76 76 74 75 75 75 75
50 54 57 59 60 61 64 64 66 66 66 66 67 67 67 69 70 71 71 71 73 74 74 74 75 74 74 73 73 74 74 73 73 73 72 71 72 69 71 73 72 71 71 72 72 72 74 74 76 75 74 74 72 74 75 75 76 75 75 75 75 73 75
49 51 55 59 61 62 63 64 65 65 65 66 66 67 68 70 70 70 71 71 72 73 74 73 74 73 74 74 74 75 74 74 74 72 72 71 71 71 71 72 73 71 71 71 70 70 70 73 74 75 76 74 74 73 73 74 73 75 75 75 74 74 75
47 49 53 57 59 61 62 63 64 66 64 64 66 68 68 69 68 69 70 70 70 72 72 72 71 72 73 74 73 73 74 74 74 73 73 72 72 73 72 71 71 70 69 70 72 73 73 74 73 74 75 76 74 74 74 75 74 75 75 75 74 73 73
45 50 53 55 58 59 61 62 62 63 64 64 65 66 66 67 67 67 68 70 70 70 72 72 72 73 73 72 73 73 74 74 74 74 74 73 73 72 72 71 70 71 68 71 71 71 73 73 73 73 73 73 72 71 72 73 73 72 74 75 74 72 71
45 50 53 56 58 59 60 61 61 62 63 63 64 66 66 66 66 66 67 68 68 70 69 70 70 71 72 72 73 73 74 73 74 74 73 72 73 73 73 72 72 71 71 71 72 72 72 74 74 73 73 72 73 71 72 74 73 72 73 75 75 74 74
45 49 56 57 57 58 59 61 61 62 63 63 63 64 65 64 65 65 66 67 67 67 68 68 69 71 72 72 72 72 73 73 73 74 73 72 72 72 72 72 73 73 73 71 72 72 71 74 73 73 73 72 73 74 73 74 76 72 72 74 74 74 72
43 51 55 55 57 57 58 61 62 61 63 64 64 64 64 65 64 65 66 66 67 66 67 67 68 69 72 72 72 73 72 72 73 73 73 72 71 70 71 72 72 72 72 71 70 73 72 72 72 74 74 74 74 75 75 75 75 75 73 73 75 75 72
43 51 58 57 57 56 59 60 63 64 64 64 64 65 65 65 65 65 65 66 66 65 66 67 67 68 71 71 71 72 72 73 72 71 71 70 70 70 70 70 71 72 72 71 70 70 73 72 72 73 75 74 75 75 75 75 75 75 74 74 75 75 75
39 53 58 57 57 58 60 60 63 64 64 66 65 63 65 65 65 65 65 65 65 65 65 66 68 68 69 70 70 70 71 71 71 71 71 70 69 69 69 69 69 71 71 71 70 70 72 73 73 74 75 74 74 75 75 75 75 75 72 73 74 74 73
51 53 60 61 60 59 59 62 64 66 67 66 64 63 65 66 65 64 65 65 65 65 66 66 66 67 69 70 70 71 71 71 70 70 70 70 69 69 68 68 68 70 71 71 70 70 70 72 72 73 75 75 75 75 76 76 76 76 74 71 71 73 73
44 54 59 60 62 60 63 66 66 66 67 65 63 63 63 64 64 63 66 66 65 65 66 67 67 69 68 69 69 70 70 70 70 70 69 70 69 69 69 68 68 68 69 71 70 70 69 70 72 73 73 75 75 74 75 76 76 76 76 74 73 73 74
55 44 51 56 60 61 62 65 66 67 67 65 63 63 63 63 63 64 65 65 65 65 65 66 68 69 69 70 70 71 70 70 70 71 71 71 73 71 69 69 68 69 70 71 71 69 69 68 70 72 73 74 75 75 75 76 76 76 77 76 74 73 73
38 34 41 48 59 63 63 63 67 68 67 66 64 64 63 63 64 65 66 66 66 64 65 67 68 69 68 70 71 72 72 72 71 72 72 73 74 73 72 70 71 70 71 72 71 69 69 69 69 71 73 73 74 74 74 74 75 75 76 76 76 74 72
44 37 33 39 53 59 64 64 67 69 69 69 65 65 63 64 65 64 64 65 64 66 66 67 68 69 69 69 71 72 72 73 73 73 74 74 74 74 74 71 72 70 71 72 72 72 72 71 71 70 71 72 73 74 74 73 74 73 68 71 75 75 72
46 50 49 43 48 54 61 64 65 69 69 69 67 65 64 64 65 64 63 64 64 66 66 66 68 68 69 70 71 72 73 73 74 74 74 75 75 75 75 73 72 72 73 73 73 73 74 73 71 70 70 71 72 73 73 73 72 67 65 66 68 74 76
57 61 60 59 57 50 55 60 62 65 67 66 65 65 64 66 64 63 63 63 64 64 64 66 67 68 70 70 72 73 74 73 74 75 75 75 75 76 75 74 73 74 74 73 73 74 73 72 73 73 71 71 71 71 72 73 69 64 64 64 65 68 74
61 61 62 65 66 65 56 51 58 63 64 64 64 63 64 65 64 65 64 65 65 65 64 65 66 69 71 70 72 74 74 75 75 75 75 76 76 76 76 75 74 74 73 73 74 74 75 75 73 74 73 72 72 71 71 72 67 63 63 63 64 64 69
62 63 64 64 65 65 66 62 55 57 62 64 64 62 63 65 64 65 64 64 66 65 66 67 68 70 70 71 73 74 75 75 75 75 76 76 76 76 76 75 75 73 73 73 74 75 75 74 74 74 75 74 73 74 72 72 66 62 61 62 62 63 66
64 65 65 66 67 66 68 68 62 58 60 61 61 63 63 64 64 65 64 65 65 66 68 67 69 70 71 71 73 75 75 75 75 75 76 76 76 76 76 76 75 74 73 73 73 74 75 74 74 74 75 74 73 73 72 71 63 61 60 60 60 61 63
63 64 65 66 67 68 69 67 63 54 56 63 61 60 62 63 63 63 63 64 64 64 66 68 69 69 71 71 73 74 75 74 75 75 76 76 76 76 75 76 76 75 74 74 73 74 74 75 74 74 74 75 74 73 73 71 62 59 59 59 59 61 70
64 64 65 66 66 66 68 68 64 55 58 61 59 58 60 62 62 63 63 63 64 66 65 67 69 70 71 71 72 73 74 74 75 75 75 75 75 75 75 75 75 75 75 74 73 73 73 74 73 75 73 74 75 74 74 72 66 58 57 58 58 61 72
64 64 65 66 68 67 67 63 60 56 56 61 61 59 61 62 63 63 64 63 64 65 64 66 69 70 72 72 72 73 74 74 74 74 75 75 75 75 74 75 75 75 75 74 73 72 73 73 74 74 74 73 73 73 73 72 67 58 56 57 57 64 73
64 64 65 66 67 66 61 59 60 57 59 62 60 60 61 62 63 62 64 65 63 64 65 67 69 70 72 72 72 74 74 74 74 74 74 75 75 74 75 75 75 75 76 74 74 73 74 73 73 73 74 72 72 71 72 73 68 57 57 56 56 64 74
65 65 66 66 67 67 64 64 64 60 58 61 63 60 64 62 63 65 65 65 64 64 66 68 70 72 72 72 73 74 75 74 75 75 74 74 75 75 75 75 75 75 75 74 73 72 72 72 72 73 73 72 72 72 72 72 73 68 56 56 55 58 73
66 66 66 66 67 71 65 62 62 60 60 62 64 61 62 62 64 65 68 67 67 66 66 68 71 72 73 73 72 73 75 74 74 74 74 75 75 75 75 75 75 74 74 73 72 72 73 72 72 71 73 72 74 73 72 72 73 75 55 55 54 56 62
66 65 66 68 69 69 65 63 64 62 59 63 63 63 64 65 66 68 69 68 66 67 67 69 72 73 74 74 73 74 75 75 75 75 74 74 75 75 75 75 75 74 74 72 73 74 74 74 74 73 73 73 73 74 74 73 70 75 58 55 54 54 56
67 67 66 67 68 68 66 64 62 60 61 62 62 62 63 63 68 69 69 68 69 68 69 70 72 74 74 74 74 75 75 75 75 73 71 73 74 75 75 75 75 75 75 75 74 74 74 75 75 74 73 74 74 74 74 76 75 65 69 55 54 53 54
68 67 66 65 65 68 68 67 63 62 62 63 64 65 65 67 69 71 70 70 71 70 70 72 74 75 75 74 74 75 75 75 74 74 73 73 74 75 75 75 75 75 75 75 74 73 74 73 73 73 72 72 72 72 73 75 75 68 64 64 53 54 53
67 67 67 67 65 68 68 68 68 62 64 66 67 67 69 69 72 73 72 72 73 72 72 74 75 75 75 74 73 75 75 75 75 74 74 73 74 75 75 75 75 75 75 76 75 74 74 74 74 73 72 72 72 72 73 73 73 75 69 62 56 54 53
67 67 67 67 68 67 68 68 70 71 72 67 67 69 71 71 73 74 73 73 73 73 74 76 76 76 75 75 75 75 74 75 74 74 73 73 73 74 75 74 74 74 75 75 74 75 74 74 73 73 73 72 72 72 72 74 74 75 75 66 61 57 54
67 67 67 67 68 69 68 67 68 71 73 73 73 71 69 71 72 73 74 76 72 73 76 76 76 75 75 75 74 75 75 75 72 71 72 73 72 73 74 74 75 75 75 75 75 74 73 74 74 73 72 72 72 72 73 74 74 75 75 74 71 69 65
67 67 67 67 67 68 69 69 69 70 71 72 73 74 74 74 73 75 76 74 73 73 76 76 75 75 75 74 74 73 74 74 74 73 72 73 73 72 73 74 74 74 74 74 75 74 74 73 73 72 71 71 72 72 73 73 74 75 75 74 74 73 71
67 67 67 67 67 67 67 67 68 70 70 70 71 73 74 75 75 76 77 75 74 75 76 74 75 74 75 74 74 75 75 75 75 73 72 73 75 74 78 78 74 74 75 75 75 74 73 73 72 73 72 72 73 73 73 74 74 75 68 79 68 74 73
65 65 65 66 66 66 67 67 67 68 69 70 70 71 72 73 74 76 76 77 78 77 77 77 76 75 75 74 74 74 74 74 72 73 72 72 73 76 67 50 45 54 67 73 61 52 48 56 75 76 78 74 75 76 76 76 76 64 63 63 61 63 58
63 63 63 64 65 65 66 66 67 68 68 69 70 71 71 72 73 73 74 75 76 76 76 77 75 74 75 75 74 73 74 73 73 74 74 73 73 74 72 68 64 43 42 50 55 48 41 41 41 44 51 68 75 73 53 54 52 53 56 56 56 53 49
61 61 62 63 63 64 65 65 66 66 67 69 69 70 70 71 72 72 73 75 76 76 77 76 75 74 72 74 74 77 76 74 74 74 74 74 74 76 75 74 72 69 48 42 46 45 42 41 41 40 42 44 53 70 73 56 46 47 48 50 50 48 45

ECMWFFLT1_sfc_dewp_063.txt.gz
Dewpoint
52 52 61 62 63 63 62 62 63 62 65 66 67 66 66 67 69 70 71 73 74 75 75 75 75 75 75 74 74 74 73 73 72 70 69 68 67 68 69 68 68 68 63 64 68 68 70 71 69 69 71 73 74 73 75 76 75 73 75 76 75 74 74
52 50 50 58 60 62 65 66 67 65 65 66 67 68 67 68 70 70 71 73 74 74 75 75 75 75 75 75 74 75 75 73 73 72 71 70 70 69 68 70 68 69 68 64 65 70 71 70 70 70 70 72 73 74 73 75 76 75 73 74 74 75 74
50 51 52 58 60 61 64 63 65 65 67 66 66 67 67 70 70 71 72 72 74 75 75 75 76 75 75 76 75 75 74 74 73 72 71 69 69 66 68 69 69 67 68 66 66 66 69 70 72 72 70 70 70 73 74 74 75 74 74 74 74 73 75
50 50 52 55 57 60 63 60 62 65 66 66 67 67 68 70 70 71 71 72 73 74 75 75 75 74 75 75 75 75 75 75 74 73 71 69 69 68 68 69 70 68 68 67 64 64 64 69 70 73 73 72 71 71 72 73 72 74 74 74 73 73 74
48 51 51 52 56 59 60 63 64 67 65 65 67 69 69 69 69 70 71 72 72 73 74 74 73 73 74 74 73 73 74 74 74 73 72 70 70 70 68 66 67 68 67 67 68 68 69 70 69 72 73 74 72 72 72 72 72 73 74 75 74 73 72
43 48 51 52 55 60 61 58 59 62 64 65 66 68 67 67 68 68 69 71 72 73 74 74 73 74 73 73 72 72 73 73 75 75 73 72 70 69 68 68 67 68 65 66 67 67 68 67 69 71 72 72 70 68 69 71 71 71 73 74 74 72 69
41 47 50 54 55 56 57 57 59 61 65 64 65 67 67 66 67 68 68 69 70 72 72 72 71 72 73 73 72 73 73 72 73 73 72 70 69 70 71 70 69 68 68 68 67 68 68 69 69 71 71 70 71 68 70 73 72 72 73 74 74 74 73
40 43 48 50 54 52 53 58 62 62 64 63 66 65 66 66 66 66 68 68 69 70 70 70 70 72 73 73 72 72 72 72 73 74 73 71 70 70 70 70 70 70 70 66 68 68 67 71 70 70 70 70 71 71 69 72 73 70 70 72 74 73 71
38 43 44 47 51 50 52 57 60 61 64 65 65 66 66 66 66 66 67 67 68 68 69 69 68 70 73 72 72 73 72 72 73 74 73 71 70 69 68 69 70 70 70 67 66 69 69 70 71 72 72 71 72 73 71 73 71 72 71 72 73 73 72
41 45 48 48 49 49 52 51 59 64 65 66 66 67 66 66 66 66 66 66 67 67 67 67 67 68 71 72 72 72 72 73 73 72 71 70 69 69 68 68 69 70 69 68 66 67 70 70 71 73 74 72 72 72 73 73 72 73 72 71 72 73 74
37 49 50 49 52 55 56 53 61 66 65 65 67 65 67 66 66 65 66 65 66 66 66 66 67 67 70 70 69 70 72 71 71 71 70 69 68 68 67 66 67 69 69 69 67 66 69 71 72 74 74 72 72 72 74 73 74 74 72 71 71 72 72
41 44 53 54 53 53 54 62 64 66 66 66 65 64 67 68 66 65 65 66 65 65 65 65 65 66 69 70 69 70 70 71 70 70 70 69 68 67 67 66 66 68 70 70 68 67 66 70 71 72 74 74 73 73 74 75 75 75 73 70 70 71 72
40 47 53 53 54 53 63 64 65 63 68 65 64 64 65 66 66 65 67 67 65 65 65 65 65 67 68 69 68 70 69 70 69 70 69 70 68 67 67 66 65 65 67 69 69 67 65 67 71 72 72 74 74 73 74 75 74 75 75 73 72 71 72
55 45 52 55 56 59 62 65 65 67 67 65 64 64 65 65 65 66 67 66 66 65 65 65 65 67 68 69 69 70 69 69 69 69 70 70 72 69 67 66 65 65 66 69 69 67 66 64 69 70 71 73 74 74 74 75 74 75 76 75 72 70 71
36 37 45 49 60 62 63 62 67 67 66 66 65 64 64 65 66 67 67 67 67 65 65 66 66 67 67 69 70 71 71 71 70 70 71 72 74 72 70 67 67 67 67 69 69 67 66 65 65 70 71 72 74 74 73 73 74 74 75 75 74 71 69
33 31 32 38 49 56 61 62 65 68 68 69 66 65 63 64 67 65 66 66 66 67 66 67 66 68 67 68 70 71 72 73 73 72 73 73 74 74 72 68 68 66 67 68 69 70 70 69 67 67 70 70 72 73 73 72 73 73 69 71 74 73 68
44 47 46 49 49 52 58 60 62 67 70 69 68 66 65 65 66 65 64 65 65 66 66 65 68 67 68 69 71 72 73 73 74 74 75 75 75 75 74 72 69 69 71 70 70 72 74 70 67 65 67 69 70 72 72 71 71 68 66 67 69 73 73
50 52 51 52 53 56 58 57 60 64 67 67 66 65 65 66 65 64 64 65 65 64 64 65 67 67 70 70 72 74 74 73 75 75 75 75 75 76 75 72 71 72 73 70 70 74 71 69 69 70 66 67 69 70 71 71 69 64 65 65 66 70 75
51 51 51 55 56 58 57 57 55 62 63 65 66 65 64 65 63 65 65 66 65 65 64 65 66 69 71 70 72 74 75 75 75 75 74 75 75 76 75 75 74 72 70 69 71 72 74 74 71 70 69 68 70 69 70 70 66 63 63 64 65 65 71
52 53 53 55 54 58 63 65 64 66 59 66 67 64 63 65 63 65 64 64 65 65 67 67 68 69 70 71 73 74 75 75 75 75 75 76 76 76 76 75 74 71 70 71 73 74 74 72 73 73 74 72 71 74 70 71 65 62 62 63 63 64 67
53 56 60 61 60 61 66 68 69 69 68 65 61 65 65 63 63 65 64 64 64 66 69 67 68 69 70 71 73 74 75 75 75 75 76 76 77 77 76 76 75 73 72 71 72 74 75 73 73 73 74 72 71 71 70 68 63 61 60 61 61 63 65
59 60 61 62 64 65 67 66 67 67 68 68 65 57 63 62 62 62 63 63 63 64 66 67 69 69 70 71 72 74 75 75 75 76 77 76 77 77 77 76 76 75 74 73 72 73 74 75 73 73 74 74 73 71 71 70 60 60 60 60 60 62 71
56 58 60 62 61 62 66 68 67 67 69 68 67 62 56 60 60 61 62 63 63 65 64 66 69 69 71 72 72 74 75 75 75 76 77 77 76 77 76 76 76 76 75 73 73 73 73 75 73 75 74 74 74 73 72 71 65 59 58 58 59 63 73
56 58 60 61 64 64 66 67 66 67 66 66 65 64 60 60 61 61 63 63 62 64 64 65 67 70 73 72 73 74 75 76 76 76 76 77 77 76 76 76 77 76 75 74 73 72 73 74 74 74 74 73 74 73 73 71 68 56 57 57 58 65 74
56 58 61 63 64 63 64 66 68 68 69 67 61 61 61 60 61 60 63 65 62 63 64 66 68 70 72 72 73 75 76 76 76 76 76 77 76 76 76 77 77 76 76 74 74 73 74 73 74 73 74 72 73 73 73 71 67 56 57 56 56 66 75
56 58 60 63 64 64 66 69 69 68 67 63 62 60 60 59 61 64 64 63 62 63 65 67 69 71 72 73 74 75 77 76 77 77 76 77 77 77 77 77 77 77 76 75 73 72 71 72 73 73 73 72 72 73 73 72 73 65 55 56 56 59 75
56 58 61 64 65 67 66 67 66 66 64 64 65 58 56 58 61 64 66 66 66 65 65 67 70 72 74 74 73 74 76 76 76 76 76 77 77 77 77 76 76 76 75 74 72 72 72 72 72 71 73 72 74 72 72 72 74 69 54 55 55 57 64
56 58 61 64 67 66 66 65 67 67 65 64 61 59 58 63 67 69 72 68 66 66 66 68 72 72 73 74 74 74 76 76 77 76 75 76 77 76 76 76 75 75 75 73 73 74 74 74 73 72 72 73 72 73 73 73 71 76 56 55 54 56 58
56 57 60 64 67 65 64 65 65 65 64 61 59 58 60 61 69 72 71 68 70 67 69 70 70 73 74 75 74 76 76 77 76 75 73 74 76 76 76 76 75 76 76 76 75 75 74 75 74 73 72 73 72 72 74 76 77 69 65 55 54 54 55
55 57 60 64 65 66 65 66 66 66 65 61 62 63 64 65 72 72 71 71 73 69 71 72 74 75 75 75 74 75 76 76 75 74 74 75 76 76 76 76 76 76 76 76 74 73 73 74 74 73 72 71 71 71 72 75 75 68 63 61 54 54 54
54 57 60 66 66 68 69 68 67 65 64 63 65 65 68 67 72 73 72 73 74 77 74 74 74 74 74 74 74 75 76 76 75 75 74 75 75 76 75 76 75 74 76 76 75 74 73 74 74 74 73 72 72 72 72 73 74 75 67 59 55 54 53
55 58 61 67 69 69 70 69 68 71 72 68 66 66 69 68 69 73 73 72 74 73 74 74 75 75 75 75 75 75 75 75 74 74 72 74 75 75 75 75 74 74 75 75 75 74 74 74 72 73 73 72 72 72 72 73 73 74 74 64 59 57 54
56 58 64 67 68 69 69 70 70 71 72 70 67 66 65 66 67 71 74 74 71 70 75 75 75 76 76 75 74 75 75 75 72 72 72 73 73 74 75 74 75 75 75 74 74 74 73 74 73 72 71 71 71 72 72 72 72 73 73 72 68 66 63
56 59 66 68 69 70 70 70 71 71 72 73 74 76 69 68 70 72 72 71 70 70 75 76 76 75 76 74 74 75 75 74 75 73 71 72 73 73 74 74 74 73 74 74 73 72 73 72 71 70 71 71 71 72 72 72 72 73 73 74 72 71 69
57 61 68 67 67 68 69 70 70 71 71 72 74 75 76 73 72 72 73 74 73 75 76 76 76 76 76 75 76 75 76 75 74 73 71 72 73 74 81 77 72 73 74 74 74 73 72 72 71 71 71 71 72 71 72 72 72 73 67 78 68 72 71
58 62 66 67 67 67 69 70 70 70 71 72 73 73 74 75 77 75 73 74 74 76 76 77 76 76 76 75 75 74 74 74 72 72 71 70 70 72 65 50 44 51 74 73 59 51 49 64 76 77 77 75 76 78 75 73 74 63 63 62 61 62 63
58 61 63 66 67 66 67 68 69 69 70 71 72 72 73 74 75 76 77 76 75 76 76 76 75 75 75 74 72 72 73 72 72 72 73 72 71 73 71 69 65 45 43 50 51 46 42 43 45 48 53 77 76 68 54 56 55 55 54 51 50 53 56
58 60 63 65 65 66 66 67 68 69 70 71 71 72 73 73 74 74 74 75 76 76 76 76 75 74 73 73 73 76 76 72 74 74 73 73 73 76 74 72 71 67 50 43 45 44 42 41 41 42 45 47 63 73 72 56 50 50 49 48 48 50 51

ECMWFFLT1_sfc_dewp_069.txt.gz
Dewpoint
58 59 59 62 63 63 63 63 61 61 61 63 63 64 65 65 67 67 69 69 69 69 69 71 70 69 68 67 68 67 67 68 67 66 67 67 67 64 66 66 68 69 70 71 71 72 71 71 71 73 73 74 73 76 75 76 75 75 74 76 76 78 75
58 57 58 61 63 63 63 62 61 61 61 62 63 64 65 65 67 68 69 70 69 69 69 70 71 69 68 68 68 68 67 67 67 67 66 67 69 66 66 66 67 70 70 71 70 71 72 72 71 72 73 74 73 74 76 75 75 75 75 75 74 74 75
57 57 58 60 62 62 62 62 62 62 61 62 64 64 64 66 66 68 69 70 70 70 70 69 71 70 69 68 68 68 67 66 67 66 65 65 67 67 68 67 66 68 70 71 71 71 72 70 72 72 73 73 73 73 75 75 75 75 75 75 75 74 74
58 58 59 61 62 62 61 61 62 62 62 63 64 64 64 66 66 68 69 70 70 70 70 69 70 70 69 68 68 68 68 66 66 66 65 64 65 67 69 69 68 68 70 69 71 70 69 70 69 73 75 73 73 73 74 75 75 75 75 76 74 75 75
58 60 60 61 62 62 61 61 61 62 62 63 64 65 64 66 66 67 69 70 70 70 71 70 70 71 70 69 68 69 68 67 66 65 65 64 65 64 69 69 69 68 69 68 69 71 69 70 69 71 74 73 72 74 74 75 75 75 75 75 74 74 75
58 59 59 60 61 62 62 61 62 62 62 61 63 65 65 65 66 66 68 70 70 71 71 71 71 71 71 69 68 68 68 67 66 66 65 64 65 63 65 68 69 69 68 68 67 68 69 69 70 69 72 72 72 73 73 73 74 75 74 75 74 74 75
58 58 59 60 60 61 62 62 62 63 63 62 63 65 65 65 66 66 67 69 70 71 71 71 71 71 71 71 69 69 68 67 67 65 65 64 64 64 63 65 68 69 68 68 67 65 65 70 70 69 69 72 72 73 73 72 73 74 74 74 74 74 74
56 57 58 59 60 61 62 62 62 62 62 63 64 65 65 65 66 66 67 69 70 71 71 71 71 71 72 72 71 69 68 67 67 66 65 63 63 64 63 63 64 67 67 67 67 66 63 68 70 70 69 69 71 71 72 73 72 74 74 74 74 73 74
56 56 57 59 60 61 62 62 62 62 62 62 62 63 64 65 65 65 66 68 70 70 71 71 71 71 72 72 72 70 69 68 67 67 65 64 63 63 63 62 63 65 66 65 66 67 65 63 68 71 70 69 70 70 71 72 72 72 73 74 74 73 73
55 56 57 58 59 60 61 62 62 62 63 63 64 65 65 65 65 65 65 67 69 70 71 71 71 72 72 72 72 71 70 70 69 67 66 64 63 63 63 62 62 64 65 65 65 67 67 65 64 69 71 70 70 70 70 71 72 72 72 73 73 73 73
54 55 55 56 58 59 60 61 62 63 63 63 66 67 67 66 66 67 67 67 69 70 71 71 71 71 72 72 72 72 71 70 69 68 67 66 64 64 64 63 63 63 64 65 64 65 67 67 65 65 71 71 71 71 70 71 72 72 71 72 73 73 73
54 54 55 56 57 59 60 61 62 63 64 64 65 66 67 67 67 67 67 68 69 70 71 71 71 71 71 72 72 72 72 71 70 69 68 67 66 65 65 64 64 64 64 65 64 64 65 67 66 65 67 70 71 72 71 71 72 72 71 71 73 73 73
52 53 56 56 58 59 60 62 63 64 64 64 65 65 66 67 67 67 67 68 68 69 70 70 71 71 71 72 72 72 72 71 70 70 68 68 67 66 65 65 65 64 64 65 64 64 64 65 67 67 66 68 70 72 72 71 71 72 71 71 72 73 73
62 53 57 57 57 58 60 62 63 64 64 64 65 65 65 66 66 67 67 67 68 69 69 70 70 71 71 72 72 72 72 71 71 70 69 68 68 67 66 65 65 65 65 65 64 64 64 64 66 68 67 67 68 70 72 72 71 71 71 71 71 72 72
56 56 57 58 60 61 62 61 62 64 65 65 65 65 65 65 66 66 67 67 67 68 69 70 70 71 71 72 72 72 71 71 71 71 70 70 69 69 68 67 65 66 66 65 64 64 63 64 65 67 69 69 69 69 70 72 72 72 71 71 70 71 72
56 59 59 58 59 61 63 65 66 67 66 65 65 65 65 66 66 66 66 66 67 67 68 70 70 71 71 71 72 72 71 71 71 71 71 70 70 69 69 67 66 65 66 66 65 64 65 64 65 66 68 70 70 70 70 71 72 71 68 69 71 71 71
56 57 61 63 61 62 63 66 66 65 66 68 66 65 66 65 65 66 66 66 67 67 67 68 69 70 70 71 71 72 71 71 71 71 71 71 70 70 69 68 66 65 66 67 67 66 66 65 64 65 66 69 71 71 71 70 71 67 65 66 68 71 71
54 56 60 62 65 65 65 64 66 67 68 66 68 71 69 69 66 66 65 66 66 67 67 67 68 69 70 70 72 72 72 71 71 71 70 71 70 70 69 68 67 66 66 67 68 68 67 66 64 66 67 67 70 71 71 71 69 65 64 65 65 69 72
54 55 56 57 60 65 67 66 68 67 68 67 70 70 69 68 71 66 66 66 66 67 67 67 67 68 69 70 71 72 71 71 71 71 70 70 71 70 69 68 68 66 66 66 68 68 68 67 66 66 68 68 69 71 72 72 67 64 63 64 64 65 70
52 53 54 55 56 62 64 64 65 69 69 69 70 71 73 71 68 69 71 71 71 71 72 71 71 70 70 71 70 72 72 71 71 71 71 71 71 71 70 69 68 67 66 67 68 69 68 68 67 67 69 69 69 70 71 72 67 62 61 62 63 64 67
52 53 53 54 55 57 59 62 64 66 70 71 72 70 70 69 69 69 73 73 72 71 70 70 69 69 70 70 69 70 72 71 71 71 71 71 71 71 70 69 69 68 67 67 68 69 69 68 68 68 68 69 70 70 71 72 65 61 60 60 61 63 66
51 51 52 53 54 56 57 58 60 61 63 67 71 71 69 66 67 68 70 69 69 69 70 70 69 68 69 69 68 68 71 71 71 71 71 71 71 71 71 70 69 69 68 68 67 69 69 69 69 68 68 69 71 70 70 71 63 60 59 59 60 62 69
51 51 52 53 54 55 57 58 59 60 63 64 66 66 69 66 65 65 66 68 68 67 68 69 69 68 68 68 67 69 71 72 71 71 71 71 71 71 71 71 70 69 69 68 67 67 69 69 69 69 68 68 69 70 70 70 64 60 58 58 59 62 70
53 51 51 52 54 55 56 57 58 60 61 63 65 67 67 67 66 65 63 66 66 66 67 68 68 68 68 68 68 68 71 72 71 71 71 71 71 71 71 71 70 69 70 69 68 67 68 69 69 69 69 68 68 68 70 70 65 58 57 57 58 63 70
52 51 51 52 53 54 55 57 58 60 61 62 64 65 66 66 66 66 65 64 66 67 67 67 68 68 68 69 68 68 70 72 72 71 71 71 71 71 71 72 71 70 70 69 68 67 68 69 69 69 69 68 68 69 68 68 67 56 57 57 56 63 70
50 53 51 52 53 54 56 58 58 59 59 60 62 64 66 67 66 67 67 65 61 64 66 66 67 68 68 68 68 69 70 72 72 72 71 71 72 72 72 72 72 71 70 69 69 68 68 69 69 69 69 69 69 69 69 68 70 61 55 55 55 59 71
50 53 52 52 53 57 55 56 57 58 59 60 63 64 66 67 66 66 67 67 66 62 60 65 66 68 68 68 68 69 71 72 72 72 72 72 72 72 72 72 72 71 70 69 69 68 69 69 69 69 69 70 71 70 70 69 69 65 54 54 54 56 64
50 51 53 54 55 55 55 56 57 58 58 60 62 65 67 68 68 68 68 68 66 65 64 62 65 67 67 68 68 68 71 73 73 72 72 72 73 72 72 72 72 72 71 70 69 69 69 70 70 70 70 70 71 71 71 71 68 68 54 54 54 55 58
51 52 52 53 53 54 55 56 57 58 59 61 63 66 68 68 68 69 69 69 68 66 65 63 63 65 67 67 68 70 71 73 73 73 72 72 73 73 72 73 73 72 72 71 70 69 69 70 71 70 71 71 71 71 71 72 71 65 61 54 53 54 56
52 53 53 54 54 54 56 56 57 58 59 61 64 67 68 69 70 70 71 72 73 70 66 63 63 65 66 67 67 69 72 73 73 73 73 73 73 73 73 73 73 73 73 72 70 69 69 69 71 71 71 71 72 72 71 72 72 65 61 59 53 53 54
52 53 53 54 55 56 57 57 57 58 60 63 66 68 70 72 73 74 74 75 75 73 69 65 63 64 63 66 70 70 71 73 74 73 73 74 74 74 74 74 74 73 73 72 71 70 69 69 70 71 71 71 72 72 72 72 73 72 64 58 55 54 54
53 53 54 55 55 56 57 57 58 58 60 64 67 68 70 71 72 73 74 76 76 75 71 67 65 66 65 64 68 72 72 74 74 74 74 74 74 74 74 74 74 74 74 73 72 71 70 70 70 70 70 70 71 72 72 72 73 73 70 62 58 56 54
53 54 54 55 56 57 57 58 58 59 61 63 66 68 69 71 72 73 74 75 76 76 73 68 66 68 69 68 68 71 73 74 74 74 74 74 75 75 75 74 74 74 74 74 73 72 71 70 70 70 69 69 70 71 72 72 72 73 71 67 65 62 61
53 54 55 56 56 58 58 59 59 60 62 64 65 66 68 70 72 73 74 75 76 76 73 70 68 67 69 71 71 71 73 73 73 74 74 74 74 75 75 75 75 74 74 74 74 73 72 71 70 70 69 69 69 70 71 71 72 73 72 68 67 65 64
54 54 56 56 57 58 59 59 60 61 62 63 64 65 68 70 72 73 74 74 75 75 73 72 69 69 69 70 71 72 73 74 74 74 74 74 74 75 75 75 75 75 74 75 75 74 73 72 71 71 70 70 69 69 70 70 71 72 67 69 63 65 66
53 54 56 57 57 57 58 59 60 61 61 62 63 65 67 70 71 72 73 74 74 75 76 73 71 70 70 71 71 72 73 74 74 74 73 74 74 73 65 56 46 56 74 74 71 67 65 65 71 72 71 70 70 70 69 70 71 64 61 59 57 56 58
54 55 56 57 57 55 57 59 61 61 61 61 62 63 64 67 70 72 73 73 74 74 76 74 72 71 71 72 72 71 73 73 74 74 74 73 73 72 69 66 63 48 43 50 64 64 59 58 60 62 64 70 71 69 64 63 63 59 56 56 54 54 54
54 54 57 58 57 55 56 58 60 60 61 61 61 61 62 64 68 69 70 71 73 74 75 76 74 72 72 72 72 71 72 74 74 74 74 73 73 71 69 69 68 66 52 44 47 52 58 58 58 58 59 61 65 70 69 63 59 55 53 54 54 54 53

ECMWFFLT1_sfc_dewp_072.txt.gz
Dewpoint
62 61 61 62 61 61 61 62 61 61 61 62 63 63 62 63 63 62 65 66 67 67 68 69 69 69 69 68 68 66 66 65 68 66 64 63 66 66 66 66 68 70 70 71 71 70 71 72 72 73 74 73 73 74 74 74 74 73 74 74 74 75 74
61 61 60 61 61 61 62 62 62 61 62 62 63 63 63 63 64 64 64 66 66 67 68 68 69 68 68 68 68 66 66 65 68 68 65 64 66 66 66 67 68 70 70 71 71 71 71 72 72 73 73 73 73 73 74 74 74 73 73 74 74 74 74
61 60 60 60 61 61 62 62 62 62 62 62 63 63 63 64 65 65 65 66 66 66 68 68 69 68 67 68 68 66 65 66 66 68 65 63 65 64 65 66 68 69 70 71 71 71 72 71 71 72 72 73 72 73 75 74 74 73 73 74 73 73 74
60 59 59 60 61 61 62 62 62 61 62 62 62 63 64 65 65 66 66 66 66 66 67 68 69 68 67 67 67 66 65 65 65 67 66 64 64 64 65 65 67 68 69 70 70 71 71 71 71 71 74 72 72 72 74 74 74 74 74 74 73 73 73
59 59 59 60 61 61 62 62 62 61 61 62 62 64 64 65 65 66 66 66 66 66 67 68 69 68 68 67 67 67 65 65 65 66 66 65 65 65 64 64 64 67 68 70 70 71 71 71 70 71 72 72 72 72 72 74 74 74 73 74 73 73 73
57 57 58 59 60 61 62 62 62 61 61 61 62 63 64 65 65 66 67 67 66 67 67 68 69 69 68 67 66 66 66 65 65 66 66 66 66 65 64 64 64 64 67 68 70 70 69 70 69 71 71 72 72 72 72 73 74 74 73 74 73 73 73
57 57 57 58 60 61 62 62 62 62 61 61 62 64 65 65 65 66 67 67 67 67 67 67 68 69 69 67 66 66 66 65 65 65 65 65 65 65 65 64 64 63 64 68 69 69 69 68 69 69 72 72 72 72 72 73 74 74 73 74 74 73 73
57 57 57 58 60 61 62 62 62 62 61 61 62 63 64 65 66 66 67 67 67 67 67 67 68 69 69 68 67 66 66 66 65 65 65 64 64 64 65 65 65 64 65 65 67 69 69 68 68 68 70 72 72 72 72 73 73 74 73 73 73 73 73
57 57 57 58 59 61 61 62 62 62 61 61 61 63 64 64 65 66 67 67 68 68 68 68 68 68 69 69 68 67 66 66 65 65 64 64 63 63 63 66 66 66 65 65 66 68 68 68 68 68 68 70 72 72 72 72 73 73 74 73 73 73 73
57 57 58 58 59 61 61 62 62 62 62 62 62 63 63 64 65 65 66 67 68 68 68 68 68 68 69 69 69 68 67 67 66 65 64 63 63 62 62 62 65 68 67 66 66 66 67 67 68 68 69 68 70 71 72 72 72 73 73 73 73 73 73
58 58 59 59 60 61 61 61 61 62 62 62 63 63 63 64 64 65 66 67 68 69 69 69 69 68 68 69 69 68 67 67 67 66 65 63 62 62 62 61 61 64 67 67 66 66 66 66 66 68 69 68 68 70 71 71 72 72 72 73 73 73 73
58 59 59 59 60 60 61 62 62 62 62 62 62 63 64 64 64 65 65 66 68 69 69 69 69 69 69 69 69 69 68 67 67 66 65 64 63 62 61 61 60 60 63 66 66 66 66 66 64 66 69 69 68 69 70 71 72 72 72 72 73 73 73
57 60 60 60 60 60 62 62 62 62 63 62 62 62 63 64 64 64 65 66 67 68 69 70 70 70 70 69 69 69 69 68 67 67 66 65 64 63 62 61 61 60 60 63 64 65 65 66 65 64 66 69 69 69 69 70 70 71 72 71 72 73 73
65 61 62 63 63 64 64 64 64 63 63 62 62 62 63 64 64 64 65 65 67 68 69 70 70 70 70 70 70 70 70 69 68 68 67 66 66 64 63 61 61 61 60 61 62 62 63 65 66 65 64 67 69 69 69 69 69 70 71 71 71 72 72
61 62 62 62 62 63 64 65 66 67 66 64 63 63 63 64 64 64 65 65 67 68 69 70 70 70 70 70 70 71 71 71 70 70 69 68 67 66 64 63 62 62 61 61 61 62 62 63 64 66 65 64 67 69 70 70 69 69 70 71 71 71 72
54 56 58 60 61 61 63 64 65 66 66 67 67 66 64 65 65 65 65 65 66 68 69 70 70 70 70 70 71 71 72 72 72 71 70 70 69 68 66 64 63 62 62 62 61 62 62 62 63 64 65 65 65 67 70 71 71 69 66 68 70 71 71
52 54 56 57 57 59 60 62 64 65 66 66 67 67 67 68 68 67 66 66 66 67 69 70 70 70 70 70 71 71 72 72 72 72 71 71 70 69 68 67 65 64 64 63 63 63 63 63 63 63 64 65 65 65 67 69 70 67 64 65 66 70 71
51 52 54 55 57 57 58 60 62 65 66 66 66 67 67 67 67 67 66 66 66 67 68 69 70 70 71 71 72 72 72 72 72 72 72 71 71 70 69 68 67 66 65 64 64 65 64 63 63 64 64 65 65 65 65 67 66 64 64 64 64 67 71
50 51 54 55 56 57 57 58 60 62 64 67 68 68 69 68 68 68 69 67 66 67 68 68 69 70 71 71 72 73 73 72 72 72 72 72 71 71 70 69 68 67 66 65 65 65 65 64 64 64 64 65 66 66 66 66 64 63 63 63 63 63 68
49 50 53 57 56 58 57 58 59 61 62 64 67 70 70 69 70 68 69 69 68 67 68 68 69 69 70 71 72 72 72 73 72 72 72 72 72 71 70 69 69 68 67 66 66 66 65 65 64 64 64 65 65 67 67 67 65 61 61 62 62 63 65
50 50 50 51 54 57 58 59 59 60 60 62 64 66 71 70 69 70 70 70 71 70 68 68 69 70 71 71 71 70 71 71 72 72 72 72 72 71 71 70 69 69 68 67 66 66 66 65 65 64 65 65 65 66 67 68 64 61 59 60 60 62 64
50 51 50 51 52 53 55 56 58 60 61 63 61 62 64 71 70 70 68 70 70 69 70 69 69 69 70 70 70 70 70 70 71 72 72 72 71 71 71 70 70 69 68 68 66 66 66 67 66 65 65 65 65 66 66 67 63 61 59 59 59 61 67
50 50 51 52 52 53 54 55 56 58 60 60 60 61 64 68 70 70 69 67 69 69 68 69 68 68 69 69 69 70 70 70 70 71 72 72 71 71 70 70 70 70 69 68 67 66 66 67 67 67 66 66 66 66 66 67 64 60 59 58 59 60 68
52 51 52 52 53 53 54 55 56 57 60 59 59 62 64 65 68 69 69 68 68 69 68 69 68 68 68 68 69 69 69 70 70 71 71 71 71 71 70 70 70 70 70 68 67 66 66 66 67 67 67 66 66 67 67 67 65 59 58 58 58 62 68
54 52 52 52 53 53 54 55 56 58 58 58 59 62 62 65 67 69 69 69 67 66 67 67 68 68 68 69 68 69 69 69 70 70 71 71 71 71 71 70 70 70 70 69 68 67 67 67 67 67 68 67 67 68 68 68 66 58 58 57 57 62 68
52 54 55 53 53 55 55 56 56 56 57 57 58 60 63 63 64 68 70 70 68 66 66 66 67 68 68 68 68 68 69 69 70 70 71 71 71 71 71 71 71 70 69 69 68 67 67 67 67 67 68 68 68 68 68 69 69 65 57 57 56 58 68
53 54 54 53 54 57 55 56 56 56 57 58 59 60 61 62 64 66 68 69 69 68 66 66 68 67 68 69 68 68 68 68 69 70 71 71 71 71 71 71 71 70 70 69 68 68 68 67 67 67 68 68 68 68 68 69 69 68 57 56 55 56 61
51 53 55 55 56 56 55 56 56 57 57 58 59 59 61 63 65 67 68 68 69 70 70 68 67 67 67 68 68 68 68 68 68 69 70 71 72 71 71 71 71 71 70 69 69 68 68 68 67 67 68 68 69 68 68 68 67 70 58 56 55 55 55
51 53 54 55 55 55 56 56 56 57 57 58 59 60 62 64 66 67 68 69 70 72 73 73 70 67 67 68 68 68 69 69 68 68 69 71 72 71 71 71 71 71 71 70 70 69 68 68 68 67 68 68 68 69 69 69 69 64 65 56 54 54 54
51 52 54 55 56 57 56 56 57 57 58 59 60 62 63 64 65 66 67 68 70 72 73 75 75 73 69 67 67 67 68 68 69 68 68 70 71 71 71 71 71 71 71 71 70 69 68 68 68 68 67 67 68 69 69 69 69 64 61 61 54 54 53
51 52 53 53 55 57 57 56 57 58 59 60 61 63 63 64 64 65 66 67 69 71 72 74 75 75 75 72 68 67 67 68 68 68 69 70 71 71 71 71 71 71 71 71 70 69 69 68 68 68 68 68 68 68 69 70 70 70 64 58 55 54 53
50 52 52 52 53 56 57 57 56 57 59 60 61 62 63 63 64 64 65 67 69 70 72 74 74 74 73 74 72 69 67 67 67 68 69 70 71 71 71 71 71 71 71 71 70 70 69 69 68 68 68 68 68 68 69 70 70 70 69 62 58 55 54
51 52 52 52 53 55 56 56 56 57 59 60 61 61 61 61 62 63 64 66 68 70 72 72 72 72 72 73 73 71 67 66 66 67 69 70 71 71 72 71 71 71 71 71 71 70 69 69 68 68 68 68 68 69 69 70 70 70 70 68 65 62 60
51 53 53 53 53 56 56 54 55 56 59 59 59 60 60 61 61 62 62 64 67 69 71 72 72 72 72 72 72 71 68 66 68 68 69 70 71 71 72 72 72 71 71 71 71 70 70 69 68 68 68 68 68 69 69 70 70 70 70 70 68 66 64
52 52 52 52 53 55 56 55 54 57 58 58 58 59 60 60 61 61 61 64 66 67 67 69 70 72 72 73 73 72 68 67 67 68 70 71 71 72 72 72 72 72 72 72 72 71 70 70 69 69 68 68 68 68 69 70 70 71 65 70 64 66 67
51 52 52 52 53 55 56 56 55 56 58 57 57 58 59 59 59 60 61 62 64 64 65 66 69 71 72 73 73 72 69 67 67 69 70 71 72 72 70 63 61 69 72 72 69 66 64 63 69 70 69 69 69 69 69 69 70 64 59 58 57 57 59
51 51 52 53 53 55 56 56 57 57 58 58 57 58 59 59 59 59 60 60 61 62 63 64 67 70 72 72 72 71 70 68 68 69 70 71 72 73 71 69 64 52 52 60 67 63 59 58 59 61 63 68 69 68 63 62 61 61 58 56 54 54 55
51 52 53 54 53 55 57 57 56 57 58 57 57 58 58 58 58 59 58 59 59 60 62 64 66 69 71 71 71 71 69 69 69 70 71 72 72 73 71 71 70 67 55 46 56 60 56 55 56 56 57 59 63 67 69 61 56 57 55 54 54 53 53

ECMWFFLT1_sfc_dewp_075.txt.gz
Dewpoint
62 61 61 61 61 61 61 61 60 60 61 61 60 59 59 60 62 64 65 66 67 67 67 68 68 69 68 68 68 68 67 67 67 66 66 65 66 66 68 69 70 71 71 71 71 71 71 73 72 73 73 74 74 74 74 74 74 74 73 73 73 74 73
61 62 61 61 61 61 61 61 61 61 61 61 61 60 59 60 62 64 65 65 66 66 67 68 68 69 69 68 68 68 67 67 67 68 66 66 67 67 66 68 69 70 71 71 71 71 71 72 72 73 73 74 73 73 73 73 73 73 73 73 73 73 73
61 61 62 61 61 61 61 61 61 61 61 61 62 61 60 60 61 63 64 65 66 66 67 68 68 68 69 69 68 68 67 67 67 67 66 65 65 66 66 66 68 69 70 70 71 71 71 71 72 72 73 73 73 73 73 73 73 73 72 73 73 73 73
61 61 61 62 62 61 61 61 61 61 61 61 62 62 61 61 61 62 64 65 65 66 67 68 68 68 68 69 68 68 67 67 66 66 66 65 64 65 66 66 67 69 70 70 71 71 71 71 71 72 74 73 73 73 73 73 73 73 73 72 72 73 73
61 62 62 61 62 61 61 61 61 61 61 61 62 63 62 61 61 61 63 65 65 65 66 67 68 68 68 68 68 68 68 67 66 66 66 66 65 64 65 65 66 67 69 70 70 71 71 71 71 71 72 72 72 72 72 73 73 73 73 72 72 72 72
60 61 61 61 61 61 61 61 61 61 61 61 62 62 62 62 62 61 62 64 65 65 66 67 67 68 67 68 68 68 68 67 66 66 66 66 64 64 64 65 65 66 67 69 70 70 71 71 70 71 71 72 72 72 72 72 73 73 73 73 72 72 72
60 61 61 61 61 61 61 61 61 61 61 61 62 63 63 62 62 62 62 63 64 65 65 66 67 67 68 67 67 68 67 66 66 65 66 66 65 63 64 64 65 66 67 68 69 70 70 70 70 70 70 71 72 72 72 72 72 73 73 72 72 72 72
59 60 61 61 61 61 61 61 61 61 62 62 62 63 63 63 63 63 62 62 63 64 64 65 66 67 67 67 67 67 67 66 65 65 65 66 65 64 63 64 64 65 67 67 69 70 70 70 70 70 70 70 71 71 71 72 72 72 73 73 72 72 72
57 60 61 61 61 61 61 61 61 61 62 62 62 62 63 63 63 63 63 63 63 64 64 65 66 66 67 67 67 66 66 66 65 65 64 65 65 65 64 63 64 64 64 66 67 69 69 69 69 70 70 70 70 71 71 71 71 72 73 73 72 72 72
57 59 60 60 60 60 61 61 62 62 62 62 62 62 63 63 63 64 64 64 64 64 64 64 65 66 67 67 67 66 66 66 66 65 64 64 64 64 64 64 63 65 63 64 65 67 69 69 69 69 69 69 70 71 71 71 71 72 72 72 72 72 72
58 59 58 59 60 60 61 61 61 62 62 62 62 62 63 63 64 64 64 65 65 64 65 65 65 66 67 67 67 66 66 65 65 65 64 63 63 63 64 64 64 64 64 63 63 64 67 68 68 68 68 68 68 69 70 71 71 71 72 72 72 72 72
61 63 63 63 63 62 62 61 62 62 62 62 62 61 62 63 64 64 64 65 65 65 65 65 66 66 67 67 67 67 66 66 65 65 64 64 63 63 63 63 64 64 65 64 63 63 64 66 67 68 67 67 67 68 69 70 71 71 71 72 72 73 72
56 58 60 62 64 65 65 66 64 63 64 62 62 61 62 63 63 64 65 65 66 66 66 66 66 66 67 67 67 67 67 66 66 65 65 64 64 63 63 62 62 62 63 65 65 63 63 64 65 67 67 67 67 67 68 69 70 71 71 71 72 72 72
57 55 56 57 59 62 64 65 66 65 63 63 62 62 62 62 63 64 65 65 66 66 67 67 67 67 67 67 67 68 67 67 66 66 66 65 65 64 63 62 62 62 62 64 65 65 64 64 64 65 66 66 67 68 68 68 69 70 71 71 71 72 72
51 53 54 55 56 57 59 62 65 66 67 66 63 62 62 63 63 64 65 65 66 67 67 67 67 67 67 67 67 68 68 68 67 67 67 67 66 65 64 63 62 62 62 62 62 64 65 65 65 65 65 65 66 67 68 68 68 69 70 71 71 71 71
50 51 53 54 55 56 57 58 60 62 65 66 67 67 64 63 64 64 64 65 66 67 67 68 68 68 68 67 68 68 68 69 69 68 67 67 67 66 65 64 63 62 61 61 61 61 63 64 65 65 65 65 65 65 67 68 68 68 65 67 70 71 71
50 50 52 53 54 55 56 57 58 60 61 62 65 67 67 67 66 64 64 64 65 66 67 68 68 68 68 68 68 68 69 69 69 69 68 68 67 67 66 65 64 63 62 62 61 61 61 62 62 63 64 65 64 64 65 66 67 65 63 63 65 69 70
51 51 51 53 54 55 55 56 57 59 60 61 62 64 68 67 67 67 64 65 65 66 67 68 68 69 69 69 69 69 69 69 70 70 69 69 68 68 67 66 66 65 64 62 61 62 61 61 61 61 62 63 64 64 64 65 64 62 62 62 62 65 70
50 52 52 53 53 55 55 55 56 58 59 61 62 63 66 69 68 68 68 69 69 69 68 68 68 69 69 69 70 70 70 70 70 70 70 70 69 69 68 67 67 66 65 63 63 62 62 61 61 61 61 61 62 63 64 65 62 61 61 62 62 62 66
49 53 53 55 54 55 56 56 56 57 59 60 62 63 65 69 70 70 70 70 71 70 70 70 70 70 69 70 70 70 71 71 71 71 71 71 71 70 69 69 68 67 66 65 65 64 63 62 61 61 62 62 62 62 63 64 62 60 60 60 61 62 63
50 51 52 53 55 56 56 57 57 58 58 59 61 62 63 65 67 70 71 70 70 69 69 69 69 70 71 71 70 71 71 71 71 71 71 71 71 71 71 70 69 69 68 67 66 65 64 63 62 62 63 62 62 62 62 63 61 59 58 58 59 61 63
50 51 50 51 52 54 55 56 57 58 59 62 62 63 62 63 64 66 69 71 70 70 70 69 69 69 69 70 71 71 71 71 71 71 72 72 72 71 71 71 70 70 69 69 67 67 66 65 64 64 64 63 63 63 63 63 60 58 58 57 58 60 65
52 51 51 52 52 53 55 55 57 57 58 60 61 63 63 64 65 66 67 68 69 70 69 69 69 68 69 70 70 71 71 72 72 72 72 72 72 72 72 71 71 71 70 69 69 68 67 66 65 65 65 64 64 64 63 63 61 58 57 56 57 59 65
53 52 51 52 53 53 54 56 56 57 58 57 58 61 62 63 65 65 66 67 69 69 69 69 68 69 69 69 70 71 71 72 72 72 72 72 72 72 72 72 72 71 71 70 69 68 68 67 67 66 66 65 65 64 64 63 62 57 56 56 56 60 65
52 53 52 52 52 53 54 55 58 58 58 57 58 59 60 64 65 65 66 68 68 69 69 68 68 68 69 69 70 70 71 71 72 72 72 72 72 72 72 72 72 72 71 71 70 69 69 68 67 66 66 66 65 66 65 64 62 57 56 56 56 59 65
51 52 52 53 52 53 55 56 56 57 58 58 58 59 60 61 62 65 66 68 68 69 69 70 69 68 68 69 70 70 70 71 71 71 71 71 72 72 72 72 72 72 71 71 70 70 69 68 68 67 66 67 67 66 66 65 65 64 56 55 55 56 66
51 52 53 53 53 56 54 55 55 56 57 58 59 59 60 61 63 64 66 67 68 69 69 70 71 72 70 69 69 69 70 70 70 70 70 71 71 72 72 72 72 71 71 71 70 70 69 69 68 67 67 67 67 67 67 66 66 65 57 55 54 55 59
51 51 52 54 55 55 54 54 55 55 55 57 58 60 61 62 63 64 65 65 66 67 68 69 70 72 72 70 69 69 69 69 69 70 70 70 71 71 71 72 72 71 71 71 70 70 70 69 69 68 67 67 67 67 67 67 65 66 59 55 54 54 55
50 50 51 52 53 53 54 54 55 55 55 56 58 60 61 62 62 62 63 63 64 66 67 68 69 71 72 73 71 69 70 70 69 69 69 69 70 70 70 71 71 71 71 71 70 70 69 69 69 68 67 67 67 67 67 68 68 62 65 57 54 53 53
50 51 52 52 53 54 54 55 56 55 54 55 58 60 62 62 62 62 62 62 63 64 66 67 69 70 72 73 74 73 71 70 70 69 69 69 69 70 70 71 71 71 71 71 70 70 69 69 69 68 67 67 67 67 67 68 68 64 60 62 55 54 53
50 50 50 51 53 54 54 54 55 55 55 55 58 59 60 60 60 61 61 62 63 64 64 66 68 70 71 72 72 73 73 73 72 70 69 69 69 69 70 70 71 71 71 71 70 70 69 69 69 68 68 67 67 67 67 68 68 68 64 59 58 54 53
50 50 51 52 52 52 53 54 55 56 55 55 57 58 58 58 59 59 60 61 62 62 62 65 67 69 70 71 72 72 73 72 72 72 70 69 69 68 69 69 70 70 71 71 70 70 70 69 69 68 68 67 67 67 67 68 68 68 68 64 60 57 55
49 50 51 52 52 53 52 54 55 56 56 55 57 58 57 57 58 60 60 60 60 60 62 65 66 67 67 68 69 70 71 72 72 72 71 69 68 68 69 69 70 70 70 71 70 70 70 69 69 69 68 68 67 67 67 67 68 68 68 68 66 64 62
49 50 51 52 52 53 52 53 55 56 56 56 56 58 58 57 58 58 59 59 60 61 62 63 64 64 65 66 67 69 71 72 72 72 72 70 68 68 68 69 70 70 70 70 70 70 70 69 69 69 68 68 68 68 68 67 67 68 68 68 68 66 65
50 50 51 51 51 53 52 53 55 56 57 57 57 58 57 57 58 58 58 59 60 60 59 60 61 62 64 65 67 69 71 72 72 72 71 70 69 68 68 68 69 70 70 70 71 70 70 70 69 69 69 69 68 68 68 67 67 68 63 68 63 66 66
49 50 51 51 52 52 52 55 56 56 57 57 57 58 58 57 58 58 58 59 59 59 59 59 60 61 63 65 67 68 71 71 71 72 71 70 69 68 68 67 62 66 70 70 67 64 63 62 69 70 70 69 69 69 68 68 68 62 59 58 57 57 58
49 49 50 51 51 51 51 53 56 57 57 57 58 57 57 57 57 57 58 58 59 59 59 59 60 61 63 65 66 67 70 70 70 71 71 70 69 68 68 69 69 59 59 62 65 61 58 56 58 60 63 68 69 67 62 62 60 59 56 55 55 54 55
49 50 52 53 52 52 53 53 55 56 57 57 57 57 56 57 57 57 57 58 58 59 59 60 60 61 62 64 66 68 69 70 70 71 71 70 69 69 69 69 69 70 60 55 57 58 56 55 55 55 56 58 62 67 69 61 56 57 53 54 54 53 53

ECMWFFLT1_sfc_dewp_078.txt.gz
Dewpoint
60 60 60 60 61 61 62 62 62 60 60 60 61 61 62 63 64 65 66 67 68 68 68 69 69 69 69 68 68 68 68 68 68 67 67 67 68 70 71 71 71 72 72 73 73 73 74 74 74 74 75 75 75 75 75 76 76 76 76 76 75 75 75
59 60 60 60 60 61 61 62 62 61 60 60 60 61 61 62 63 64 65 66 67 67 68 68 69 69 69 69 68 69 68 68 68 69 68 68 69 69 70 71 71 71 72 73 73 73 73 73 74 74 74 75 75 75 75 75 75 75 75 75 75 74 75
60 60 60 60 60 60 61 62 62 62 61 60 60 60 61 62 63 64 65 66 67 67 67 68 69 68 69 69 68 68 68 68 68 68 67 66 67 67 69 70 71 71 71 72 73 73 73 73 73 74 74 74 74 75 75 75 75 75 75 74 74 74 74
60 60 60 61 61 61 61 61 62 62 61 60 60 60 60 62 62 64 65 65 66 67 67 67 68 68 68 69 68 68 68 68 68 67 67 67 66 67 67 68 70 71 71 71 72 72 72 73 73 73 75 74 74 74 74 74 74 75 74 74 74 74 74
60 61 61 61 61 61 61 61 61 62 61 61 60 61 60 61 62 63 64 65 65 66 66 67 67 68 69 69 68 68 68 68 68 68 67 67 67 67 67 66 67 69 70 71 72 73 73 72 72 73 73 74 74 74 74 74 74 75 74 74 74 74 74
57 60 61 61 61 61 61 61 61 61 61 61 61 61 60 60 61 61 63 64 65 65 66 67 67 68 68 68 68 68 68 68 68 68 68 68 68 66 66 66 66 67 68 70 71 71 72 72 72 72 72 73 73 73 73 73 73 74 74 74 74 74 73
58 59 61 61 62 61 61 61 61 61 61 61 61 62 61 60 60 61 62 63 64 65 65 66 67 67 68 68 69 69 68 68 68 67 67 67 67 66 66 66 67 66 67 69 70 71 71 71 72 72 72 72 73 73 73 73 73 74 74 74 74 74 74
58 57 61 61 62 62 62 62 61 61 62 62 61 62 62 60 60 61 62 62 64 64 65 65 66 67 68 68 68 68 68 68 68 68 67 67 67 67 66 66 67 67 68 67 68 70 70 71 71 71 71 71 72 73 73 73 73 73 74 74 74 73 73
58 60 62 61 62 62 62 62 62 62 62 62 62 62 62 61 60 60 61 62 63 64 64 65 66 67 68 68 68 68 68 68 68 68 67 66 66 66 65 65 65 67 67 66 67 69 70 70 71 71 71 71 72 72 73 73 73 73 73 74 74 73 73
56 57 60 62 65 62 63 63 63 63 63 62 62 63 62 62 61 60 60 61 62 63 64 64 65 66 67 68 67 68 68 68 68 67 66 66 66 66 65 65 64 66 66 66 66 67 70 70 70 71 71 71 71 72 72 72 73 73 73 73 73 73 73
54 56 56 58 61 63 63 62 63 63 63 64 63 62 63 62 62 61 61 61 61 63 63 64 65 65 66 67 67 67 67 67 67 67 66 66 65 65 65 65 64 65 65 65 65 66 68 70 71 71 71 70 71 71 71 72 72 72 72 73 73 73 73
53 54 55 56 57 59 61 63 64 66 64 64 63 62 64 64 63 62 62 62 61 62 63 64 64 65 66 66 67 67 67 67 67 66 66 66 65 65 65 65 65 64 65 64 64 65 67 68 70 70 70 70 70 71 71 72 72 72 72 72 73 73 73
52 53 54 55 56 57 59 60 61 63 65 64 62 62 63 63 63 63 63 63 62 62 63 64 64 65 65 66 66 67 66 66 66 66 66 66 65 65 65 65 65 64 64 65 64 64 64 66 68 70 69 70 70 70 70 71 72 72 72 72 73 73 73
54 51 53 54 55 55 56 58 59 60 62 63 64 64 63 63 63 63 64 63 63 63 63 64 64 65 65 66 66 67 66 66 66 66 67 66 67 66 65 64 64 65 65 66 65 64 63 63 65 67 69 69 69 69 70 70 71 71 72 72 72 72 73
50 51 52 53 54 55 56 56 58 59 60 61 62 64 66 64 64 64 65 64 65 64 64 65 65 65 65 66 66 67 67 67 67 67 67 68 67 67 66 65 65 65 65 66 65 65 64 63 63 64 66 67 68 69 69 69 69 69 70 71 72 72 72
51 51 51 52 53 54 55 56 57 58 59 60 61 62 63 66 67 64 64 64 64 65 65 66 65 65 65 65 66 67 68 68 68 68 68 68 68 67 67 65 65 64 64 64 65 66 67 66 65 64 64 65 66 67 67 68 68 68 65 67 70 72 71
50 52 52 53 53 54 54 55 56 57 58 59 60 61 62 63 67 68 65 64 64 65 66 66 66 66 66 66 67 68 68 69 69 69 68 68 68 68 67 66 65 65 65 65 64 65 66 66 66 65 64 64 64 65 65 66 66 64 63 63 65 70 71
49 50 52 52 53 54 54 54 55 56 57 58 59 61 61 63 64 66 68 67 65 65 66 66 66 66 67 67 68 68 69 69 69 69 69 69 68 68 68 67 66 66 66 65 64 65 64 64 65 66 65 65 65 64 65 65 64 61 62 62 62 65 70
48 50 51 51 52 54 54 55 55 56 57 58 60 61 62 63 63 64 65 69 70 67 66 66 66 67 68 67 68 69 69 69 70 70 69 69 69 69 69 68 67 67 66 64 64 64 65 64 63 64 64 65 65 65 65 65 62 60 60 61 61 62 66
48 49 50 52 52 53 54 55 57 57 57 58 60 60 62 64 64 64 66 68 70 71 69 69 69 69 69 70 69 70 70 70 70 69 70 70 70 69 69 69 68 67 66 65 66 65 64 63 63 63 64 64 64 65 64 65 62 59 58 59 60 61 63
48 48 49 50 52 53 54 55 56 57 57 58 60 60 60 62 62 64 66 68 70 70 70 71 70 70 70 70 70 70 70 69 69 69 70 70 70 70 69 69 69 68 67 67 66 66 65 64 63 63 64 63 63 63 62 62 60 58 57 57 57 59 62
49 49 49 49 50 52 53 54 55 56 57 59 59 61 61 61 63 64 66 68 69 69 70 70 70 70 70 70 69 70 69 69 69 70 70 70 70 70 70 69 69 69 69 68 67 67 66 66 65 64 64 63 63 62 62 62 58 57 57 56 56 58 65
50 50 50 50 50 50 53 54 55 56 58 58 58 60 61 62 64 65 67 68 69 70 70 70 69 69 70 70 70 70 70 70 70 70 71 71 70 70 70 70 70 70 70 69 68 67 67 66 65 66 64 64 64 63 63 62 60 56 55 55 55 57 65
52 51 50 50 51 51 53 54 55 57 57 56 57 59 60 61 63 64 66 68 69 69 70 70 69 70 70 70 70 71 71 71 71 71 71 71 71 71 71 71 71 71 71 70 69 68 68 67 67 67 66 65 64 64 64 63 61 56 54 54 55 59 64
50 52 51 51 51 51 52 53 56 56 57 56 56 57 59 61 63 64 66 67 68 68 68 69 69 70 70 70 71 71 72 72 72 71 71 72 72 71 72 72 72 72 72 71 71 70 70 70 69 68 68 66 66 66 65 64 62 56 54 54 53 58 64
49 50 51 51 51 52 54 55 54 55 55 56 57 57 59 60 61 63 64 64 67 67 67 67 68 69 70 71 71 71 72 72 73 73 72 72 72 72 72 73 73 73 72 72 71 71 70 70 70 69 69 68 67 67 66 65 66 65 55 53 53 54 65
49 50 51 51 51 54 53 52 53 53 55 56 58 57 58 60 61 61 62 63 65 65 66 67 68 69 69 71 71 71 70 71 72 73 73 73 74 73 74 73 73 73 73 72 72 72 71 71 70 70 70 69 69 68 67 67 67 67 57 54 53 53 57
48 48 49 51 53 54 53 52 53 53 54 55 55 56 58 59 58 60 61 61 62 63 63 65 66 68 69 70 70 71 70 70 70 71 72 73 73 72 72 73 74 73 73 72 72 72 72 72 71 71 71 70 70 69 69 68 65 67 60 55 53 52 53
48 48 49 50 50 51 53 53 52 52 53 54 55 56 58 59 58 58 59 60 61 61 62 63 65 66 68 70 71 72 72 71 71 71 69 70 72 72 72 72 73 73 73 73 73 73 72 72 72 71 71 71 70 70 70 70 69 62 66 57 53 52 51
48 49 50 50 50 51 53 53 53 52 53 55 56 56 57 59 59 58 58 59 60 60 61 62 62 64 67 69 72 72 72 72 71 71 72 72 72 71 71 72 72 73 73 73 73 72 72 72 72 71 71 70 70 70 70 70 70 65 60 63 55 52 51
49 49 49 50 50 52 53 52 52 52 53 55 56 57 57 58 58 58 58 58 60 60 60 60 62 63 67 68 68 69 72 73 73 74 73 73 72 71 71 70 71 71 72 73 72 72 72 72 72 71 71 71 70 70 70 70 70 69 65 59 58 54 52
48 49 49 49 50 50 52 52 52 52 52 54 55 56 58 58 58 57 58 60 60 59 60 60 61 62 64 65 66 66 66 67 69 72 73 73 73 72 72 71 71 71 71 72 72 72 72 72 71 71 71 71 70 70 70 71 70 70 69 64 60 57 53
48 49 49 49 50 52 51 52 52 52 52 53 55 56 56 57 58 58 58 58 58 59 59 59 60 61 61 62 64 65 66 67 67 69 70 72 73 73 72 72 71 71 71 71 71 71 71 71 71 71 70 70 70 70 71 70 70 70 70 70 68 66 63
47 48 49 49 50 51 51 51 51 52 52 54 54 56 57 57 57 58 58 58 58 58 59 59 59 60 61 61 62 63 65 66 68 69 70 71 72 72 72 71 70 70 69 70 70 71 71 71 71 70 70 70 70 70 70 70 70 70 69 69 69 68 68
47 47 48 49 49 50 50 51 52 53 53 53 54 56 57 57 58 58 58 58 58 58 58 59 60 60 60 61 62 63 65 66 67 69 70 71 72 72 72 72 71 70 70 70 71 71 71 71 70 71 71 70 70 70 70 70 70 69 63 69 62 67 68
46 47 47 48 49 49 49 52 53 53 54 53 54 56 57 57 58 58 57 58 58 58 58 59 59 60 60 61 62 63 65 66 66 68 69 69 69 70 71 69 63 67 70 70 66 64 62 62 70 71 71 71 71 72 70 70 70 63 58 57 56 56 58
46 46 46 47 47 47 49 50 53 54 54 54 55 56 57 58 57 57 57 57 57 57 58 58 59 60 60 61 62 63 64 65 65 67 68 69 69 70 70 71 70 56 55 60 65 61 58 55 57 58 62 70 71 69 62 62 60 58 56 53 53 53 53
46 46 47 48 47 48 50 51 52 53 54 54 55 56 57 57 57 56 56 56 57 57 57 58 58 59 60 61 62 63 64 64 66 68 68 69 69 70 70 70 70 71 60 54 55 56 55 54 54 54 55 56 62 68 71 62 56 54 54 52 52 52 52

ECMWFFLT1_sfc_dewp_081.txt.gz
Dewpoint
62 61 62 62 63 62 63 63 64 62 63 64 65 64 65 66 68 69 69 70 71 72 72 73 72 72 72 72 72 73 72 72 72 71 70 71 71 72 73 72 73 75 73 74 75 76 77 77 77 77 77 77 77 78 78 78 78 77 78 79 78 78 78
61 61 61 61 62 62 63 64 65 63 63 63 64 65 65 65 67 68 69 71 71 72 72 72 73 72 72 72 72 73 72 72 72 72 71 72 73 73 73 74 74 75 76 75 75 77 77 77 77 77 77 77 76 78 77 78 78 78 76 78 77 78 77
60 61 61 61 61 62 64 64 65 65 63 62 63 64 64 67 68 68 69 69 70 71 71 72 72 72 72 72 72 72 72 71 71 71 70 69 70 68 71 74 74 74 74 75 76 75 76 76 77 77 77 76 75 77 77 77 78 77 78 78 77 75 78
59 60 61 61 62 63 63 64 64 64 63 62 62 63 64 67 67 68 68 68 69 70 71 71 71 71 71 72 72 72 72 72 71 70 69 69 69 69 71 73 74 73 74 74 73 74 73 75 76 77 77 76 76 76 76 76 76 77 77 78 76 76 77
58 59 60 61 61 62 62 63 63 65 64 63 62 64 64 65 65 66 67 67 67 68 69 69 69 70 71 71 70 71 71 71 71 70 70 69 71 71 70 69 70 71 72 73 74 75 76 76 74 75 76 77 76 76 76 77 76 77 77 78 76 76 75
57 58 60 60 61 61 62 62 62 63 63 63 62 63 63 63 63 64 65 66 67 67 69 69 69 70 71 70 70 70 71 72 72 72 71 71 71 69 69 69 69 70 70 72 72 73 74 74 74 74 74 74 74 73 74 75 75 75 76 77 76 75 73
57 58 59 61 61 61 61 62 62 62 63 63 62 63 63 62 62 63 63 64 65 67 67 67 68 69 70 70 70 71 71 70 71 70 70 70 70 70 70 70 70 69 69 72 72 73 73 74 74 75 74 73 74 73 75 76 75 76 76 77 77 77 76
57 58 59 61 60 61 61 62 62 62 63 63 62 62 62 62 63 63 64 63 64 65 66 66 67 69 70 70 70 70 70 70 70 70 70 69 69 69 69 69 69 70 70 70 71 72 71 73 73 74 74 73 74 75 74 76 77 75 75 76 76 76 74
56 58 58 59 61 62 61 62 63 62 63 64 63 62 62 61 61 62 62 63 64 64 65 65 66 67 70 70 70 71 70 70 70 70 70 69 68 68 67 68 68 69 69 67 67 71 71 71 71 74 74 74 74 76 75 76 75 75 75 75 76 75 74
55 57 58 58 60 61 62 64 64 64 64 64 65 64 62 62 62 61 62 62 63 63 64 65 65 66 69 69 69 69 70 70 70 69 68 68 67 67 67 66 67 69 68 67 66 68 71 71 71 73 75 73 74 75 75 75 74 74 74 75 75 75 76
53 55 56 57 58 60 61 62 63 66 66 67 66 63 64 62 62 61 61 62 62 63 63 65 66 66 67 68 68 68 69 69 69 68 68 67 67 67 67 67 66 67 67 67 66 67 68 71 72 73 74 71 73 74 74 74 74 74 73 74 74 75 74
52 53 54 56 57 58 59 61 61 63 65 67 65 63 65 65 62 61 61 62 62 62 64 64 65 66 67 67 67 68 68 69 68 68 68 68 67 67 67 67 66 66 67 67 67 67 67 69 70 71 72 72 72 73 74 74 74 75 74 73 73 74 74
52 52 53 54 55 56 59 60 61 62 63 63 64 65 64 63 63 61 63 63 62 62 63 65 65 67 66 66 66 68 68 68 68 68 68 68 68 67 67 67 66 66 66 67 67 67 66 66 69 70 71 72 72 71 73 74 74 75 75 74 74 75 74
54 52 52 53 54 55 56 58 60 61 61 62 62 64 65 65 63 63 63 62 62 62 63 64 65 67 67 67 67 68 68 68 68 68 69 69 70 69 68 67 67 67 67 67 67 66 65 65 67 69 69 70 71 72 73 74 73 75 75 75 74 74 74
49 52 52 53 54 55 55 55 58 59 60 61 62 63 64 65 67 69 66 64 63 61 62 65 65 66 66 67 68 69 70 69 69 69 70 71 71 71 69 68 68 68 68 68 67 65 65 65 65 67 69 69 71 71 71 71 71 72 73 74 74 74 72
47 49 51 53 54 54 55 55 56 57 59 61 61 62 62 64 65 65 67 67 63 64 63 64 66 67 66 66 68 70 70 71 71 70 71 71 72 72 71 69 69 67 68 68 67 68 68 67 67 66 67 68 70 70 70 70 70 71 67 69 73 74 71
47 48 49 53 54 54 55 55 56 56 58 59 61 62 62 64 64 65 65 66 67 65 64 64 66 65 66 66 67 69 70 71 72 72 72 72 72 72 72 70 69 69 69 69 69 69 70 68 67 65 65 66 67 68 68 68 68 66 64 64 66 72 74
47 48 48 49 52 54 55 56 56 56 57 57 59 60 61 63 63 64 65 66 68 69 68 64 64 65 67 66 68 70 71 70 71 72 72 72 72 72 72 70 70 70 70 69 68 70 69 67 67 68 66 65 65 65 66 68 66 62 62 63 63 66 72
47 47 48 50 50 52 53 54 55 57 57 58 59 60 61 62 63 64 66 68 69 70 70 69 64 66 68 67 68 71 71 71 71 72 72 72 72 72 72 72 71 70 69 67 68 68 69 69 68 68 67 66 67 65 65 65 63 61 61 61 61 62 66
46 47 48 50 51 51 52 53 54 55 57 58 60 61 61 62 63 64 66 68 70 71 72 73 73 70 68 69 70 71 72 72 72 71 72 72 73 73 72 72 71 69 68 67 69 69 68 67 68 69 70 68 68 68 66 66 63 60 59 60 60 61 63
47 47 48 49 50 51 53 53 54 55 56 57 58 60 60 61 62 64 66 68 69 71 71 72 73 73 72 71 72 71 72 73 72 72 73 73 73 73 72 72 71 70 69 68 68 69 69 67 67 68 69 68 67 68 66 65 61 58 57 57 58 59 61
46 47 47 48 49 51 52 52 53 54 56 57 56 57 58 60 62 63 65 67 68 69 70 70 71 71 72 72 73 73 73 73 72 72 73 71 73 72 72 72 72 72 71 70 68 68 67 68 67 67 67 67 66 66 66 65 59 58 57 56 57 58 66
47 47 48 49 48 49 52 52 52 53 55 56 56 56 58 59 62 64 66 67 68 69 70 70 70 70 71 72 71 72 73 73 72 72 72 72 72 72 72 72 73 72 72 71 69 68 68 68 67 68 67 67 67 66 66 65 62 56 56 55 56 58 67
47 47 47 48 50 49 51 52 53 53 53 54 54 56 57 60 62 63 64 66 67 68 68 68 68 69 70 70 71 72 72 73 72 72 72 72 72 72 73 73 72 72 73 72 70 69 68 68 68 68 68 66 66 65 65 65 63 56 54 54 55 60 67
47 46 47 47 48 49 50 52 54 53 52 52 52 55 56 59 60 61 62 64 64 65 66 65 66 67 68 69 70 71 72 72 73 73 72 72 72 72 72 73 73 73 74 72 71 71 71 70 69 68 69 67 66 66 65 65 63 56 54 53 53 60 68
45 46 47 47 47 48 51 55 54 52 51 50 53 55 56 57 58 60 61 62 63 62 62 64 65 65 66 68 70 72 72 71 72 73 73 72 73 73 73 73 74 73 72 71 71 71 72 70 69 69 69 68 67 67 66 66 67 68 54 52 52 54 67
44 44 45 45 47 53 49 50 51 51 51 52 54 53 55 56 58 59 60 61 61 62 61 63 64 65 66 67 68 71 72 72 72 72 73 73 74 73 73 73 73 73 73 73 73 73 72 71 70 69 70 69 70 69 68 67 68 69 55 52 51 52 57
43 43 44 47 50 50 50 48 50 51 50 52 51 51 54 55 58 59 59 59 59 60 60 62 63 63 64 65 67 70 72 72 72 72 71 72 73 73 73 74 74 73 73 74 74 73 71 72 72 71 71 71 70 71 70 69 66 68 60 54 51 51 52
45 44 45 46 46 46 47 48 48 47 50 50 51 53 54 55 58 58 59 58 59 59 61 61 62 63 64 65 67 69 72 73 72 72 72 73 73 72 73 74 73 73 73 73 73 72 72 72 72 73 73 72 72 72 72 73 72 63 69 56 52 51 50
46 46 45 43 43 46 47 48 48 48 48 50 53 53 55 56 58 58 58 59 59 60 61 61 62 63 63 64 65 67 69 70 72 72 73 73 72 73 72 73 73 73 72 72 73 71 72 71 71 73 71 71 72 72 72 73 73 67 61 65 53 51 50
45 45 45 45 44 47 47 46 48 47 49 49 52 53 55 56 57 58 59 60 60 60 60 61 61 62 62 63 63 64 65 67 69 70 72 73 73 72 72 71 72 72 72 73 73 73 72 72 72 73 73 72 72 72 72 72 73 73 68 60 58 53 51
46 46 45 45 46 46 47 46 46 47 48 50 52 52 54 55 56 57 59 59 60 60 60 61 61 62 62 62 63 63 63 63 64 67 69 71 73 73 73 72 72 72 71 71 72 73 72 72 72 72 73 72 72 72 72 73 73 73 74 65 62 58 53
46 46 46 46 47 48 47 46 46 48 49 50 52 52 50 53 55 57 59 59 57 58 60 61 61 61 62 61 61 62 63 63 63 64 66 68 71 73 74 74 73 72 72 71 70 71 71 72 72 72 72 71 71 72 73 73 72 72 73 73 71 68 65
46 46 47 48 48 48 48 48 48 48 49 50 51 53 52 52 55 55 57 58 58 58 59 60 60 60 61 61 61 62 63 63 64 65 66 67 69 70 72 74 74 73 73 72 71 71 70 70 71 71 71 71 72 72 72 72 72 72 73 72 72 71 70
46 46 47 47 47 48 48 49 49 49 49 49 51 52 53 53 55 57 58 59 59 59 59 59 60 60 61 61 62 62 63 64 64 65 65 66 68 69 71 72 73 73 73 73 74 72 71 70 70 71 71 72 72 72 72 73 73 72 66 74 65 70 70
45 45 46 46 47 48 48 49 49 49 49 49 50 52 53 53 56 58 58 58 58 58 58 59 59 59 59 60 61 63 63 63 64 64 65 64 65 67 68 68 62 66 71 72 68 64 62 62 70 72 72 73 73 74 73 73 73 66 62 59 58 57 59
45 45 45 46 46 46 47 48 49 49 49 49 50 51 52 54 56 58 58 58 58 58 58 58 58 58 58 59 60 61 62 63 63 63 64 65 65 66 67 67 69 56 55 60 64 61 56 53 55 57 60 69 71 70 64 63 61 62 59 55 55 55 54
44 45 45 45 45 46 47 48 48 49 50 50 50 52 54 54 55 57 57 57 57 57 57 57 57 57 57 58 59 60 61 62 63 64 64 64 65 66 67 67 67 69 60 54 54 55 53 53 52 51 52 53 59 66 72 64 57 56 55 52 53 53 53

ECMWFFLT1_sfc_dewp_084.txt.gz
Dewpoint
58 62 63 64 64 63 63 63 64 63 64 65 66 65 65 66 68 69 71 73 74 75 76 76 75 75 75 74 74 74 73 73 73 72 72 71 70 70 70 69 69 71 69 69 71 70 73 74 74 74 75 75 74 76 77 77 77 76 78 79 77 77 77
59 60 61 62 63 65 64 65 65 64 64 64 65 67 66 66 68 68 71 73 74 75 75 75 76 75 74 74 74 74 74 73 73 73 72 72 72 72 70 71 70 71 72 70 70 73 74 73 74 74 73 75 74 76 76 76 77 77 76 77 76 77 76
59 60 60 62 62 63 65 64 65 65 65 64 64 65 66 68 68 70 71 72 74 75 75 75 76 74 75 75 74 74 74 73 73 72 72 69 71 69 70 72 71 69 70 70 71 71 73 73 74 74 73 73 71 74 75 75 76 75 76 77 76 75 76
59 59 60 61 63 64 64 65 65 64 64 64 64 65 66 68 68 69 70 71 72 73 74 74 74 73 74 75 74 74 74 74 73 71 70 69 69 70 70 71 72 70 69 69 68 69 68 70 72 73 74 73 73 72 73 73 73 74 75 76 75 75 75
59 60 60 61 62 62 63 64 64 66 65 64 64 66 66 66 66 67 69 69 69 71 71 72 71 72 73 73 72 72 73 73 72 71 70 70 71 71 70 68 69 69 68 68 70 71 72 73 71 72 73 74 73 73 73 74 73 74 75 75 74 73 73
59 59 60 61 61 61 62 62 63 64 65 64 66 64 64 64 65 65 67 68 68 68 71 71 71 72 72 72 72 71 73 73 73 73 71 71 71 69 69 69 68 69 66 68 68 69 72 72 70 70 71 70 69 69 70 71 71 71 73 75 74 72 70
59 60 60 61 62 61 62 63 62 63 65 65 64 64 65 64 64 64 65 66 66 67 68 68 69 70 72 72 72 73 73 72 72 71 71 70 70 70 70 70 70 67 67 68 68 69 69 71 71 71 71 69 69 68 70 72 71 71 73 74 75 74 74
58 59 61 61 61 62 61 63 63 63 66 67 65 66 64 64 64 65 65 64 65 65 66 66 67 70 72 72 72 71 71 71 71 72 71 70 69 70 70 69 70 70 69 67 69 69 68 70 69 70 70 69 69 71 69 72 74 70 71 73 73 74 71
57 59 59 59 61 61 62 63 65 63 64 65 65 65 64 64 63 63 64 64 64 64 65 65 66 68 71 71 72 72 71 71 71 72 71 69 68 67 67 67 69 70 69 67 66 69 69 67 67 70 72 71 70 72 72 73 72 71 71 71 73 73 71
55 57 58 59 60 61 62 62 63 65 66 67 66 67 65 64 64 63 63 63 63 63 64 65 65 66 69 71 71 71 71 71 70 69 69 68 67 66 66 64 66 69 68 67 64 64 69 68 67 69 72 72 72 72 73 72 72 71 70 72 73 73 73
53 56 57 57 58 59 60 61 62 63 64 66 67 64 65 65 64 63 64 63 63 63 63 64 66 65 67 69 69 69 70 69 69 69 69 68 66 66 65 64 63 66 67 67 65 63 65 69 69 70 71 71 71 72 73 72 72 72 70 70 71 72 71
52 53 55 56 56 57 58 60 60 62 63 64 64 65 67 67 64 63 63 64 63 63 65 64 65 65 66 68 68 69 69 69 69 68 68 68 66 65 65 64 63 63 66 67 66 65 63 66 68 68 70 72 71 70 72 73 73 73 72 69 69 70 70
49 51 52 53 55 56 58 59 59 60 62 62 62 64 65 66 65 64 65 65 64 64 65 67 65 67 66 66 67 69 68 68 68 68 67 68 67 66 66 65 63 63 63 66 66 65 63 63 68 69 69 72 71 69 70 72 72 73 74 72 70 70 71
51 48 50 52 53 55 56 57 59 59 60 61 62 63 64 65 66 67 68 65 65 64 63 64 66 66 67 67 68 69 68 68 68 68 69 69 71 69 67 66 65 65 65 66 67 65 63 62 63 67 68 69 70 70 70 71 72 74 74 74 71 70 71
47 47 49 50 52 54 55 55 58 59 59 60 61 62 63 64 66 67 68 69 70 63 63 65 65 66 66 67 68 70 70 70 68 69 70 71 72 72 70 68 68 68 68 68 67 65 64 64 62 64 67 67 68 69 68 66 69 71 72 73 73 71 69
46 46 48 49 52 52 53 54 55 57 59 60 60 61 62 63 65 66 66 67 67 68 65 65 65 67 66 66 69 70 71 71 72 71 72 72 73 74 72 70 69 67 68 68 68 69 69 68 66 64 64 66 68 68 67 66 65 70 68 70 72 71 67
47 47 48 51 52 52 53 53 54 55 57 59 60 60 61 63 63 65 65 65 66 69 68 64 65 65 66 67 68 70 71 71 72 72 72 73 74 74 74 72 70 70 71 70 70 71 72 69 68 66 64 64 65 67 66 64 63 66 64 65 67 71 71
48 49 50 50 53 53 53 52 52 54 55 56 57 59 59 62 62 63 64 66 67 67 67 68 65 64 67 67 69 70 71 71 73 73 73 74 74 75 75 73 72 72 72 71 70 72 70 69 69 69 67 64 64 64 65 65 65 62 63 64 64 68 70
47 48 50 52 51 53 53 52 52 53 54 57 58 58 59 60 61 62 64 66 68 69 69 68 70 67 67 67 68 70 71 73 73 73 73 74 74 75 75 75 73 72 71 70 71 71 72 72 70 70 69 68 68 66 65 65 63 61 61 63 63 63 68
46 47 49 52 52 53 53 54 54 54 55 56 58 58 59 60 61 62 64 66 69 71 72 72 72 73 73 71 70 70 71 73 73 73 74 74 75 75 74 74 74 72 70 69 71 72 71 71 71 71 72 71 70 70 67 67 64 60 60 60 61 62 64
47 47 47 49 51 53 54 55 55 55 56 55 56 57 57 59 60 63 64 65 68 69 71 72 73 73 73 73 71 69 70 72 72 73 73 74 74 74 74 74 73 72 71 69 69 70 71 71 71 71 72 70 70 69 68 66 62 59 58 58 59 60 63
46 45 46 47 48 51 52 53 54 54 56 57 54 55 56 57 60 61 62 64 66 67 68 71 73 73 73 73 73 73 72 72 71 72 73 73 74 74 74 74 74 73 73 72 68 69 69 70 70 70 70 70 70 69 69 68 61 59 57 57 57 59 67
45 45 46 47 46 47 49 50 51 53 54 55 54 56 57 57 60 61 62 63 64 67 67 67 68 69 71 71 71 72 73 74 73 74 74 74 73 73 73 73 73 73 73 72 70 69 68 69 69 71 69 70 70 70 70 69 65 58 56 55 56 59 68
45 45 44 45 47 47 48 49 50 51 50 51 52 55 57 57 59 61 61 63 63 64 65 65 66 67 68 69 70 72 73 72 72 72 72 73 72 72 73 73 73 73 73 72 71 70 69 69 69 70 69 68 69 68 69 69 67 58 55 55 55 61 68
45 43 44 44 43 45 46 50 50 49 49 51 50 52 54 59 59 58 60 61 62 63 63 63 64 65 65 67 69 71 72 73 73 72 72 72 72 72 72 73 73 73 73 72 72 72 72 71 70 70 71 69 69 69 68 68 66 58 55 54 54 61 69
43 44 43 42 42 45 48 52 50 48 45 46 51 51 53 53 56 58 58 59 61 61 61 62 63 64 65 66 68 69 72 73 73 73 72 72 72 73 73 73 73 73 72 73 72 71 72 72 72 72 71 69 69 68 69 68 69 73 55 54 53 55 69
41 42 43 41 42 49 45 46 46 46 45 48 51 47 50 52 55 58 58 59 60 61 61 62 63 64 64 66 67 68 70 72 73 74 74 73 73 73 73 73 73 73 73 72 73 73 73 72 73 72 72 71 72 70 69 69 70 71 56 53 52 53 58
40 41 41 44 47 47 44 43 46 46 44 47 46 46 47 51 55 58 58 59 58 59 60 62 64 64 64 65 67 68 70 72 72 72 73 74 75 74 74 73 74 73 74 72 72 73 73 73 72 72 72 72 72 72 71 71 68 70 59 54 52 52 52
43 42 43 45 45 43 42 44 44 43 45 44 45 48 49 48 55 57 58 58 59 58 60 62 63 64 64 65 66 67 69 70 70 70 72 72 73 73 74 73 73 74 74 74 73 73 72 73 73 72 71 71 71 72 71 72 72 64 71 55 52 51 51
44 43 42 41 41 44 44 45 44 43 44 44 48 50 51 52 54 56 57 58 59 60 61 61 63 64 64 65 66 66 66 67 68 69 70 71 73 73 72 73 73 74 74 74 74 72 72 72 73 72 70 70 71 71 71 73 73 68 62 67 52 51 50
43 43 42 43 42 45 45 45 46 45 45 45 49 51 53 54 53 54 56 58 60 60 60 61 61 62 63 63 64 64 65 65 66 67 68 69 69 71 73 72 72 72 74 73 73 73 72 72 72 72 71 71 71 72 72 72 72 73 70 60 57 52 51
43 44 42 41 44 45 46 45 46 46 46 47 49 50 53 52 52 53 54 56 59 59 58 59 60 61 62 63 64 64 64 64 65 66 67 68 69 70 71 72 73 72 72 72 72 73 72 72 72 72 72 71 71 71 72 73 74 75 76 71 62 57 53
45 46 46 46 46 48 47 47 46 48 50 50 50 49 49 51 51 52 53 55 54 55 58 59 60 61 61 62 62 63 64 64 63 63 64 66 67 68 70 71 72 72 72 72 71 71 72 72 72 72 72 71 71 72 72 73 75 75 75 76 75 73 67
47 47 47 48 49 49 49 49 50 50 50 51 52 52 51 51 51 51 51 49 53 55 59 60 59 58 59 60 61 62 62 62 64 64 63 65 67 66 67 70 71 71 72 72 72 71 71 71 71 71 71 72 72 73 73 74 75 74 74 73 74 74 75
47 47 48 48 49 50 49 50 49 51 52 52 52 52 52 52 52 53 54 55 56 58 59 59 60 60 60 60 61 61 63 63 63 63 64 64 65 65 67 67 68 70 72 73 73 72 72 71 71 71 71 72 73 72 72 73 72 73 66 77 66 70 72
46 47 47 47 47 48 49 49 49 49 49 50 52 52 53 52 52 54 53 55 57 58 58 59 59 59 58 58 58 59 60 62 62 63 63 62 63 64 65 66 59 64 67 68 68 64 59 60 71 73 73 73 73 74 73 73 76 64 61 57 55 56 57
45 45 45 46 46 47 47 48 48 49 49 49 51 51 52 53 53 54 54 55 57 57 58 57 57 57 57 58 56 57 59 59 59 62 64 65 65 65 66 65 67 55 53 58 62 60 57 53 53 54 56 67 69 69 63 61 58 57 56 55 54 55 55
45 44 44 45 44 46 46 47 47 47 48 49 49 50 52 53 54 55 54 55 56 58 57 57 57 56 56 57 58 59 60 58 60 61 62 62 63 64 64 65 65 66 60 51 53 54 51 51 51 51 52 53 57 64 70 64 59 57 57 56 54 52 51

ECMWFFLT1_sfc_dewp_087.txt.gz
Dewpoint
65 67 68 68 67 64 64 65 65 65 65 65 66 65 63 65 66 68 68 71 73 73 74 74 74 74 74 73 72 73 71 71 71 70 70 69 68 68 68 67 69 71 70 69 70 71 72 74 73 73 74 74 74 76 79 76 77 76 78 78 75 76 73
60 65 67 67 68 66 66 65 67 65 66 66 65 65 64 66 67 66 69 73 73 74 74 74 74 74 74 73 72 73 73 71 71 72 71 71 70 69 68 69 68 70 72 70 70 71 73 71 73 74 74 74 73 75 75 77 77 77 75 77 76 77 76
59 61 65 66 65 64 66 65 66 66 66 67 67 64 64 68 67 69 71 72 74 74 75 74 75 74 74 74 73 73 73 71 71 70 70 67 69 66 68 69 69 67 68 70 71 70 70 73 73 73 73 73 71 73 75 75 76 77 77 78 76 74 77
60 60 62 65 66 67 66 66 66 65 66 65 65 65 66 68 69 69 72 73 73 74 74 75 74 72 73 74 73 74 73 73 71 69 68 67 67 67 67 68 69 67 67 67 67 68 67 71 72 73 73 73 72 72 73 72 72 74 75 77 76 75 76
59 60 63 62 66 67 67 68 69 70 68 65 67 66 65 67 66 69 69 70 70 73 73 72 72 71 72 72 71 71 72 72 71 69 69 67 68 68 67 65 66 66 66 66 68 69 71 71 70 72 72 73 72 72 72 72 72 73 74 75 74 74 74
57 58 61 62 64 66 69 68 70 70 70 71 71 69 66 65 65 66 67 69 70 69 71 73 71 72 72 71 70 69 72 73 73 72 70 69 68 66 66 66 64 65 63 65 65 66 68 69 70 70 70 70 69 68 69 70 70 70 72 74 74 72 70
59 59 60 62 62 63 65 68 71 70 71 72 72 71 71 65 65 67 67 68 69 69 70 70 68 70 72 71 70 71 72 71 72 70 69 67 67 67 67 67 67 64 64 65 65 65 66 69 70 71 70 69 70 67 69 71 70 70 71 73 73 73 73
59 59 60 61 62 62 63 65 68 69 71 71 73 71 69 68 69 71 69 65 67 68 71 71 71 69 71 71 70 69 70 70 70 71 70 67 66 67 66 66 66 66 65 63 65 65 64 68 68 69 69 69 69 70 68 70 72 68 69 71 72 72 69
58 59 59 60 60 60 62 64 65 67 70 69 73 71 73 69 69 68 69 72 71 69 71 71 68 67 71 71 71 70 69 69 70 70 69 66 64 64 63 64 66 67 65 62 62 65 65 64 66 68 70 70 70 71 69 71 70 71 70 70 71 72 71
57 57 59 59 60 60 62 62 64 65 66 68 70 71 71 71 72 72 71 71 73 73 74 71 68 66 69 70 70 69 69 69 68 67 66 64 63 63 61 60 63 66 65 63 60 60 66 65 65 66 70 69 70 70 71 70 70 71 70 70 70 71 72
55 57 57 58 59 60 61 62 63 64 65 67 68 69 71 71 71 72 72 72 73 73 73 72 68 72 71 69 68 68 69 68 66 66 66 65 63 62 60 59 58 62 64 63 60 59 62 65 66 68 69 67 69 70 71 71 71 71 69 69 69 71 70
54 56 56 57 58 58 59 61 62 64 64 64 64 66 71 71 72 70 71 72 73 72 74 75 73 68 71 68 67 69 68 68 66 65 66 65 63 61 61 59 57 58 61 63 62 61 57 62 64 64 68 69 69 70 70 71 72 72 71 68 68 69 69
52 54 54 55 56 57 59 61 61 62 63 62 62 63 64 66 71 69 70 72 73 73 72 71 70 71 68 71 69 71 68 67 67 66 65 65 64 62 62 60 57 57 57 61 62 61 58 57 63 65 65 68 69 68 70 70 70 72 72 71 70 68 69
54 51 52 53 54 55 56 58 60 61 61 61 61 62 63 64 65 67 71 72 72 71 71 73 73 71 70 74 71 70 68 67 67 67 67 66 69 66 62 60 60 59 59 60 61 60 58 57 57 61 64 65 67 68 69 70 70 72 73 73 71 68 68
50 49 50 51 53 54 55 54 58 59 59 59 59 61 62 63 64 69 70 71 72 72 72 72 71 69 68 70 72 74 71 70 68 68 69 69 72 69 66 62 63 63 62 62 61 59 59 57 55 58 62 64 66 68 66 63 66 68 70 71 72 71 67
48 49 49 50 52 52 54 54 56 58 59 60 59 59 59 62 63 64 66 69 71 71 71 73 71 69 67 67 70 72 73 72 73 71 71 71 73 73 70 66 65 62 63 63 62 64 65 63 60 57 58 61 64 66 64 62 61 69 68 70 71 71 66
48 49 50 53 54 53 53 54 55 56 58 58 58 59 59 61 62 63 64 66 69 70 70 70 69 70 67 68 69 70 72 72 73 73 74 74 73 73 73 71 68 67 69 67 66 68 71 66 63 59 58 58 61 63 62 60 58 65 63 65 68 71 70
48 50 50 51 54 54 54 53 55 56 56 55 56 58 59 61 61 61 62 64 67 69 71 70 72 71 73 73 70 72 72 72 73 73 74 74 74 75 74 72 71 71 70 68 66 71 66 65 66 67 61 59 59 59 59 60 63 61 62 63 64 68 70
47 49 51 53 52 54 54 53 54 56 56 56 57 58 59 59 60 61 62 64 65 68 71 72 71 71 73 73 74 73 72 74 73 73 74 74 75 75 75 75 73 71 69 67 68 68 71 71 68 68 67 64 65 60 60 59 61 60 61 62 63 64 68
45 46 48 52 51 52 53 53 54 55 57 57 58 59 60 61 61 62 62 63 66 68 69 70 71 72 72 72 73 73 73 73 74 74 75 75 75 76 76 74 74 71 69 68 70 70 70 69 70 70 72 70 68 69 64 63 63 59 60 61 62 63 66
46 47 47 48 51 52 52 53 54 55 55 55 56 57 56 58 60 62 63 64 65 67 68 68 69 69 70 71 73 73 74 74 73 74 76 76 74 75 76 76 75 73 70 68 68 70 71 70 71 71 71 70 69 69 66 63 62 58 58 59 60 62 64
44 44 45 45 48 51 50 51 52 52 54 55 52 54 54 56 58 60 60 62 62 64 66 67 68 67 68 69 71 71 73 74 73 73 72 74 73 74 74 74 76 74 72 71 68 69 69 71 71 70 70 71 71 69 69 67 61 58 57 57 58 61 69
43 43 43 45 44 45 49 50 49 49 50 54 51 52 55 57 59 60 61 62 63 63 64 65 66 66 67 67 68 69 71 73 73 73 73 73 73 72 73 74 73 77 75 72 70 69 68 70 69 71 69 70 71 71 70 69 65 58 56 56 57 61 70
43 43 42 42 45 45 46 48 49 48 46 47 49 49 53 56 59 60 61 61 62 62 62 63 63 65 66 66 66 67 69 70 72 73 74 74 73 73 73 74 75 75 76 75 72 70 68 69 69 70 71 70 70 69 70 70 68 57 55 55 55 63 70
42 40 41 41 42 43 42 47 49 47 46 47 47 48 48 51 57 58 59 59 60 60 61 62 62 63 65 67 67 67 68 70 72 72 73 73 73 73 72 72 73 74 74 73 73 72 72 71 70 69 70 68 69 72 70 69 67 57 55 55 54 62 71
41 42 41 39 41 43 45 49 47 46 43 43 48 47 49 45 49 56 57 57 60 59 59 61 62 63 64 65 65 66 68 68 71 72 71 72 73 74 74 74 75 74 75 75 75 74 74 72 71 70 69 68 69 68 68 69 70 71 56 54 53 56 71
40 41 42 40 42 48 43 43 42 43 42 45 48 45 45 45 48 52 56 57 58 59 58 61 63 64 65 66 67 67 68 70 70 71 70 71 73 73 73 75 74 75 75 74 74 75 75 73 72 71 71 70 71 70 69 68 69 73 55 54 53 54 59
40 40 41 44 46 45 43 41 44 44 40 43 42 43 45 48 51 54 55 55 56 57 57 60 62 63 64 65 65 67 69 69 70 71 70 72 72 72 72 72 74 74 74 75 75 73 73 73 73 72 72 72 71 71 71 72 71 69 59 54 53 52 53
43 42 42 43 43 42 41 43 42 41 43 41 41 44 47 49 53 54 54 53 56 57 58 59 60 62 63 64 65 65 66 67 67 67 68 71 72 71 72 73 72 73 74 74 73 73 73 74 73 73 72 72 72 69 70 72 73 67 72 54 52 52 52
44 44 42 40 39 41 42 43 43 42 42 42 46 47 49 52 54 54 55 55 56 57 58 59 60 62 62 63 64 65 66 67 67 68 67 68 68 70 71 71 72 73 72 73 74 73 73 73 73 72 71 70 71 69 69 72 72 70 64 67 52 51 51
44 44 42 42 40 44 44 44 43 42 43 44 48 50 51 52 53 55 55 56 56 57 56 58 59 60 60 61 62 63 63 65 65 69 70 69 67 68 70 70 71 72 72 73 72 73 72 73 72 72 71 71 71 71 70 70 71 71 70 62 58 52 51
45 46 45 44 45 46 46 44 44 44 44 47 48 49 53 51 51 53 55 55 56 55 54 55 58 60 60 60 60 61 61 61 61 64 65 66 66 67 68 69 69 72 73 72 72 72 72 73 73 72 72 71 71 71 70 71 72 71 74 71 66 59 53
46 47 48 48 49 48 47 47 45 47 48 50 51 50 50 50 50 51 54 55 52 51 53 55 56 59 59 59 58 59 59 61 60 60 62 64 65 66 68 68 69 70 70 70 70 70 70 71 71 73 70 71 72 71 71 71 71 72 75 78 76 71 66
46 47 48 49 49 49 49 48 49 49 50 50 51 52 52 52 52 51 51 50 52 52 55 56 56 56 58 55 56 57 58 59 61 63 61 62 64 66 69 70 67 67 68 69 68 67 68 67 68 68 69 70 72 73 74 72 76 74 75 75 76 75 76
45 45 46 47 48 49 49 50 50 51 51 51 51 51 52 53 53 53 55 54 54 55 55 56 58 59 58 59 58 58 60 60 61 61 61 60 63 62 64 65 66 67 67 66 66 68 70 68 69 70 68 69 72 73 71 71 72 72 65 69 62 71 73
44 44 45 46 47 47 48 49 50 50 50 51 51 51 51 52 53 54 54 55 56 56 55 56 58 58 57 56 55 56 56 57 57 58 58 58 58 60 61 65 60 65 66 66 66 63 59 58 67 70 69 69 70 71 70 73 74 66 57 57 57 55 55
43 43 44 45 45 46 47 48 49 50 50 50 51 51 51 51 52 53 54 55 56 56 57 57 57 57 57 55 54 54 56 57 57 57 60 61 60 60 61 61 64 57 55 55 58 55 53 52 52 52 54 64 67 66 62 61 58 53 52 52 52 53 52
42 43 43 44 44 46 47 47 48 48 49 50 50 50 51 50 51 52 51 53 54 56 57 57 57 57 55 56 55 56 58 57 59 59 58 59 61 62 62 62 62 63 59 52 54 53 50 49 48 48 49 50 55 62 68 63 58 54 52 51 49 50 49

ECMWFFLT1_sfc_dewp_093.txt.gz
Dewpoint
65 65 67 67 67 67 68 68 70 70 70 69 68 65 59 61 64 68 69 70 71 71 71 73 71 72 72 72 73 73 72 73 73 73 72 73 72 73 72 73 73 73 73 75 74 73 73 73 73 74 76 75 76 77 77 77 76 77 76 76 76 77 76
65 66 67 67 66 67 67 67 69 69 68 67 67 68 62 61 65 67 69 70 70 71 71 73 72 72 72 72 72 72 72 73 73 74 73 73 74 73 73 72 72 73 73 73 74 75 74 73 74 73 75 76 77 77 78 77 76 77 76 77 76 75 75
63 64 65 66 67 67 68 69 69 69 68 68 69 67 67 66 66 67 70 70 70 71 71 73 73 72 73 72 71 72 72 72 73 73 72 72 72 72 72 72 73 73 73 72 73 73 75 75 74 74 74 75 76 77 77 77 77 77 77 76 76 75 74
65 67 68 68 67 67 69 69 69 70 69 68 67 70 72 72 71 69 70 70 70 71 71 72 73 73 73 72 71 71 71 71 72 72 71 71 71 70 71 72 72 72 72 72 73 71 72 74 75 74 76 74 76 77 76 76 76 76 77 76 76 76 75
64 65 66 67 69 69 69 68 68 70 70 73 73 71 70 73 72 72 71 70 71 71 71 71 72 73 74 73 71 71 71 71 71 71 71 70 71 69 69 70 70 70 70 71 72 72 72 73 73 75 75 74 75 75 75 75 75 77 77 76 75 76 76
63 64 65 66 68 69 70 72 70 71 71 70 70 68 70 71 71 71 71 73 73 73 72 74 72 73 73 73 72 71 71 71 71 71 70 70 70 69 68 68 69 69 70 70 71 71 73 72 71 74 74 74 74 73 74 74 75 76 76 76 75 74 76
63 64 65 65 66 67 68 70 71 71 71 70 71 73 71 70 70 72 72 73 72 72 71 71 71 72 73 71 72 72 71 70 71 70 70 69 70 69 68 68 69 68 68 70 69 69 72 72 71 73 73 73 73 72 73 74 74 75 76 75 74 74 75
60 61 63 63 64 66 68 70 71 71 71 72 72 72 71 72 72 72 72 72 72 72 72 73 72 72 71 71 70 72 71 70 70 70 70 69 69 69 68 68 69 68 68 68 68 68 69 71 71 72 72 71 71 72 72 73 73 73 75 75 74 74 74
60 61 62 63 63 64 66 68 71 72 72 71 72 71 72 71 71 72 73 73 72 73 73 72 72 74 73 73 72 70 71 71 71 70 70 69 68 68 67 67 67 69 67 67 67 68 68 69 70 72 72 71 71 71 72 73 72 72 73 74 74 74 73
59 61 61 61 61 62 65 67 68 70 70 71 71 71 72 72 72 72 72 72 71 71 72 73 73 74 73 73 72 72 71 70 73 70 69 69 68 66 66 66 66 68 67 66 65 67 68 68 68 71 72 71 71 71 71 72 72 72 71 73 73 73 73
57 59 60 60 60 61 61 63 65 67 68 69 70 71 71 71 71 72 72 73 73 73 74 73 74 74 73 72 72 72 72 70 69 69 69 68 67 66 65 65 64 65 66 65 64 64 66 69 68 69 72 71 71 71 70 71 72 71 70 72 73 73 72
56 57 58 59 60 60 61 62 63 64 66 67 68 69 71 71 72 72 72 73 74 74 74 73 74 73 72 73 73 73 73 73 70 70 70 70 69 65 62 64 64 64 65 65 64 64 64 65 68 68 70 71 70 72 71 71 72 71 70 69 71 73 72
55 56 57 58 59 59 60 61 62 64 65 65 66 66 67 71 71 72 73 73 73 74 75 74 74 74 74 73 72 72 73 72 71 72 71 71 71 69 68 67 66 63 64 65 64 63 62 63 65 69 69 70 70 70 72 71 72 72 71 70 69 70 71
56 55 55 56 57 57 58 59 60 61 63 65 66 67 67 68 68 70 71 72 72 73 74 75 74 73 73 73 72 72 72 73 73 72 72 73 72 71 70 69 68 68 66 65 64 63 62 62 63 66 69 69 69 69 71 71 71 71 72 72 71 70 70
51 52 53 54 55 56 57 58 59 60 60 62 65 66 67 68 68 69 69 70 71 73 74 75 74 74 73 73 72 72 73 73 73 74 75 74 73 72 72 71 70 69 69 67 65 63 62 61 62 63 67 68 68 68 69 70 71 70 71 72 71 71 71
51 51 52 53 53 53 55 56 58 60 60 61 61 62 64 67 68 68 68 68 69 70 71 74 74 74 74 73 73 74 74 74 74 74 74 73 72 72 72 72 70 67 67 68 67 65 64 62 61 62 63 66 68 67 68 69 70 71 69 71 72 71 70
51 51 52 53 53 53 54 55 55 56 57 58 59 61 62 64 65 67 67 67 68 69 69 71 73 73 73 74 74 74 73 74 73 73 73 73 73 73 72 72 72 69 68 68 68 69 67 64 61 60 62 63 65 67 66 67 68 68 65 66 69 72 71
50 51 51 51 53 53 54 54 54 55 56 57 58 58 60 62 63 65 65 66 68 68 68 68 70 70 72 73 72 73 74 74 74 74 73 74 74 74 73 73 73 70 69 67 67 68 70 68 63 61 61 62 63 65 66 66 67 64 63 64 64 69 72
48 49 50 51 51 52 53 53 55 56 57 59 58 59 60 61 62 62 65 66 66 67 68 68 69 69 69 70 72 72 73 73 74 74 74 73 74 74 74 73 73 72 71 68 68 68 69 70 70 67 62 61 62 63 65 66 64 62 61 62 63 64 69
48 49 50 51 51 52 52 53 54 55 55 58 60 60 60 62 64 63 65 65 66 66 67 67 67 67 67 68 69 70 70 72 73 73 73 74 74 74 73 73 73 74 74 73 72 70 70 70 70 70 71 69 65 64 64 65 64 60 59 60 61 62 65
48 48 48 50 52 53 54 54 53 52 51 54 58 58 58 59 61 63 63 64 64 65 66 66 67 66 66 67 67 69 69 71 71 72 72 74 74 73 73 73 73 73 73 73 73 72 71 70 69 70 71 71 72 70 67 66 63 60 58 57 58 60 63
43 45 45 46 48 50 50 51 53 52 51 54 53 56 57 58 59 60 62 63 63 63 63 65 66 67 67 66 67 67 68 70 71 72 72 73 73 73 73 73 73 73 74 74 74 73 73 73 72 71 70 71 70 70 70 70 65 60 57 56 56 59 65
42 43 43 43 43 47 50 49 50 53 55 52 53 57 58 58 58 59 60 63 64 64 64 64 64 64 65 67 68 68 68 69 70 71 71 72 71 71 73 73 73 74 74 73 73 74 73 73 72 72 72 72 71 71 70 70 67 64 56 54 55 57 63
42 41 42 42 44 45 48 48 48 48 45 43 47 55 57 56 56 56 57 58 60 61 61 62 63 64 65 65 67 68 68 69 69 69 70 71 71 71 72 73 74 74 75 74 73 73 73 73 73 73 72 72 72 71 70 70 68 62 59 56 53 57 61
42 41 41 41 41 43 46 50 51 49 47 45 46 48 53 57 57 56 55 57 57 59 59 60 62 64 64 65 66 67 68 68 69 69 69 70 70 70 71 72 72 73 72 73 73 73 73 74 73 73 73 72 72 73 72 71 68 63 61 59 57 58 60
43 42 41 41 42 44 50 49 45 43 43 45 47 45 48 53 55 59 57 57 58 57 58 58 60 64 63 65 65 66 67 66 66 68 69 70 69 68 70 71 72 72 72 72 73 73 74 73 73 73 73 73 73 73 73 72 72 70 61 55 53 53 62
42 43 42 43 47 52 43 44 44 42 40 46 49 47 49 54 55 57 58 58 57 57 57 58 61 62 63 63 64 66 66 64 65 66 67 69 69 67 68 70 71 71 71 72 72 73 73 73 73 74 73 73 73 72 72 71 71 69 57 59 57 53 57
43 43 43 50 53 51 45 44 44 42 40 42 47 49 48 51 55 56 58 57 57 56 57 59 58 60 62 62 64 64 63 64 65 66 66 67 66 67 67 69 70 71 71 72 72 71 71 72 72 72 72 73 73 73 73 73 72 72 65 61 60 56 53
45 45 46 46 48 49 48 45 44 44 43 45 48 49 50 51 56 57 56 57 55 56 57 57 57 58 60 63 64 61 60 61 65 67 65 66 66 65 65 68 70 70 70 69 70 70 70 70 70 71 71 72 72 73 73 73 72 67 70 64 59 58 52
47 46 46 46 47 49 49 46 47 46 46 49 50 51 52 53 55 57 57 56 54 57 57 57 59 59 60 61 60 60 61 62 63 62 65 67 67 66 66 68 70 70 68 69 68 67 68 69 70 70 70 70 70 71 73 73 72 68 66 68 61 56 54
46 46 45 47 47 51 49 47 47 47 49 49 50 51 54 53 53 55 56 55 57 58 58 58 57 57 57 57 57 58 59 60 59 58 57 63 68 67 68 68 69 69 69 65 64 64 64 66 69 70 69 69 70 70 71 72 72 72 69 63 63 59 55
47 46 45 45 47 49 49 47 48 48 49 51 50 51 54 53 52 53 54 56 56 54 57 57 58 58 58 58 58 58 59 58 56 55 56 56 62 69 69 68 67 69 68 66 64 64 65 69 70 70 69 69 70 70 71 72 72 72 72 71 70 66 60
47 47 47 47 49 50 49 49 49 50 50 51 52 52 52 51 52 52 54 55 53 54 56 57 58 59 59 57 56 56 57 58 57 57 57 57 58 60 63 66 66 68 69 68 68 68 70 70 69 69 69 69 70 70 70 71 71 72 71 71 72 72 70
47 48 49 48 50 50 49 49 49 49 51 52 52 52 53 53 52 51 53 54 55 55 56 57 57 57 56 56 57 57 57 58 61 60 59 59 59 61 61 64 68 67 68 69 69 69 69 68 67 67 66 67 69 69 69 69 70 70 70 71 72 72 72
48 48 47 48 48 50 48 49 50 50 50 51 51 52 53 53 54 54 53 54 54 56 55 56 58 57 56 56 57 57 60 61 61 59 59 57 56 56 57 61 61 60 59 60 67 67 65 66 65 66 66 67 67 66 65 65 66 68 65 69 63 68 71
47 47 47 46 47 48 47 49 49 49 51 51 51 51 52 51 52 53 53 53 54 55 55 56 55 54 53 54 54 54 55 57 56 56 57 56 57 58 58 62 56 55 57 58 62 60 60 59 62 64 64 65 65 65 64 64 65 62 53 54 53 53 54
46 46 46 47 46 47 47 48 51 51 50 50 51 51 51 51 51 51 52 52 53 53 52 53 54 54 54 55 54 54 55 55 55 56 57 58 59 58 58 58 59 53 53 54 58 55 51 52 53 54 56 64 63 62 60 59 56 52 49 49 49 48 47
46 46 47 47 45 46 48 50 50 50 51 50 51 50 51 51 51 51 51 51 51 52 52 53 53 54 54 54 54 55 55 53 54 55 56 56 58 60 60 60 58 59 55 54 53 51 48 48 47 46 46 48 54 62 62 58 54 50 48 47 47 47 45

ECMWFFLT1_sfc_dewp_096.txt.gz
Dewpoint
65 65 66 66 66 65 65 65 67 67 67 64 63 60 61 65 67 67 67 68 68 68 71 70 70 72 72 71 72 72 73 72 72 70 71 71 72 72 72 72 72 72 73 73 73 73 73 74 74 75 75 75 75 75 76 76 75 76 75 75 75 76 74
65 65 66 66 66 66 66 66 68 67 67 64 66 66 62 66 67 67 67 68 68 68 70 70 70 72 72 72 72 72 72 72 72 73 71 73 73 72 72 73 72 72 72 74 74 73 74 73 73 74 75 75 75 76 76 76 75 75 75 75 75 75 74
64 65 66 66 66 66 67 67 68 68 67 65 66 68 68 65 67 67 68 69 69 68 70 70 70 71 72 72 72 72 71 72 72 73 71 72 72 72 72 73 73 72 72 73 74 74 74 73 73 74 74 75 75 76 76 76 76 76 75 75 75 74 73
64 65 66 67 67 67 67 68 68 68 68 68 67 68 71 71 67 68 68 69 69 69 70 71 70 70 71 72 72 72 71 72 72 72 71 72 72 72 72 72 73 72 73 72 73 73 74 73 73 73 76 74 75 76 76 76 76 76 76 75 75 74 74
65 67 67 67 67 68 67 67 68 69 69 69 69 71 71 72 71 69 68 69 69 69 70 71 70 70 71 71 71 71 71 71 72 72 71 72 72 72 71 71 71 72 72 72 72 73 73 74 74 73 75 74 75 76 76 76 76 76 76 75 75 75 74
64 65 67 67 68 68 68 69 70 70 71 71 71 71 71 71 71 72 71 71 72 71 71 72 70 71 71 71 71 71 71 71 72 72 71 71 71 71 71 71 71 71 71 72 72 72 72 73 74 73 74 74 74 75 76 75 75 76 76 76 75 75 75
64 64 65 66 69 69 68 70 69 70 70 70 71 71 72 72 71 72 72 71 71 71 72 73 73 72 72 71 71 71 71 70 71 71 71 70 71 70 70 70 71 70 70 71 71 71 71 71 73 74 74 73 74 74 75 75 75 75 76 75 74 74 74
62 62 63 65 67 68 69 69 70 70 70 71 71 71 71 72 72 72 72 72 71 71 71 72 72 73 73 73 71 70 70 70 70 71 71 70 70 70 69 69 70 70 70 69 70 70 71 71 71 73 73 73 73 74 74 74 74 74 75 75 74 74 74
61 61 61 62 64 67 69 69 69 70 70 70 71 71 71 71 71 71 72 73 72 71 71 72 72 72 72 72 72 71 70 70 70 70 70 69 69 69 69 68 68 69 69 69 69 69 70 71 71 72 73 73 73 73 73 73 74 74 74 75 74 74 73
60 60 60 61 62 65 66 68 68 69 69 70 70 70 70 70 71 71 71 71 71 71 71 72 73 73 72 72 72 72 71 70 70 69 69 69 69 69 69 68 67 69 68 67 68 68 69 71 71 71 72 72 72 72 72 72 73 73 73 74 74 74 73
59 60 60 60 61 63 66 67 66 67 68 68 69 70 70 70 70 70 70 71 71 71 72 72 73 73 72 71 71 72 71 70 70 70 69 69 69 68 68 68 67 67 68 67 66 67 68 69 71 71 72 71 71 71 71 71 72 72 72 73 74 74 73
58 58 59 60 60 62 63 65 65 66 67 68 69 69 69 70 71 71 71 71 71 71 72 72 73 73 72 72 71 70 70 72 72 71 70 70 70 69 68 67 67 66 67 67 66 66 67 67 68 70 71 71 71 71 71 71 71 72 72 71 72 73 73
57 58 58 58 59 60 61 63 65 66 66 67 69 70 70 70 70 71 71 71 72 72 71 72 72 72 72 72 71 70 71 72 71 71 71 71 70 69 69 68 66 65 65 66 66 65 65 66 67 68 70 71 71 71 71 71 71 72 72 71 71 72 72
58 57 58 58 58 59 60 61 63 65 66 67 67 69 70 70 71 71 71 71 72 72 73 72 72 72 71 71 71 71 72 72 72 71 72 71 71 71 69 68 68 68 68 67 66 65 64 64 66 67 68 69 71 71 71 71 70 71 71 71 70 70 72
54 54 56 59 57 57 58 59 61 62 64 66 67 67 67 68 68 69 71 71 71 71 71 72 72 72 72 72 71 71 72 72 72 72 71 72 71 71 71 70 69 68 68 69 67 66 65 64 63 65 67 67 68 70 71 71 71 70 71 71 70 69 69
53 53 54 54 55 57 56 57 59 59 61 63 65 66 67 67 68 69 70 69 71 71 73 72 73 72 72 72 71 71 72 72 72 72 71 71 71 70 70 71 70 68 67 67 66 67 68 66 64 63 65 67 67 68 69 70 70 71 69 70 71 70 69
52 53 54 54 54 55 56 57 57 58 59 60 62 64 66 67 67 68 69 69 69 69 70 70 71 72 72 72 72 72 72 72 72 72 72 72 72 71 71 70 70 70 69 67 66 66 68 69 65 63 63 65 67 67 67 67 68 68 65 66 68 71 70
49 49 50 52 54 54 54 56 57 57 58 58 60 62 63 65 66 66 67 67 69 69 70 69 69 68 69 71 72 73 72 73 73 72 72 72 72 71 71 71 71 69 69 68 66 66 67 68 67 65 63 63 64 66 67 67 67 64 64 64 64 68 70
48 49 50 51 52 53 53 54 56 58 58 58 59 60 62 63 64 64 66 66 67 68 69 69 68 68 69 69 70 70 71 73 73 72 72 72 72 72 72 72 71 71 70 69 69 67 67 68 70 69 66 63 63 64 66 67 65 63 62 63 63 63 68
48 48 49 50 51 52 52 52 53 57 58 58 58 58 61 64 64 64 64 65 67 67 67 67 67 67 68 68 69 70 70 72 72 72 73 73 73 73 73 72 71 72 72 72 72 70 69 68 68 69 70 69 65 64 64 65 65 61 61 61 61 62 64
47 48 47 46 47 48 51 51 50 53 56 57 57 56 56 59 63 63 63 63 63 65 66 67 66 67 67 68 68 69 69 70 71 72 72 73 73 72 72 72 72 72 72 72 72 71 70 70 69 69 71 71 71 70 68 64 64 61 59 58 59 61 63
45 45 44 45 45 47 48 51 50 51 55 58 55 54 54 56 59 63 63 63 63 63 64 64 65 66 67 67 68 68 69 69 70 70 71 72 72 72 73 73 72 72 72 73 72 72 72 72 72 71 71 71 71 70 70 70 62 60 58 57 57 58 63
44 44 44 45 44 45 47 47 47 47 52 56 56 55 55 55 56 58 61 62 62 62 62 63 64 64 64 67 68 69 69 69 69 69 70 70 70 71 71 72 72 73 73 73 72 72 72 72 72 71 72 72 71 71 70 70 65 60 55 54 55 58 61
41 41 42 44 45 44 45 46 45 48 47 48 53 55 56 56 56 56 57 59 59 58 58 60 62 63 64 64 66 67 67 68 68 69 69 70 69 69 70 71 72 72 73 73 73 72 72 73 72 73 72 72 71 71 71 70 66 60 57 55 55 61 62
42 43 44 44 44 44 44 45 46 46 48 48 50 53 55 56 57 57 57 58 57 57 56 57 59 60 62 63 64 66 66 67 66 67 68 69 68 68 69 69 70 72 72 71 72 72 73 73 73 73 72 73 72 73 72 71 67 57 57 56 53 60 63
45 47 48 48 47 46 47 48 45 45 46 48 49 50 52 53 55 58 58 57 56 56 56 56 57 57 60 62 62 65 67 65 66 65 65 66 69 66 66 69 70 70 71 71 72 72 73 73 73 73 73 73 73 73 72 72 71 64 55 54 53 57 66
47 49 50 50 50 52 46 46 46 46 48 49 50 50 51 53 55 56 57 55 53 55 56 56 56 57 58 60 62 61 60 62 62 63 64 64 66 67 68 67 68 69 70 70 71 71 71 72 72 73 72 73 73 73 72 72 71 66 54 53 54 56 62
47 47 47 51 53 52 46 46 47 47 48 49 50 51 52 53 56 57 56 52 52 54 56 56 57 57 58 60 61 59 58 58 60 64 65 66 66 65 65 65 67 69 69 69 69 69 70 70 70 70 71 71 73 73 73 74 73 70 57 53 52 53 56
46 46 46 46 47 50 48 46 47 47 48 49 50 51 52 52 55 57 56 52 54 55 57 57 57 57 58 59 58 58 59 59 60 61 61 62 64 64 64 65 65 67 69 67 68 67 67 67 68 69 70 70 71 72 73 73 73 69 69 56 51 51 51
46 46 46 47 48 49 51 47 47 48 48 49 51 51 52 52 54 55 55 52 55 56 58 56 56 58 58 59 58 58 58 59 60 59 58 59 60 63 64 65 65 67 68 67 66 65 63 65 66 68 69 69 69 70 71 72 72 71 66 67 62 56 53
45 45 45 46 48 50 48 47 47 47 49 49 50 51 52 52 52 54 53 53 56 55 56 55 57 58 58 57 57 57 57 57 57 57 58 58 60 61 64 64 66 67 67 68 65 64 63 64 66 68 69 69 69 69 70 71 71 72 70 66 64 59 56
44 45 45 46 47 48 47 47 47 49 50 49 51 50 53 51 51 52 52 54 55 54 55 55 57 58 57 56 56 56 56 57 57 57 59 60 60 60 61 61 65 66 66 66 66 64 64 66 69 69 69 69 69 69 69 70 70 71 71 71 71 68 60
44 45 45 46 49 50 47 49 48 50 51 50 49 50 51 51 52 53 53 54 53 54 55 55 57 58 55 53 53 54 55 56 57 57 57 57 58 59 60 60 63 62 64 66 67 67 67 69 69 68 68 68 68 68 69 69 68 68 69 71 71 71 70
46 46 47 48 49 49 48 48 47 48 50 50 50 51 52 52 51 52 52 52 52 53 54 55 57 55 52 52 52 53 54 55 57 56 55 56 56 56 57 58 60 58 58 58 58 61 65 66 67 65 65 65 66 67 68 67 66 66 66 68 70 70 70
46 46 46 46 47 48 46 49 49 49 50 51 51 51 51 50 50 51 50 51 51 52 52 54 55 54 52 52 52 52 56 56 54 53 53 53 54 55 56 58 58 58 59 59 60 61 62 62 62 64 63 64 65 65 64 64 65 66 62 67 60 63 67
44 44 45 46 48 47 49 51 49 50 51 49 50 50 51 50 50 51 51 51 51 51 51 53 53 52 52 53 54 54 55 55 51 51 53 52 52 53 54 58 56 56 58 58 61 57 53 54 59 61 61 62 63 64 63 63 64 61 54 50 48 48 47
44 44 45 46 45 45 47 50 52 51 51 50 52 51 51 51 51 51 51 51 51 51 52 51 53 53 53 55 54 55 55 54 52 53 53 53 53 53 55 55 56 50 51 52 55 52 48 48 46 46 49 59 62 62 59 58 55 50 48 47 45 43 43
43 44 46 46 46 48 49 50 50 49 49 49 51 50 50 51 51 52 52 53 53 52 51 51 52 52 52 52 52 54 55 54 54 55 55 54 53 53 55 55 55 56 52 51 50 50 48 47 46 44 44 46 51 58 60 57 54 51 49 47 44 44 43

ECMWFFLT1_sfc_dewp_102.txt.gz
Dewpoint
62 63 65 66 66 64 58 58 59 60 61 62 62 62 63 65 66 68 68 69 69 69 70 70 70 71 71 71 71 72 72 72 72 72 72 72 72 72 72 72 72 73 73 73 73 73 74 75 75 76 76 76 76 76 76 76 76 76 76 76 76 76 75
62 63 63 66 66 65 63 59 59 60 61 62 62 63 63 65 66 67 68 69 69 69 70 70 70 70 71 71 72 72 72 72 72 73 72 72 73 72 72 72 72 73 73 73 74 74 75 75 75 75 76 76 76 76 75 76 76 76 76 76 75 76 76
60 63 62 65 66 65 65 63 60 60 61 61 62 62 62 65 66 67 68 68 69 69 70 70 70 70 71 71 72 72 72 72 72 72 72 71 72 71 72 72 72 73 73 73 74 74 75 75 75 75 76 76 76 76 76 76 76 76 76 76 76 75 75
60 60 61 65 68 67 67 66 64 61 61 62 62 62 62 65 66 67 68 68 68 69 69 70 70 70 70 71 71 72 72 72 72 72 72 71 72 72 72 72 73 73 73 73 73 74 74 75 75 75 77 76 76 76 75 76 76 76 75 76 76 75 75
63 62 66 66 67 66 67 68 68 66 62 63 63 64 63 64 66 66 67 68 68 68 68 69 69 70 70 71 71 71 72 72 72 72 72 72 72 73 72 72 72 72 73 73 74 75 75 75 74 75 75 76 75 75 76 76 76 76 76 75 75 75 75
65 65 66 67 67 67 68 69 69 68 66 65 65 65 65 66 66 66 67 68 68 69 69 70 69 70 70 70 70 71 72 72 73 73 72 72 72 72 72 72 72 72 72 73 74 74 74 74 74 74 74 74 75 75 75 75 75 75 75 75 75 75 74
66 65 65 66 67 67 68 68 69 70 69 69 70 69 68 67 67 67 68 68 69 69 69 70 70 69 70 71 71 71 71 71 72 72 72 72 72 72 72 72 73 72 72 73 73 74 74 74 74 74 74 74 75 74 75 76 76 76 76 76 75 75 75
66 65 66 66 67 68 68 67 69 70 70 69 69 70 69 69 69 69 68 68 69 69 69 69 70 70 70 71 71 70 71 71 71 72 72 72 72 72 72 72 73 73 73 72 73 73 73 74 74 74 74 73 74 75 75 76 76 75 75 75 75 75 74
66 67 67 67 67 68 68 68 69 69 69 69 69 70 71 70 70 69 69 70 70 69 69 69 70 70 70 71 71 71 71 71 71 72 72 71 71 71 71 71 72 73 72 72 72 73 73 73 73 74 75 74 74 75 75 75 75 75 75 75 75 75 75
65 65 66 67 68 68 68 68 69 68 68 68 68 69 70 70 71 71 70 70 70 71 71 71 71 71 71 71 71 71 71 71 71 71 71 71 71 71 71 71 71 72 72 71 71 72 73 73 73 73 74 74 74 74 75 75 75 75 75 75 75 75 75
64 65 65 66 66 67 67 68 68 68 68 68 69 69 69 69 70 71 71 72 71 71 72 72 73 72 72 72 71 72 72 71 71 71 71 71 71 70 71 71 70 71 71 71 71 71 71 73 73 73 73 73 74 74 74 74 75 75 75 75 75 75 75
63 63 64 65 65 66 66 67 67 67 68 68 69 69 68 69 70 70 71 71 72 72 72 73 72 72 73 72 72 72 72 71 71 71 71 70 70 70 70 70 70 70 70 71 71 71 70 71 71 72 72 73 74 74 74 74 74 75 75 74 75 75 75
62 63 64 64 65 65 66 66 66 67 68 69 69 69 69 69 70 70 70 70 71 72 72 72 72 72 72 73 73 72 72 72 72 72 71 71 71 70 70 70 70 69 69 70 70 70 69 69 70 72 72 72 73 73 74 74 74 74 75 74 75 75 75
62 62 62 62 63 65 65 66 66 66 67 68 69 69 69 70 70 70 70 70 70 71 71 72 72 71 71 71 71 70 71 71 72 72 72 72 72 72 70 70 70 70 70 70 70 69 68 68 68 69 71 71 72 73 73 74 73 74 74 74 74 74 74
59 60 61 61 62 63 64 65 65 66 67 67 68 68 68 68 69 69 69 70 71 71 71 72 71 71 71 71 70 70 70 70 72 72 71 71 71 71 71 71 70 70 70 70 70 68 69 68 68 68 69 70 71 72 72 72 72 73 73 73 73 73 73
58 59 60 60 61 62 63 64 64 65 65 66 67 67 67 68 68 69 69 70 70 71 71 71 71 70 70 70 70 70 71 71 71 71 71 70 70 70 70 71 71 70 69 69 68 70 70 70 69 68 68 68 70 71 71 72 72 72 69 70 73 73 72
58 58 59 60 60 61 62 62 62 63 64 64 65 66 66 67 67 68 68 68 68 69 70 71 70 71 71 70 71 71 70 71 71 71 71 70 71 70 70 70 70 70 71 70 70 70 70 70 68 68 67 67 67 68 69 70 71 69 66 66 67 72 73
56 57 58 59 59 60 61 61 62 62 62 63 63 64 65 66 66 66 67 67 68 69 69 70 70 70 70 71 70 70 71 71 70 70 70 70 70 70 71 71 71 70 70 70 69 70 69 69 68 69 67 66 66 67 67 68 69 65 64 65 64 68 72
56 55 56 58 58 58 59 58 59 61 61 62 62 63 63 64 64 65 66 66 67 68 68 68 68 68 68 69 70 70 70 71 71 71 71 71 71 71 71 70 70 70 71 71 71 71 70 70 69 69 68 68 68 66 66 67 66 63 63 63 63 63 68
50 52 52 54 55 56 57 56 56 57 58 59 60 59 60 60 60 61 62 63 64 65 66 67 67 68 68 68 69 69 69 70 70 70 71 71 71 71 71 71 71 71 71 72 72 71 70 70 69 69 69 69 69 69 67 67 66 62 61 61 61 62 64
48 50 51 52 54 54 55 55 55 56 56 57 58 57 56 56 56 57 57 58 58 60 62 63 64 65 66 66 66 67 68 68 67 66 67 68 69 70 70 71 71 72 71 72 71 70 70 70 71 71 70 69 69 70 69 67 65 62 60 58 58 60 63
47 49 51 52 51 52 52 53 54 54 56 57 56 56 56 56 55 55 55 56 56 57 58 59 60 61 63 63 64 65 66 66 67 66 65 66 68 68 68 69 70 70 71 72 72 72 72 72 72 71 71 71 70 69 70 70 65 61 60 58 58 59 65
47 49 50 50 49 49 51 51 52 53 55 55 55 56 55 55 55 55 55 55 56 57 57 58 58 60 60 61 62 63 64 65 65 66 67 65 65 65 66 67 68 70 71 71 71 72 72 72 72 73 72 72 72 71 71 70 68 60 59 59 57 59 66
47 47 48 48 49 50 50 51 52 53 53 54 55 55 55 55 55 55 55 55 55 55 56 57 57 58 59 59 60 61 62 63 63 63 64 65 66 66 66 67 68 68 69 71 70 70 71 71 71 72 72 72 72 72 72 72 70 62 57 56 56 62 67
47 47 48 49 50 50 51 52 52 52 53 53 53 54 55 55 55 54 54 55 54 55 56 57 57 57 58 58 59 60 61 62 62 62 62 63 64 65 66 67 67 68 68 69 70 70 71 71 71 72 73 73 72 73 73 73 71 63 58 56 55 61 66
47 48 49 49 50 51 51 53 51 51 51 52 53 54 54 53 54 56 54 54 54 54 55 56 57 57 57 57 58 59 60 60 61 61 61 61 62 64 66 67 68 67 67 68 69 69 70 71 71 71 71 72 72 72 72 72 73 71 60 56 55 55 66
48 49 49 49 51 53 49 49 49 50 50 52 53 53 54 53 53 54 55 54 54 55 55 56 57 56 56 56 57 57 58 59 59 59 60 61 62 63 64 65 66 67 67 67 68 69 69 69 69 69 70 70 71 72 71 72 72 71 58 55 53 54 60
49 50 51 53 52 51 49 48 49 49 49 51 52 53 53 53 53 54 53 53 53 55 56 57 56 55 55 55 56 57 58 58 58 59 58 60 60 60 61 63 64 66 67 68 68 68 67 67 66 66 69 70 71 71 71 72 72 71 63 59 56 55 55
51 49 48 49 49 50 48 48 48 48 49 50 51 52 54 53 53 53 53 52 54 55 56 57 55 54 55 55 55 57 58 58 57 56 57 58 59 59 60 62 62 62 64 66 67 66 66 66 66 67 69 69 70 70 71 72 72 69 70 60 54 53 54
51 50 48 48 48 49 50 48 48 49 50 50 52 52 53 53 53 53 52 52 55 55 57 56 56 54 54 56 55 55 57 57 56 56 56 57 58 60 59 60 61 62 62 63 64 64 64 65 67 67 68 67 66 67 69 71 72 70 66 63 56 53 53
49 49 50 49 48 50 48 47 48 48 49 50 51 51 52 52 52 53 52 52 56 55 55 56 56 54 53 53 54 55 56 56 55 55 55 55 57 57 59 59 60 60 61 61 62 62 62 63 64 64 65 66 65 66 67 69 71 70 66 62 59 57 56
47 48 47 48 49 49 48 48 49 49 49 50 50 51 53 51 51 52 52 53 54 54 55 56 56 55 54 54 55 54 56 55 53 53 54 55 55 56 58 57 58 60 60 59 59 60 61 61 62 62 62 63 64 64 66 68 69 68 68 68 66 62 61
47 47 47 46 48 50 48 49 48 49 51 50 50 50 51 51 52 53 53 54 52 53 55 56 55 55 54 53 54 55 56 56 55 53 53 53 53 53 56 56 56 57 58 58 58 57 59 59 60 60 61 61 62 63 65 66 67 67 67 67 67 67 68
46 47 48 48 49 48 49 49 49 50 50 50 50 51 51 51 52 52 53 53 53 53 55 56 55 53 53 53 53 55 57 56 57 56 54 53 54 52 53 54 54 55 55 55 55 54 54 55 56 57 57 58 60 62 63 64 65 65 62 63 63 63 64
47 47 47 46 47 49 49 50 50 50 51 51 50 51 51 52 52 53 53 53 54 54 55 55 55 54 53 54 54 55 56 55 55 55 55 54 54 54 54 55 53 54 55 54 56 55 52 54 54 56 55 57 59 61 61 60 60 61 53 57 51 55 58
47 46 46 47 49 50 51 51 50 51 51 50 51 52 52 52 52 53 53 54 54 54 55 55 54 53 54 55 55 55 54 54 53 54 54 52 52 53 53 55 51 52 54 52 55 53 50 51 55 55 55 56 58 60 59 58 59 52 46 45 45 44 44
45 45 47 49 49 49 49 50 52 52 52 51 53 52 52 52 52 52 53 53 53 53 53 53 53 53 53 54 54 54 54 53 53 53 54 53 52 53 53 53 54 48 47 49 52 49 45 44 45 46 49 55 56 57 55 53 50 48 45 43 42 42 42
45 45 48 49 48 49 50 51 51 51 52 51 52 51 51 52 51 51 52 52 52 52 51 51 51 51 52 54 54 54 54 53 54 53 53 53 53 54 54 53 53 54 49 47 48 48 46 44 44 45 47 47 49 55 56 53 50 46 43 43 43 42 42

ECMWFFLT1_sfc_dewp_105.txt.gz
Dewpoint
63 66 66 66 63 60 61 63 64 65 66 65 65 64 65 66 68 70 70 72 72 73 74 74 74 74 73 73 74 74 74 74 74 74 74 74 74 75 75 74 74 75 74 73 74 74 76 76 76 76 77 77 77 77 78 78 78 76 77 78 77 76 76
63 65 66 67 64 61 61 63 64 64 65 65 65 66 65 66 68 68 70 72 72 73 73 73 74 74 73 73 73 74 74 74 75 75 74 75 76 76 75 75 75 76 76 75 75 76 76 76 76 76 76 77 76 78 77 77 77 77 77 77 76 76 76
63 65 66 67 68 63 62 61 63 64 64 64 64 64 65 67 68 69 70 71 72 72 73 73 74 73 73 74 74 74 74 73 74 73 73 71 73 71 74 75 75 74 74 75 76 75 76 75 77 76 76 76 75 77 78 77 78 76 77 78 77 75 76
63 64 67 68 68 68 65 62 63 63 63 64 65 64 65 68 68 70 70 70 71 71 72 72 72 72 73 74 73 74 74 74 73 72 71 71 72 72 74 74 75 74 75 74 74 74 73 75 76 77 77 76 77 76 76 76 76 77 77 78 77 76 77
62 64 65 67 69 69 67 64 62 64 64 65 67 67 66 67 68 68 69 69 68 70 70 70 70 71 72 73 72 72 73 73 73 73 72 72 74 74 73 72 73 73 73 73 75 76 76 76 75 76 76 77 76 77 77 77 76 78 77 78 77 76 75
61 63 66 67 68 69 69 67 65 64 65 66 67 67 66 67 67 67 68 69 70 71 71 71 70 71 71 71 71 71 73 74 75 75 74 74 74 73 73 73 72 73 72 73 74 74 75 75 74 74 74 73 73 74 74 75 75 75 76 77 76 75 73
62 64 66 68 69 70 70 71 68 67 66 67 67 67 67 66 67 68 70 70 71 72 72 72 71 71 72 71 72 73 73 72 73 73 73 73 73 73 73 73 74 72 72 74 74 74 74 74 75 75 75 73 74 73 75 77 76 76 77 77 77 77 77
64 64 66 67 69 69 70 71 71 70 70 70 69 67 68 69 70 70 70 70 71 72 72 72 71 72 73 72 72 71 71 71 72 73 73 72 72 72 72 73 74 74 74 73 74 74 73 75 74 75 74 74 74 75 75 77 78 75 76 76 76 76 73
66 66 66 66 67 69 68 69 71 71 71 71 71 71 71 71 70 70 70 71 71 71 72 71 71 72 73 73 72 72 71 71 72 72 72 71 70 70 70 71 72 74 73 72 72 74 74 74 73 75 76 75 75 76 76 77 76 76 76 76 77 76 74
67 67 67 68 68 68 68 69 71 70 70 70 70 70 71 69 68 71 72 72 71 71 72 72 72 72 73 73 73 72 71 72 71 70 70 70 70 70 70 70 71 73 72 71 70 71 74 74 74 75 77 75 76 76 76 76 75 75 76 77 77 76 77
66 67 67 67 67 68 68 69 69 68 69 70 70 71 71 72 71 71 73 72 72 73 74 74 74 73 73 73 72 73 72 70 70 70 70 70 69 69 69 70 70 72 72 71 70 71 72 74 75 75 76 73 74 75 76 75 76 76 75 75 76 76 75
65 66 66 67 68 68 67 68 69 69 69 69 70 70 70 70 71 72 72 71 73 72 72 72 74 74 72 73 72 73 74 72 71 71 70 70 69 69 69 70 70 70 71 71 71 72 71 72 73 73 75 75 74 74 75 76 76 76 76 74 75 76 75
64 65 65 66 67 67 67 67 67 68 69 69 69 70 70 70 70 71 71 71 72 72 73 73 73 73 74 74 73 73 73 73 73 72 70 71 70 70 70 70 70 70 70 71 71 71 70 70 72 73 73 74 74 73 74 75 75 76 77 76 76 76 76
63 63 64 65 65 66 66 66 67 67 68 69 69 69 69 71 72 71 71 71 72 72 73 73 74 73 73 74 74 74 73 73 73 72 73 74 74 73 71 70 70 71 71 71 71 70 70 69 70 71 71 72 73 73 74 75 74 76 77 76 75 75 75
61 62 62 63 65 66 66 66 67 68 68 69 69 69 70 70 70 71 70 71 71 72 72 73 73 73 72 72 72 72 73 73 74 75 75 75 75 75 74 72 72 72 72 72 71 69 70 70 69 69 70 70 71 72 72 70 71 72 74 75 75 75 73
60 61 62 62 63 64 65 65 66 66 67 67 68 68 69 70 69 69 70 71 71 71 71 73 73 72 71 71 72 72 72 72 73 74 74 75 75 75 75 73 72 71 71 71 71 72 72 72 71 70 69 69 71 71 70 70 70 74 72 73 73 74 72
60 60 61 62 62 63 63 64 64 64 65 65 66 66 67 67 67 68 69 69 70 71 72 72 71 71 71 71 72 72 72 72 71 72 73 73 73 73 73 73 72 72 73 72 72 72 73 71 71 70 69 69 69 69 68 68 68 71 67 66 68 73 73
59 59 60 60 61 62 62 62 62 63 62 63 63 65 65 66 67 67 68 68 69 70 71 71 70 70 71 71 71 72 71 71 71 71 72 73 72 71 72 72 72 73 73 72 71 73 71 70 70 71 70 69 69 68 67 68 71 66 65 65 65 69 73
58 58 59 60 60 60 60 59 59 59 58 58 59 60 60 61 62 63 65 66 67 69 69 69 69 69 70 71 71 71 71 71 71 71 72 72 71 69 69 71 72 72 72 72 72 71 72 72 71 71 70 69 70 68 68 67 67 64 64 64 63 64 69
57 57 58 59 58 58 58 56 56 57 57 57 58 58 59 60 59 59 61 62 64 65 65 66 66 66 66 67 68 70 71 71 71 71 71 71 71 70 69 70 71 73 74 73 74 73 72 71 71 71 73 72 72 72 70 69 69 64 62 61 62 62 65
56 57 57 57 57 57 58 58 56 56 56 56 57 57 56 57 58 59 59 60 61 62 63 63 63 64 65 65 66 67 67 67 68 69 70 71 71 71 71 71 72 72 72 72 71 71 72 71 71 71 71 70 70 70 69 67 67 63 61 60 59 60 64
56 56 56 56 56 56 56 57 56 56 56 56 55 55 55 56 56 56 57 58 58 59 60 61 62 62 63 63 64 65 66 67 67 67 68 68 70 70 69 70 71 71 73 73 73 72 72 72 72 71 72 72 71 70 70 69 65 64 62 60 59 60 67
54 54 54 54 54 54 55 55 55 55 57 57 55 56 56 57 58 58 58 59 59 60 60 60 60 61 62 62 63 64 64 65 66 66 67 67 66 66 67 67 69 71 72 72 73 73 74 73 72 73 72 72 72 72 72 72 67 62 61 60 59 62 70
51 52 52 53 54 54 55 55 54 55 54 54 55 56 57 57 58 58 57 57 57 57 58 59 60 60 60 61 62 63 64 64 64 65 65 66 66 67 68 68 69 68 70 71 72 72 72 72 72 72 72 72 72 72 72 72 70 63 60 58 59 65 71
50 50 51 52 52 52 53 54 54 54 54 54 53 55 55 56 57 55 55 55 54 56 57 58 59 59 59 60 61 62 63 64 63 64 64 65 66 67 67 68 68 69 70 70 70 70 72 71 71 71 72 72 72 73 72 72 69 62 59 57 58 65 72
50 50 51 51 52 53 54 56 54 53 52 52 53 53 55 53 54 56 54 53 53 53 55 57 58 59 60 60 60 60 61 61 63 63 63 64 64 65 66 68 68 68 69 69 70 70 70 71 70 69 70 70 70 70 71 72 71 65 55 54 55 59 72
49 50 50 50 51 54 51 52 51 52 53 54 54 52 52 52 53 54 55 54 53 53 54 57 59 59 60 60 59 59 60 59 61 61 62 62 64 65 65 66 68 68 68 69 70 70 70 69 69 70 71 71 71 71 71 71 70 65 54 53 55 58 64
49 50 50 53 54 52 50 50 51 51 51 53 52 52 52 53 55 55 55 53 53 53 54 56 58 58 59 59 59 59 60 60 60 60 60 62 63 63 64 65 65 66 67 69 69 69 69 69 69 70 70 70 71 71 72 70 68 69 57 54 54 57 61
52 51 50 51 50 50 49 50 49 49 50 50 51 52 51 52 55 54 54 54 55 54 55 55 56 58 58 58 58 58 58 58 59 59 59 60 61 62 62 64 64 65 65 66 66 67 67 68 69 69 69 68 70 71 71 71 71 68 68 56 52 52 53
53 50 49 48 48 49 50 50 49 49 50 51 52 53 54 55 54 54 54 55 56 55 54 55 56 57 57 57 57 56 57 57 57 58 59 60 61 62 62 62 63 62 63 65 65 65 65 65 66 67 66 65 65 67 69 71 70 66 64 64 56 55 54
51 51 54 50 52 52 50 49 49 48 49 50 52 53 54 54 53 53 54 56 57 56 55 55 55 54 54 55 56 56 55 55 56 56 57 57 59 59 59 60 62 61 62 62 62 63 63 64 64 64 65 65 65 66 68 69 70 69 67 65 63 59 57
52 51 49 51 52 51 51 49 49 49 50 51 51 52 54 52 52 53 54 55 55 55 54 55 55 55 56 55 55 55 54 53 51 52 54 55 56 57 56 57 58 60 60 60 59 60 62 62 63 63 63 64 64 65 65 66 67 66 66 66 65 65 63
51 51 50 49 51 52 51 49 51 51 51 52 52 51 51 52 52 55 56 56 52 53 55 55 55 56 55 55 53 54 55 54 51 50 51 53 52 54 55 56 56 57 58 57 57 58 59 59 60 61 61 62 62 63 64 64 65 64 64 66 66 66 66
50 50 52 52 52 52 52 51 51 52 52 53 54 54 53 52 52 54 54 53 53 54 56 56 55 54 55 53 54 53 53 53 55 54 51 52 53 52 53 53 53 53 54 55 54 54 54 55 57 57 58 59 61 62 63 62 62 62 61 62 61 62 63
51 51 52 52 52 52 52 52 52 52 53 53 54 55 55 55 54 54 56 56 56 56 55 55 56 56 55 54 54 54 55 54 53 53 51 52 53 53 55 52 52 54 55 55 55 54 53 54 54 55 55 57 60 61 61 61 60 62 51 57 50 55 58
51 50 51 51 52 53 53 53 53 52 53 53 54 54 54 54 54 54 53 54 55 55 54 55 54 53 52 53 52 52 52 53 51 52 52 50 50 52 53 56 53 53 54 55 56 53 49 47 55 55 56 58 60 61 59 59 60 51 45 44 43 43 43
52 51 51 51 52 53 53 53 54 54 54 54 54 53 52 52 52 53 53 53 52 52 53 53 53 52 50 52 51 52 52 51 51 53 54 53 52 52 53 51 59 47 48 51 54 50 45 45 45 46 49 56 56 57 56 54 50 45 44 42 42 41 41
52 52 50 51 52 53 53 53 53 53 54 54 53 53 52 51 51 52 50 51 50 50 51 51 51 51 50 50 51 52 53 50 52 52 52 52 53 53 53 54 54 55 50 50 51 50 47 46 46 46 46 47 49 55 58 55 49 43 42 42 41 41 40

ECMWFFLT1_sfc_dewp_108.txt.gz
Dewpoint
63 64 64 64 64 62 61 61 63 63 64 65 66 65 64 64 66 67 68 71 72 72 73 74 73 73 74 73 73 73 72 72 73 72 71 72 72 72 72 71 72 74 72 71 73 73 75 75 75 74 75 76 76 77 79 79 78 76 77 78 77 76 77
63 63 63 64 64 62 62 63 64 63 65 66 66 67 65 65 67 68 70 73 73 72 73 73 74 73 73 73 73 74 74 73 73 73 72 72 73 74 74 73 73 74 75 74 74 75 75 74 74 75 75 76 75 78 77 77 78 78 75 77 75 76 76
63 63 63 64 65 62 63 62 64 64 65 65 65 65 65 67 68 70 71 72 73 72 72 72 74 72 72 73 73 74 74 72 72 71 71 69 71 70 72 73 74 72 72 73 75 73 73 74 75 75 75 75 73 76 77 78 78 76 77 78 76 75 76
63 63 64 65 66 65 63 63 64 64 64 65 66 64 66 68 69 71 71 71 72 72 72 70 71 70 71 72 72 73 73 73 73 70 69 68 70 70 71 73 74 73 72 72 72 73 71 73 74 75 75 76 75 75 75 75 75 76 77 78 76 76 77
62 64 65 67 65 64 63 63 64 65 65 66 68 68 66 68 69 69 70 70 67 69 68 68 66 68 70 70 69 70 72 72 72 71 70 70 71 72 71 71 71 72 73 72 75 75 75 75 74 75 75 76 75 76 76 76 75 77 78 78 76 75 74
61 65 67 67 67 69 66 65 66 66 66 68 69 69 68 69 68 68 69 69 69 70 71 69 66 67 68 68 68 67 70 72 73 73 71 71 72 71 71 72 71 72 71 73 73 73 74 74 73 73 73 72 72 72 73 74 73 74 76 77 76 73 71
61 62 65 65 66 66 66 66 65 65 66 67 69 68 68 69 70 70 71 70 71 72 72 71 69 67 69 69 69 69 70 69 71 71 70 69 70 71 71 72 72 70 70 72 73 72 72 73 74 74 73 72 73 71 73 75 74 74 76 77 77 76 75
61 62 63 65 66 67 67 67 66 65 66 67 67 67 67 69 69 70 71 71 72 73 72 73 71 70 72 70 68 68 68 69 69 70 70 69 69 70 70 70 71 72 72 71 73 73 71 73 72 73 73 72 73 73 73 75 77 74 74 75 76 75 73
62 64 65 66 66 67 68 69 70 68 67 67 68 68 69 69 70 69 70 71 72 72 73 72 71 72 73 72 70 70 68 68 68 69 69 67 67 67 67 68 70 72 71 70 70 72 72 71 71 73 74 73 73 75 74 76 75 74 74 74 76 76 73
65 65 67 68 67 69 69 72 73 71 70 70 69 69 69 70 71 71 71 71 72 72 73 73 72 72 74 74 73 71 70 69 68 66 67 66 66 66 67 67 68 70 70 70 69 69 72 72 72 73 75 74 74 75 75 75 74 74 74 75 76 76 76
66 66 66 67 69 70 70 71 70 70 70 70 70 71 72 71 70 72 72 72 72 72 73 73 73 73 73 74 74 73 70 68 67 67 67 66 65 65 65 66 66 68 69 69 68 69 70 72 73 73 74 71 73 74 75 74 75 75 73 74 74 74 74
66 66 66 67 68 68 68 69 70 70 70 70 71 71 72 71 71 72 72 72 72 72 73 74 74 74 72 73 73 73 73 70 69 68 68 67 66 65 65 65 65 67 68 69 69 70 69 71 71 71 73 73 73 74 74 74 75 75 75 73 72 73 73
65 66 66 68 68 68 68 68 69 70 71 71 71 71 72 72 71 71 71 71 71 73 73 73 74 74 74 74 73 73 72 71 71 70 69 69 68 67 66 65 65 66 67 69 69 70 69 68 71 71 71 72 71 71 73 74 74 75 75 74 74 74 74
65 65 67 67 68 68 68 68 67 69 70 70 70 71 71 72 72 72 72 72 73 73 73 73 74 74 74 73 73 72 72 70 71 70 72 72 72 71 69 67 66 67 68 68 69 69 69 68 68 69 69 69 70 71 72 73 73 74 75 75 73 72 72
63 63 65 65 66 67 67 67 68 68 69 69 69 70 70 71 72 72 72 73 72 72 72 74 73 72 73 74 74 74 74 73 73 74 74 74 74 75 73 71 70 69 68 69 68 67 69 68 67 68 69 69 69 70 69 67 68 69 71 73 72 72 71
62 63 63 64 65 66 67 67 67 68 69 69 70 70 70 70 70 71 71 72 73 73 73 74 73 73 73 73 73 74 75 76 76 74 74 75 76 76 76 74 72 69 69 69 69 70 70 71 70 68 67 68 69 69 66 64 64 72 74 74 72 72 69
62 62 63 63 64 65 65 66 66 67 68 69 70 69 69 70 70 71 71 71 72 72 73 74 73 73 73 73 73 74 74 74 74 75 75 75 74 75 76 74 73 72 72 71 71 71 72 70 69 68 66 65 66 66 64 61 61 73 68 68 71 72 71
61 62 62 62 63 63 63 63 64 65 65 65 66 67 68 69 69 69 70 70 70 71 72 72 73 72 72 73 73 73 73 73 73 73 73 74 74 74 74 74 73 73 74 72 71 73 71 71 70 70 67 64 63 63 63 62 72 67 67 67 67 72 72
60 60 61 61 61 62 62 61 62 63 63 64 64 65 66 66 66 67 68 69 70 72 72 72 71 71 71 71 72 71 72 73 72 72 73 73 73 74 75 74 73 72 73 73 72 72 73 73 71 71 71 68 68 67 65 63 69 65 66 66 65 66 72
60 60 60 60 61 61 61 61 61 61 62 62 63 63 64 64 64 65 65 65 67 68 68 69 69 69 70 71 71 72 72 73 73 73 74 74 74 74 73 74 73 73 73 73 74 73 73 72 72 72 73 72 71 71 69 68 70 65 64 64 64 64 67
60 60 59 59 60 60 61 61 61 62 62 61 61 62 64 64 63 63 63 63 64 66 66 67 67 67 68 69 69 70 71 71 72 72 73 73 74 73 72 72 73 73 73 73 72 72 73 71 72 72 72 71 71 71 70 67 66 63 63 62 62 63 66
58 58 58 58 59 60 60 60 60 60 61 63 59 59 59 60 60 60 63 63 62 62 63 64 65 65 66 66 67 68 69 70 70 71 72 71 72 72 72 72 72 72 73 73 73 72 72 72 71 71 71 72 72 71 71 70 62 63 62 61 61 63 69
57 56 56 57 57 58 58 58 59 59 60 60 59 60 59 59 60 62 62 62 62 63 62 63 63 64 64 65 66 67 67 67 68 68 69 69 69 69 70 71 71 72 73 73 73 73 72 72 71 73 72 72 73 72 72 72 64 60 60 61 60 63 71
54 53 52 54 56 56 56 56 56 57 56 57 57 58 60 60 60 60 60 60 60 60 61 61 61 62 63 64 65 66 67 67 67 67 67 67 67 68 69 70 70 71 73 74 73 72 73 74 73 73 73 73 72 71 71 73 67 59 58 59 60 67 72
54 50 51 51 52 53 54 55 55 54 55 55 54 56 57 58 58 57 57 58 57 58 59 61 61 61 61 62 64 65 65 65 66 66 66 66 66 67 68 68 69 70 71 72 72 72 73 74 74 73 74 72 72 74 73 72 67 56 57 58 60 69 74
58 51 51 51 52 54 55 55 53 52 51 52 53 53 55 53 54 56 54 54 56 56 58 60 62 62 62 61 62 64 65 64 64 65 65 66 66 66 68 69 70 71 70 70 71 70 71 71 72 73 73 72 72 71 71 71 69 63 55 56 58 61 72
53 53 52 51 52 54 51 50 50 50 51 53 52 50 51 52 53 54 54 54 55 56 57 60 61 62 62 62 61 61 63 64 64 64 65 66 66 66 66 68 69 70 70 70 71 70 70 70 71 71 71 72 72 70 69 69 68 66 54 54 55 58 63
52 51 51 53 53 51 49 48 50 49 50 51 50 50 51 54 56 55 55 54 52 53 55 58 60 60 61 61 61 61 62 63 64 64 64 66 67 67 66 67 67 68 69 70 70 69 70 70 70 69 70 70 70 71 70 69 68 67 58 54 53 55 58
56 53 53 52 51 51 50 50 49 48 48 49 50 51 52 52 55 55 55 54 54 53 55 56 57 58 58 59 59 60 61 61 62 62 63 63 65 65 65 66 67 68 69 68 68 68 68 68 69 68 67 68 68 71 71 69 68 66 67 57 54 54 55
55 57 51 47 49 49 47 47 47 48 49 50 52 52 53 54 55 56 55 55 56 55 55 56 57 58 57 57 57 57 59 59 60 61 62 63 63 63 64 64 64 65 66 67 66 65 65 65 66 66 64 64 66 68 70 69 70 67 65 64 58 56 54
52 52 55 56 54 52 48 47 48 48 49 50 52 53 54 54 54 55 55 56 56 57 56 56 56 55 55 56 55 55 55 56 58 59 60 60 61 61 62 63 63 62 63 64 63 64 64 64 64 65 66 66 66 67 67 66 66 66 67 65 65 60 59
52 52 50 51 53 52 51 51 47 48 49 49 49 51 54 52 54 55 55 55 56 56 56 56 56 57 56 55 55 55 53 52 50 52 55 57 57 59 59 60 60 61 61 60 61 62 63 62 62 62 63 63 64 64 63 64 65 65 65 67 66 65 62
51 51 51 50 53 54 51 50 49 50 50 51 51 50 49 51 52 55 56 56 53 54 56 57 56 56 57 56 53 54 54 54 51 48 49 52 52 55 56 58 58 59 60 59 58 59 59 60 60 60 60 61 61 62 62 63 64 63 63 63 63 62 64
52 52 52 52 52 52 51 51 52 51 52 52 53 52 51 51 52 52 54 52 52 52 54 55 54 53 55 53 54 53 53 53 53 53 50 51 52 50 51 52 54 55 56 56 56 56 56 58 58 57 58 59 60 62 62 61 61 62 60 61 60 61 62
54 54 53 52 53 53 53 53 52 53 53 52 55 53 53 53 52 52 54 53 53 54 53 53 54 55 55 54 54 54 55 54 54 52 51 51 55 54 53 51 52 55 56 56 56 55 54 56 56 56 56 58 60 60 60 60 61 60 50 56 48 54 57
54 54 52 52 52 52 52 52 52 52 52 53 54 54 53 53 53 53 52 52 53 53 53 53 54 54 53 53 52 52 52 53 51 53 53 49 50 53 54 56 53 54 55 55 56 53 47 46 57 57 58 59 60 61 59 59 58 48 45 43 42 42 43
53 53 53 54 52 51 51 52 52 53 52 53 53 52 52 52 51 51 51 52 53 53 54 54 53 52 50 52 50 50 52 51 52 54 55 54 53 53 53 54 56 46 49 53 55 50 46 43 44 47 51 57 56 57 53 50 47 44 43 43 42 41 40
53 54 55 56 53 53 52 52 52 52 53 52 52 52 52 50 50 50 48 50 50 51 53 53 52 52 50 49 51 53 52 51 53 53 52 53 54 55 54 53 54 58 48 47 49 46 44 45 45 45 45 47 50 57 60 55 49 44 43 42 42 41 40

ECMWFFLT1_sfc_dewp_111.txt.gz
Dewpoint
63 65 69 70 62 59 60 60 62 61 61 61 61 62 62 63 66 66 66 69 70 72 73 74 73 73 73 72 72 72 71 72 71 72 71 71 71 71 72 71 71 72 69 70 71 70 72 73 72 72 74 75 75 77 79 78 76 74 75 79 75 77 77
62 63 66 70 65 61 60 61 62 60 61 61 62 64 63 64 65 65 66 68 69 70 71 72 74 73 73 74 73 73 73 71 72 73 71 72 73 73 72 72 71 72 74 71 76 72 73 73 74 73 74 75 74 77 77 76 76 77 74 75 74 76 76
62 63 64 66 69 63 63 60 62 61 61 61 62 63 64 66 65 66 67 67 69 70 70 71 74 73 74 74 73 73 72 71 71 71 71 70 71 70 71 72 72 71 71 71 72 70 72 73 74 74 75 73 71 76 77 76 77 74 76 78 75 73 74
62 62 64 66 68 71 65 62 61 61 61 62 64 64 64 66 65 66 66 68 67 68 69 68 70 70 71 73 73 73 73 72 71 69 69 69 72 70 71 72 73 71 70 70 69 70 70 72 72 75 75 74 74 73 74 75 73 75 76 77 73 74 78
63 64 64 65 66 66 64 62 61 62 63 65 67 67 65 65 66 65 66 66 64 65 65 65 65 66 69 71 70 70 71 71 71 70 69 69 70 70 70 70 70 70 71 70 71 72 74 72 72 73 73 75 74 75 75 74 74 76 76 76 73 74 74
63 63 64 64 65 67 64 62 62 61 63 65 66 66 66 66 65 65 67 66 65 66 67 65 63 65 67 67 68 67 70 71 72 72 70 69 70 69 69 69 68 70 71 72 71 70 72 73 72 72 72 71 72 71 73 73 72 74 75 76 74 71 69
65 64 63 65 66 66 66 66 63 64 65 66 67 67 66 66 68 69 71 68 67 68 67 66 65 64 66 67 67 68 69 69 70 69 69 68 68 69 69 70 71 69 71 72 71 71 71 72 73 73 73 71 71 70 72 73 74 72 74 75 75 75 74
64 65 67 66 66 65 63 66 66 66 68 68 67 67 68 68 74 73 69 70 70 69 68 67 66 67 69 66 67 66 66 67 68 69 68 67 66 68 68 69 70 71 72 70 71 73 71 73 71 72 72 70 71 72 71 74 75 72 72 74 73 73 68
65 66 66 67 68 67 67 67 68 69 68 68 70 70 70 70 71 71 71 71 71 69 70 68 66 68 69 67 67 67 65 66 67 67 66 65 64 64 65 67 68 70 70 70 70 72 72 71 72 72 72 71 72 72 72 74 74 73 72 73 74 73 72
66 67 68 68 69 67 68 68 69 68 68 70 70 70 69 70 71 71 72 72 72 73 72 71 70 70 71 72 70 68 66 67 66 65 65 64 64 63 64 65 67 69 68 68 68 69 70 71 73 74 74 73 73 73 73 74 74 72 72 73 74 74 73
65 66 68 69 69 69 69 69 70 71 72 72 72 72 71 72 71 71 71 72 72 73 73 73 73 72 71 72 72 71 68 66 65 65 65 64 63 62 63 64 65 68 70 68 68 67 70 71 72 72 74 71 72 74 73 73 74 73 72 72 73 74 73
66 67 68 68 69 69 69 70 69 71 72 72 74 73 73 73 72 72 73 73 73 74 75 74 74 73 72 73 73 72 71 69 67 66 65 64 64 62 62 62 63 66 68 69 70 67 69 69 68 69 72 73 72 73 73 74 74 74 74 72 72 72 72
65 67 68 67 68 68 69 69 68 69 69 69 72 73 73 73 74 73 73 73 74 74 75 75 75 74 74 74 73 73 71 69 69 68 66 66 65 63 63 63 62 64 67 68 68 66 65 66 68 68 70 73 72 71 73 73 73 75 74 73 73 72 72
66 65 67 68 68 68 68 68 69 68 68 68 69 71 71 71 71 72 72 73 73 73 73 75 75 75 75 74 74 73 71 69 68 67 69 69 70 68 65 64 63 64 65 66 66 66 65 64 66 68 70 71 71 71 73 73 73 74 76 73 73 72 72
65 65 67 67 67 68 68 69 68 69 69 69 69 70 71 72 72 71 71 71 71 71 72 73 74 75 75 75 75 74 74 73 72 71 71 72 73 72 69 67 66 65 66 67 67 65 66 65 65 66 67 70 70 69 68 70 70 70 72 73 73 73 71
63 64 65 66 67 67 68 68 69 69 68 69 69 69 70 71 71 72 72 72 73 73 73 73 72 72 73 73 74 75 76 75 76 75 74 73 73 75 74 71 70 67 67 67 67 68 69 69 68 66 67 67 69 69 66 65 67 72 74 74 72 71 69
63 64 65 65 66 67 67 68 69 70 70 70 70 69 69 70 70 71 72 73 73 74 74 74 73 72 72 72 73 74 75 75 75 75 75 75 76 76 76 74 72 71 71 69 68 70 72 70 69 67 67 66 66 68 66 64 64 70 67 69 71 72 71
62 64 64 64 65 65 66 66 67 67 68 69 69 70 70 70 70 70 71 71 72 73 74 74 73 73 72 72 73 73 73 73 73 73 73 74 73 74 75 76 76 74 74 71 69 71 68 68 69 70 67 67 68 68 67 65 70 65 66 67 68 73 70
61 62 63 64 64 65 64 64 66 66 66 67 68 68 69 70 70 70 70 71 72 73 73 73 73 72 72 72 72 73 73 73 73 73 72 72 72 72 72 72 74 75 73 72 72 71 72 72 69 68 67 66 66 64 64 62 65 64 65 66 66 68 72
61 61 62 63 63 63 63 63 63 64 65 66 66 67 68 69 69 69 69 69 70 71 72 72 71 71 71 72 73 74 72 73 72 72 73 73 73 73 73 73 72 74 74 73 75 72 71 71 71 69 71 69 67 70 65 65 66 64 65 65 65 66 70
61 62 62 62 63 63 63 63 63 63 64 64 65 66 66 66 66 67 68 69 69 69 70 70 70 71 71 71 72 72 73 72 71 71 72 73 72 72 72 72 74 74 74 76 74 72 72 72 72 69 70 69 67 67 65 62 65 64 64 64 64 65 70
60 60 60 61 62 63 63 63 63 62 62 63 63 63 63 64 65 65 65 66 66 67 68 68 68 68 69 69 69 70 70 71 71 71 71 71 71 71 71 71 75 75 76 75 74 73 75 74 70 68 69 70 69 67 66 66 60 62 63 62 63 66 70
59 59 59 60 59 59 60 61 61 61 62 63 61 62 62 63 64 64 64 65 65 65 65 66 66 66 67 68 69 69 69 70 70 69 69 70 70 69 69 72 74 75 75 74 73 73 72 71 71 72 71 70 70 70 71 70 63 59 59 60 61 66 70
58 58 57 58 58 57 58 57 57 58 58 59 60 60 61 62 62 62 62 63 64 63 62 62 63 64 65 66 66 68 68 68 68 69 69 69 69 70 70 71 72 72 74 74 73 72 73 73 73 73 73 72 71 72 71 70 63 57 57 58 60 65 72
54 53 53 53 53 55 56 56 55 55 56 55 55 59 58 59 60 60 59 60 60 61 61 63 62 62 63 64 65 66 67 67 67 67 67 68 68 69 69 70 70 71 73 74 73 73 74 74 72 73 73 73 72 71 70 69 65 57 57 57 59 68 74
51 51 52 53 53 54 55 55 53 51 51 51 52 51 54 55 56 58 57 56 58 58 58 61 63 62 62 62 63 63 64 65 66 67 67 67 67 67 68 69 70 70 71 71 71 71 71 72 73 72 72 72 71 69 69 69 66 63 55 56 57 60 71
51 51 51 49 49 52 48 47 47 47 47 50 52 52 53 53 54 55 55 56 57 58 58 61 62 63 63 63 62 61 62 62 63 64 65 66 67 67 68 69 70 70 69 69 70 70 70 71 70 70 70 70 71 70 69 68 68 65 55 54 56 58 64
52 48 46 51 54 52 49 48 49 49 48 50 50 49 51 55 57 57 56 55 54 55 56 59 61 61 61 63 63 63 63 62 62 63 64 65 66 67 67 67 68 69 69 69 69 69 70 70 70 70 70 69 70 70 69 68 68 67 60 56 55 55 58
56 55 54 51 49 49 46 46 47 48 51 51 51 52 52 54 56 56 55 55 55 54 55 56 57 59 59 61 61 62 63 63 63 61 61 62 64 65 66 68 68 69 69 69 69 69 69 69 70 70 70 70 71 70 69 68 68 66 67 59 56 54 56
57 57 57 56 55 53 49 49 49 50 50 51 52 53 54 55 56 56 56 56 57 56 56 57 57 58 58 57 58 60 61 62 62 62 62 63 64 64 64 65 66 67 67 67 67 67 66 67 67 67 66 67 68 67 68 67 67 65 66 64 59 57 56
51 50 53 55 55 54 55 55 54 49 51 50 52 54 56 55 55 56 56 57 58 57 57 57 57 56 55 56 55 55 55 57 60 61 62 62 61 62 62 63 64 63 65 65 64 65 65 65 66 66 66 66 67 67 66 66 66 65 66 65 63 59 59
50 48 47 47 51 54 55 55 54 50 50 51 51 53 56 54 53 54 55 55 56 58 58 57 57 57 57 55 55 54 53 52 52 54 58 60 60 60 60 60 61 62 62 62 63 64 64 63 62 63 65 65 65 65 64 65 65 65 65 65 65 63 59
50 49 48 49 51 53 53 53 53 53 53 52 53 54 53 52 52 55 55 55 53 54 57 58 57 57 56 56 54 53 52 51 51 50 49 52 53 57 59 59 58 61 61 60 59 60 60 60 61 60 59 62 62 63 64 64 64 63 63 63 62 61 63
51 50 51 53 53 53 52 53 53 53 54 54 55 55 53 52 52 52 54 52 53 55 56 55 55 55 55 52 52 52 53 51 51 53 50 49 51 51 53 54 57 57 57 56 56 56 55 56 58 58 58 57 58 61 62 62 61 60 60 60 60 60 61
53 53 54 53 53 54 53 54 54 54 53 53 55 54 54 53 53 53 54 54 55 56 55 56 56 55 55 55 55 53 55 54 53 51 51 53 56 52 53 50 51 57 56 53 55 54 54 56 56 58 58 58 60 61 61 61 59 57 49 56 48 54 57
54 54 53 54 54 54 54 54 54 54 54 54 53 52 52 52 53 53 52 55 54 54 55 54 54 54 52 53 51 52 53 53 52 52 53 50 51 56 54 55 52 54 53 53 56 51 47 50 56 57 59 60 61 60 59 57 56 48 44 43 43 43 43
58 56 53 52 51 51 52 52 53 53 54 54 53 52 52 51 50 51 51 53 54 54 55 54 54 53 50 51 49 48 53 51 52 54 55 54 53 54 55 53 55 46 48 55 55 48 42 42 43 46 49 57 57 56 51 50 47 43 42 42 42 41 41
58 58 58 58 57 53 52 52 52 53 53 53 52 51 52 50 50 51 49 51 52 53 54 55 55 54 51 50 51 53 53 52 53 54 53 54 55 56 54 55 57 56 50 45 47 45 43 42 42 43 45 46 51 58 60 53 48 43 42 42 42 42 41

ECMWFFLT1_sfc_dewp_114.txt.gz
Dewpoint
65 67 67 68 59 58 59 60 62 62 64 62 61 60 61 61 66 68 69 72 73 73 74 74 74 74 73 73 73 74 73 74 73 72 74 75 74 75 73 71 73 76 73 72 72 73 76 77 75 74 76 77 77 78 79 79 79 76 78 80 79 80 79
62 64 66 68 64 58 60 61 62 62 63 62 61 64 62 62 66 66 69 72 72 72 73 73 74 74 73 73 73 74 74 74 74 75 72 75 76 77 74 74 74 75 77 74 80 77 75 74 74 75 75 76 75 79 76 78 78 77 77 78 78 79 78
59 62 64 67 68 62 61 59 62 62 62 60 60 60 62 67 66 68 69 69 72 73 72 72 74 72 73 73 73 74 73 72 73 71 70 69 70 70 73 74 73 72 72 73 77 73 73 73 77 76 76 75 72 77 78 77 78 76 78 78 76 76 78
58 60 65 67 69 71 63 61 62 62 60 61 62 60 62 68 65 69 68 69 70 71 72 71 71 71 72 73 72 73 73 73 72 70 69 69 70 69 71 73 75 72 73 72 71 71 70 73 73 76 76 76 76 76 76 76 74 76 77 79 78 76 78
63 62 64 67 68 68 68 62 62 64 62 64 66 66 64 65 65 65 66 67 67 69 69 69 69 70 71 71 70 70 71 70 71 70 70 70 73 72 71 69 70 71 73 71 74 75 78 76 73 75 75 77 74 76 75 75 75 77 77 77 77 76 76
62 63 63 67 67 69 69 71 64 63 64 66 66 67 66 66 64 63 65 66 66 69 70 69 68 69 69 70 70 69 71 72 73 73 72 72 72 70 70 71 70 70 71 72 71 72 73 73 72 73 72 72 71 72 72 73 73 73 76 77 76 74 72
63 63 64 66 68 69 68 68 68 68 65 68 68 67 67 66 67 68 69 68 69 71 71 68 66 67 69 69 69 70 70 69 70 69 69 67 71 70 71 71 72 68 69 72 72 71 73 73 73 73 73 71 73 70 74 76 75 74 77 77 77 77 77
62 63 63 65 66 67 66 67 68 68 71 68 68 67 67 69 74 74 74 69 69 71 70 69 65 68 70 69 68 67 68 69 69 69 69 67 66 68 68 69 71 70 71 69 71 71 70 72 71 73 73 71 71 73 73 75 77 71 74 75 76 74 71
62 65 64 64 65 66 67 66 67 67 69 69 68 68 70 72 73 73 72 72 73 71 70 67 65 69 69 69 67 68 67 67 68 68 68 66 65 65 65 67 68 70 70 68 69 70 71 71 70 75 75 74 74 76 74 75 73 73 74 75 75 74 71
66 66 66 66 68 69 67 66 68 68 69 69 70 72 74 75 75 75 75 75 73 72 71 68 69 68 71 71 70 65 65 67 67 66 66 65 65 64 65 65 66 69 70 69 68 68 72 72 72 76 76 74 75 74 75 74 73 72 72 74 75 74 75
67 67 68 70 70 71 71 71 71 72 72 73 73 74 74 73 74 73 73 73 74 74 73 73 72 73 71 70 69 69 65 63 64 65 65 64 63 63 63 63 64 68 69 69 68 69 70 72 72 75 75 72 72 73 75 73 75 74 71 72 72 73 72
67 67 68 68 68 69 69 72 73 72 73 74 72 71 72 72 73 73 72 73 74 73 75 75 75 74 68 72 72 73 72 66 64 64 64 64 63 62 62 62 63 64 67 68 70 70 69 70 70 72 73 73 73 73 74 76 75 75 74 71 71 73 73
67 67 67 67 68 69 70 70 69 70 72 74 73 73 73 74 73 73 72 73 73 74 73 73 75 75 74 75 72 71 71 68 69 67 64 65 64 63 63 62 62 62 65 68 69 69 68 69 70 71 70 73 73 72 75 75 73 76 76 74 74 74 73
66 66 67 69 68 68 69 69 69 70 71 73 73 74 75 75 74 72 73 73 73 73 72 73 75 75 75 75 74 73 69 68 67 66 71 72 73 70 64 62 62 63 65 69 68 68 68 68 68 68 70 71 72 73 73 74 73 75 76 74 73 73 73
66 65 66 66 67 68 68 69 69 69 69 71 72 72 72 73 73 74 74 74 73 73 74 76 77 76 76 76 75 75 76 75 74 74 75 75 76 77 73 69 66 67 70 70 67 66 67 67 67 67 69 69 72 72 72 71 72 73 73 73 73 72 72
63 64 65 66 67 66 67 67 69 68 68 70 70 70 69 69 70 71 72 72 72 73 73 74 76 75 76 76 76 77 76 76 76 77 78 77 76 75 75 72 71 67 66 68 68 70 73 72 70 67 67 68 71 71 70 69 70 74 74 74 74 74 71
63 65 66 65 65 66 67 68 68 69 69 69 69 68 68 70 70 70 70 71 71 72 72 72 73 73 73 74 75 76 76 75 76 76 76 75 76 77 77 77 76 75 74 73 73 74 74 73 72 67 69 68 68 69 69 68 68 71 68 69 72 73 74
63 64 65 65 66 66 65 66 67 67 68 69 69 70 70 70 70 69 70 71 71 72 73 74 73 72 72 72 73 74 74 75 75 74 74 73 73 74 75 75 75 76 75 74 73 74 72 71 70 71 70 68 68 67 67 68 72 65 65 67 68 73 73
64 66 64 66 65 65 66 66 65 66 66 67 68 68 70 71 71 71 72 72 72 72 73 73 73 73 72 73 73 73 73 74 73 73 73 72 72 72 72 73 73 73 74 74 74 75 73 73 72 72 73 71 70 67 66 68 68 64 64 65 65 67 73
65 65 64 64 65 65 65 65 66 67 67 67 68 69 69 70 71 69 69 70 71 72 72 72 72 73 72 72 72 73 73 73 73 72 72 73 73 73 71 70 72 73 76 76 76 74 73 72 73 73 73 72 72 73 71 69 65 62 62 63 64 66 70
63 62 62 63 63 63 65 66 67 67 66 67 68 68 68 68 68 68 68 69 69 70 69 69 69 70 71 71 71 72 73 72 73 72 72 73 73 74 74 74 75 73 75 76 75 74 74 75 74 73 72 71 70 70 68 68 63 62 62 63 64 66 71
62 63 62 62 62 62 62 64 64 64 65 67 67 67 66 66 67 67 67 67 67 68 67 68 69 69 69 68 69 70 71 71 71 71 71 71 72 72 72 72 72 72 73 75 75 75 75 75 74 73 72 73 72 70 69 67 61 61 61 60 61 65 71
59 59 59 60 60 61 62 62 62 61 62 63 62 63 64 64 65 65 65 65 66 66 67 67 67 68 69 69 69 70 71 71 70 69 69 70 70 70 71 71 71 72 73 73 73 74 74 74 72 73 72 72 72 73 72 70 62 59 58 59 61 68 72
58 56 55 55 53 51 59 62 60 60 61 61 61 62 64 64 65 65 63 63 63 63 63 64 65 66 67 68 69 70 71 70 70 70 70 70 70 70 70 71 71 71 73 73 73 73 73 74 74 73 73 72 72 72 71 70 62 57 57 58 60 67 72
53 53 54 52 51 49 48 50 52 51 54 55 55 58 61 63 64 62 61 62 61 61 61 64 64 66 66 65 67 69 70 69 69 70 69 69 69 69 70 71 71 72 72 72 72 73 73 73 73 72 73 72 72 72 71 68 64 56 56 57 59 67 73
50 48 48 48 48 48 49 52 50 50 50 51 53 54 55 54 55 59 58 57 58 59 60 62 63 64 64 64 65 67 68 68 69 68 68 68 68 69 70 70 71 71 72 72 72 72 72 71 72 72 72 72 72 72 69 67 65 62 55 56 57 60 71
48 48 48 48 48 53 49 49 49 48 50 53 54 54 56 56 54 55 57 57 57 57 59 61 63 64 65 65 63 63 65 67 67 67 68 68 69 69 69 70 70 71 70 70 70 71 70 69 69 69 70 71 70 69 68 67 65 63 55 55 56 58 66
50 50 48 48 51 50 47 47 49 49 49 51 52 53 53 55 56 57 56 55 54 55 56 58 61 62 62 64 64 64 64 64 68 67 66 68 69 69 69 70 71 70 69 69 69 68 69 69 69 68 69 70 69 69 69 69 68 67 58 56 55 56 60
55 55 53 53 51 48 46 47 49 49 49 49 51 53 54 55 56 56 55 55 56 55 56 56 56 58 59 62 63 63 64 65 65 64 64 65 67 68 69 70 70 70 71 71 70 70 68 68 69 69 69 68 69 68 68 68 68 66 65 58 55 55 56
53 53 53 53 55 55 54 52 50 50 50 51 52 52 52 54 56 56 56 56 57 57 57 58 58 59 58 58 60 60 63 63 63 64 65 66 67 68 68 68 68 70 71 70 69 69 68 69 67 67 67 66 67 67 67 67 67 66 66 64 58 56 55
49 49 49 50 53 56 56 54 54 54 54 54 53 54 55 53 54 55 55 56 59 59 59 58 58 57 55 56 56 58 58 60 62 63 64 63 65 66 68 66 67 66 65 66 66 68 68 69 68 68 68 67 67 67 66 66 66 66 67 65 62 58 57
46 45 44 47 50 51 53 55 55 53 51 54 54 55 56 54 55 58 58 58 57 56 59 59 57 58 58 56 54 54 55 57 59 60 56 60 60 62 64 63 62 66 67 66 67 67 67 66 65 66 67 67 67 66 66 67 66 66 64 64 66 63 59
46 45 46 49 53 53 52 53 54 55 55 55 58 57 56 55 52 57 59 57 52 52 57 57 58 59 58 58 53 54 55 53 54 59 58 58 64 59 58 65 62 60 59 58 56 58 61 61 63 65 62 63 63 64 65 63 61 61 62 62 62 62 62
49 49 51 53 55 54 54 54 54 54 53 55 57 57 58 57 57 58 57 58 57 56 57 57 55 54 54 52 51 52 52 49 53 56 52 54 57 52 50 54 58 58 52 50 50 52 54 56 59 58 59 59 62 63 62 60 59 57 57 58 57 58 60
51 52 53 54 53 53 53 53 53 52 53 54 53 55 56 56 56 57 58 57 57 59 60 59 59 57 56 55 57 64 59 57 54 53 54 54 57 54 54 53 52 55 54 55 56 53 50 53 53 56 58 59 59 61 61 59 57 56 51 53 48 52 56
53 53 53 54 54 55 55 56 56 55 54 53 50 49 51 54 55 55 55 57 59 59 59 57 56 54 54 53 50 52 54 54 51 53 54 51 53 51 53 55 50 54 53 53 55 48 47 51 56 56 59 60 57 58 56 55 56 49 45 43 43 43 43
55 56 55 55 54 55 56 55 55 55 55 54 53 51 51 51 51 52 54 55 56 56 58 58 58 55 52 53 52 54 55 51 52 56 59 56 54 56 55 52 55 45 45 51 51 46 41 41 42 46 50 60 54 52 51 50 46 43 43 43 43 42 41
56 58 59 58 55 55 54 54 54 54 54 53 52 52 52 50 50 52 50 52 52 55 55 54 55 57 55 53 53 56 58 55 55 55 55 58 59 58 60 57 55 56 46 43 47 46 42 41 42 42 43 46 53 60 57 50 43 40 42 42 43 43 42

ECMWFFLT1_sfc_dewp_117.txt.gz
Dewpoint
68 66 66 67 59 59 60 61 61 63 64 64 62 62 64 67 68 70 71 72 73 74 74 73 73 73 73 72 73 73 71 73 73 72 72 73 73 73 73 74 73 73 73 73 73 73 74 75 74 74 76 76 76 78 78 78 78 78 78 77 78 77 76
67 68 67 67 64 58 59 61 61 62 62 63 61 62 64 67 68 69 70 71 72 73 74 74 73 73 72 72 72 74 72 73 73 75 72 74 74 73 73 73 74 74 74 73 73 73 75 75 74 74 76 77 76 76 78 78 77 77 77 77 77 77 77
64 66 67 66 68 61 59 60 61 63 62 62 61 62 63 67 68 69 70 71 72 73 73 73 73 73 72 73 72 73 72 73 72 73 72 73 73 73 73 74 73 73 74 74 75 74 74 73 74 74 75 76 75 76 77 77 77 76 76 77 76 77 76
63 64 66 66 67 69 64 60 60 63 62 61 61 62 64 67 68 70 70 71 71 72 72 72 72 72 72 72 72 72 72 72 72 72 71 71 73 71 73 73 73 73 73 73 74 73 72 72 73 75 77 75 75 76 76 76 76 76 77 76 76 76 76
63 63 64 65 67 67 69 61 61 62 61 62 62 63 65 67 68 70 70 71 71 71 72 72 71 72 72 71 72 71 72 71 71 71 70 70 71 72 71 72 72 71 73 71 72 74 76 73 74 75 74 75 75 76 76 76 75 75 76 76 76 75 76
61 62 63 64 67 68 69 66 61 62 61 62 62 63 66 66 69 69 70 71 71 71 72 71 70 71 71 71 71 71 71 71 71 72 71 71 70 71 70 71 71 70 72 71 73 72 75 73 73 74 74 75 74 75 75 75 75 75 76 76 76 74 76
61 60 61 64 67 68 69 68 62 62 62 63 62 66 66 67 68 68 69 70 71 71 71 71 71 71 71 70 70 71 70 71 70 71 71 72 71 70 71 71 72 70 71 73 72 72 72 73 72 73 73 72 73 72 73 74 74 74 75 75 75 75 75
61 61 61 63 67 68 69 69 69 65 65 64 63 67 65 66 67 68 68 69 70 71 71 70 70 71 71 71 70 71 70 70 70 70 70 69 70 70 71 71 72 71 71 71 72 72 72 74 72 73 72 72 72 72 73 74 75 74 74 75 75 75 74
62 63 63 65 67 68 69 70 69 69 69 65 66 66 66 69 68 67 68 68 70 70 70 70 69 70 70 70 70 70 70 70 70 69 69 68 70 69 69 70 70 71 70 70 71 71 72 72 72 73 73 72 73 72 74 74 74 74 73 74 75 74 73
67 67 68 69 69 69 68 70 70 68 68 68 68 69 69 70 71 69 68 69 70 69 69 69 69 69 70 70 69 69 69 69 69 68 68 68 67 68 68 69 69 70 69 69 70 70 71 72 71 73 73 73 73 75 73 74 73 73 73 73 74 74 74
67 68 67 67 68 68 67 67 67 66 67 69 71 72 72 72 72 72 70 71 70 69 68 68 69 69 69 69 69 68 68 68 68 68 68 67 67 66 66 66 68 70 69 69 69 69 70 72 73 75 75 73 74 73 73 74 73 73 73 73 73 74 73
67 69 68 67 68 68 67 67 67 68 70 71 72 72 72 71 71 72 72 73 74 72 72 70 72 69 68 68 68 67 67 67 67 67 67 67 66 65 65 65 65 69 70 69 69 69 70 71 71 75 74 73 73 73 73 73 74 74 74 73 72 73 73
65 67 67 67 67 68 69 69 69 71 71 70 70 70 71 71 71 71 72 73 74 74 72 73 74 72 68 69 68 68 68 67 66 66 66 67 65 64 64 63 63 67 69 70 69 69 69 70 70 73 73 73 73 73 74 73 74 74 74 74 73 72 73
66 67 66 67 67 67 68 68 69 70 70 69 69 70 71 72 72 71 72 72 73 73 73 74 74 74 73 72 71 71 70 69 70 69 68 67 67 67 66 63 62 63 68 69 69 69 69 69 69 71 72 72 72 73 74 74 74 74 75 75 73 73 73
65 66 66 65 66 66 66 67 68 69 71 72 71 71 71 71 71 71 71 71 72 72 73 74 74 73 73 73 72 72 72 72 72 75 76 74 74 73 74 74 71 70 69 69 69 69 69 69 69 69 70 71 72 72 73 73 74 74 74 75 74 74 73
63 65 65 65 65 65 66 66 67 68 69 69 68 70 70 71 71 72 72 71 71 72 73 74 74 73 72 72 71 68 70 72 76 76 75 75 75 76 75 75 74 72 71 72 72 71 70 69 69 68 69 69 71 72 72 73 72 73 73 75 74 73 73
63 63 64 65 66 66 65 66 66 67 67 68 68 68 68 69 70 70 71 70 71 72 72 73 72 73 72 72 71 70 71 70 71 72 72 72 72 74 74 75 75 75 74 73 72 73 72 70 70 70 70 69 70 71 74 72 73 71 66 67 73 73 71
62 63 63 64 64 66 66 65 66 66 67 68 68 69 69 70 70 70 70 70 70 71 72 72 71 71 72 73 72 71 71 72 73 72 72 71 71 71 71 72 74 75 74 74 73 72 72 71 72 70 71 73 73 71 71 73 72 66 64 64 65 70 72
64 63 63 64 64 65 65 65 65 66 67 67 67 67 68 68 68 68 70 70 71 71 71 71 71 70 71 72 72 70 70 71 71 70 72 71 71 71 70 70 70 72 73 74 74 73 73 73 73 73 72 71 70 71 72 70 68 64 63 63 63 65 70
63 63 64 64 65 65 65 65 66 66 66 66 67 68 68 68 68 68 69 69 70 71 70 71 72 72 71 71 71 71 72 71 70 70 71 71 71 71 70 69 68 70 72 75 74 72 72 72 72 73 73 73 72 71 69 70 66 61 61 62 63 64 67
63 63 63 63 64 64 65 66 66 66 67 67 68 68 68 68 68 68 68 68 68 68 69 69 69 69 69 69 70 71 72 72 72 72 72 72 72 72 71 71 72 73 74 73 73 73 73 73 73 72 71 71 70 69 68 68 64 61 62 62 63 65 70
63 63 63 64 63 63 64 64 65 66 67 68 68 68 68 67 67 66 66 67 67 67 67 67 68 69 69 69 69 70 70 71 71 70 71 71 71 71 71 71 71 71 72 73 73 73 75 75 74 73 72 71 70 70 68 66 59 60 60 61 62 64 70
55 55 56 58 61 65 65 65 65 65 66 66 66 66 66 66 66 65 65 65 65 66 66 66 66 67 68 69 70 70 71 71 70 70 69 70 70 70 70 70 70 71 71 71 72 73 73 73 73 73 73 72 72 71 70 68 60 57 58 60 61 68 73
55 50 48 49 51 52 57 58 59 60 62 63 64 65 65 65 65 64 63 63 64 64 64 64 65 66 66 67 69 70 70 71 70 69 69 69 69 69 70 70 70 70 71 71 71 71 72 73 72 72 73 73 72 71 70 66 60 57 57 57 60 69 73
50 48 48 48 49 50 52 56 60 61 61 58 57 56 58 63 62 61 61 62 62 62 62 63 64 64 64 65 66 68 69 70 70 69 69 69 69 70 70 69 70 70 71 70 70 71 71 71 71 71 72 72 72 73 69 66 63 56 57 57 58 68 72
52 49 49 48 48 49 51 53 53 54 56 57 56 59 59 56 56 58 58 59 60 60 61 63 63 63 64 64 64 66 67 69 70 70 69 69 69 70 70 70 71 71 71 70 70 70 70 70 70 70 71 72 72 70 67 65 64 62 56 56 58 63 73
49 49 48 48 50 53 48 49 50 51 52 54 57 58 56 56 55 56 57 56 57 59 59 60 62 62 63 63 63 63 64 66 68 68 68 69 70 70 69 71 70 70 70 70 70 69 68 68 68 69 69 71 71 68 66 65 64 62 55 55 57 62 67
47 47 49 52 54 52 49 49 49 50 51 52 54 55 55 55 56 56 56 56 55 54 56 57 59 60 60 61 61 62 63 64 68 66 66 67 69 70 69 70 70 70 69 69 69 68 68 68 68 68 67 67 68 68 68 67 66 64 58 56 55 57 62
53 53 52 50 51 53 51 50 50 50 50 50 51 53 55 56 57 57 57 57 57 58 58 56 56 58 59 59 60 61 62 63 63 66 66 67 69 69 68 69 70 69 70 69 69 68 67 68 68 66 65 65 65 66 66 67 66 65 64 57 55 54 56
51 53 54 55 55 54 54 53 53 52 52 52 53 54 55 57 57 57 56 56 57 57 59 61 61 59 59 60 60 61 61 61 61 59 66 67 67 68 68 67 67 69 69 69 69 68 67 67 66 64 63 63 63 64 65 66 66 65 65 63 55 54 54
48 50 52 52 53 55 54 52 53 54 54 54 56 57 57 57 57 56 55 56 58 58 57 59 60 60 59 55 56 61 59 59 57 59 57 58 59 59 62 65 63 59 57 60 65 68 67 67 66 65 64 62 62 64 66 67 67 65 65 65 64 58 57
48 49 50 51 52 54 55 55 55 55 56 57 56 57 58 57 56 57 57 57 58 58 59 59 60 58 58 58 58 56 58 57 57 57 56 56 57 61 60 58 56 57 54 53 54 58 66 67 67 66 65 64 63 64 65 61 60 59 59 61 62 62 59
48 48 50 51 53 54 54 54 54 55 56 56 57 57 57 56 56 57 57 57 58 59 59 59 59 61 58 57 55 56 58 59 60 58 59 55 54 55 57 60 58 55 57 55 50 52 59 62 67 66 67 66 62 58 59 57 57 56 56 56 56 57 59
49 52 54 54 55 56 55 54 53 54 55 55 54 56 56 56 57 57 56 56 58 58 59 61 60 56 54 56 58 58 58 59 58 58 57 57 54 52 52 53 55 53 54 56 54 51 52 55 59 60 61 61 60 59 57 56 55 54 54 55 55 56 57
52 53 54 55 56 57 55 54 54 53 54 54 53 55 55 54 55 57 58 58 58 59 59 59 60 58 54 54 54 57 60 59 57 56 54 52 55 55 56 54 55 55 54 56 54 53 53 54 57 58 56 57 59 58 56 55 55 55 49 53 49 51 54
54 54 54 56 56 56 56 56 54 54 53 51 51 52 53 54 54 55 56 56 57 58 58 58 60 59 56 54 53 56 57 57 57 58 57 50 50 51 51 54 48 52 57 57 56 50 45 48 55 57 55 53 54 56 54 53 54 50 46 44 43 43 43
54 54 55 55 55 56 57 56 57 56 54 52 52 51 51 52 53 53 54 56 56 56 55 55 57 58 57 56 55 58 58 57 56 57 58 59 57 52 53 52 53 43 46 52 51 47 41 41 42 48 53 55 50 52 50 50 46 43 43 43 44 42 43
56 56 57 56 57 56 55 55 56 55 55 54 54 53 52 51 51 52 52 54 55 55 54 54 53 53 56 57 58 58 59 58 59 57 57 57 58 59 57 55 55 55 46 43 47 46 42 41 41 41 44 50 53 54 51 45 42 41 42 42 42 42 42

ECMWFFLT1_sfc_dewp_123.txt.gz
Dewpoint
62 64 61 57 55 54 54 57 60 61 62 64 64 65 66 67 68 69 68 68 69 69 70 71 72 72 72 72 72 72 72 72 72 72 71 70 70 71 71 71 70 70 70 70 71 72 72 73 73 73 74 74 74 74 75 75 75 76 74 74 75 75 74
61 63 64 61 57 55 54 56 59 61 62 63 64 65 66 67 68 68 69 69 69 69 70 71 72 72 72 72 72 72 71 71 73 73 72 72 72 71 72 72 71 71 71 71 72 73 72 72 73 73 73 74 74 74 75 75 75 75 75 74 74 75 74
60 62 64 64 59 57 55 55 58 60 61 62 63 64 66 67 68 69 69 69 69 70 70 71 72 72 72 72 72 72 72 71 72 73 72 71 72 71 72 73 72 72 72 72 72 73 74 72 73 73 73 74 74 74 75 75 75 75 75 74 75 75 74
59 60 63 65 64 60 58 56 57 59 61 62 63 64 66 67 68 69 69 69 69 70 70 70 71 71 71 72 72 72 72 71 71 72 72 71 72 72 72 73 73 73 73 73 72 73 73 73 73 73 76 74 74 74 75 75 75 75 75 75 74 75 74
59 59 62 65 66 64 60 58 58 58 60 61 62 65 66 67 68 69 69 70 69 70 70 70 71 71 71 72 71 71 72 71 71 71 71 72 72 72 72 72 73 73 73 73 73 73 73 73 73 73 74 74 74 75 75 76 76 76 75 75 74 74 74
59 59 61 63 66 67 63 60 58 58 59 61 62 64 66 68 69 69 70 70 70 70 71 71 71 71 71 71 71 71 71 71 72 72 71 71 72 72 72 72 72 73 73 73 73 73 73 73 72 73 73 74 74 75 75 75 76 76 75 75 75 74 74
60 60 60 62 64 66 67 63 61 60 60 61 62 64 67 68 69 69 70 70 71 71 71 71 71 71 71 72 71 72 71 71 71 71 71 71 72 72 72 72 73 72 72 73 73 73 73 72 72 72 73 74 74 74 75 75 75 75 75 74 74 74 74
61 61 61 61 63 66 67 68 64 63 63 63 62 64 66 68 69 69 70 70 71 71 72 71 71 72 72 72 71 71 71 71 71 71 71 71 71 72 71 72 72 73 73 72 72 73 73 73 72 72 72 72 73 74 74 75 75 75 75 74 74 74 74
64 64 63 63 63 65 67 67 66 64 64 63 63 65 66 68 69 69 70 71 71 72 72 72 72 72 72 72 71 71 71 71 71 71 71 70 70 71 71 71 72 72 72 72 72 72 72 72 72 72 72 72 72 73 73 74 74 74 74 74 74 74 74
64 64 66 67 67 66 67 67 66 65 65 64 64 66 67 67 68 69 70 71 71 71 72 72 72 72 72 72 71 71 71 70 70 70 71 70 70 70 70 70 71 72 71 71 71 71 72 72 72 72 73 73 73 73 73 73 74 74 74 74 74 74 74
65 65 66 65 66 66 66 66 66 66 66 66 65 66 67 68 68 69 70 70 71 71 72 72 72 72 72 72 71 71 70 70 70 70 70 70 70 70 70 70 70 71 71 71 71 71 71 72 72 72 72 72 72 72 72 72 73 73 74 74 74 74 73
64 64 64 64 65 65 65 66 66 67 68 68 69 68 68 68 70 70 70 71 71 71 72 72 72 72 72 71 71 71 70 70 70 69 69 69 69 70 70 70 70 70 71 71 70 71 71 71 71 71 71 72 72 72 72 72 73 73 73 73 73 73 73
64 63 64 64 65 65 65 66 66 67 68 68 69 69 69 69 69 69 69 69 70 69 69 70 71 72 72 71 71 70 70 70 70 70 69 69 69 69 69 69 69 70 70 71 70 70 70 71 71 72 71 71 71 71 72 72 73 73 73 73 73 73 73
64 64 64 64 64 64 64 65 66 67 68 68 69 69 69 69 69 69 69 69 70 70 70 71 70 70 70 71 71 70 71 71 70 70 70 70 70 69 69 69 69 69 70 71 70 70 70 70 70 71 72 71 71 72 72 72 72 73 73 73 72 72 72
62 63 63 64 64 64 64 65 66 66 67 68 69 69 69 69 69 69 69 70 70 70 70 71 70 70 69 69 70 70 71 71 71 71 71 71 70 70 69 68 68 69 69 70 70 70 70 70 70 70 71 72 72 72 72 72 72 73 73 72 72 72 72
62 63 63 63 64 64 64 65 66 66 67 67 68 68 68 68 69 69 69 69 70 70 70 71 70 69 69 69 69 69 69 70 71 72 72 71 71 70 69 69 68 67 67 68 69 69 70 69 70 70 70 71 72 72 72 72 73 74 74 75 73 73 73
62 63 63 63 64 64 65 65 66 66 66 67 67 68 68 68 68 69 69 70 70 69 70 70 69 69 68 68 69 69 70 70 70 71 71 71 72 71 70 70 70 68 67 67 68 69 69 69 69 69 70 70 71 72 72 73 74 74 69 70 73 75 73
62 63 63 63 64 64 65 65 65 65 66 66 67 68 68 68 68 69 69 69 69 70 70 70 69 69 69 69 69 69 69 70 70 70 70 70 70 69 69 69 70 71 68 67 67 69 69 69 69 70 70 70 71 71 72 72 74 69 68 69 69 74 74
62 63 63 63 64 64 64 65 65 65 66 66 67 67 68 68 68 68 68 68 68 69 69 69 69 69 69 69 69 69 69 69 69 69 69 69 68 67 68 67 67 67 70 71 71 70 70 70 69 69 70 70 70 71 72 72 70 67 67 67 67 68 74
61 61 62 62 63 64 65 65 65 66 66 66 67 67 68 68 68 68 69 69 69 69 68 68 68 68 69 69 69 69 69 69 69 69 69 69 69 68 67 67 67 68 70 70 70 70 70 70 69 69 69 69 70 70 71 72 70 66 65 65 65 65 69
59 60 60 60 61 62 64 65 65 65 65 65 66 66 66 66 68 68 68 68 68 68 68 68 68 68 68 68 69 69 69 69 69 69 69 69 69 69 69 68 68 69 70 69 68 68 69 69 70 70 71 70 70 69 70 71 69 65 64 63 63 64 69
57 58 58 59 60 60 62 63 64 64 64 65 65 65 65 66 66 66 66 67 67 68 67 67 68 68 68 68 68 69 69 69 69 69 70 69 70 69 69 68 67 68 69 69 68 69 69 69 70 69 70 70 69 69 69 68 61 62 63 62 62 64 67
55 56 57 58 59 59 59 60 61 62 63 63 63 63 64 64 65 65 65 65 65 65 65 66 67 67 68 68 68 68 69 69 69 69 68 69 69 69 69 69 68 68 70 69 69 69 69 69 70 70 70 70 70 69 69 68 64 59 60 60 60 63 66
52 53 54 56 57 57 59 59 59 60 60 61 62 63 63 64 63 63 63 63 64 64 64 64 64 65 67 67 68 68 68 68 68 68 68 68 68 68 68 68 69 70 71 70 69 69 69 70 70 70 71 71 70 70 70 69 64 60 59 57 58 64 66
51 52 52 53 54 55 57 58 59 59 59 59 60 61 62 62 62 61 61 61 62 62 62 63 63 64 65 66 67 68 68 68 68 68 68 68 67 68 68 68 69 69 70 70 70 70 69 71 70 70 70 71 72 73 72 69 65 57 56 56 57 62 67
51 51 51 52 53 54 56 57 56 56 57 57 58 60 60 60 60 60 59 60 61 60 61 62 62 63 64 64 66 67 67 68 68 68 68 68 68 67 68 69 69 69 69 69 70 70 70 70 70 69 69 70 71 72 69 67 66 62 54 55 56 59 66
51 52 52 52 54 56 53 53 54 54 55 56 57 57 58 59 58 59 59 59 59 59 61 62 62 62 62 62 62 65 66 66 67 67 68 68 67 67 66 66 68 69 69 69 68 68 68 69 69 70 70 70 70 69 66 67 65 62 53 53 53 56 61
52 52 52 57 57 55 52 53 54 55 55 55 56 56 56 57 58 58 58 58 58 60 61 60 60 60 61 61 62 62 63 65 65 65 64 64 63 62 62 62 62 66 69 69 68 68 68 68 68 67 66 66 66 66 66 67 67 65 58 54 53 53 56
53 53 53 53 54 56 54 54 54 55 55 55 55 55 56 57 57 57 56 56 58 58 60 59 58 59 60 60 60 61 61 61 61 62 61 61 61 60 59 59 60 60 63 67 68 67 67 66 66 65 64 64 64 65 65 65 66 64 64 57 54 53 54
51 52 53 54 55 56 57 54 55 55 55 55 55 55 55 56 57 57 56 55 58 59 60 59 58 58 59 60 58 59 59 59 59 59 58 59 59 59 59 59 59 59 59 62 67 66 65 64 64 63 63 63 63 62 62 62 63 63 63 62 56 54 53
51 51 51 52 54 56 55 54 54 54 54 55 55 55 54 54 54 56 55 55 58 59 59 60 60 59 58 58 57 56 55 56 56 56 56 56 57 57 58 58 59 59 59 61 62 65 64 63 63 63 63 62 60 60 60 60 60 60 61 61 61 56 54
49 49 51 53 53 54 54 54 54 54 54 54 54 55 56 54 54 55 54 56 56 58 60 58 58 59 58 59 59 56 55 53 53 53 54 55 55 57 56 57 58 59 60 60 63 64 64 63 63 64 62 59 57 58 57 57 57 57 58 59 60 60 58
48 48 50 52 54 54 53 53 53 53 53 53 53 53 54 54 54 55 55 55 55 57 59 58 57 57 57 57 59 59 57 54 54 53 54 54 54 53 54 55 56 57 59 58 60 63 65 65 64 62 60 58 57 57 57 55 54 54 54 54 54 56 58
47 48 50 52 53 53 51 51 51 52 52 52 51 51 53 53 53 54 54 54 55 56 59 59 58 55 55 56 58 60 57 57 57 54 52 53 54 53 53 54 56 56 56 55 56 59 60 60 60 60 58 56 55 55 55 54 54 53 52 53 52 52 53
47 49 50 52 53 53 50 52 52 52 53 51 50 50 51 51 52 53 53 54 54 55 59 59 59 58 56 57 57 58 59 57 54 52 51 51 52 52 52 52 53 55 55 54 53 55 58 57 58 57 56 54 53 54 53 53 52 53 48 50 47 48 49
48 50 51 51 54 52 52 54 52 52 52 50 49 50 52 50 50 51 53 53 54 54 57 58 58 56 56 58 58 58 58 59 57 55 53 51 51 51 52 52 47 47 53 53 52 49 48 53 56 57 56 54 53 53 51 51 52 48 42 40 40 41 42
48 50 50 52 52 51 52 52 54 52 51 50 51 51 52 52 50 49 51 52 53 53 53 55 56 56 55 58 58 59 58 58 57 57 56 54 53 52 53 50 51 44 44 48 50 46 43 43 45 48 52 57 54 52 48 48 45 41 40 40 39 39 39
49 50 51 53 52 52 52 52 53 51 51 49 51 49 49 50 49 48 50 51 52 52 52 53 54 54 54 55 57 59 59 56 57 57 57 56 56 55 53 51 50 50 46 44 45 45 42 41 41 42 43 44 48 54 52 48 43 41 40 39 39 39 40

ECMWFFLT1_sfc_dewp_129.txt.gz
Dewpoint
63 63 61 60 58 57 58 61 62 63 65 65 64 64 64 65 67 69 69 70 71 72 72 73 73 73 74 73 74 74 73 73 73 72 72 71 71 71 71 70 70 73 71 70 71 72 73 74 74 74 74 75 75 76 77 78 77 75 76 78 77 77 76
62 63 62 59 57 57 58 61 63 63 64 64 64 66 65 65 67 68 69 71 71 71 72 72 73 73 73 73 73 75 74 73 74 74 72 73 74 73 71 72 72 73 74 72 73 74 74 73 74 74 74 75 74 76 75 77 77 77 75 76 76 77 76
63 64 63 61 58 56 58 59 62 63 64 63 64 65 65 67 68 68 69 70 71 71 71 71 73 72 73 74 74 74 74 73 73 72 72 71 71 69 71 72 73 71 71 72 74 72 73 73 75 75 74 73 71 75 77 77 77 76 76 77 76 75 77
63 64 66 65 61 59 58 59 61 62 63 63 64 64 65 68 67 69 69 69 70 70 71 70 71 71 72 73 73 74 73 74 73 71 70 70 71 71 72 73 73 72 72 72 71 72 70 73 74 75 76 75 75 74 75 75 74 75 75 77 76 76 77
63 65 66 66 64 60 57 59 61 63 63 65 67 67 66 67 67 67 68 68 67 69 69 69 68 70 71 72 71 71 72 72 72 72 71 71 73 73 72 70 71 71 72 71 72 74 75 75 72 74 74 76 74 75 76 76 75 76 76 77 76 75 75
61 64 66 66 65 64 61 61 62 63 64 66 67 67 66 67 66 66 67 68 68 69 70 69 69 70 71 70 71 70 72 73 74 74 72 73 73 72 71 71 70 71 70 72 72 72 73 73 73 73 72 71 71 71 73 73 73 73 75 76 76 74 73
63 63 66 67 67 66 64 64 61 63 65 67 68 67 67 67 68 68 69 69 69 71 71 70 69 69 71 71 71 72 72 71 72 72 72 72 72 72 72 72 72 71 71 72 72 73 72 73 74 74 73 71 72 71 73 75 74 74 75 77 77 76 76
65 65 65 66 68 68 67 68 64 63 65 66 67 66 67 68 70 70 71 70 70 71 71 71 69 71 72 71 71 71 71 70 71 72 72 71 71 72 71 71 72 72 73 72 73 73 73 73 72 73 73 72 73 74 73 75 77 74 74 75 76 75 73
65 66 65 68 69 68 69 69 67 66 65 65 67 67 68 69 70 70 70 71 71 71 71 70 69 71 72 72 71 71 70 70 71 71 71 70 70 70 69 70 71 72 72 71 71 73 73 72 72 74 74 74 74 75 74 76 75 74 75 75 75 75 73
66 66 66 68 69 69 68 69 69 69 69 69 69 68 68 69 71 71 71 71 71 71 71 71 71 71 72 73 72 71 70 71 71 70 70 69 70 70 70 69 70 72 72 71 70 71 73 73 73 74 76 74 75 75 75 75 75 74 74 75 75 75 76
65 65 66 66 67 68 68 67 68 68 69 70 69 70 70 70 71 72 72 72 71 72 72 72 73 73 72 73 72 72 71 70 70 70 70 69 69 69 69 69 70 71 72 71 71 71 71 74 74 75 75 72 73 74 75 74 75 75 74 74 75 75 74
64 65 65 66 66 66 67 67 67 67 68 70 70 70 70 71 72 72 73 73 73 73 74 73 73 73 71 72 72 73 73 71 70 70 70 70 69 69 69 69 70 70 71 71 71 72 71 72 73 72 74 74 73 74 75 75 75 75 75 74 74 75 74
64 64 64 65 65 66 67 67 67 67 68 69 70 71 71 71 72 72 73 73 73 74 73 74 74 74 74 73 73 72 72 72 72 71 70 71 70 70 70 70 70 70 70 71 71 71 71 70 72 73 73 74 74 73 74 75 75 76 76 75 75 75 74
64 64 64 65 65 65 66 66 67 68 68 68 69 69 70 71 72 72 73 73 74 74 74 74 74 74 72 73 74 73 72 72 71 71 72 72 73 72 71 70 70 70 70 71 72 71 70 70 70 72 72 73 73 74 75 75 75 76 76 75 74 74 74
63 63 64 64 64 65 65 66 66 67 68 69 69 69 70 70 70 71 72 73 74 74 74 75 74 74 74 74 74 74 74 74 73 74 74 74 74 74 73 71 71 71 72 72 71 69 70 70 70 70 71 72 73 73 73 72 73 73 74 75 75 74 73
62 62 63 64 64 65 65 66 66 67 67 68 68 69 69 69 70 70 71 72 73 74 75 75 74 74 74 74 74 75 75 74 74 74 75 74 75 75 74 72 72 70 71 71 71 72 72 72 71 70 71 71 72 73 72 72 73 75 74 74 74 74 73
61 61 62 63 63 63 64 64 64 65 65 65 66 67 68 69 70 70 70 71 72 72 73 73 73 74 74 74 75 75 75 74 75 75 75 75 75 75 74 73 72 72 72 72 72 72 74 73 71 70 70 70 71 71 72 73 75 73 69 69 71 74 74
60 61 61 62 62 62 62 62 63 63 63 64 65 65 66 67 68 70 70 70 71 72 72 72 72 72 73 73 73 73 72 72 73 73 74 74 74 74 75 74 74 73 73 72 71 74 73 72 72 73 71 70 71 71 71 72 74 68 67 68 67 71 73
60 60 61 61 61 61 61 62 62 62 63 63 63 64 65 66 67 69 70 70 71 72 72 72 72 72 72 73 73 72 71 72 72 73 73 72 72 73 74 75 75 74 73 72 72 73 72 73 72 73 72 72 72 71 72 71 70 67 67 66 66 67 72
59 60 60 60 60 60 61 61 62 62 62 63 64 64 65 65 67 68 70 71 71 71 71 71 71 72 72 72 72 71 71 71 71 71 71 71 69 69 70 72 73 73 74 74 75 74 73 71 72 72 73 73 72 73 72 71 71 66 65 65 66 66 69
58 59 59 59 59 59 60 60 61 61 61 61 62 63 63 64 66 67 67 68 68 69 69 70 70 71 71 71 70 70 71 71 70 69 69 70 70 70 69 70 69 69 70 72 74 74 74 73 72 72 72 71 71 71 70 69 67 66 65 64 64 66 70
56 57 57 57 58 58 59 59 59 59 60 61 61 61 62 63 64 65 65 65 66 67 68 69 69 69 69 70 70 70 69 69 69 69 69 69 69 69 69 69 69 70 71 71 70 71 72 73 73 74 73 74 73 71 71 70 62 63 65 65 64 66 71
54 55 56 57 56 56 58 58 57 58 58 59 59 60 61 62 63 63 63 63 63 64 65 66 67 68 68 68 68 69 69 69 70 69 69 69 68 68 69 69 70 71 71 69 70 70 71 70 71 72 72 72 73 72 72 71 65 60 59 60 62 66 72
55 55 55 55 56 56 57 58 57 57 57 57 58 59 60 61 62 61 62 62 63 63 63 64 64 66 68 68 69 69 69 69 69 69 69 68 68 68 69 70 70 69 70 68 69 68 69 70 71 71 71 71 71 71 73 72 66 59 58 59 61 67 71
55 55 55 55 55 55 55 57 58 57 57 58 58 58 58 60 61 60 61 61 62 63 62 63 64 65 65 66 67 68 69 69 69 68 68 68 68 69 69 69 69 70 70 70 70 69 70 70 69 70 71 71 71 71 71 71 66 57 57 58 59 67 72
56 56 56 55 55 55 57 57 55 54 54 55 56 57 58 57 58 60 60 61 61 61 62 62 63 64 65 65 66 66 66 66 66 67 67 67 67 67 67 68 69 69 70 70 70 70 71 71 71 70 71 72 72 71 71 72 71 62 56 56 58 61 71
55 56 56 55 56 57 54 54 53 52 52 55 56 55 56 56 58 59 60 60 60 60 61 62 63 63 63 63 63 63 63 63 63 63 62 63 63 64 64 64 64 67 69 69 70 70 70 70 71 71 70 70 70 71 70 70 66 59 53 53 56 60 66
54 55 55 57 58 56 54 52 52 52 51 53 53 54 54 56 58 59 59 59 59 60 60 61 62 63 62 63 63 62 62 62 63 63 63 63 62 62 62 62 63 64 66 68 69 69 69 69 70 69 67 67 67 67 67 66 65 63 55 53 52 53 56
58 57 57 56 55 54 52 52 50 49 50 51 53 54 54 55 58 58 58 59 60 59 60 59 59 60 60 60 60 61 61 61 60 61 61 62 62 62 62 63 63 63 64 65 67 68 68 68 68 66 65 64 63 63 63 64 65 62 61 55 52 52 53
57 58 57 56 56 55 52 52 50 48 49 52 54 55 55 57 57 58 58 60 61 61 61 60 60 60 58 58 58 57 58 59 59 60 60 60 61 61 61 62 63 64 64 66 67 67 66 66 66 65 63 61 60 61 61 61 61 61 61 60 54 53 52
55 55 56 57 57 58 57 55 53 50 50 51 53 55 56 56 56 57 58 60 62 62 62 62 61 60 58 58 57 57 56 56 56 57 57 58 59 60 60 61 62 62 63 65 66 65 64 64 65 64 63 61 60 60 60 61 61 61 60 59 59 56 54
56 56 54 54 56 56 57 56 54 52 50 52 52 53 56 55 55 57 58 59 60 61 62 62 61 61 60 58 58 57 55 53 53 55 56 56 57 58 59 59 60 60 61 62 64 64 63 63 62 61 60 60 60 60 60 60 60 60 60 59 58 59 56
54 54 54 53 56 56 54 52 52 53 53 54 54 53 51 52 52 55 57 58 57 59 62 61 60 60 59 57 54 56 57 56 54 54 55 55 55 56 57 59 58 58 58 58 59 62 63 61 61 61 61 60 60 60 59 57 58 56 56 57 56 56 58
53 53 55 57 57 57 56 54 53 53 53 53 54 55 54 52 52 53 56 56 57 61 62 61 59 57 58 56 56 55 54 55 58 56 54 54 54 53 54 55 56 56 56 56 56 58 58 59 58 58 58 58 57 57 57 57 57 55 52 53 52 52 53
53 55 56 56 57 57 56 56 54 55 54 53 54 53 54 54 53 55 56 57 58 61 62 62 62 61 59 58 58 58 58 56 56 55 54 53 53 52 53 53 53 55 55 54 54 55 57 58 58 58 58 56 56 56 54 55 54 54 47 49 45 48 49
54 55 56 57 59 57 58 58 58 56 54 53 53 53 53 54 54 55 54 56 58 59 59 60 62 61 60 59 57 56 55 54 53 55 55 52 52 51 51 51 46 50 55 54 52 48 45 47 54 54 57 58 57 55 53 52 52 46 42 41 41 43 43
55 55 55 57 57 58 57 58 58 58 56 54 55 53 54 53 53 55 55 56 57 58 59 59 58 58 58 60 59 60 58 56 54 56 58 56 54 54 53 50 53 43 45 50 50 46 41 41 42 44 46 54 58 54 49 47 44 40 41 41 42 42 42
55 55 56 58 58 58 58 58 58 58 58 57 55 54 55 53 53 55 53 55 55 57 58 58 58 57 57 56 57 60 59 57 60 58 57 58 58 58 56 54 53 53 45 43 46 45 42 41 41 41 42 43 47 55 56 49 43 41 41 42 43 42 42

ECMWFFLT1_sfc_dewp_132.txt.gz
Dewpoint
62 63 61 59 59 57 57 58 60 60 62 63 64 63 63 64 66 67 67 70 72 73 74 75 74 73 73 72 73 73 73 72 71 70 70 68 68 69 68 66 66 68 65 64 67 67 69 70 69 68 69 70 71 72 73 75 76 73 75 77 76 75 76
62 63 62 60 59 58 58 60 61 61 63 64 64 66 63 64 66 67 69 71 71 72 73 73 74 73 73 73 72 73 74 73 72 72 70 70 70 71 69 68 67 68 69 67 67 69 70 70 71 70 70 71 71 72 72 74 75 76 74 76 75 76 76
62 64 63 61 60 58 59 58 61 61 63 63 63 63 63 66 67 69 69 69 71 71 71 72 74 72 72 73 73 73 73 72 72 71 70 68 69 68 69 70 68 66 66 67 69 67 69 70 72 71 71 70 68 70 72 73 75 74 75 75 75 74 76
63 64 67 68 63 62 61 60 61 62 61 62 63 62 63 67 67 69 69 69 70 69 70 69 71 70 70 72 72 73 73 73 72 70 68 68 68 68 69 70 70 68 66 67 66 68 66 70 69 72 72 71 71 70 71 72 72 74 74 75 74 74 76
64 64 68 67 62 61 60 61 61 63 63 64 66 66 64 65 66 67 68 68 66 67 67 67 67 68 70 70 70 70 72 72 72 71 70 69 70 70 69 68 68 68 68 68 69 70 71 71 69 71 72 73 71 70 71 72 72 74 75 75 75 74 73
62 64 65 68 67 64 62 62 63 62 63 64 66 66 64 65 65 64 67 67 66 67 68 67 66 67 68 68 68 68 71 72 73 72 70 70 70 69 69 69 68 69 68 69 69 69 70 71 70 69 69 69 68 67 68 70 71 71 73 74 74 72 70
64 64 65 68 69 70 67 65 62 62 63 65 66 66 66 65 67 67 68 68 69 70 70 68 66 66 68 68 69 69 69 69 71 70 70 69 69 70 70 70 70 69 69 71 70 70 69 70 71 70 70 69 70 67 69 73 73 72 73 74 75 74 74
64 65 65 67 69 70 69 67 64 63 64 64 66 66 67 66 68 69 69 69 70 71 71 71 67 68 70 70 68 68 68 69 68 70 70 68 67 69 68 68 70 71 71 69 71 71 69 71 69 70 69 69 69 70 69 73 75 72 72 74 74 74 71
65 66 66 65 68 69 69 70 67 64 65 66 68 67 68 68 69 69 70 71 70 71 72 70 68 68 70 71 70 69 68 68 69 69 69 68 66 65 65 66 68 70 70 68 68 70 70 70 70 71 71 70 70 72 71 73 73 73 72 73 74 74 73
66 65 66 66 68 69 70 69 70 69 66 67 67 67 68 70 70 71 71 72 71 71 72 71 71 70 72 73 72 69 68 68 68 67 67 67 66 65 64 64 65 68 68 68 68 68 71 70 71 72 74 71 72 72 73 72 72 72 72 73 74 74 74
65 66 66 66 67 67 68 68 66 67 70 69 68 69 69 70 71 71 71 72 72 72 72 72 72 72 72 72 72 71 69 67 67 68 68 67 66 65 64 64 64 66 68 68 67 68 69 71 72 72 74 71 71 72 72 72 72 72 71 71 72 73 72
65 65 66 66 66 66 67 67 67 68 70 71 70 68 68 69 70 71 72 72 73 72 73 73 73 72 71 72 72 73 72 69 67 68 68 68 67 66 65 65 65 65 66 67 67 68 68 70 71 70 73 73 71 71 72 73 72 73 73 71 71 72 72
64 65 65 66 66 67 67 68 68 68 68 68 70 71 71 72 72 71 71 72 73 73 72 73 74 74 73 73 72 72 72 70 70 68 68 69 69 67 67 66 66 65 64 66 67 66 67 68 70 71 71 72 71 69 71 73 72 74 75 74 73 73 73
64 65 65 66 66 66 67 67 68 67 68 68 69 69 69 69 70 70 70 71 72 73 73 73 74 74 74 74 73 72 71 69 69 69 70 71 72 72 70 67 67 67 67 67 67 65 65 67 67 69 70 70 71 70 71 72 73 75 76 75 73 72 72
64 64 65 64 64 64 64 65 66 67 68 68 69 69 69 68 69 70 71 70 72 71 71 72 74 74 74 74 74 73 73 73 74 74 73 74 74 74 74 73 71 69 69 70 68 65 66 66 67 68 69 70 70 71 70 69 71 72 73 74 74 74 72
62 63 62 63 63 63 63 64 64 65 66 66 66 67 68 69 69 69 70 70 71 71 72 73 72 73 74 72 72 73 74 75 75 75 74 75 75 75 75 75 74 71 69 69 69 69 69 69 69 68 69 69 70 71 70 69 71 74 76 76 74 73 71
61 61 61 61 62 62 62 63 63 64 64 65 66 66 66 67 69 70 71 71 71 72 72 72 73 72 74 74 72 73 75 76 75 75 74 75 75 75 75 75 74 74 73 71 70 70 71 69 68 68 68 68 69 70 70 70 72 76 69 70 72 73 72
60 60 60 61 61 61 61 61 62 63 63 64 64 65 66 66 68 69 70 71 71 71 71 71 72 72 73 75 75 75 75 76 76 75 75 75 75 76 75 73 73 74 73 73 71 73 70 69 70 71 68 67 68 68 68 69 74 69 68 69 69 73 73
59 59 59 59 59 60 60 61 61 63 63 64 64 64 65 67 67 68 69 70 71 72 72 71 71 71 72 73 75 75 75 76 76 76 76 76 75 75 75 74 74 73 73 73 73 71 73 72 72 71 69 68 69 68 68 67 71 67 67 67 67 68 73
58 58 58 59 59 59 60 61 61 62 62 63 63 64 65 66 67 67 69 70 71 71 71 71 72 73 73 73 74 74 75 76 75 75 75 75 74 74 74 74 73 74 74 74 73 73 73 74 72 70 72 72 71 71 70 70 71 66 66 66 66 66 70
57 57 57 58 59 58 59 60 61 61 61 61 62 63 64 65 65 66 67 67 68 69 70 70 70 71 72 72 73 74 73 74 74 73 74 74 74 73 73 72 72 74 73 74 73 73 72 73 71 72 72 71 70 72 71 70 63 64 65 65 65 66 69
56 56 56 56 57 58 58 58 60 60 60 61 61 62 63 64 66 66 66 67 67 67 68 68 68 69 70 70 71 71 73 74 73 72 73 73 73 72 72 72 72 71 73 72 71 71 70 71 72 72 72 72 72 73 72 71 62 61 62 63 64 67 71
54 54 55 56 54 54 56 57 58 59 59 60 60 61 62 64 65 66 66 66 66 66 66 66 66 67 67 67 68 70 71 72 72 72 73 72 71 71 72 71 71 72 72 71 71 72 72 71 72 72 73 72 72 72 72 71 64 59 59 60 61 66 72
55 54 53 54 55 53 55 56 55 57 57 57 57 58 61 63 64 64 64 65 66 65 65 65 65 66 66 66 66 67 68 70 70 70 70 70 70 70 71 71 71 71 71 71 70 69 69 70 71 72 72 72 71 71 72 72 67 60 59 59 61 67 72
54 52 52 53 53 52 51 55 55 56 57 57 57 58 58 61 62 61 62 63 64 64 64 64 64 65 65 66 66 65 65 66 66 66 66 67 68 69 70 70 70 70 70 70 70 69 70 71 71 72 71 71 72 71 72 72 67 57 57 58 60 68 72
55 52 51 51 51 52 54 55 53 51 52 53 54 56 57 56 58 61 60 60 62 62 63 64 65 65 65 65 65 66 65 64 64 64 64 64 65 65 65 67 70 70 70 70 70 70 71 71 72 72 72 71 73 72 73 73 70 61 54 55 57 60 70
51 51 51 50 52 53 49 50 49 49 51 54 55 52 54 55 57 59 61 60 60 60 61 63 64 64 64 65 65 65 65 65 65 64 64 65 65 65 66 66 66 68 69 69 69 70 70 70 71 71 71 71 71 71 70 69 68 62 53 53 54 57 62
50 48 48 52 53 51 46 43 45 47 49 53 54 53 53 56 57 58 59 58 57 57 58 59 61 61 61 62 62 63 63 64 65 65 64 65 65 65 66 66 67 67 68 69 69 69 69 69 70 69 67 67 67 67 67 66 65 66 56 54 53 53 56
53 53 52 51 49 46 43 42 41 42 46 49 53 55 55 55 58 58 59 59 59 57 58 58 59 59 58 59 59 61 61 62 64 64 63 63 64 64 66 66 67 68 68 69 68 68 68 68 67 65 64 63 63 64 65 65 64 61 63 56 53 52 53
54 55 54 51 51 48 44 44 41 40 43 46 51 55 57 57 58 58 59 61 61 60 60 60 59 59 58 58 57 57 59 60 62 64 64 63 64 65 65 66 67 67 68 68 67 66 66 65 65 64 63 61 61 62 62 62 63 61 59 60 56 54 52
51 50 51 53 53 54 52 48 46 44 45 46 49 53 56 56 58 59 59 60 61 61 60 59 58 57 56 57 56 55 56 59 61 63 63 62 64 64 64 64 64 64 65 65 65 64 63 63 63 62 62 60 60 61 62 62 62 62 61 59 59 57 55
51 50 48 48 52 52 52 51 49 46 46 48 47 49 53 53 55 58 59 59 58 59 59 59 59 59 57 56 55 54 52 53 54 57 60 61 62 63 62 62 62 62 63 64 63 64 63 62 62 61 61 61 61 60 61 60 59 60 60 60 59 59 57
52 52 51 52 54 53 52 51 51 52 52 52 50 47 46 50 50 56 58 58 56 57 60 59 59 59 57 56 54 55 55 53 51 50 54 57 59 60 61 61 63 61 62 62 61 61 62 61 61 61 61 61 61 60 61 60 61 59 58 59 57 56 57
53 54 56 58 58 57 56 54 54 53 53 54 53 52 49 48 51 54 56 56 58 59 60 60 59 56 57 55 55 55 54 54 56 53 50 52 54 54 55 56 56 56 58 59 60 60 60 60 59 59 58 58 59 60 60 61 61 56 53 54 54 54 54
55 57 58 58 58 59 58 58 56 55 55 55 56 55 54 52 51 54 57 58 59 60 60 60 60 60 59 57 57 57 57 55 55 52 51 51 53 53 55 54 54 55 54 55 55 57 59 58 58 58 57 57 57 57 55 55 53 54 49 53 48 50 51
55 56 57 58 58 58 58 59 58 57 56 56 56 57 56 56 55 54 53 58 60 60 60 60 59 58 56 56 55 55 54 55 53 55 53 50 50 51 52 52 47 51 57 55 52 47 43 45 57 58 59 59 58 56 54 52 54 47 43 41 41 42 43
54 55 57 57 56 57 57 58 58 59 58 58 57 56 57 57 57 56 54 55 57 58 59 59 58 56 55 56 54 54 55 53 54 56 57 56 54 53 53 51 54 43 44 50 49 45 41 40 41 44 46 57 58 55 49 49 46 41 41 41 41 41 42
54 55 56 57 56 57 57 57 58 57 57 58 58 58 58 56 57 58 55 57 55 55 56 57 57 56 54 54 55 56 56 53 56 57 56 57 58 58 56 55 55 56 44 42 46 44 42 41 41 41 42 44 48 58 58 51 46 42 41 41 41 42 42

ECMWFFLT1_sfc_dewp_135.txt.gz
Dewpoint
65 68 67 66 61 57 55 55 57 58 59 60 61 60 60 62 64 66 67 71 72 74 73 73 72 72 72 71 72 72 71 71 70 68 69 67 66 67 66 64 64 66 63 62 65 64 67 68 66 65 67 68 69 71 73 74 75 72 74 75 75 74 76
64 66 68 62 61 59 56 57 59 59 60 61 61 63 61 61 64 64 66 70 72 73 73 73 73 72 72 72 72 73 73 71 71 70 68 68 68 68 65 66 65 66 68 65 64 66 67 66 67 67 66 68 69 71 70 73 74 75 73 75 73 73 74
63 65 67 67 64 65 63 56 58 59 59 59 59 60 61 63 63 66 66 68 71 72 73 72 73 71 71 72 72 72 72 71 71 68 67 65 66 64 66 68 66 64 64 65 66 63 66 68 70 70 68 68 66 70 71 72 73 73 74 75 75 73 75
62 65 68 69 68 67 68 62 57 58 58 59 60 59 60 63 63 65 64 65 69 71 72 71 71 69 70 71 71 72 72 72 72 68 67 65 64 64 66 66 68 66 64 64 63 64 63 66 67 70 71 70 69 68 69 70 69 72 73 74 73 73 75
65 65 66 67 67 67 66 65 65 60 60 61 63 64 61 61 62 62 63 63 65 68 68 69 70 69 69 70 69 68 70 70 71 70 69 67 67 66 65 64 65 65 64 63 65 66 68 68 66 69 70 71 69 70 70 70 70 71 73 73 73 72 71
65 65 66 66 66 69 69 69 69 68 63 62 69 69 63 60 59 59 62 62 63 67 66 65 67 69 68 68 68 68 69 71 72 72 70 69 69 67 65 64 64 65 63 63 63 64 65 66 66 67 68 68 67 66 66 68 68 69 71 73 73 71 68
64 65 65 66 66 67 70 69 66 66 64 66 69 67 70 63 62 63 65 63 65 68 66 63 64 68 68 67 68 69 69 69 70 69 69 69 68 68 68 67 67 65 65 65 65 65 64 66 68 68 67 66 68 66 68 69 69 69 70 72 73 72 72
65 66 66 67 68 67 69 71 69 67 66 63 64 65 66 66 67 67 70 68 67 68 66 65 62 67 69 67 66 68 67 69 71 70 69 67 67 68 67 67 68 69 68 66 67 67 65 67 67 67 66 66 66 68 66 69 71 68 70 72 72 73 69
67 67 66 66 67 68 69 70 70 70 68 68 67 68 70 70 69 69 68 68 69 69 69 66 63 63 67 66 68 68 67 67 68 68 68 66 65 64 64 66 67 69 68 67 67 69 68 67 67 69 68 67 67 69 68 70 68 69 70 71 72 73 71
67 66 68 68 69 68 68 69 69 69 70 69 68 67 66 67 71 73 73 70 70 70 70 69 67 64 68 70 68 66 65 66 67 69 67 66 65 63 63 63 65 67 67 66 66 66 69 69 68 69 71 68 69 68 69 68 68 68 70 70 70 71 73
66 67 67 67 68 68 67 68 68 67 69 71 69 68 68 70 70 72 73 72 71 72 71 72 72 71 68 67 68 68 67 64 64 66 66 66 65 64 63 62 62 64 66 66 66 66 66 69 70 70 70 67 68 69 70 69 69 70 69 69 70 70 71
66 66 67 68 67 68 68 68 68 68 69 70 72 71 69 69 71 71 72 73 74 73 74 74 74 73 69 69 70 71 69 66 64 64 65 66 65 65 64 63 62 62 63 65 67 67 66 66 68 68 70 70 69 69 70 70 71 70 70 69 69 70 71
65 65 67 67 67 67 68 68 67 67 67 68 70 70 71 71 72 73 72 72 73 75 74 73 73 73 74 74 71 72 70 67 66 64 64 65 66 65 65 64 63 62 62 64 66 66 65 65 67 69 69 70 71 68 70 70 70 72 71 71 71 70 70
63 64 65 64 65 65 66 66 66 67 68 68 69 69 70 70 71 71 71 72 72 73 75 74 73 73 74 73 73 73 72 70 69 64 67 67 70 68 66 65 65 65 65 65 65 65 65 64 64 66 71 70 70 71 70 70 70 72 72 72 71 70 69
61 61 62 62 63 64 64 65 66 66 67 67 68 69 69 69 70 70 71 72 72 72 73 75 74 74 73 73 73 73 73 74 74 72 70 70 71 72 70 68 68 73 71 70 70 68 69 66 63 65 66 69 72 70 71 68 68 69 71 72 71 71 70
60 60 61 61 62 63 63 64 64 65 66 66 67 67 68 69 69 70 70 70 70 70 72 72 74 74 74 73 73 73 73 73 73 73 75 72 73 75 75 72 71 72 74 74 74 74 73 72 71 67 65 66 68 69 68 69 68 72 73 74 72 72 69
60 60 60 61 62 62 63 63 64 65 65 66 66 66 67 68 69 70 70 70 70 69 69 72 72 73 74 73 73 73 73 73 72 72 73 76 75 76 76 74 72 75 77 77 76 74 74 73 70 70 67 64 66 67 67 69 72 73 69 70 73 73 72
59 59 59 61 62 62 62 63 63 64 64 65 65 66 66 67 68 69 71 71 72 71 74 73 72 72 73 73 73 72 73 73 72 73 73 73 75 75 75 75 75 76 76 74 72 75 73 72 72 72 71 68 68 67 67 68 72 67 67 68 69 73 72
58 57 58 59 60 61 61 62 62 63 63 64 65 65 66 67 68 69 70 71 72 71 72 72 73 72 71 72 72 72 73 72 71 70 71 72 73 76 74 75 76 75 76 75 74 73 75 75 73 73 71 70 71 71 72 71 68 66 67 68 67 67 71
58 58 58 60 61 61 62 62 62 63 64 64 65 65 66 67 67 68 69 70 70 71 71 71 71 71 71 71 70 71 71 72 71 70 70 72 71 73 75 76 76 76 76 75 76 75 75 74 74 75 74 74 73 73 73 71 69 66 66 66 66 67 70
60 59 60 59 60 61 61 61 62 62 63 64 65 65 66 67 67 68 68 69 69 69 70 70 69 69 69 69 70 71 72 72 70 70 71 71 72 71 72 74 76 75 75 75 76 75 75 75 74 73 73 72 72 72 71 71 64 64 65 65 65 67 70
59 60 59 59 58 61 63 60 60 61 62 64 64 65 66 66 67 67 67 68 68 68 68 68 67 67 68 67 68 69 70 71 71 70 69 70 71 73 72 72 74 75 76 74 74 73 73 73 73 73 72 72 72 70 71 71 61 63 63 64 64 67 71
59 56 53 51 51 53 57 59 59 60 60 62 64 64 65 65 66 67 67 66 66 67 66 67 66 66 66 67 67 67 68 70 70 71 70 70 70 71 72 73 73 75 77 75 73 73 72 72 72 73 73 74 73 72 72 71 63 60 60 60 62 65 71
55 54 50 49 51 53 56 57 57 58 57 58 60 62 63 64 64 65 65 65 65 65 65 65 65 65 65 65 66 66 67 67 67 67 67 67 67 68 70 71 72 71 74 74 73 72 72 72 73 73 73 72 73 73 73 70 62 58 57 58 59 66 72
51 49 47 46 48 51 52 53 56 58 58 58 58 60 62 62 63 61 62 63 63 63 63 63 64 64 64 64 65 66 67 67 67 66 66 66 66 67 67 69 70 72 72 73 73 73 72 72 72 73 73 72 72 71 71 69 64 55 56 57 58 66 71
51 48 47 45 46 49 52 54 53 54 53 54 56 57 58 57 58 59 58 58 59 60 60 61 62 63 63 63 63 64 65 65 65 66 66 66 66 67 68 68 68 69 70 70 70 71 71 72 72 71 71 72 72 71 70 67 64 59 55 55 56 58 68
49 48 48 45 45 49 45 47 50 50 52 54 55 55 55 56 57 57 57 57 57 57 58 59 60 61 61 61 61 62 64 64 64 64 65 65 67 67 68 69 69 70 70 69 69 70 70 70 70 69 69 69 69 67 68 66 63 60 54 53 54 55 60
44 44 46 49 48 45 42 42 47 49 51 53 53 52 54 57 59 59 58 56 56 57 57 57 59 59 59 59 61 62 64 64 64 64 64 64 66 66 67 69 69 69 70 70 70 69 68 69 67 65 65 65 66 66 65 65 64 63 56 54 53 53 55
53 50 47 46 45 42 39 41 42 43 47 50 53 54 55 57 59 59 59 58 58 57 58 58 58 57 56 58 59 62 63 64 63 63 63 63 65 65 66 67 67 68 68 68 68 68 67 66 65 64 63 63 63 63 63 63 62 60 61 57 54 53 54
53 52 52 49 46 42 41 42 41 41 44 48 53 55 57 59 59 59 58 59 60 59 58 59 58 59 57 56 56 57 59 61 63 62 62 64 65 65 65 65 65 66 66 66 66 65 65 65 64 64 62 61 61 61 62 62 63 60 59 59 56 54 53
49 50 51 52 51 51 49 45 46 44 43 44 50 54 56 58 59 59 58 58 60 60 59 59 57 56 55 55 53 54 53 56 59 61 62 62 63 64 64 64 63 64 65 64 64 63 63 63 62 62 61 61 60 60 60 61 61 60 59 59 59 56 54
47 48 48 49 51 51 51 51 50 48 46 45 45 50 54 54 57 59 60 58 59 60 59 59 58 58 57 54 53 52 50 50 50 54 57 60 61 62 62 63 63 63 63 63 63 63 63 62 62 61 61 61 61 60 59 59 59 58 59 60 60 60 58
50 51 52 52 53 53 52 52 53 54 53 51 49 47 48 52 52 57 60 60 56 58 61 60 59 58 58 57 53 53 53 51 47 47 50 54 55 56 57 57 59 60 61 61 60 61 60 60 61 60 60 60 60 61 61 60 60 60 60 60 60 61 59
53 54 55 56 56 55 55 55 56 56 56 55 53 51 50 50 52 55 58 58 59 59 60 60 59 56 56 53 54 54 53 52 53 51 48 50 52 53 54 54 54 52 53 55 57 60 60 58 57 56 56 55 57 59 59 59 61 58 57 58 57 56 56
56 56 57 56 57 57 57 57 57 58 58 58 58 56 54 52 51 54 57 59 60 62 61 60 59 58 57 56 57 56 56 54 55 52 50 50 53 54 56 55 55 57 54 55 53 52 53 59 58 59 57 53 56 56 56 57 56 56 48 53 48 51 52
56 56 55 56 57 57 58 58 58 58 58 58 59 59 58 57 56 55 53 56 58 59 60 60 59 55 52 51 51 53 52 52 49 54 54 49 50 52 54 52 47 51 56 56 52 48 44 45 54 54 58 58 57 57 56 55 56 47 44 42 42 42 43
56 56 55 55 55 56 56 58 59 59 59 58 59 58 58 58 58 58 57 57 57 56 59 59 57 54 51 53 51 51 52 49 52 54 55 57 54 54 54 52 56 42 44 50 51 47 41 41 42 45 47 55 57 57 51 51 47 43 42 41 41 41 41
55 56 56 56 56 56 57 56 56 57 58 58 57 58 58 56 57 59 57 58 57 57 58 58 56 55 51 51 52 55 55 52 54 55 55 55 57 57 57 56 56 57 45 42 46 45 42 41 41 41 43 44 47 55 58 54 48 42 41 41 41 41 41